<?xml version='1.0' encoding='UTF-8'?><gpx version="1.1" creator="JPX - https://github.com/jenetics/jpx" xmlns="http://www.topografix.com/GPX/1/1"><trk><trkseg><trkpt lat="45.95050692459929" lon="10.272963703871028"><ele>317.0</ele><time>2026-03-28T13:00:18.006Z</time></trkpt><trkpt lat="45.95047589971642" lon="10.27287901865214"><ele>317.0</ele><time>2026-03-28T13:00:19.005Z</time></trkpt><trkpt lat="45.950386925750074" lon="10.272702357757504"><ele>317.0</ele><time>2026-03-28T13:00:21.005Z</time></trkpt><trkpt lat="45.95027000837741" lon="10.272549520160661"><ele>317.0</ele><time>2026-03-28T13:00:22.004Z</time></trkpt><trkpt lat="45.950197049027516" lon="10.272387559954787"><ele>319.0</ele><time>2026-03-28T13:00:23.004Z</time></trkpt><trkpt lat="45.950211744081834" lon="10.27225129147411"><ele>321.0</ele><time>2026-03-28T13:00:24.004Z</time></trkpt><trkpt lat="45.950255066456975" lon="10.272120678134431"><ele>323.0</ele><time>2026-03-28T13:00:25.003Z</time></trkpt><trkpt lat="45.950302982808594" lon="10.271994074040649"><ele>325.0</ele><time>2026-03-28T13:00:26.003Z</time></trkpt><trkpt lat="45.950428086346434" lon="10.271784758021642"><ele>325.0</ele><time>2026-03-28T13:00:27.003Z</time></trkpt><trkpt lat="45.95066330129028" lon="10.271810675590169"><ele>325.0</ele><time>2026-03-28T13:00:28.003Z</time></trkpt><trkpt lat="45.95081776656754" lon="10.271651144160321"><ele>325.0</ele><time>2026-03-28T13:00:29.002Z</time></trkpt><trkpt lat="45.95092351017104" lon="10.27152592470687"><ele>326.66666666666663</ele><time>2026-03-28T13:00:30.002Z</time></trkpt><trkpt lat="45.95099771240275" lon="10.271429578054295"><ele>328.3333333333333</ele><time>2026-03-28T13:00:31.002Z</time></trkpt><trkpt lat="45.951033636623244" lon="10.271289948989898"><ele>330.0</ele><time>2026-03-28T13:00:32.002Z</time></trkpt><trkpt lat="45.95109616330708" lon="10.271249449846911"><ele>331.6666666666667</ele><time>2026-03-28T13:00:33.002Z</time></trkpt><trkpt lat="45.951129327139896" lon="10.271150838103674"><ele>333.33333333333337</ele><time>2026-03-28T13:00:35.001Z</time></trkpt><trkpt lat="45.951181392558595" lon="10.271091864010227"><ele>335.0</ele><time>2026-03-28T13:00:41Z</time></trkpt><trkpt lat="45.951057251814845" lon="10.27104621446317"><ele>335.0</ele><time>2026-03-28T13:00:45Z</time></trkpt><trkpt lat="45.95109078185144" lon="10.27089882807841"><ele>335.0</ele><time>2026-03-28T13:00:53Z</time></trkpt><trkpt lat="45.95111247346442" lon="10.270748462513424"><ele>335.0</ele><time>2026-03-28T13:00:55Z</time></trkpt><trkpt lat="45.95114493933553" lon="10.270665732316033"><ele>335.0</ele><time>2026-03-28T13:00:55.999Z</time></trkpt><trkpt lat="45.95119664814054" lon="10.270576646827601"><ele>335.0</ele><time>2026-03-28T13:00:56.999Z</time></trkpt><trkpt lat="45.9512280837895" lon="10.270466134142813"><ele>335.0</ele><time>2026-03-28T13:00:57.999Z</time></trkpt><trkpt lat="45.951258380651026" lon="10.270377070797569"><ele>336.8</ele><time>2026-03-28T13:00:58.999Z</time></trkpt><trkpt lat="45.95130206711288" lon="10.270283281487094"><ele>338.6</ele><time>2026-03-28T13:00:59.999Z</time></trkpt><trkpt lat="45.951320423017016" lon="10.270194084655882"><ele>340.4</ele><time>2026-03-28T13:01:00.999Z</time></trkpt><trkpt lat="45.95130239983862" lon="10.270104781032556"><ele>342.2</ele><time>2026-03-28T13:01:02.999Z</time></trkpt><trkpt lat="45.951136307563345" lon="10.270028638108943"><ele>344.0</ele><time>2026-03-28T13:01:04.999Z</time></trkpt><trkpt lat="45.951022216837366" lon="10.269971205008261"><ele>344.0</ele><time>2026-03-28T13:01:05.999Z</time></trkpt><trkpt lat="45.95091118628186" lon="10.2698608764665"><ele>344.0</ele><time>2026-03-28T13:01:07.999Z</time></trkpt><trkpt lat="45.95083468699394" lon="10.269758403501163"><ele>344.0</ele><time>2026-03-28T13:01:09.999Z</time></trkpt><trkpt lat="45.950880719671744" lon="10.269566334118975"><ele>344.0</ele><time>2026-03-28T13:01:12.999Z</time></trkpt><trkpt lat="45.95094201063409" lon="10.269431576297166"><ele>346.6</ele><time>2026-03-28T13:01:13.999Z</time></trkpt><trkpt lat="45.95099897500229" lon="10.269282598438764"><ele>349.2</ele><time>2026-03-28T13:01:14.999Z</time></trkpt><trkpt lat="45.95104749745614" lon="10.269144268350843"><ele>351.8</ele><time>2026-03-28T13:01:15.999Z</time></trkpt><trkpt lat="45.95108826120356" lon="10.269029866614115"><ele>354.40000000000003</ele><time>2026-03-28T13:01:16.999Z</time></trkpt><trkpt lat="45.95112883425739" lon="10.26892506389646"><ele>357.0</ele><time>2026-03-28T13:01:17.999Z</time></trkpt><trkpt lat="45.95116518891633" lon="10.2688134838042"><ele>360.3333333333333</ele><time>2026-03-28T13:01:18.999Z</time></trkpt><trkpt lat="45.95120230388848" lon="10.26871919440931"><ele>363.6666666666667</ele><time>2026-03-28T13:01:19.999Z</time></trkpt><trkpt lat="45.95127124069965" lon="10.268586892424935"><ele>367.0</ele><time>2026-03-28T13:01:21.999Z</time></trkpt><trkpt lat="45.9513150670939" lon="10.268493476887778"><ele>370.33333333333337</ele><time>2026-03-28T13:01:23.999Z</time></trkpt><trkpt lat="45.95136961812705" lon="10.26860329047749"><ele>373.6666666666667</ele><time>2026-03-28T13:01:24.999Z</time></trkpt><trkpt lat="45.951439349602815" lon="10.26867403465458"><ele>377.0</ele><time>2026-03-28T13:01:25.999Z</time></trkpt><trkpt lat="45.95149252598483" lon="10.268763712800103"><ele>377.0</ele><time>2026-03-28T13:01:26.999Z</time></trkpt><trkpt lat="45.95153862343136" lon="10.268842494554974"><ele>377.0</ele><time>2026-03-28T13:01:27.999Z</time></trkpt><trkpt lat="45.95159245333627" lon="10.268920969282048"><ele>377.0</ele><time>2026-03-28T13:01:28.999Z</time></trkpt><trkpt lat="45.95165655261788" lon="10.268949789179128"><ele>377.0</ele><time>2026-03-28T13:01:29.999Z</time></trkpt><trkpt lat="45.95172291267446" lon="10.26897090836183"><ele>377.0</ele><time>2026-03-28T13:01:30.999Z</time></trkpt><trkpt lat="45.95179557598666" lon="10.268900005532961"><ele>377.0</ele><time>2026-03-28T13:01:31.999Z</time></trkpt><trkpt lat="45.95186521395437" lon="10.268839567985925"><ele>377.25</ele><time>2026-03-28T13:01:32.999Z</time></trkpt><trkpt lat="45.951973048324746" lon="10.268779423205675"><ele>377.5</ele><time>2026-03-28T13:01:33.999Z</time></trkpt><trkpt lat="45.95209017216055" lon="10.26858201172271"><ele>377.75</ele><time>2026-03-28T13:01:35.999Z</time></trkpt><trkpt lat="45.95217262172608" lon="10.26856588060711"><ele>378.0</ele><time>2026-03-28T13:01:37.999Z</time></trkpt><trkpt lat="45.95225145997811" lon="10.268502625646514"><ele>378.0</ele><time>2026-03-28T13:01:39.999Z</time></trkpt><trkpt lat="45.952338880170956" lon="10.268414735034547"><ele>378.0</ele><time>2026-03-28T13:01:40.999Z</time></trkpt><trkpt lat="45.95240571022789" lon="10.268347545357226"><ele>378.0</ele><time>2026-03-28T13:01:41.999Z</time></trkpt><trkpt lat="45.95235038462207" lon="10.268239360567692"><ele>378.0</ele><time>2026-03-28T13:01:42.999Z</time></trkpt><trkpt lat="45.9523809951214" lon="10.268143681947858"><ele>378.0</ele><time>2026-03-28T13:01:43.999Z</time></trkpt><trkpt lat="45.9524137924403" lon="10.268036986527742"><ele>378.0</ele><time>2026-03-28T13:01:44.999Z</time></trkpt><trkpt lat="45.95244942436213" lon="10.26794462613129"><ele>382.4</ele><time>2026-03-28T13:01:45.999Z</time></trkpt><trkpt lat="45.952488626615455" lon="10.267850769016135"><ele>386.79999999999995</ele><time>2026-03-28T13:01:46.999Z</time></trkpt><trkpt lat="45.952454677939116" lon="10.267725757123154"><ele>391.2</ele><time>2026-03-28T13:01:48.999Z</time></trkpt><trkpt lat="45.95247035715333" lon="10.267575684254764"><ele>395.6</ele><time>2026-03-28T13:01:49.999Z</time></trkpt><trkpt lat="45.9524954498338" lon="10.267376355756417"><ele>400.0</ele><time>2026-03-28T13:01:51.999Z</time></trkpt><trkpt lat="45.95306433104613" lon="10.267229511429534"><ele>403.00000000000006</ele><time>2026-03-28T13:01:52.999Z</time></trkpt><trkpt lat="45.9530974790693" lon="10.267097395330877"><ele>406.0</ele><time>2026-03-28T13:01:53.999Z</time></trkpt><trkpt lat="45.95311290186173" lon="10.266987336227599"><ele>409.0</ele><time>2026-03-28T13:01:54.999Z</time></trkpt><trkpt lat="45.95313107803863" lon="10.266881042877174"><ele>412.0</ele><time>2026-03-28T13:01:55.999Z</time></trkpt><trkpt lat="45.953148606930135" lon="10.266771573551958"><ele>415.00000000000006</ele><time>2026-03-28T13:01:56.999Z</time></trkpt><trkpt lat="45.9531663958831" lon="10.266675185800764"><ele>418.0</ele><time>2026-03-28T13:01:57.999Z</time></trkpt><trkpt lat="45.953175395969794" lon="10.266562229377287"><ele>418.00000000000006</ele><time>2026-03-28T13:01:58.999Z</time></trkpt><trkpt lat="45.953172329518225" lon="10.26645099108555"><ele>418.0</ele><time>2026-03-28T13:01:59.999Z</time></trkpt><trkpt lat="45.95313044961761" lon="10.266335941634297"><ele>418.0</ele><time>2026-03-28T13:02:00.999Z</time></trkpt><trkpt lat="45.95311143637331" lon="10.266226207705976"><ele>418.0</ele><time>2026-03-28T13:02:01.999Z</time></trkpt><trkpt lat="45.95310614290827" lon="10.266109767048158"><ele>418.00000000000006</ele><time>2026-03-28T13:02:02.999Z</time></trkpt><trkpt lat="45.953081683829176" lon="10.26593775362168"><ele>418.0</ele><time>2026-03-28T13:02:04.999Z</time></trkpt><trkpt lat="45.95304668067506" lon="10.265786749847205"><ele>420.42857142857144</ele><time>2026-03-28T13:02:06.998Z</time></trkpt><trkpt lat="45.95305487566758" lon="10.265683608789027"><ele>422.85714285714283</ele><time>2026-03-28T13:02:07.998Z</time></trkpt><trkpt lat="45.953068228612594" lon="10.265583250241175"><ele>425.28571428571433</ele><time>2026-03-28T13:02:08.999Z</time></trkpt><trkpt lat="45.953076675428235" lon="10.26547714162392"><ele>427.7142857142857</ele><time>2026-03-28T13:02:09.999Z</time></trkpt><trkpt lat="45.95310319208096" lon="10.265363790439386"><ele>430.14285714285717</ele><time>2026-03-28T13:02:10.999Z</time></trkpt><trkpt lat="45.953118344557716" lon="10.265270595451398"><ele>432.5714285714286</ele><time>2026-03-28T13:02:11.999Z</time></trkpt><trkpt lat="45.95312033944322" lon="10.265158777737236"><ele>435.0</ele><time>2026-03-28T13:02:12.999Z</time></trkpt><trkpt lat="45.95308701316568" lon="10.264988280972739"><ele>437.3333333333333</ele><time>2026-03-28T13:02:14.999Z</time></trkpt><trkpt lat="45.953009850571526" lon="10.26495418783257"><ele>439.66666666666663</ele><time>2026-03-28T13:02:18.999Z</time></trkpt><trkpt lat="45.95295102798" lon="10.265003932769284"><ele>442.0</ele><time>2026-03-28T13:02:23.999Z</time></trkpt><trkpt lat="45.952919871903205" lon="10.265125104952308"><ele>444.3333333333333</ele><time>2026-03-28T13:02:45.999Z</time></trkpt><trkpt lat="45.95283672178791" lon="10.265216006423802"><ele>446.66666666666663</ele><time>2026-03-28T13:02:47.999Z</time></trkpt><trkpt lat="45.952777280679" lon="10.265274969459911"><ele>449.0</ele><time>2026-03-28T13:02:48.999Z</time></trkpt><trkpt lat="45.952710883661645" lon="10.265335931611697"><ele>448.99999999999994</ele><time>2026-03-28T13:02:49.999Z</time></trkpt><trkpt lat="45.95262294732073" lon="10.265353836182753"><ele>449.0</ele><time>2026-03-28T13:02:50.999Z</time></trkpt><trkpt lat="45.95256279733908" lon="10.26538936229497"><ele>449.0</ele><time>2026-03-28T13:02:51.999Z</time></trkpt><trkpt lat="45.95247601922021" lon="10.265390389999087"><ele>449.0</ele><time>2026-03-28T13:02:53.999Z</time></trkpt><trkpt lat="45.95237425982633" lon="10.265286374989243"><ele>448.99999999999994</ele><time>2026-03-28T13:02:55.999Z</time></trkpt><trkpt lat="45.9523178089948" lon="10.265246299053285"><ele>449.0</ele><time>2026-03-28T13:02:56.999Z</time></trkpt><trkpt lat="45.95234072789088" lon="10.26504562131781"><ele>447.4</ele><time>2026-03-28T13:02:57.999Z</time></trkpt><trkpt lat="45.95230083431891" lon="10.264940735425151"><ele>445.79999999999995</ele><time>2026-03-28T13:02:58.999Z</time></trkpt><trkpt lat="45.95226400689422" lon="10.264808351366508"><ele>444.20000000000005</ele><time>2026-03-28T13:02:59.999Z</time></trkpt><trkpt lat="45.95224921664148" lon="10.26466260424241"><ele>442.6</ele><time>2026-03-28T13:03:00.999Z</time></trkpt><trkpt lat="45.9522176709499" lon="10.264506496984815"><ele>441.0</ele><time>2026-03-28T13:03:01.999Z</time></trkpt><trkpt lat="45.952187083560595" lon="10.264380147228684"><ele>444.8</ele><time>2026-03-28T13:03:02.999Z</time></trkpt><trkpt lat="45.952136504069664" lon="10.26430539848916"><ele>448.6</ele><time>2026-03-28T13:03:03.999Z</time></trkpt><trkpt lat="45.952068778054986" lon="10.264206137402853"><ele>452.4</ele><time>2026-03-28T13:03:05.999Z</time></trkpt><trkpt lat="45.95201633848377" lon="10.264299520931363"><ele>456.2</ele><time>2026-03-28T13:03:08.999Z</time></trkpt><trkpt lat="45.95193074244275" lon="10.264463434663044"><ele>460.0</ele><time>2026-03-28T13:03:10.999Z</time></trkpt><trkpt lat="45.95188035255908" lon="10.26459846068335"><ele>460.00000000000006</ele><time>2026-03-28T13:03:11.999Z</time></trkpt><trkpt lat="45.95183182237378" lon="10.264713772431532"><ele>460.0</ele><time>2026-03-28T13:03:12.999Z</time></trkpt><trkpt lat="45.951780640810036" lon="10.26478398357385"><ele>460.0</ele><time>2026-03-28T13:03:13.999Z</time></trkpt><trkpt lat="45.95170671299158" lon="10.264857780897637"><ele>460.0</ele><time>2026-03-28T13:03:15.999Z</time></trkpt><trkpt lat="45.951692039427925" lon="10.264754893617908"><ele>460.00000000000006</ele><time>2026-03-28T13:03:16.999Z</time></trkpt><trkpt lat="45.95164081673021" lon="10.26482774091942"><ele>460.0</ele><time>2026-03-28T13:03:17.999Z</time></trkpt><trkpt lat="45.95157965828284" lon="10.26469901478611"><ele>460.4</ele><time>2026-03-28T13:03:18.999Z</time></trkpt><trkpt lat="45.95153989034598" lon="10.264868426419731"><ele>460.8</ele><time>2026-03-28T13:03:19.999Z</time></trkpt><trkpt lat="45.95148274138595" lon="10.264818109046391"><ele>461.20000000000005</ele><time>2026-03-28T13:03:20.999Z</time></trkpt><trkpt lat="45.95142433757812" lon="10.264733506427515"><ele>461.6</ele><time>2026-03-28T13:03:22.999Z</time></trkpt><trkpt lat="45.95137706461634" lon="10.264615675648672"><ele>462.0</ele><time>2026-03-28T13:03:25.999Z</time></trkpt><trkpt lat="45.95142019811489" lon="10.264465804237984"><ele>462.0</ele><time>2026-03-28T13:03:27.999Z</time></trkpt><trkpt lat="45.95149560180277" lon="10.26435863722639"><ele>462.0</ele><time>2026-03-28T13:03:28.999Z</time></trkpt><trkpt lat="45.951578198559446" lon="10.264205843975347"><ele>462.0</ele><time>2026-03-28T13:03:29.999Z</time></trkpt><trkpt lat="45.95167323480761" lon="10.264031875872753"><ele>462.0</ele><time>2026-03-28T13:03:30.999Z</time></trkpt><trkpt lat="45.95178052459767" lon="10.263903209252375"><ele>466.40000000000003</ele><time>2026-03-28T13:03:31.999Z</time></trkpt><trkpt lat="45.95186687049982" lon="10.263791759799917"><ele>470.80000000000007</ele><time>2026-03-28T13:03:32.999Z</time></trkpt><trkpt lat="45.9519449224755" lon="10.263703894654988"><ele>475.2</ele><time>2026-03-28T13:03:33.999Z</time></trkpt><trkpt lat="45.95201304209347" lon="10.263626451870223"><ele>479.6</ele><time>2026-03-28T13:03:34.999Z</time></trkpt><trkpt lat="45.9520706296766" lon="10.263566024044547"><ele>484.0</ele><time>2026-03-28T13:03:35.999Z</time></trkpt><trkpt lat="45.952177360908834" lon="10.263542100121914"><ele>484.0</ele><time>2026-03-28T13:03:37.999Z</time></trkpt><trkpt lat="45.95228688047895" lon="10.263543561469135"><ele>484.0</ele><time>2026-03-28T13:03:39.999Z</time></trkpt><trkpt lat="45.952416982025966" lon="10.263488213020908"><ele>484.0</ele><time>2026-03-28T13:03:41.999Z</time></trkpt><trkpt lat="45.95250084233295" lon="10.263506488404056"><ele>484.0</ele><time>2026-03-28T13:03:42.999Z</time></trkpt><trkpt lat="45.952573898996675" lon="10.263530242596378"><ele>484.0</ele><time>2026-03-28T13:03:43.999Z</time></trkpt><trkpt lat="45.9526420822214" lon="10.263561045759733"><ele>485.79999999999995</ele><time>2026-03-28T13:03:44.999Z</time></trkpt><trkpt lat="45.952732531574945" lon="10.263606611564972"><ele>487.59999999999997</ele><time>2026-03-28T13:03:46.999Z</time></trkpt><trkpt lat="45.95278842756308" lon="10.263518607364759"><ele>489.4</ele><time>2026-03-28T13:03:48.999Z</time></trkpt><trkpt lat="45.952713960467975" lon="10.263380331102438"><ele>491.2</ele><time>2026-03-28T13:03:50.999Z</time></trkpt><trkpt lat="45.952660524979976" lon="10.263242024072671"><ele>493.0</ele><time>2026-03-28T13:03:52.999Z</time></trkpt><trkpt lat="45.952633123875174" lon="10.26313340505139"><ele>497.00000000000006</ele><time>2026-03-28T13:03:53.999Z</time></trkpt><trkpt lat="45.952608520956026" lon="10.263005990054753"><ele>501.0</ele><time>2026-03-28T13:03:54.999Z</time></trkpt><trkpt lat="45.95267434201289" lon="10.262882609492587"><ele>505.0</ele><time>2026-03-28T13:03:55.999Z</time></trkpt><trkpt lat="45.952689713306675" lon="10.262749079812606"><ele>509.0</ele><time>2026-03-28T13:03:56.999Z</time></trkpt><trkpt lat="45.952700992730655" lon="10.262634175979205"><ele>513.0</ele><time>2026-03-28T13:03:57.999Z</time></trkpt><trkpt lat="45.952711020109945" lon="10.262530823650767"><ele>517.0</ele><time>2026-03-28T13:03:58.999Z</time></trkpt><trkpt lat="45.95271867035549" lon="10.262434825405059"><ele>517.0</ele><time>2026-03-28T13:03:59.999Z</time></trkpt><trkpt lat="45.95272678825659" lon="10.262332958774989"><ele>517.0</ele><time>2026-03-28T13:04:00.999Z</time></trkpt><trkpt lat="45.95273750572787" lon="10.262232110902511"><ele>517.0</ele><time>2026-03-28T13:04:01.999Z</time></trkpt><trkpt lat="45.952763660309756" lon="10.262112201971757"><ele>517.0</ele><time>2026-03-28T13:04:03.999Z</time></trkpt><trkpt lat="45.952787528325324" lon="10.26200352580055"><ele>517.0</ele><time>2026-03-28T13:04:05.999Z</time></trkpt><trkpt lat="45.952588167019876" lon="10.261876232971225"><ele>520.0</ele><time>2026-03-28T13:04:08.999Z</time></trkpt><trkpt lat="45.952495298567364" lon="10.261815373450226"><ele>523.0</ele><time>2026-03-28T13:04:10.999Z</time></trkpt><trkpt lat="45.952427905205276" lon="10.261694539590769"><ele>526.0</ele><time>2026-03-28T13:04:12.999Z</time></trkpt><trkpt lat="45.95237845590914" lon="10.261610574717082"><ele>529.0</ele><time>2026-03-28T13:04:13.999Z</time></trkpt><trkpt lat="45.95232478055042" lon="10.26150839482704"><ele>532.0</ele><time>2026-03-28T13:04:14.999Z</time></trkpt><trkpt lat="45.95224362571271" lon="10.261386410701126"><ele>536.1666666666667</ele><time>2026-03-28T13:04:15.999Z</time></trkpt><trkpt lat="45.952156964238874" lon="10.261305069554467"><ele>540.3333333333334</ele><time>2026-03-28T13:04:16.999Z</time></trkpt><trkpt lat="45.952088057519205" lon="10.261265331925298"><ele>544.5</ele><time>2026-03-28T13:04:17.999Z</time></trkpt><trkpt lat="45.95201471922314" lon="10.261239149003792"><ele>548.6666666666666</ele><time>2026-03-28T13:04:18.999Z</time></trkpt><trkpt lat="45.95193074226029" lon="10.261202945698518"><ele>552.8333333333333</ele><time>2026-03-28T13:04:19.999Z</time></trkpt><trkpt lat="45.951872145561396" lon="10.261143081104722"><ele>557.0</ele><time>2026-03-28T13:04:20.999Z</time></trkpt><trkpt lat="45.951799501020766" lon="10.261078736127818"><ele>557.0</ele><time>2026-03-28T13:04:21.999Z</time></trkpt><trkpt lat="45.95176090025069" lon="10.260973023796142"><ele>557.0</ele><time>2026-03-28T13:04:22.999Z</time></trkpt><trkpt lat="45.951729958730326" lon="10.260884421817254"><ele>557.0</ele><time>2026-03-28T13:04:23.999Z</time></trkpt><trkpt lat="45.951653098924766" lon="10.260771993696489"><ele>557.0</ele><time>2026-03-28T13:04:25.999Z</time></trkpt><trkpt lat="45.95160152977838" lon="10.26072004017715"><ele>557.0</ele><time>2026-03-28T13:04:26.999Z</time></trkpt><trkpt lat="45.95154569903769" lon="10.26066846092742"><ele>557.0</ele><time>2026-03-28T13:04:27.999Z</time></trkpt><trkpt lat="45.95148689397035" lon="10.26050022738122"><ele>556.4</ele><time>2026-03-28T13:04:29.999Z</time></trkpt><trkpt lat="45.95142443603778" lon="10.260359238747226"><ele>555.8000000000001</ele><time>2026-03-28T13:04:30.999Z</time></trkpt><trkpt lat="45.95138310201094" lon="10.260234935063679"><ele>555.2</ele><time>2026-03-28T13:04:31.999Z</time></trkpt><trkpt lat="45.951347357543" lon="10.260123056870219"><ele>554.6</ele><time>2026-03-28T13:04:32.999Z</time></trkpt><trkpt lat="45.951302366764146" lon="10.260021308038835"><ele>554.0</ele><time>2026-03-28T13:04:33.999Z</time></trkpt><trkpt lat="45.95127714674606" lon="10.25989793011281"><ele>557.6</ele><time>2026-03-28T13:04:34.999Z</time></trkpt><trkpt lat="45.95123284885" lon="10.259759207515218"><ele>561.2</ele><time>2026-03-28T13:04:35.999Z</time></trkpt><trkpt lat="45.95120121127947" lon="10.25962302548812"><ele>564.8000000000001</ele><time>2026-03-28T13:04:36.999Z</time></trkpt><trkpt lat="45.95117068842088" lon="10.2595191070324"><ele>568.4</ele><time>2026-03-28T13:04:37.999Z</time></trkpt><trkpt lat="45.95109358788729" lon="10.25942790121903"><ele>572.0</ele><time>2026-03-28T13:04:38.999Z</time></trkpt><trkpt lat="45.95104598376856" lon="10.25932879184083"><ele>571.9999999999999</ele><time>2026-03-28T13:04:39.999Z</time></trkpt><trkpt lat="45.95103708615963" lon="10.25921130180655"><ele>572.0</ele><time>2026-03-28T13:04:40.999Z</time></trkpt><trkpt lat="45.950989663667364" lon="10.259127361640932"><ele>572.0</ele><time>2026-03-28T13:04:41.999Z</time></trkpt><trkpt lat="45.950978360349794" lon="10.259027461111899"><ele>572.0</ele><time>2026-03-28T13:04:42.999Z</time></trkpt><trkpt lat="45.950966084463424" lon="10.25893335144471"><ele>572.0</ele><time>2026-03-28T13:04:43.999Z</time></trkpt><trkpt lat="45.95090430747399" lon="10.258985633847962"><ele>571.9999999999999</ele><time>2026-03-28T13:04:47.999Z</time></trkpt><trkpt lat="45.950903344048335" lon="10.259078255571694"><ele>572.0</ele><time>2026-03-28T13:04:49.999Z</time></trkpt><trkpt lat="45.95089838509298" lon="10.259219624098755"><ele>572.0</ele><time>2026-03-28T13:04:51.999Z</time></trkpt><trkpt lat="45.95087846232198" lon="10.25935479822722"><ele>572.0</ele><time>2026-03-28T13:04:53.999Z</time></trkpt><trkpt lat="45.95083569734857" lon="10.259253154800339"><ele>572.0</ele><time>2026-03-28T13:04:58.999Z</time></trkpt><trkpt lat="45.95083281363378" lon="10.2591330508206"><ele>572.0</ele><time>2026-03-28T13:05:08.999Z</time></trkpt><trkpt lat="45.95080839148877" lon="10.259042678715929"><ele>572.0</ele><time>2026-03-28T13:05:09.999Z</time></trkpt><trkpt lat="45.950793068284135" lon="10.258922797905267"><ele>572.0</ele><time>2026-03-28T13:05:11.999Z</time></trkpt><trkpt lat="45.9507739499257" lon="10.258804574260669"><ele>569.0</ele><time>2026-03-28T13:05:13.999Z</time></trkpt><trkpt lat="45.950702127744684" lon="10.258770835256733"><ele>566.0</ele><time>2026-03-28T13:05:15.999Z</time></trkpt><trkpt lat="45.95069805745935" lon="10.258898959588759"><ele>563.0</ele><time>2026-03-28T13:05:17.999Z</time></trkpt><trkpt lat="45.950682704359934" lon="10.25911084071162"><ele>560.0</ele><time>2026-03-28T13:05:19.999Z</time></trkpt><trkpt lat="45.95067932947762" lon="10.259251113484684"><ele>557.0</ele><time>2026-03-28T13:05:20.999Z</time></trkpt><trkpt lat="45.95067210561981" lon="10.259414401697867"><ele>556.0</ele><time>2026-03-28T13:05:21.999Z</time></trkpt><trkpt lat="45.950664469967165" lon="10.259570298510324"><ele>555.0</ele><time>2026-03-28T13:05:22.999Z</time></trkpt><trkpt lat="45.950642582162835" lon="10.25968338861853"><ele>554.0</ele><time>2026-03-28T13:05:23.999Z</time></trkpt><trkpt lat="45.95055451429537" lon="10.259741571063064"><ele>553.0</ele><time>2026-03-28T13:05:25.999Z</time></trkpt><trkpt lat="45.950431262600524" lon="10.259829763978802"><ele>552.0</ele><time>2026-03-28T13:05:27.999Z</time></trkpt><trkpt lat="45.95037671637685" lon="10.259910415510658"><ele>550.6666666666666</ele><time>2026-03-28T13:05:28.999Z</time></trkpt><trkpt lat="45.95033870478913" lon="10.260024344543892"><ele>549.3333333333334</ele><time>2026-03-28T13:05:29.999Z</time></trkpt><trkpt lat="45.95030086119288" lon="10.260137731622024"><ele>548.0</ele><time>2026-03-28T13:05:30.999Z</time></trkpt><trkpt lat="45.95026489418305" lon="10.260263500939244"><ele>546.6666666666667</ele><time>2026-03-28T13:05:31.999Z</time></trkpt><trkpt lat="45.950227202566474" lon="10.260371791665634"><ele>545.3333333333334</ele><time>2026-03-28T13:05:32.999Z</time></trkpt><trkpt lat="45.95020310451824" lon="10.260455538887834"><ele>544.0</ele><time>2026-03-28T13:05:33.999Z</time></trkpt><trkpt lat="45.95017424927161" lon="10.260542340745358"><ele>543.3333333333334</ele><time>2026-03-28T13:05:34.999Z</time></trkpt><trkpt lat="45.950129782145694" lon="10.260640016871566"><ele>542.6666666666667</ele><time>2026-03-28T13:05:35.999Z</time></trkpt><trkpt lat="45.95009662015778" lon="10.260755713597677"><ele>542.0</ele><time>2026-03-28T13:05:36.999Z</time></trkpt><trkpt lat="45.95005023747444" lon="10.260853792663355"><ele>541.3333333333334</ele><time>2026-03-28T13:05:37.999Z</time></trkpt><trkpt lat="45.950003096113576" lon="10.260937033182365"><ele>540.6666666666666</ele><time>2026-03-28T13:05:38.999Z</time></trkpt><trkpt lat="45.94989567920887" lon="10.260916510151528"><ele>540.0</ele><time>2026-03-28T13:05:40.999Z</time></trkpt><trkpt lat="45.949902070734346" lon="10.26080521494887"><ele>545.4</ele><time>2026-03-28T13:05:42.999Z</time></trkpt><trkpt lat="45.94985052916685" lon="10.260731099191009"><ele>550.8</ele><time>2026-03-28T13:05:43.999Z</time></trkpt><trkpt lat="45.94977263742732" lon="10.260573779022538"><ele>556.2</ele><time>2026-03-28T13:05:44.999Z</time></trkpt><trkpt lat="45.949637599732554" lon="10.260617647364146"><ele>561.6</ele><time>2026-03-28T13:05:45.999Z</time></trkpt><trkpt lat="45.94955269390243" lon="10.260623712101415"><ele>567.0</ele><time>2026-03-28T13:05:46.999Z</time></trkpt><trkpt lat="45.94946336397905" lon="10.260635184985846"><ele>567.0</ele><time>2026-03-28T13:05:48.999Z</time></trkpt><trkpt lat="45.94937434389873" lon="10.260589372273087"><ele>567.0</ele><time>2026-03-28T13:05:50.999Z</time></trkpt><trkpt lat="45.94924643926467" lon="10.260498585372467"><ele>567.0</ele><time>2026-03-28T13:05:52.999Z</time></trkpt><trkpt lat="45.94915604020653" lon="10.260432280466967"><ele>567.0</ele><time>2026-03-28T13:05:53.999Z</time></trkpt><trkpt lat="45.949073988616995" lon="10.260397902915253"><ele>567.0</ele><time>2026-03-28T13:05:54.999Z</time></trkpt><trkpt lat="45.94898295416012" lon="10.260397462850152"><ele>571.6</ele><time>2026-03-28T13:05:55.999Z</time></trkpt><trkpt lat="45.94886984540641" lon="10.26038558998023"><ele>576.2</ele><time>2026-03-28T13:05:56.999Z</time></trkpt><trkpt lat="45.94875137700179" lon="10.260338243777376"><ele>580.8</ele><time>2026-03-28T13:05:57.999Z</time></trkpt><trkpt lat="45.948682502009774" lon="10.260269394669265"><ele>585.4</ele><time>2026-03-28T13:05:58.999Z</time></trkpt><trkpt lat="45.94862611835024" lon="10.26020010095806"><ele>590.0</ele><time>2026-03-28T13:05:59.999Z</time></trkpt><trkpt lat="45.948566273910075" lon="10.260118853701114"><ele>590.0</ele><time>2026-03-28T13:06:00.999Z</time></trkpt><trkpt lat="45.94851893133592" lon="10.26003206897782"><ele>590.0</ele><time>2026-03-28T13:06:01.999Z</time></trkpt><trkpt lat="45.94846915104741" lon="10.259934326677449"><ele>590.0</ele><time>2026-03-28T13:06:02.999Z</time></trkpt><trkpt lat="45.948404721416765" lon="10.259843899020645"><ele>590.0</ele><time>2026-03-28T13:06:03.999Z</time></trkpt><trkpt lat="45.94834298396999" lon="10.259742463475304"><ele>590.0</ele><time>2026-03-28T13:06:04.999Z</time></trkpt><trkpt lat="45.94828702411478" lon="10.259637760875453"><ele>590.0</ele><time>2026-03-28T13:06:05.999Z</time></trkpt><trkpt lat="45.948211425231726" lon="10.259575763461807"><ele>591.5</ele><time>2026-03-28T13:06:06.999Z</time></trkpt><trkpt lat="45.9480927543974" lon="10.259601295347494"><ele>593.0</ele><time>2026-03-28T13:06:08.999Z</time></trkpt><trkpt lat="45.94799543545445" lon="10.25963904205641"><ele>594.5</ele><time>2026-03-28T13:06:10.999Z</time></trkpt><trkpt lat="45.947922656514045" lon="10.259671797019791"><ele>596.0</ele><time>2026-03-28T13:06:11.999Z</time></trkpt><trkpt lat="45.947860617362885" lon="10.259723768007776"><ele>597.5</ele><time>2026-03-28T13:06:12.999Z</time></trkpt><trkpt lat="45.947796631126245" lon="10.259765759130348"><ele>599.0</ele><time>2026-03-28T13:06:14.999Z</time></trkpt><trkpt lat="45.947712869284196" lon="10.259811208778508"><ele>599.6666666666666</ele><time>2026-03-28T13:06:17.999Z</time></trkpt><trkpt lat="45.94754531567743" lon="10.259465526978119"><ele>600.3333333333334</ele><time>2026-03-28T13:06:18.999Z</time></trkpt><trkpt lat="45.94747590769302" lon="10.259461679419767"><ele>601.0</ele><time>2026-03-28T13:06:19.999Z</time></trkpt><trkpt lat="45.94738716408817" lon="10.259353586849878"><ele>603.0</ele><time>2026-03-28T13:06:21.999Z</time></trkpt><trkpt lat="45.9473339669583" lon="10.259224109628557"><ele>605.0</ele><time>2026-03-28T13:06:23.999Z</time></trkpt><trkpt lat="45.94730106607769" lon="10.259134478322526"><ele>607.0</ele><time>2026-03-28T13:06:24.999Z</time></trkpt><trkpt lat="45.947259193567206" lon="10.259056925004197"><ele>609.0</ele><time>2026-03-28T13:06:25.999Z</time></trkpt><trkpt lat="45.94720774373752" lon="10.258993143139586"><ele>611.0</ele><time>2026-03-28T13:06:26.999Z</time></trkpt><trkpt lat="45.94713675834238" lon="10.25896921000501"><ele>613.0</ele><time>2026-03-28T13:06:28.999Z</time></trkpt><trkpt lat="45.94719789175153" lon="10.258842206491067"><ele>614.0</ele><time>2026-03-28T13:06:32.999Z</time></trkpt><trkpt lat="45.94718102603792" lon="10.258736730800829"><ele>615.0</ele><time>2026-03-28T13:06:35.999Z</time></trkpt><trkpt lat="45.94714937537508" lon="10.258597667137492"><ele>616.0</ele><time>2026-03-28T13:06:37.999Z</time></trkpt><trkpt lat="45.94709612027341" lon="10.258523331553612"><ele>617.0</ele><time>2026-03-28T13:06:38.999Z</time></trkpt><trkpt lat="45.94706494228336" lon="10.258337069324638"><ele>618.0</ele><time>2026-03-28T13:06:40.999Z</time></trkpt><trkpt lat="45.947084992961706" lon="10.258177964783012"><ele>618.1666666666666</ele><time>2026-03-28T13:06:41.999Z</time></trkpt><trkpt lat="45.947082994406294" lon="10.25807953629199"><ele>618.3333333333334</ele><time>2026-03-28T13:06:42.999Z</time></trkpt><trkpt lat="45.947092555267844" lon="10.257984452812313"><ele>618.5</ele><time>2026-03-28T13:06:43.999Z</time></trkpt><trkpt lat="45.9470968188495" lon="10.25789056262223"><ele>618.6666666666667</ele><time>2026-03-28T13:06:44.999Z</time></trkpt><trkpt lat="45.94709102169371" lon="10.257717737175605"><ele>618.8333333333334</ele><time>2026-03-28T13:06:46.999Z</time></trkpt><trkpt lat="45.94707612149835" lon="10.257583660287212"><ele>619.0</ele><time>2026-03-28T13:06:48.999Z</time></trkpt><trkpt lat="45.947082685420924" lon="10.25748286606482"><ele>619.0</ele><time>2026-03-28T13:06:49.999Z</time></trkpt><trkpt lat="45.94708136007401" lon="10.257386702080144"><ele>619.0</ele><time>2026-03-28T13:06:50.999Z</time></trkpt><trkpt lat="45.947073150119266" lon="10.257287167494628"><ele>619.0</ele><time>2026-03-28T13:06:51.999Z</time></trkpt><trkpt lat="45.947089978535" lon="10.257127003133998"><ele>619.0</ele><time>2026-03-28T13:06:53.999Z</time></trkpt><trkpt lat="45.94711000383654" lon="10.25702709134726"><ele>619.0</ele><time>2026-03-28T13:06:54.999Z</time></trkpt><trkpt lat="45.94712986713329" lon="10.256916566244072"><ele>619.0</ele><time>2026-03-28T13:06:55.999Z</time></trkpt><trkpt lat="45.947156122804394" lon="10.256787096511907"><ele>618.5</ele><time>2026-03-28T13:06:56.999Z</time></trkpt><trkpt lat="45.94717777965322" lon="10.256674394445097"><ele>618.0</ele><time>2026-03-28T13:06:57.999Z</time></trkpt><trkpt lat="45.94719578747777" lon="10.25655976094178"><ele>617.5</ele><time>2026-03-28T13:06:58.999Z</time></trkpt><trkpt lat="45.9471558022498" lon="10.256458796131696"><ele>617.0</ele><time>2026-03-28T13:06:59.999Z</time></trkpt><trkpt lat="45.94713736069571" lon="10.256369065082119"><ele>616.5</ele><time>2026-03-28T13:07:00.999Z</time></trkpt><trkpt lat="45.947093361917055" lon="10.256274264984238"><ele>616.0</ele><time>2026-03-28T13:07:01.999Z</time></trkpt><trkpt lat="45.94705978629875" lon="10.25618415173546"><ele>614.5</ele><time>2026-03-28T13:07:02.999Z</time></trkpt><trkpt lat="45.94702176529885" lon="10.256104686806824"><ele>613.0</ele><time>2026-03-28T13:07:03.999Z</time></trkpt><trkpt lat="45.947012909952846" lon="10.255956463875409"><ele>611.5</ele><time>2026-03-28T13:07:05.999Z</time></trkpt><trkpt lat="45.94683819679463" lon="10.25574434354958"><ele>610.0</ele><time>2026-03-28T13:07:07.999Z</time></trkpt><trkpt lat="45.946872381632424" lon="10.255609362446934"><ele>609.5</ele><time>2026-03-28T13:07:08.999Z</time></trkpt><trkpt lat="45.94702895169908" lon="10.2555081835694"><ele>609.0</ele><time>2026-03-28T13:07:10.999Z</time></trkpt><trkpt lat="45.947027667707296" lon="10.255402970574284"><ele>608.5</ele><time>2026-03-28T13:07:12.999Z</time></trkpt><trkpt lat="45.94707308955582" lon="10.255284917399576"><ele>608.0</ele><time>2026-03-28T13:07:13.999Z</time></trkpt><trkpt lat="45.947062797677745" lon="10.255089014691984"><ele>608.0</ele><time>2026-03-28T13:07:15.999Z</time></trkpt><trkpt lat="45.947085342541584" lon="10.254995829905779"><ele>608.0</ele><time>2026-03-28T13:07:16.999Z</time></trkpt><trkpt lat="45.94708534253836" lon="10.254903711760269"><ele>608.0</ele><time>2026-03-28T13:07:17.999Z</time></trkpt><trkpt lat="45.94708534253594" lon="10.254751281746593"><ele>608.0</ele><time>2026-03-28T13:07:19.999Z</time></trkpt><trkpt lat="45.94705636358002" lon="10.25467022659915"><ele>608.0</ele><time>2026-03-28T13:07:22.999Z</time></trkpt><trkpt lat="45.946774249224205" lon="10.2546634802509"><ele>608.0</ele><time>2026-03-28T13:07:23.999Z</time></trkpt><trkpt lat="45.94679214114862" lon="10.254752005230536"><ele>608.0</ele><time>2026-03-28T13:07:26.999Z</time></trkpt><trkpt lat="45.9468743372744" lon="10.25481139534229"><ele>608.0</ele><time>2026-03-28T13:07:48.999Z</time></trkpt><trkpt lat="45.94690655613626" lon="10.25490520265829"><ele>608.0</ele><time>2026-03-28T13:07:49.999Z</time></trkpt><trkpt lat="45.94695862549477" lon="10.254976891614318"><ele>608.0</ele><time>2026-03-28T13:07:50.999Z</time></trkpt><trkpt lat="45.94700125986114" lon="10.25509468696385"><ele>608.0</ele><time>2026-03-28T13:07:52.999Z</time></trkpt><trkpt lat="45.94703541492323" lon="10.255181902791366"><ele>608.0</ele><time>2026-03-28T13:07:53.999Z</time></trkpt><trkpt lat="45.947011534818856" lon="10.255275060282937"><ele>608.0</ele><time>2026-03-28T13:07:54.999Z</time></trkpt><trkpt lat="45.946996522568554" lon="10.255366409936045"><ele>608.0</ele><time>2026-03-28T13:07:55.999Z</time></trkpt><trkpt lat="45.946929305604264" lon="10.255417630242333"><ele>608.0</ele><time>2026-03-28T13:07:58.999Z</time></trkpt><trkpt lat="45.947006918757765" lon="10.255358016470213"><ele>608.0</ele><time>2026-03-28T13:08:00.999Z</time></trkpt><trkpt lat="45.94704653494403" lon="10.255184115343788"><ele>608.0</ele><time>2026-03-28T13:08:01.999Z</time></trkpt><trkpt lat="45.94705527677736" lon="10.255067101763867"><ele>608.0</ele><time>2026-03-28T13:08:02.999Z</time></trkpt><trkpt lat="45.947085342539125" lon="10.254919002191455"><ele>608.0</ele><time>2026-03-28T13:08:04.999Z</time></trkpt><trkpt lat="45.94705366864262" lon="10.254747539708282"><ele>608.0</ele><time>2026-03-28T13:08:06.999Z</time></trkpt><trkpt lat="45.94681108107453" lon="10.254669622305013"><ele>608.3333333333333</ele><time>2026-03-28T13:08:07.999Z</time></trkpt><trkpt lat="45.94676800999343" lon="10.254575673634868"><ele>608.6666666666666</ele><time>2026-03-28T13:08:12.999Z</time></trkpt><trkpt lat="45.946723055413145" lon="10.25449343729898"><ele>609.0</ele><time>2026-03-28T13:08:13.999Z</time></trkpt><trkpt lat="45.94667496236926" lon="10.254398019066697"><ele>609.3333333333334</ele><time>2026-03-28T13:08:14.999Z</time></trkpt><trkpt lat="45.946654613330885" lon="10.254292149685424"><ele>609.6666666666667</ele><time>2026-03-28T13:08:15.999Z</time></trkpt><trkpt lat="45.946654772507536" lon="10.254180692617753"><ele>610.0</ele><time>2026-03-28T13:08:16.999Z</time></trkpt><trkpt lat="45.946681550177864" lon="10.254058870689416"><ele>610.2</ele><time>2026-03-28T13:08:17.999Z</time></trkpt><trkpt lat="45.946701426901846" lon="10.253909617793711"><ele>610.4</ele><time>2026-03-28T13:08:18.999Z</time></trkpt><trkpt lat="45.946712784092924" lon="10.253761762790372"><ele>610.6</ele><time>2026-03-28T13:08:19.999Z</time></trkpt><trkpt lat="45.94671696238276" lon="10.253627764130659"><ele>610.8</ele><time>2026-03-28T13:08:20.999Z</time></trkpt><trkpt lat="45.946696636073796" lon="10.253487682171187"><ele>611.0</ele><time>2026-03-28T13:08:21.999Z</time></trkpt><trkpt lat="45.94667631834429" lon="10.253330052397098"><ele>611.0</ele><time>2026-03-28T13:08:22.999Z</time></trkpt><trkpt lat="45.946668730881754" lon="10.253176557357751"><ele>611.0</ele><time>2026-03-28T13:08:23.999Z</time></trkpt><trkpt lat="45.94667496056553" lon="10.253042892477705"><ele>611.0</ele><time>2026-03-28T13:08:24.999Z</time></trkpt><trkpt lat="45.946664117959486" lon="10.252900533595435"><ele>611.0</ele><time>2026-03-28T13:08:25.999Z</time></trkpt><trkpt lat="45.946654825153864" lon="10.25278739303935"><ele>611.0</ele><time>2026-03-28T13:08:26.999Z</time></trkpt><trkpt lat="45.946630313266446" lon="10.252683169683882"><ele>610.6666666666666</ele><time>2026-03-28T13:08:27.999Z</time></trkpt><trkpt lat="45.946605443260204" lon="10.252556497068678"><ele>610.3333333333333</ele><time>2026-03-28T13:08:28.999Z</time></trkpt><trkpt lat="45.946605216759856" lon="10.252430471714932"><ele>610.0</ele><time>2026-03-28T13:08:29.999Z</time></trkpt><trkpt lat="45.94661453044353" lon="10.252314884847005"><ele>609.6666666666666</ele><time>2026-03-28T13:08:30.999Z</time></trkpt><trkpt lat="45.94659020243424" lon="10.25220463119756"><ele>609.3333333333334</ele><time>2026-03-28T13:08:32.999Z</time></trkpt><trkpt lat="45.94659994074263" lon="10.252105340774774"><ele>609.0</ele><time>2026-03-28T13:08:43.999Z</time></trkpt><trkpt lat="45.94663309991747" lon="10.251999707954802"><ele>609.0</ele><time>2026-03-28T13:09:45Z</time></trkpt><trkpt lat="45.94668289529523" lon="10.251841238056402"><ele>609.0</ele><time>2026-03-28T13:09:47Z</time></trkpt><trkpt lat="45.94674172159602" lon="10.251770705211689"><ele>609.0</ele><time>2026-03-28T13:09:49Z</time></trkpt><trkpt lat="45.94677010910527" lon="10.251680200450581"><ele>609.0</ele><time>2026-03-28T13:09:51Z</time></trkpt><trkpt lat="45.94675039938702" lon="10.2515418344641"><ele>609.0</ele><time>2026-03-28T13:09:53Z</time></trkpt><trkpt lat="45.946743331672735" lon="10.251432446130133"><ele>609.0</ele><time>2026-03-28T13:09:54Z</time></trkpt><trkpt lat="45.94673283177464" lon="10.25129510694299"><ele>610.2</ele><time>2026-03-28T13:09:55Z</time></trkpt><trkpt lat="45.94669563025328" lon="10.251154523562656"><ele>611.4</ele><time>2026-03-28T13:09:56Z</time></trkpt><trkpt lat="45.94665661388291" lon="10.25105264163512"><ele>612.6</ele><time>2026-03-28T13:09:57Z</time></trkpt><trkpt lat="45.94656566703919" lon="10.250925042680976"><ele>613.8</ele><time>2026-03-28T13:09:59Z</time></trkpt><trkpt lat="45.94656092984688" lon="10.2507522986713"><ele>615.0</ele><time>2026-03-28T13:10:01Z</time></trkpt><trkpt lat="45.94656850294758" lon="10.250606431428528"><ele>616.0</ele><time>2026-03-28T13:10:02Z</time></trkpt><trkpt lat="45.946559235371254" lon="10.250492597517999"><ele>617.0</ele><time>2026-03-28T13:10:03Z</time></trkpt><trkpt lat="45.946543084076154" lon="10.250386803206746"><ele>618.0</ele><time>2026-03-28T13:10:04Z</time></trkpt><trkpt lat="45.94652927288663" lon="10.250276360765062"><ele>619.0</ele><time>2026-03-28T13:10:05Z</time></trkpt><trkpt lat="45.94651150710742" lon="10.250161640049338"><ele>620.0</ele><time>2026-03-28T13:10:06Z</time></trkpt><trkpt lat="45.94648386590191" lon="10.250034734504293"><ele>621.0</ele><time>2026-03-28T13:10:07Z</time></trkpt><trkpt lat="45.94647117437237" lon="10.249920938211947"><ele>621.0</ele><time>2026-03-28T13:10:08Z</time></trkpt><trkpt lat="45.9464397600457" lon="10.24983233456616"><ele>621.0</ele><time>2026-03-28T13:10:09Z</time></trkpt><trkpt lat="45.946387958937" lon="10.249764786596051"><ele>621.0</ele><time>2026-03-28T13:10:10Z</time></trkpt><trkpt lat="45.94632108162389" lon="10.249702133118156"><ele>621.0</ele><time>2026-03-28T13:10:11Z</time></trkpt><trkpt lat="45.9462729728693" lon="10.24961686573376"><ele>621.0</ele><time>2026-03-28T13:10:12Z</time></trkpt><trkpt lat="45.946204163125884" lon="10.24952026951354"><ele>621.0</ele><time>2026-03-28T13:10:13Z</time></trkpt><trkpt lat="45.94613748820562" lon="10.249425887371668"><ele>621.8333333333334</ele><time>2026-03-28T13:10:14Z</time></trkpt><trkpt lat="45.94609388142654" lon="10.24933116149754"><ele>622.6666666666666</ele><time>2026-03-28T13:10:15Z</time></trkpt><trkpt lat="45.94606306890254" lon="10.249248765643385"><ele>623.5</ele><time>2026-03-28T13:10:16Z</time></trkpt><trkpt lat="45.94603244565334" lon="10.249137555264012"><ele>624.3333333333333</ele><time>2026-03-28T13:10:17Z</time></trkpt><trkpt lat="45.94602341709048" lon="10.249025100078454"><ele>625.1666666666666</ele><time>2026-03-28T13:10:18Z</time></trkpt><trkpt lat="45.946010687019594" lon="10.248934042427111"><ele>626.0</ele><time>2026-03-28T13:10:19Z</time></trkpt><trkpt lat="45.9460192671238" lon="10.248760054305626"><ele>626.1666666666666</ele><time>2026-03-28T13:10:21Z</time></trkpt><trkpt lat="45.946020265306835" lon="10.248654715672354"><ele>626.3333333333333</ele><time>2026-03-28T13:10:22Z</time></trkpt><trkpt lat="45.94601377063188" lon="10.248540954191215"><ele>626.5</ele><time>2026-03-28T13:10:23Z</time></trkpt><trkpt lat="45.9459965179882" lon="10.248417852931526"><ele>626.6666666666666</ele><time>2026-03-28T13:10:24Z</time></trkpt><trkpt lat="45.94597493781883" lon="10.248301851410723"><ele>626.8333333333334</ele><time>2026-03-28T13:10:25Z</time></trkpt><trkpt lat="45.94595669585628" lon="10.248212826643947"><ele>627.0</ele><time>2026-03-28T13:10:26Z</time></trkpt><trkpt lat="45.945915870299146" lon="10.248066940680191"><ele>627.6666666666666</ele><time>2026-03-28T13:10:28Z</time></trkpt><trkpt lat="45.94588296233781" lon="10.24797578507197"><ele>628.3333333333334</ele><time>2026-03-28T13:10:29Z</time></trkpt><trkpt lat="45.945847826700515" lon="10.247864343409663"><ele>629.0</ele><time>2026-03-28T13:10:30Z</time></trkpt><trkpt lat="45.94581351648825" lon="10.247775915408214"><ele>629.6666666666667</ele><time>2026-03-28T13:10:31Z</time></trkpt><trkpt lat="45.94575725208362" lon="10.247704966690657"><ele>630.3333333333334</ele><time>2026-03-28T13:10:32Z</time></trkpt><trkpt lat="45.94568560985871" lon="10.247644032137698"><ele>631.0</ele><time>2026-03-28T13:10:33Z</time></trkpt><trkpt lat="45.94561296308316" lon="10.247554950946705"><ele>633.0</ele><time>2026-03-28T13:10:34Z</time></trkpt><trkpt lat="45.94554142864662" lon="10.247506754497069"><ele>635.0</ele><time>2026-03-28T13:10:36Z</time></trkpt><trkpt lat="45.945487201924465" lon="10.24740156515708"><ele>637.0</ele><time>2026-03-28T13:10:38Z</time></trkpt><trkpt lat="45.9454727822962" lon="10.24727411371825"><ele>639.0</ele><time>2026-03-28T13:10:40Z</time></trkpt><trkpt lat="45.9454553087396" lon="10.24717355783665"><ele>641.0</ele><time>2026-03-28T13:10:42Z</time></trkpt><trkpt lat="45.94544941515443" lon="10.247073012339554"><ele>643.0</ele><time>2026-03-28T13:10:44Z</time></trkpt><trkpt lat="45.9454397235636" lon="10.246915930571173"><ele>643.3333333333334</ele><time>2026-03-28T13:10:47Z</time></trkpt><trkpt lat="45.94544123677014" lon="10.246755071591625"><ele>643.6666666666667</ele><time>2026-03-28T13:10:49Z</time></trkpt><trkpt lat="45.94544323295836" lon="10.246569682271696"><ele>644.0</ele><time>2026-03-28T13:10:51Z</time></trkpt><trkpt lat="45.94544934105992" lon="10.24646925979131"><ele>644.3333333333334</ele><time>2026-03-28T13:10:52Z</time></trkpt><trkpt lat="45.94546077986907" lon="10.246373352491142"><ele>644.6666666666666</ele><time>2026-03-28T13:10:53Z</time></trkpt><trkpt lat="45.94547340159683" lon="10.246280042168065"><ele>645.0</ele><time>2026-03-28T13:10:54Z</time></trkpt><trkpt lat="45.94551010983027" lon="10.246116420554937"><ele>645.3333333333334</ele><time>2026-03-28T13:10:56Z</time></trkpt><trkpt lat="45.945603674147634" lon="10.24603404783878"><ele>645.6666666666666</ele><time>2026-03-28T13:10:58Z</time></trkpt><trkpt lat="45.9456516987315" lon="10.245963675808573"><ele>646.0</ele><time>2026-03-28T13:10:59Z</time></trkpt><trkpt lat="45.945691740932176" lon="10.245893747094051"><ele>646.3333333333333</ele><time>2026-03-28T13:11:00Z</time></trkpt><trkpt lat="45.94566070723613" lon="10.24574611189285"><ele>646.6666666666666</ele><time>2026-03-28T13:11:02Z</time></trkpt><trkpt lat="45.94561327081294" lon="10.245686288940345"><ele>647.0</ele><time>2026-03-28T13:11:03Z</time></trkpt><trkpt lat="45.94556480920735" lon="10.245620766000233"><ele>647.0</ele><time>2026-03-28T13:11:04Z</time></trkpt><trkpt lat="45.94552606524266" lon="10.245542211190244"><ele>647.0</ele><time>2026-03-28T13:11:05Z</time></trkpt><trkpt lat="45.94548913030745" lon="10.24545622577212"><ele>647.0</ele><time>2026-03-28T13:11:06Z</time></trkpt><trkpt lat="45.94544416856789" lon="10.24536251526367"><ele>647.0</ele><time>2026-03-28T13:11:07Z</time></trkpt><trkpt lat="45.94539051506535" lon="10.245257598904306"><ele>647.0</ele><time>2026-03-28T13:11:08Z</time></trkpt><trkpt lat="45.94533654557101" lon="10.245118709532397"><ele>647.0</ele><time>2026-03-28T13:11:09Z</time></trkpt><trkpt lat="45.94529482153735" lon="10.244960155172503"><ele>648.5</ele><time>2026-03-28T13:11:10Z</time></trkpt><trkpt lat="45.945260566835636" lon="10.244789580221642"><ele>650.0</ele><time>2026-03-28T13:11:11Z</time></trkpt><trkpt lat="45.9452298367853" lon="10.244614188447683"><ele>651.5</ele><time>2026-03-28T13:11:12Z</time></trkpt><trkpt lat="45.94521485232812" lon="10.244462183885107"><ele>653.0</ele><time>2026-03-28T13:11:13Z</time></trkpt><trkpt lat="45.9452318997867" lon="10.244320511178907"><ele>653.0</ele><time>2026-03-28T13:11:14Z</time></trkpt><trkpt lat="45.945272861031626" lon="10.244197419525511"><ele>653.0</ele><time>2026-03-28T13:11:15Z</time></trkpt><trkpt lat="45.94530554158382" lon="10.244082280063108"><ele>653.0</ele><time>2026-03-28T13:11:16Z</time></trkpt><trkpt lat="45.94530407956902" lon="10.243947649172823"><ele>653.0</ele><time>2026-03-28T13:11:17Z</time></trkpt><trkpt lat="45.94528175081932" lon="10.24381715235666"><ele>653.0</ele><time>2026-03-28T13:11:18Z</time></trkpt><trkpt lat="45.94528848504961" lon="10.243693442929855"><ele>653.8333333333333</ele><time>2026-03-28T13:11:19Z</time></trkpt><trkpt lat="45.94529363297111" lon="10.243574989430323"><ele>654.6666666666666</ele><time>2026-03-28T13:11:20Z</time></trkpt><trkpt lat="45.94527807967773" lon="10.243462534328453"><ele>655.5</ele><time>2026-03-28T13:11:21Z</time></trkpt><trkpt lat="45.945252722407" lon="10.243343673167217"><ele>656.3333333333334</ele><time>2026-03-28T13:11:23Z</time></trkpt><trkpt lat="45.94530257014366" lon="10.243193122070542"><ele>657.1666666666667</ele><time>2026-03-28T13:11:25Z</time></trkpt><trkpt lat="45.94536559907062" lon="10.243130698024475"><ele>658.0</ele><time>2026-03-28T13:11:26Z</time></trkpt><trkpt lat="45.94544221637554" lon="10.243042888947047"><ele>660.25</ele><time>2026-03-28T13:11:27Z</time></trkpt><trkpt lat="45.9455131676759" lon="10.242920133456119"><ele>662.5</ele><time>2026-03-28T13:11:28Z</time></trkpt><trkpt lat="45.94559682840626" lon="10.242802900959555"><ele>664.75</ele><time>2026-03-28T13:11:29Z</time></trkpt><trkpt lat="45.945701235610294" lon="10.242723924099879"><ele>667.0</ele><time>2026-03-28T13:11:30Z</time></trkpt><trkpt lat="45.945812446054106" lon="10.242665450777507"><ele>668.6</ele><time>2026-03-28T13:11:31Z</time></trkpt><trkpt lat="45.94593097011506" lon="10.242636871294204"><ele>670.2</ele><time>2026-03-28T13:11:32Z</time></trkpt><trkpt lat="45.946042725708125" lon="10.242612546029234"><ele>671.8</ele><time>2026-03-28T13:11:33Z</time></trkpt><trkpt lat="45.94613901407984" lon="10.242598859361204"><ele>673.4</ele><time>2026-03-28T13:11:34Z</time></trkpt><trkpt lat="45.946224660024306" lon="10.242588314999136"><ele>675.0</ele><time>2026-03-28T13:11:35Z</time></trkpt><trkpt lat="45.94630685564481" lon="10.242585803861251"><ele>675.0</ele><time>2026-03-28T13:11:36Z</time></trkpt><trkpt lat="45.94640037756012" lon="10.242582229425677"><ele>675.0</ele><time>2026-03-28T13:11:37Z</time></trkpt><trkpt lat="45.946492160203725" lon="10.24253677096939"><ele>675.0</ele><time>2026-03-28T13:11:38Z</time></trkpt><trkpt lat="45.94656550550738" lon="10.24249338390736"><ele>675.0</ele><time>2026-03-28T13:11:39Z</time></trkpt><trkpt lat="45.946594683950714" lon="10.242371857995979"><ele>675.0</ele><time>2026-03-28T13:11:41Z</time></trkpt><trkpt lat="45.94651930453689" lon="10.242292638828731"><ele>679.4</ele><time>2026-03-28T13:11:43Z</time></trkpt><trkpt lat="45.94645339884582" lon="10.242218638678791"><ele>683.8</ele><time>2026-03-28T13:11:44Z</time></trkpt><trkpt lat="45.94636040125734" lon="10.242162747527948"><ele>688.2</ele><time>2026-03-28T13:11:45Z</time></trkpt><trkpt lat="45.946252777339225" lon="10.24210058192182"><ele>692.6</ele><time>2026-03-28T13:11:46Z</time></trkpt><trkpt lat="45.946146645855514" lon="10.242051238675776"><ele>697.0</ele><time>2026-03-28T13:11:47Z</time></trkpt><trkpt lat="45.946052838291415" lon="10.241944567464323"><ele>697.0</ele><time>2026-03-28T13:11:48Z</time></trkpt><trkpt lat="45.94595947673804" lon="10.241856533415472"><ele>697.0</ele><time>2026-03-28T13:11:49Z</time></trkpt><trkpt lat="45.94585248640222" lon="10.24175044042486"><ele>697.0</ele><time>2026-03-28T13:11:50Z</time></trkpt><trkpt lat="45.94575905627405" lon="10.241651397244015"><ele>697.0</ele><time>2026-03-28T13:11:51Z</time></trkpt><trkpt lat="45.94566568786639" lon="10.24155128151005"><ele>701.4000000000001</ele><time>2026-03-28T13:11:52Z</time></trkpt><trkpt lat="45.945583436753175" lon="10.241463086453805"><ele>705.8000000000001</ele><time>2026-03-28T13:11:53Z</time></trkpt><trkpt lat="45.94550035515646" lon="10.241374000878745"><ele>710.2</ele><time>2026-03-28T13:11:54Z</time></trkpt><trkpt lat="45.94541973700806" lon="10.241287556779609"><ele>714.6</ele><time>2026-03-28T13:11:55Z</time></trkpt><trkpt lat="45.94533808285809" lon="10.241199842214566"><ele>719.0</ele><time>2026-03-28T13:11:56Z</time></trkpt><trkpt lat="45.945245225605035" lon="10.241124406654757"><ele>719.0</ele><time>2026-03-28T13:11:57Z</time></trkpt><trkpt lat="45.94516618863146" lon="10.241040577335562"><ele>719.0</ele><time>2026-03-28T13:11:58Z</time></trkpt><trkpt lat="45.9450833225322" lon="10.240957769072057"><ele>719.0</ele><time>2026-03-28T13:11:59Z</time></trkpt><trkpt lat="45.94499603781733" lon="10.240886680612213"><ele>719.0</ele><time>2026-03-28T13:12:00Z</time></trkpt><trkpt lat="45.944896351480594" lon="10.240831051563546"><ele>719.0</ele><time>2026-03-28T13:12:01Z</time></trkpt><trkpt lat="45.94479296365468" lon="10.240781504742221"><ele>716.8000000000001</ele><time>2026-03-28T13:12:02Z</time></trkpt><trkpt lat="45.94470019753427" lon="10.240725622575932"><ele>714.6</ele><time>2026-03-28T13:12:03Z</time></trkpt><trkpt lat="45.94459954346477" lon="10.24065761669717"><ele>712.4</ele><time>2026-03-28T13:12:04Z</time></trkpt><trkpt lat="45.944495529250965" lon="10.240660272877378"><ele>710.2</ele><time>2026-03-28T13:12:05Z</time></trkpt><trkpt lat="45.94441808140158" lon="10.240625918685701"><ele>708.0</ele><time>2026-03-28T13:12:06Z</time></trkpt><trkpt lat="45.94429988122374" lon="10.24051900730353"><ele>710.6666666666666</ele><time>2026-03-28T13:12:08Z</time></trkpt><trkpt lat="45.94422936506837" lon="10.24043003933215"><ele>713.3333333333334</ele><time>2026-03-28T13:12:09Z</time></trkpt><trkpt lat="45.94414786205187" lon="10.240380624072268"><ele>716.0</ele><time>2026-03-28T13:12:10Z</time></trkpt><trkpt lat="45.94406842599399" lon="10.240323478727694"><ele>718.6666666666667</ele><time>2026-03-28T13:12:11Z</time></trkpt><trkpt lat="45.9440195836241" lon="10.240242595547167"><ele>721.3333333333334</ele><time>2026-03-28T13:12:12Z</time></trkpt><trkpt lat="45.94400123498761" lon="10.240151818325131"><ele>724.0</ele><time>2026-03-28T13:12:13Z</time></trkpt><trkpt lat="45.944049983855884" lon="10.240074816742155"><ele>724.0</ele><time>2026-03-28T13:12:14Z</time></trkpt><trkpt lat="45.94406298480937" lon="10.23997351096189"><ele>724.0</ele><time>2026-03-28T13:12:15Z</time></trkpt><trkpt lat="45.94407923452175" lon="10.239859590060902"><ele>724.0</ele><time>2026-03-28T13:12:17Z</time></trkpt><trkpt lat="45.94409397372843" lon="10.239760337179545"><ele>724.0</ele><time>2026-03-28T13:12:20Z</time></trkpt><trkpt lat="45.94399300034906" lon="10.239652431488732"><ele>724.0</ele><time>2026-03-28T13:12:21Z</time></trkpt><trkpt lat="45.94391880915094" lon="10.239567687795565"><ele>724.0</ele><time>2026-03-28T13:12:22Z</time></trkpt><trkpt lat="45.943815446671735" lon="10.23951096521546"><ele>726.4000000000001</ele><time>2026-03-28T13:12:23Z</time></trkpt><trkpt lat="45.94371042691483" lon="10.239439434613306"><ele>728.8</ele><time>2026-03-28T13:12:24Z</time></trkpt><trkpt lat="45.94361504062228" lon="10.239365305923084"><ele>731.2</ele><time>2026-03-28T13:12:25Z</time></trkpt><trkpt lat="45.94353623257474" lon="10.239296185171094"><ele>733.5999999999999</ele><time>2026-03-28T13:12:26Z</time></trkpt><trkpt lat="45.94347957781278" lon="10.239191087500716"><ele>736.0</ele><time>2026-03-28T13:12:27Z</time></trkpt><trkpt lat="45.9434537985863" lon="10.239070794002904"><ele>736.0</ele><time>2026-03-28T13:12:28Z</time></trkpt><trkpt lat="45.94344914383619" lon="10.238973704492661"><ele>736.0</ele><time>2026-03-28T13:12:29Z</time></trkpt><trkpt lat="45.943486677123026" lon="10.238882313310697"><ele>736.0</ele><time>2026-03-28T13:12:35Z</time></trkpt><trkpt lat="45.943339155860514" lon="10.238752084775866"><ele>736.0</ele><time>2026-03-28T13:12:37Z</time></trkpt><trkpt lat="45.94328682363817" lon="10.238613388087193"><ele>736.0</ele><time>2026-03-28T13:12:38Z</time></trkpt><trkpt lat="45.94324324439138" lon="10.238498503130417"><ele>736.5</ele><time>2026-03-28T13:12:39Z</time></trkpt><trkpt lat="45.94321982248676" lon="10.2383126042284"><ele>737.0</ele><time>2026-03-28T13:12:40Z</time></trkpt><trkpt lat="45.94317464285892" lon="10.238122050624025"><ele>737.5</ele><time>2026-03-28T13:12:41Z</time></trkpt><trkpt lat="45.94311744439754" lon="10.237925272196826"><ele>738.0</ele><time>2026-03-28T13:12:42Z</time></trkpt><trkpt lat="45.943060085948126" lon="10.23771106180704"><ele>738.75</ele><time>2026-03-28T13:12:43Z</time></trkpt><trkpt lat="45.9430095262894" lon="10.237492887815286"><ele>739.5</ele><time>2026-03-28T13:12:44Z</time></trkpt><trkpt lat="45.942959187794486" lon="10.237292315181124"><ele>740.25</ele><time>2026-03-28T13:12:45Z</time></trkpt><trkpt lat="45.942913932209635" lon="10.237119893314418"><ele>741.0</ele><time>2026-03-28T13:12:46Z</time></trkpt><trkpt lat="45.94287203966004" lon="10.236959070506641"><ele>742.1999999999999</ele><time>2026-03-28T13:12:47Z</time></trkpt><trkpt lat="45.942829051992156" lon="10.23681427526514"><ele>743.4</ele><time>2026-03-28T13:12:48Z</time></trkpt><trkpt lat="45.94279196443138" lon="10.23666562660958"><ele>744.6</ele><time>2026-03-28T13:12:49Z</time></trkpt><trkpt lat="45.94274856949629" lon="10.236518030664623"><ele>745.8</ele><time>2026-03-28T13:12:50Z</time></trkpt><trkpt lat="45.942699521966546" lon="10.236373213624079"><ele>747.0</ele><time>2026-03-28T13:12:51Z</time></trkpt><trkpt lat="45.94265915816875" lon="10.236224179847797"><ele>747.5</ele><time>2026-03-28T13:12:52Z</time></trkpt><trkpt lat="45.94261546907496" lon="10.23607294421129"><ele>748.0</ele><time>2026-03-28T13:12:53Z</time></trkpt><trkpt lat="45.94256866305141" lon="10.23591326461049"><ele>748.5</ele><time>2026-03-28T13:12:54Z</time></trkpt><trkpt lat="45.942520059173404" lon="10.235747182419095"><ele>749.0</ele><time>2026-03-28T13:12:55Z</time></trkpt><trkpt lat="45.9424676228606" lon="10.23558077478075"><ele>749.2</ele><time>2026-03-28T13:12:56Z</time></trkpt><trkpt lat="45.942412883873004" lon="10.235427737004589"><ele>749.4000000000001</ele><time>2026-03-28T13:12:57Z</time></trkpt><trkpt lat="45.94236203539503" lon="10.235286333708057"><ele>749.6</ele><time>2026-03-28T13:12:58Z</time></trkpt><trkpt lat="45.94232711816006" lon="10.23513844699695"><ele>749.8</ele><time>2026-03-28T13:12:59Z</time></trkpt><trkpt lat="45.942268791216364" lon="10.235008469336393"><ele>750.0</ele><time>2026-03-28T13:13:00Z</time></trkpt><trkpt lat="45.94222651108218" lon="10.23489205238246"><ele>750.0</ele><time>2026-03-28T13:13:01Z</time></trkpt><trkpt lat="45.94217780475666" lon="10.234812392843335"><ele>750.0</ele><time>2026-03-28T13:13:02Z</time></trkpt><trkpt lat="45.94210943310743" lon="10.23468080796747"><ele>750.0</ele><time>2026-03-28T13:13:04Z</time></trkpt><trkpt lat="45.94203499012808" lon="10.234674740540685"><ele>750.0</ele><time>2026-03-28T13:13:05Z</time></trkpt><trkpt lat="45.94192431302658" lon="10.234629954614334"><ele>750.0</ele><time>2026-03-28T13:13:07Z</time></trkpt><trkpt lat="45.94193152743807" lon="10.234539242571852"><ele>750.0</ele><time>2026-03-28T13:13:08Z</time></trkpt><trkpt lat="45.94191750479699" lon="10.234445195594034"><ele>750.4</ele><time>2026-03-28T13:13:09Z</time></trkpt><trkpt lat="45.941916108018006" lon="10.234318535963288"><ele>750.8</ele><time>2026-03-28T13:13:10Z</time></trkpt><trkpt lat="45.94194674160137" lon="10.234165619554416"><ele>751.2</ele><time>2026-03-28T13:13:11Z</time></trkpt><trkpt lat="45.94197880560931" lon="10.234025291830873"><ele>751.6</ele><time>2026-03-28T13:13:12Z</time></trkpt><trkpt lat="45.94201419915448" lon="10.23387254517117"><ele>752.0</ele><time>2026-03-28T13:13:13Z</time></trkpt><trkpt lat="45.94205184128852" lon="10.233710093890013"><ele>752.6</ele><time>2026-03-28T13:13:14Z</time></trkpt><trkpt lat="45.94208583513531" lon="10.23356111999597"><ele>753.2</ele><time>2026-03-28T13:13:15Z</time></trkpt><trkpt lat="45.942117587828335" lon="10.233422302793066"><ele>753.8</ele><time>2026-03-28T13:13:16Z</time></trkpt><trkpt lat="45.94215087303709" lon="10.233284604822028"><ele>754.4</ele><time>2026-03-28T13:13:17Z</time></trkpt><trkpt lat="45.94218150500683" lon="10.233156546775955"><ele>755.0</ele><time>2026-03-28T13:13:18Z</time></trkpt><trkpt lat="45.942212627560686" lon="10.233023082793606"><ele>755.0</ele><time>2026-03-28T13:13:19Z</time></trkpt><trkpt lat="45.942245862372765" lon="10.232873140192439"><ele>755.0</ele><time>2026-03-28T13:13:20Z</time></trkpt><trkpt lat="45.942275960237346" lon="10.232704280484835"><ele>755.0</ele><time>2026-03-28T13:13:21Z</time></trkpt><trkpt lat="45.94226632910279" lon="10.232525889483382"><ele>755.0</ele><time>2026-03-28T13:13:22Z</time></trkpt><trkpt lat="45.9422541287927" lon="10.232359158869055"><ele>755.2</ele><time>2026-03-28T13:13:23Z</time></trkpt><trkpt lat="45.94221625995937" lon="10.23221009996538"><ele>755.4</ele><time>2026-03-28T13:13:24Z</time></trkpt><trkpt lat="45.94215485879452" lon="10.232093421014188"><ele>755.5999999999999</ele><time>2026-03-28T13:13:25Z</time></trkpt><trkpt lat="45.942084511443696" lon="10.23197951843573"><ele>755.8</ele><time>2026-03-28T13:13:26Z</time></trkpt><trkpt lat="45.94202160749669" lon="10.231844750489818"><ele>756.0</ele><time>2026-03-28T13:13:27Z</time></trkpt><trkpt lat="45.941998908821745" lon="10.231675286760925"><ele>756.0</ele><time>2026-03-28T13:13:28Z</time></trkpt><trkpt lat="45.94195530046358" lon="10.231527661964332"><ele>756.0</ele><time>2026-03-28T13:13:29Z</time></trkpt><trkpt lat="45.94193518689657" lon="10.231376659467859"><ele>756.0</ele><time>2026-03-28T13:13:30Z</time></trkpt><trkpt lat="45.94191652601491" lon="10.23123074154462"><ele>756.0</ele><time>2026-03-28T13:13:31Z</time></trkpt><trkpt lat="45.941903768832944" lon="10.231090021364007"><ele>756.0</ele><time>2026-03-28T13:13:32Z</time></trkpt><trkpt lat="45.941883436584135" lon="10.230968357674628"><ele>756.5</ele><time>2026-03-28T13:13:33Z</time></trkpt><trkpt lat="45.94184517288562" lon="10.230864908670894"><ele>757.0</ele><time>2026-03-28T13:13:34Z</time></trkpt><trkpt lat="45.94178055733914" lon="10.230781137384861"><ele>757.5</ele><time>2026-03-28T13:13:35Z</time></trkpt><trkpt lat="45.94170765094056" lon="10.230721578227207"><ele>758.0</ele><time>2026-03-28T13:13:36Z</time></trkpt><trkpt lat="45.941642662311985" lon="10.230659819197323"><ele>758.5</ele><time>2026-03-28T13:13:37Z</time></trkpt><trkpt lat="45.941585005888356" lon="10.230580088649136"><ele>759.0</ele><time>2026-03-28T13:13:38Z</time></trkpt><trkpt lat="45.94154340672376" lon="10.230483362346853"><ele>754.6666666666666</ele><time>2026-03-28T13:13:39Z</time></trkpt><trkpt lat="45.941522680408006" lon="10.230374313265825"><ele>750.3333333333334</ele><time>2026-03-28T13:13:40Z</time></trkpt><trkpt lat="45.94153219202299" lon="10.230262135236604"><ele>746.0</ele><time>2026-03-28T13:13:41Z</time></trkpt><trkpt lat="45.94153624806903" lon="10.230143668953213"><ele>741.6666666666667</ele><time>2026-03-28T13:13:42Z</time></trkpt><trkpt lat="45.94152145624453" lon="10.23003562236266"><ele>737.3333333333334</ele><time>2026-03-28T13:13:43Z</time></trkpt><trkpt lat="45.94150196347637" lon="10.229916134911337"><ele>733.0</ele><time>2026-03-28T13:13:44Z</time></trkpt><trkpt lat="45.94148943478239" lon="10.229802578949895"><ele>732.0</ele><time>2026-03-28T13:13:45Z</time></trkpt><trkpt lat="45.94147269555958" lon="10.22968154137844"><ele>731.0</ele><time>2026-03-28T13:13:46Z</time></trkpt><trkpt lat="45.94145682951854" lon="10.229563250615417"><ele>730.0</ele><time>2026-03-28T13:13:47Z</time></trkpt><trkpt lat="45.94144015623792" lon="10.22945013306879"><ele>729.0</ele><time>2026-03-28T13:13:48Z</time></trkpt><trkpt lat="45.94143717817846" lon="10.229335238519743"><ele>728.0</ele><time>2026-03-28T13:13:49Z</time></trkpt><trkpt lat="45.94145310761187" lon="10.229227079380953"><ele>727.0</ele><time>2026-03-28T13:13:50Z</time></trkpt><trkpt lat="45.94147801799227" lon="10.22911641695923"><ele>727.0</ele><time>2026-03-28T13:13:51Z</time></trkpt><trkpt lat="45.941514283500304" lon="10.229000839523573"><ele>727.0</ele><time>2026-03-28T13:13:52Z</time></trkpt><trkpt lat="45.94156468554704" lon="10.22885809297067"><ele>727.0</ele><time>2026-03-28T13:13:53Z</time></trkpt><trkpt lat="45.941630866163685" lon="10.228686040095408"><ele>727.0</ele><time>2026-03-28T13:13:54Z</time></trkpt><trkpt lat="45.94171548920394" lon="10.228460611615532"><ele>728.0</ele><time>2026-03-28T13:13:55Z</time></trkpt><trkpt lat="45.941757874277904" lon="10.2282066495631"><ele>729.0</ele><time>2026-03-28T13:13:56Z</time></trkpt><trkpt lat="45.94178541454588" lon="10.227989557179836"><ele>730.0</ele><time>2026-03-28T13:13:57Z</time></trkpt><trkpt lat="45.941822377359166" lon="10.227790473720711"><ele>730.0</ele><time>2026-03-28T13:13:58Z</time></trkpt><trkpt lat="45.94187472580032" lon="10.227617621822674"><ele>730.0</ele><time>2026-03-28T13:13:59Z</time></trkpt><trkpt lat="45.94194610348286" lon="10.227463589327202"><ele>730.0</ele><time>2026-03-28T13:14:00Z</time></trkpt><trkpt lat="45.94202678844985" lon="10.22732770982171"><ele>730.0</ele><time>2026-03-28T13:14:01Z</time></trkpt><trkpt lat="45.94211225006573" lon="10.227201192678939"><ele>727.5</ele><time>2026-03-28T13:14:02Z</time></trkpt><trkpt lat="45.94218060513634" lon="10.22704907258506"><ele>725.0</ele><time>2026-03-28T13:14:03Z</time></trkpt><trkpt lat="45.9422491173886" lon="10.22689445248221"><ele>722.5</ele><time>2026-03-28T13:14:04Z</time></trkpt><trkpt lat="45.94230854080143" lon="10.226742400766586"><ele>720.0</ele><time>2026-03-28T13:14:05Z</time></trkpt><trkpt lat="45.94237168152261" lon="10.226582858810643"><ele>717.8</ele><time>2026-03-28T13:14:06Z</time></trkpt><trkpt lat="45.94244759256044" lon="10.226453179439973"><ele>715.6</ele><time>2026-03-28T13:14:07Z</time></trkpt><trkpt lat="45.94254764507553" lon="10.226389944538449"><ele>713.4000000000001</ele><time>2026-03-28T13:14:08Z</time></trkpt><trkpt lat="45.942628653772175" lon="10.226304753136345"><ele>711.2</ele><time>2026-03-28T13:14:09Z</time></trkpt><trkpt lat="45.9427079274844" lon="10.226232624007839"><ele>709.0</ele><time>2026-03-28T13:14:10Z</time></trkpt><trkpt lat="45.94279010666287" lon="10.226160820141047"><ele>717.2</ele><time>2026-03-28T13:14:11Z</time></trkpt><trkpt lat="45.94286241375035" lon="10.226094710167777"><ele>725.4000000000001</ele><time>2026-03-28T13:14:12Z</time></trkpt><trkpt lat="45.942918301387074" lon="10.226022832891996"><ele>733.6</ele><time>2026-03-28T13:14:13Z</time></trkpt><trkpt lat="45.94289803180427" lon="10.225863193964072"><ele>741.8</ele><time>2026-03-28T13:14:14Z</time></trkpt><trkpt lat="45.94285335791657" lon="10.225755112173298"><ele>750.0</ele><time>2026-03-28T13:14:15Z</time></trkpt><trkpt lat="45.94277530690169" lon="10.225653981116363"><ele>750.4</ele><time>2026-03-28T13:14:16Z</time></trkpt><trkpt lat="45.94272598326834" lon="10.225559399798874"><ele>750.8</ele><time>2026-03-28T13:14:17Z</time></trkpt><trkpt lat="45.942673747321734" lon="10.225388168584379"><ele>751.2</ele><time>2026-03-28T13:14:18Z</time></trkpt><trkpt lat="45.94261625745798" lon="10.225255349699435"><ele>751.6</ele><time>2026-03-28T13:14:19Z</time></trkpt><trkpt lat="45.94257721730311" lon="10.225124829801155"><ele>752.0</ele><time>2026-03-28T13:14:20Z</time></trkpt><trkpt lat="45.942532750043966" lon="10.224978368846683"><ele>742.5</ele><time>2026-03-28T13:14:21Z</time></trkpt><trkpt lat="45.94250022100833" lon="10.224803202532735"><ele>733.0</ele><time>2026-03-28T13:14:22Z</time></trkpt><trkpt lat="45.94251749417894" lon="10.224637957557002"><ele>723.5</ele><time>2026-03-28T13:14:23Z</time></trkpt><trkpt lat="45.94250399392001" lon="10.224465229974696"><ele>714.0</ele><time>2026-03-28T13:14:24Z</time></trkpt><trkpt lat="45.94248626628072" lon="10.224299435790975"><ele>714.0</ele><time>2026-03-28T13:14:25Z</time></trkpt><trkpt lat="45.942394728260815" lon="10.22420171249512"><ele>714.0</ele><time>2026-03-28T13:14:26Z</time></trkpt><trkpt lat="45.94231355740899" lon="10.224080149004383"><ele>714.0</ele><time>2026-03-28T13:14:27Z</time></trkpt><trkpt lat="45.94220563571586" lon="10.223935993015196"><ele>714.0</ele><time>2026-03-28T13:14:28Z</time></trkpt><trkpt lat="45.94209640209417" lon="10.2238333156056"><ele>716.25</ele><time>2026-03-28T13:14:29Z</time></trkpt><trkpt lat="45.94198032239694" lon="10.223734217483646"><ele>718.5</ele><time>2026-03-28T13:14:30Z</time></trkpt><trkpt lat="45.94187782750992" lon="10.223649592146653"><ele>720.75</ele><time>2026-03-28T13:14:31Z</time></trkpt><trkpt lat="45.941780876736836" lon="10.223572886977776"><ele>723.0</ele><time>2026-03-28T13:14:32Z</time></trkpt><trkpt lat="45.941686734327476" lon="10.223516587935531"><ele>719.3333333333334</ele><time>2026-03-28T13:14:33Z</time></trkpt><trkpt lat="45.94159722522217" lon="10.223489001098915"><ele>715.6666666666666</ele><time>2026-03-28T13:14:34Z</time></trkpt><trkpt lat="45.9415079612768" lon="10.223483785488693"><ele>712.0</ele><time>2026-03-28T13:14:35Z</time></trkpt><trkpt lat="45.94143821967414" lon="10.223504627794469"><ele>708.3333333333333</ele><time>2026-03-28T13:14:36Z</time></trkpt><trkpt lat="45.94136573767023" lon="10.223555820412484"><ele>704.6666666666666</ele><time>2026-03-28T13:14:37Z</time></trkpt><trkpt lat="45.94130694989912" lon="10.223611426696303"><ele>701.0</ele><time>2026-03-28T13:14:38Z</time></trkpt><trkpt lat="45.94119247664439" lon="10.223692222097435"><ele>701.0</ele><time>2026-03-28T13:14:39Z</time></trkpt><trkpt lat="45.94112103120756" lon="10.223823772095397"><ele>701.0</ele><time>2026-03-28T13:14:40Z</time></trkpt><trkpt lat="45.94107111487341" lon="10.223890567416982"><ele>701.0</ele><time>2026-03-28T13:14:41Z</time></trkpt><trkpt lat="45.941027237647845" lon="10.22401309169938"><ele>701.0</ele><time>2026-03-28T13:14:42Z</time></trkpt><trkpt lat="45.94094037593144" lon="10.224044642169156"><ele>701.0</ele><time>2026-03-28T13:14:43Z</time></trkpt><trkpt lat="45.94085208027365" lon="10.224063434937294"><ele>700.0</ele><time>2026-03-28T13:14:44Z</time></trkpt><trkpt lat="45.94071632220818" lon="10.224085171827758"><ele>699.0</ele><time>2026-03-28T13:14:45Z</time></trkpt><trkpt lat="45.94059560285116" lon="10.22410288976361"><ele>698.0</ele><time>2026-03-28T13:14:46Z</time></trkpt><trkpt lat="45.940477186496906" lon="10.224132702169602"><ele>697.0</ele><time>2026-03-28T13:14:47Z</time></trkpt><trkpt lat="45.940379801234506" lon="10.224162096952405"><ele>697.0</ele><time>2026-03-28T13:14:48Z</time></trkpt><trkpt lat="45.94026666113274" lon="10.224180355789183"><ele>697.0</ele><time>2026-03-28T13:14:49Z</time></trkpt><trkpt lat="45.94020404521639" lon="10.224193811532201"><ele>697.0</ele><time>2026-03-28T13:14:50Z</time></trkpt><trkpt lat="45.940154938666275" lon="10.224275391586675"><ele>697.0</ele><time>2026-03-28T13:14:51Z</time></trkpt><trkpt lat="45.94013332030734" lon="10.224123385737535"><ele>697.0</ele><time>2026-03-28T13:14:56Z</time></trkpt><trkpt lat="45.94014322965041" lon="10.224031413974368"><ele>697.0</ele><time>2026-03-28T13:14:57Z</time></trkpt><trkpt lat="45.94015845573905" lon="10.22387052353868"><ele>698.75</ele><time>2026-03-28T13:14:58Z</time></trkpt><trkpt lat="45.94016952986063" lon="10.223739469720146"><ele>700.5</ele><time>2026-03-28T13:14:59Z</time></trkpt><trkpt lat="45.94019555629926" lon="10.223533137591275"><ele>702.25</ele><time>2026-03-28T13:15:00Z</time></trkpt><trkpt lat="45.94021316103496" lon="10.223358353333328"><ele>704.0</ele><time>2026-03-28T13:15:01Z</time></trkpt><trkpt lat="45.94027051263789" lon="10.223242207580778"><ele>704.0</ele><time>2026-03-28T13:15:02Z</time></trkpt><trkpt lat="45.94032331934945" lon="10.223180552408488"><ele>704.0</ele><time>2026-03-28T13:15:03Z</time></trkpt><trkpt lat="45.94038423409609" lon="10.223151029461274"><ele>704.0</ele><time>2026-03-28T13:15:04Z</time></trkpt><trkpt lat="45.94044355181163" lon="10.223112395279792"><ele>704.0</ele><time>2026-03-28T13:15:05Z</time></trkpt><trkpt lat="45.940508774539694" lon="10.223057047298788"><ele>704.0</ele><time>2026-03-28T13:15:06Z</time></trkpt><trkpt lat="45.94058015959823" lon="10.222989410341729"><ele>704.0</ele><time>2026-03-28T13:15:07Z</time></trkpt><trkpt lat="45.94052256134378" lon="10.222590844837569"><ele>706.0</ele><time>2026-03-28T13:15:08Z</time></trkpt><trkpt lat="45.94051801876013" lon="10.222409916635037"><ele>708.0</ele><time>2026-03-28T13:15:09Z</time></trkpt><trkpt lat="45.94052775005856" lon="10.22223528319853"><ele>710.0</ele><time>2026-03-28T13:15:10Z</time></trkpt><trkpt lat="45.94054743285707" lon="10.222098706125566"><ele>712.0</ele><time>2026-03-28T13:15:11Z</time></trkpt><trkpt lat="45.94058492202383" lon="10.221962227633226"><ele>714.0</ele><time>2026-03-28T13:15:12Z</time></trkpt><trkpt lat="45.94064400286365" lon="10.221816896170818"><ele>716.1666666666666</ele><time>2026-03-28T13:15:13Z</time></trkpt><trkpt lat="45.94068168678257" lon="10.221682070053763"><ele>718.3333333333334</ele><time>2026-03-28T13:15:14Z</time></trkpt><trkpt lat="45.9407176063643" lon="10.22158193599872"><ele>720.5</ele><time>2026-03-28T13:15:15Z</time></trkpt><trkpt lat="45.94075666526706" lon="10.22150509505749"><ele>722.6666666666667</ele><time>2026-03-28T13:15:16Z</time></trkpt><trkpt lat="45.94076352467578" lon="10.22132207125997"><ele>724.8333333333334</ele><time>2026-03-28T13:15:18Z</time></trkpt><trkpt lat="45.94075735851437" lon="10.221225823333837"><ele>727.0</ele><time>2026-03-28T13:15:19Z</time></trkpt><trkpt lat="45.9407414426166" lon="10.221120851732385"><ele>728.1666666666667</ele><time>2026-03-28T13:15:20Z</time></trkpt><trkpt lat="45.94070910215767" lon="10.220996410592928"><ele>729.3333333333334</ele><time>2026-03-28T13:15:21Z</time></trkpt><trkpt lat="45.940686648680334" lon="10.220864481154303"><ele>730.5</ele><time>2026-03-28T13:15:22Z</time></trkpt><trkpt lat="45.9406683651245" lon="10.220749749248766"><ele>731.6666666666666</ele><time>2026-03-28T13:15:23Z</time></trkpt><trkpt lat="45.94063987982441" lon="10.220645688128624"><ele>732.8333333333333</ele><time>2026-03-28T13:15:24Z</time></trkpt><trkpt lat="45.940604130707186" lon="10.220540709679247"><ele>734.0</ele><time>2026-03-28T13:15:25Z</time></trkpt><trkpt lat="45.94055806428023" lon="10.2204413513581"><ele>734.6</ele><time>2026-03-28T13:15:26Z</time></trkpt><trkpt lat="45.9405204277309" lon="10.220319241723617"><ele>735.2</ele><time>2026-03-28T13:15:27Z</time></trkpt><trkpt lat="45.94048706662984" lon="10.220197486101144"><ele>735.8000000000001</ele><time>2026-03-28T13:15:28Z</time></trkpt><trkpt lat="45.94048020547574" lon="10.220094144839777"><ele>736.4000000000001</ele><time>2026-03-28T13:15:29Z</time></trkpt><trkpt lat="45.94041281812495" lon="10.21991838572166"><ele>737.0</ele><time>2026-03-28T13:15:31Z</time></trkpt><trkpt lat="45.94037974911258" lon="10.219802389525322"><ele>737.5</ele><time>2026-03-28T13:15:32Z</time></trkpt><trkpt lat="45.94035697530624" lon="10.219671841882409"><ele>738.0</ele><time>2026-03-28T13:15:33Z</time></trkpt><trkpt lat="45.94033522428082" lon="10.219543442402008"><ele>738.5</ele><time>2026-03-28T13:15:34Z</time></trkpt><trkpt lat="45.94028143205172" lon="10.21943563267046"><ele>739.0</ele><time>2026-03-28T13:15:35Z</time></trkpt><trkpt lat="45.94021873913042" lon="10.219348859836613"><ele>739.5</ele><time>2026-03-28T13:15:36Z</time></trkpt><trkpt lat="45.94014806267945" lon="10.219284316337712"><ele>740.0</ele><time>2026-03-28T13:15:37Z</time></trkpt><trkpt lat="45.94005997523951" lon="10.219233591369491"><ele>747.4</ele><time>2026-03-28T13:15:38Z</time></trkpt><trkpt lat="45.93997830467106" lon="10.219155437348608"><ele>754.8</ele><time>2026-03-28T13:15:39Z</time></trkpt><trkpt lat="45.93990745975173" lon="10.219070147831822"><ele>762.2</ele><time>2026-03-28T13:15:40Z</time></trkpt><trkpt lat="45.939833663207764" lon="10.218976870323678"><ele>769.6</ele><time>2026-03-28T13:15:41Z</time></trkpt><trkpt lat="45.93977027300396" lon="10.218864145475123"><ele>777.0</ele><time>2026-03-28T13:15:42Z</time></trkpt><trkpt lat="45.939710060784705" lon="10.218756768836283"><ele>777.1666666666666</ele><time>2026-03-28T13:15:43Z</time></trkpt><trkpt lat="45.939670212018044" lon="10.218658357878649"><ele>777.3333333333333</ele><time>2026-03-28T13:15:44Z</time></trkpt><trkpt lat="45.93963670271439" lon="10.218547647565579"><ele>777.5</ele><time>2026-03-28T13:15:45Z</time></trkpt><trkpt lat="45.93961224409709" lon="10.218454567185521"><ele>777.6666666666666</ele><time>2026-03-28T13:15:46Z</time></trkpt><trkpt lat="45.93957682857859" lon="10.218365184566409"><ele>777.8333333333333</ele><time>2026-03-28T13:15:47Z</time></trkpt><trkpt lat="45.93948953064431" lon="10.218260641384221"><ele>778.0</ele><time>2026-03-28T13:15:49Z</time></trkpt><trkpt lat="45.93939581585855" lon="10.21814030784569"><ele>779.0</ele><time>2026-03-28T13:15:51Z</time></trkpt><trkpt lat="45.93931807364669" lon="10.218055900347714"><ele>780.0</ele><time>2026-03-28T13:15:53Z</time></trkpt><trkpt lat="45.93919474901007" lon="10.217998082172569"><ele>781.0</ele><time>2026-03-28T13:15:55Z</time></trkpt><trkpt lat="45.93910124202454" lon="10.217903521222842"><ele>782.0</ele><time>2026-03-28T13:15:57Z</time></trkpt><trkpt lat="45.9390415406755" lon="10.21783034557918"><ele>783.0</ele><time>2026-03-28T13:15:58Z</time></trkpt><trkpt lat="45.93898062834826" lon="10.21776570801128"><ele>785.8</ele><time>2026-03-28T13:15:59Z</time></trkpt><trkpt lat="45.93892474077419" lon="10.217712134585387"><ele>788.5999999999999</ele><time>2026-03-28T13:16:00Z</time></trkpt><trkpt lat="45.938833235418215" lon="10.217595533533853"><ele>791.4000000000001</ele><time>2026-03-28T13:16:02Z</time></trkpt><trkpt lat="45.93871579760316" lon="10.217490035669655"><ele>794.2</ele><time>2026-03-28T13:16:04Z</time></trkpt><trkpt lat="45.9386598248202" lon="10.217434783236532"><ele>797.0</ele><time>2026-03-28T13:16:05Z</time></trkpt><trkpt lat="45.938604931796434" lon="10.217366181176203"><ele>797.0</ele><time>2026-03-28T13:16:06Z</time></trkpt><trkpt lat="45.938547587915146" lon="10.217300688004926"><ele>797.0</ele><time>2026-03-28T13:16:07Z</time></trkpt><trkpt lat="45.93845145895019" lon="10.217210890014593"><ele>797.0</ele><time>2026-03-28T13:16:09Z</time></trkpt><trkpt lat="45.938372630857884" lon="10.217055874441423"><ele>797.0</ele><time>2026-03-28T13:16:11Z</time></trkpt><trkpt lat="45.93832148528552" lon="10.21699448615647"><ele>797.0</ele><time>2026-03-28T13:16:12Z</time></trkpt><trkpt lat="45.93827575701786" lon="10.216908841824612"><ele>799.5000000000001</ele><time>2026-03-28T13:16:13Z</time></trkpt><trkpt lat="45.93822627910859" lon="10.216814321560134"><ele>802.0</ele><time>2026-03-28T13:16:14Z</time></trkpt><trkpt lat="45.938155498190035" lon="10.216706805660156"><ele>804.5</ele><time>2026-03-28T13:16:15Z</time></trkpt><trkpt lat="45.93809696216442" lon="10.216619830001108"><ele>807.0</ele><time>2026-03-28T13:16:16Z</time></trkpt><trkpt lat="45.93803564247065" lon="10.216525740068835"><ele>809.5000000000001</ele><time>2026-03-28T13:16:17Z</time></trkpt><trkpt lat="45.93798804688211" lon="10.216443257200673"><ele>812.0</ele><time>2026-03-28T13:16:18Z</time></trkpt><trkpt lat="45.937919277872496" lon="10.216367217554813"><ele>812.0000000000001</ele><time>2026-03-28T13:16:19Z</time></trkpt><trkpt lat="45.93785405607416" lon="10.216283386369513"><ele>812.0</ele><time>2026-03-28T13:16:20Z</time></trkpt><trkpt lat="45.93780626050366" lon="10.216193901737277"><ele>812.0</ele><time>2026-03-28T13:16:21Z</time></trkpt><trkpt lat="45.93774488802044" lon="10.216113343817819"><ele>812.0</ele><time>2026-03-28T13:16:22Z</time></trkpt><trkpt lat="45.937679485609635" lon="10.2160403238431"><ele>812.0000000000001</ele><time>2026-03-28T13:16:23Z</time></trkpt><trkpt lat="45.9376087183165" lon="10.215979575270788"><ele>812.0</ele><time>2026-03-28T13:16:24Z</time></trkpt><trkpt lat="45.937555375022484" lon="10.215908774761191"><ele>816.0000000000001</ele><time>2026-03-28T13:16:25Z</time></trkpt><trkpt lat="45.93750542437955" lon="10.215834368614663"><ele>820.0</ele><time>2026-03-28T13:16:26Z</time></trkpt><trkpt lat="45.93746786640161" lon="10.215733104881826"><ele>824.0</ele><time>2026-03-28T13:16:28Z</time></trkpt><trkpt lat="45.93742952720141" lon="10.215639394650125"><ele>828.0</ele><time>2026-03-28T13:17:38Z</time></trkpt><trkpt lat="45.93737625185045" lon="10.215573623927197"><ele>832.0000000000001</ele><time>2026-03-28T13:17:40Z</time></trkpt><trkpt lat="45.93731018579441" lon="10.215442017742046"><ele>836.0</ele><time>2026-03-28T13:17:42Z</time></trkpt><trkpt lat="45.93728688714507" lon="10.215355342361152"><ele>836.0</ele><time>2026-03-28T13:17:43Z</time></trkpt><trkpt lat="45.937224690312334" lon="10.215264450227425"><ele>836.0</ele><time>2026-03-28T13:17:44Z</time></trkpt><trkpt lat="45.93718219986419" lon="10.21518739735467"><ele>836.0</ele><time>2026-03-28T13:17:45Z</time></trkpt><trkpt lat="45.93710481719481" lon="10.215068083199112"><ele>836.0</ele><time>2026-03-28T13:17:47Z</time></trkpt><trkpt lat="45.937038759070475" lon="10.214966970528836"><ele>836.0</ele><time>2026-03-28T13:17:49Z</time></trkpt><trkpt lat="45.93694360759493" lon="10.214858387703911"><ele>836.4</ele><time>2026-03-28T13:17:51Z</time></trkpt><trkpt lat="45.93688721859256" lon="10.214721654390232"><ele>836.8</ele><time>2026-03-28T13:17:53Z</time></trkpt><trkpt lat="45.93682849442495" lon="10.21464657963394"><ele>837.1999999999999</ele><time>2026-03-28T13:17:54Z</time></trkpt><trkpt lat="45.936744829402556" lon="10.214547972943521"><ele>837.5999999999999</ele><time>2026-03-28T13:17:56Z</time></trkpt><trkpt lat="45.93667007486239" lon="10.21445532120093"><ele>838.0</ele><time>2026-03-28T13:17:58Z</time></trkpt><trkpt lat="45.93656643529883" lon="10.214369622480984"><ele>841.1666666666666</ele><time>2026-03-28T13:18:00Z</time></trkpt><trkpt lat="45.9365051505567" lon="10.21428237805426"><ele>844.3333333333333</ele><time>2026-03-28T13:18:02Z</time></trkpt><trkpt lat="45.93645120251509" lon="10.214216032507267"><ele>847.5</ele><time>2026-03-28T13:18:04Z</time></trkpt><trkpt lat="45.93637017584509" lon="10.214136592332009"><ele>850.6666666666667</ele><time>2026-03-28T13:18:10Z</time></trkpt><trkpt lat="45.93631902768454" lon="10.214065895381138"><ele>853.8333333333334</ele><time>2026-03-28T13:18:12Z</time></trkpt><trkpt lat="45.93625549949371" lon="10.213927258734635"><ele>857.0</ele><time>2026-03-28T13:18:14Z</time></trkpt><trkpt lat="45.93619734727111" lon="10.213789088133138"><ele>857.8333333333334</ele><time>2026-03-28T13:18:16Z</time></trkpt><trkpt lat="45.93610579312611" lon="10.21371806261974"><ele>858.6666666666667</ele><time>2026-03-28T13:18:18Z</time></trkpt><trkpt lat="45.93601504047562" lon="10.213661934903893"><ele>859.5</ele><time>2026-03-28T13:18:20Z</time></trkpt><trkpt lat="45.93597375961469" lon="10.213578666478622"><ele>860.3333333333333</ele><time>2026-03-28T13:18:22Z</time></trkpt><trkpt lat="45.93593182001174" lon="10.213496125990728"><ele>861.1666666666666</ele><time>2026-03-28T13:18:24Z</time></trkpt><trkpt lat="45.935874585646935" lon="10.2134400174143"><ele>862.0</ele><time>2026-03-28T13:18:26Z</time></trkpt><trkpt lat="45.935789753084734" lon="10.213391764624218"><ele>864.7142857142858</ele><time>2026-03-28T13:18:29Z</time></trkpt><trkpt lat="45.935733173419806" lon="10.213345619910191"><ele>867.4285714285713</ele><time>2026-03-28T13:18:32Z</time></trkpt><trkpt lat="45.93567223442264" lon="10.21332245000617"><ele>870.1428571428571</ele><time>2026-03-28T13:18:34Z</time></trkpt><trkpt lat="45.9356065818882" lon="10.213278140647594"><ele>872.8571428571429</ele><time>2026-03-28T13:18:39Z</time></trkpt><trkpt lat="45.935668702181786" lon="10.213243288746037"><ele>875.5714285714287</ele><time>2026-03-28T13:18:53Z</time></trkpt><trkpt lat="45.93556490044204" lon="10.213213533774008"><ele>878.2857142857142</ele><time>2026-03-28T13:19:09Z</time></trkpt><trkpt lat="45.93549479296649" lon="10.213196292875395"><ele>881.0</ele><time>2026-03-28T13:19:22Z</time></trkpt><trkpt lat="45.93543208664621" lon="10.213122971163891"><ele>882.0000000000001</ele><time>2026-03-28T13:19:25Z</time></trkpt><trkpt lat="45.93538534156737" lon="10.213037316897054"><ele>883.0</ele><time>2026-03-28T13:19:29Z</time></trkpt><trkpt lat="45.93531574949025" lon="10.212960865288657"><ele>884.0</ele><time>2026-03-28T13:19:31Z</time></trkpt><trkpt lat="45.935231861810536" lon="10.212914652585363"><ele>885.0</ele><time>2026-03-28T13:19:33Z</time></trkpt><trkpt lat="45.93515878367343" lon="10.21289555563039"><ele>886.0000000000001</ele><time>2026-03-28T13:19:36Z</time></trkpt><trkpt lat="45.935094583162915" lon="10.212839663110598"><ele>887.0</ele><time>2026-03-28T13:19:40Z</time></trkpt><trkpt lat="45.9350466059792" lon="10.212772588874698"><ele>892.0000000000001</ele><time>2026-03-28T13:19:43Z</time></trkpt><trkpt lat="45.93503088936362" lon="10.212683034506007"><ele>897.0</ele><time>2026-03-28T13:19:46Z</time></trkpt><trkpt lat="45.93495793847112" lon="10.21258944316736"><ele>902.0</ele><time>2026-03-28T13:19:48Z</time></trkpt><trkpt lat="45.934906048667614" lon="10.212534405061387"><ele>907.0</ele><time>2026-03-28T13:19:50Z</time></trkpt><trkpt lat="45.93479345328884" lon="10.212496024052973"><ele>912.0000000000001</ele><time>2026-03-28T13:19:52Z</time></trkpt><trkpt lat="45.93473066013112" lon="10.212448254874463"><ele>917.0</ele><time>2026-03-28T13:19:53Z</time></trkpt><trkpt lat="45.93468126722919" lon="10.212362393839385"><ele>915.8</ele><time>2026-03-28T13:19:54Z</time></trkpt><trkpt lat="45.93461765136051" lon="10.212262013801706"><ele>914.6</ele><time>2026-03-28T13:19:56Z</time></trkpt><trkpt lat="45.934601954461804" lon="10.212144859995027"><ele>913.3999999999999</ele><time>2026-03-28T13:20:01Z</time></trkpt><trkpt lat="45.93455707822455" lon="10.212041455905483"><ele>912.1999999999999</ele><time>2026-03-28T13:20:03Z</time></trkpt><trkpt lat="45.93449313129585" lon="10.211921661714236"><ele>911.0</ele><time>2026-03-28T13:20:05Z</time></trkpt><trkpt lat="45.93439493732494" lon="10.211898060670078"><ele>911.0000000000001</ele><time>2026-03-28T13:20:11Z</time></trkpt><trkpt lat="45.93432161105651" lon="10.211862870997024"><ele>911.0</ele><time>2026-03-28T13:20:58Z</time></trkpt><trkpt lat="45.93427826746178" lon="10.211793937292429"><ele>911.0</ele><time>2026-03-28T13:21:01Z</time></trkpt><trkpt lat="45.93422121988631" lon="10.211705716708943"><ele>911.0</ele><time>2026-03-28T13:21:03Z</time></trkpt><trkpt lat="45.93418314517069" lon="10.211609046989151"><ele>911.0000000000001</ele><time>2026-03-28T13:21:05Z</time></trkpt><trkpt lat="45.934110935987015" lon="10.211473676371613"><ele>911.0</ele><time>2026-03-28T13:21:07Z</time></trkpt><trkpt lat="45.93406430072235" lon="10.211387820136823"><ele>919.4</ele><time>2026-03-28T13:21:09Z</time></trkpt><trkpt lat="45.934041289990226" lon="10.211278042261004"><ele>927.8</ele><time>2026-03-28T13:21:13Z</time></trkpt><trkpt lat="45.93399243473123" lon="10.211204611036633"><ele>936.1999999999999</ele><time>2026-03-28T13:21:17Z</time></trkpt><trkpt lat="45.933935497458286" lon="10.211084446999012"><ele>944.5999999999999</ele><time>2026-03-28T13:32:07Z</time></trkpt><trkpt lat="45.93387014020327" lon="10.210948254896469"><ele>953.0</ele><time>2026-03-28T13:32:09Z</time></trkpt><trkpt lat="45.93378721942769" lon="10.210828334716723"><ele>953.0000000000001</ele><time>2026-03-28T13:32:11Z</time></trkpt><trkpt lat="45.93372035711318" lon="10.210750420305137"><ele>953.0</ele><time>2026-03-28T13:32:13Z</time></trkpt><trkpt lat="45.9336861410833" lon="10.21065510861896"><ele>953.0</ele><time>2026-03-28T13:32:15Z</time></trkpt><trkpt lat="45.93363711894828" lon="10.210575313431642"><ele>953.0</ele><time>2026-03-28T13:32:17Z</time></trkpt><trkpt lat="45.933573252589305" lon="10.210479691855404"><ele>953.0000000000001</ele><time>2026-03-28T13:32:20Z</time></trkpt><trkpt lat="45.933512036284455" lon="10.210366882122278"><ele>953.0</ele><time>2026-03-28T13:32:22Z</time></trkpt><trkpt lat="45.93341081854496" lon="10.210332327964952"><ele>958.8</ele><time>2026-03-28T13:32:25Z</time></trkpt><trkpt lat="45.93331874049784" lon="10.210191161812642"><ele>964.5999999999999</ele><time>2026-03-28T13:32:27Z</time></trkpt><trkpt lat="45.9332202909403" lon="10.210122992018821"><ele>970.4000000000001</ele><time>2026-03-28T13:32:28Z</time></trkpt><trkpt lat="45.93315397059372" lon="10.210059269460551"><ele>976.2</ele><time>2026-03-28T13:32:29Z</time></trkpt><trkpt lat="45.9330783670519" lon="10.21001965126326"><ele>982.0</ele><time>2026-03-28T13:32:30Z</time></trkpt><trkpt lat="45.93302801265814" lon="10.209944009430817"><ele>981.9999999999999</ele><time>2026-03-28T13:32:32Z</time></trkpt><trkpt lat="45.93295970296544" lon="10.209941754689519"><ele>982.0</ele><time>2026-03-28T13:32:34Z</time></trkpt><trkpt lat="45.93289949613626" lon="10.20991455908022"><ele>982.0</ele><time>2026-03-28T13:32:36Z</time></trkpt><trkpt lat="45.93282761009634" lon="10.2098858241232"><ele>982.0</ele><time>2026-03-28T13:32:38Z</time></trkpt><trkpt lat="45.932763580228745" lon="10.20981977433655"><ele>981.9999999999999</ele><time>2026-03-28T13:32:40Z</time></trkpt><trkpt lat="45.93268718388126" lon="10.209751717443513"><ele>982.0</ele><time>2026-03-28T13:32:43Z</time></trkpt><trkpt lat="45.93262596772692" lon="10.209679936767778"><ele>985.1666666666666</ele><time>2026-03-28T13:32:45Z</time></trkpt><trkpt lat="45.932562900471176" lon="10.209595843725403"><ele>988.3333333333333</ele><time>2026-03-28T13:32:50Z</time></trkpt><trkpt lat="45.93266401713094" lon="10.209579538161012"><ele>991.5</ele><time>2026-03-28T13:32:53Z</time></trkpt><trkpt lat="45.9326144578917" lon="10.209500439864739"><ele>994.6666666666667</ele><time>2026-03-28T13:33:01Z</time></trkpt><trkpt lat="45.932548820740394" lon="10.209441101636353"><ele>997.8333333333334</ele><time>2026-03-28T13:33:05Z</time></trkpt><trkpt lat="45.932482745426334" lon="10.209407258493947"><ele>1001.0</ele><time>2026-03-28T13:33:09Z</time></trkpt><trkpt lat="45.93243694861193" lon="10.209502282981148"><ele>1003.0</ele><time>2026-03-28T13:33:17Z</time></trkpt><trkpt lat="45.932455251128495" lon="10.209398756913162"><ele>1005.0</ele><time>2026-03-28T13:34:01Z</time></trkpt><trkpt lat="45.93243075872518" lon="10.209308504450194"><ele>1007.0</ele><time>2026-03-28T13:34:33Z</time></trkpt><trkpt lat="45.932406092207074" lon="10.209433746258439"><ele>1009.0</ele><time>2026-03-28T13:34:37Z</time></trkpt><trkpt lat="45.932415138552926" lon="10.209547879510879"><ele>1011.0</ele><time>2026-03-28T13:34:40Z</time></trkpt><trkpt lat="45.93244071940194" lon="10.20963483006666"><ele>1013.0</ele><time>2026-03-28T13:34:44Z</time></trkpt><trkpt lat="45.93247331990344" lon="10.209556054968033"><ele>1015.0</ele><time>2026-03-28T13:34:48Z</time></trkpt><trkpt lat="45.932481732862925" lon="10.20945648037723"><ele>1014.9999999999999</ele><time>2026-03-28T13:34:53Z</time></trkpt><trkpt lat="45.93250094598819" lon="10.209358977060992"><ele>1015.0</ele><time>2026-03-28T13:34:57Z</time></trkpt><trkpt lat="45.9324493922034" lon="10.209293284790173"><ele>1015.0</ele><time>2026-03-28T13:35:01Z</time></trkpt><trkpt lat="45.93251183461617" lon="10.209329049542356"><ele>1015.0</ele><time>2026-03-28T13:35:11Z</time></trkpt><trkpt lat="45.9325616358946" lon="10.209251823533398"><ele>1014.9999999999999</ele><time>2026-03-28T13:35:14Z</time></trkpt><trkpt lat="45.93263390328078" lon="10.209241598851648"><ele>1015.0</ele><time>2026-03-28T13:35:31Z</time></trkpt><trkpt lat="45.93275500955445" lon="10.20903072243204"><ele>1018.6666666666666</ele><time>2026-03-28T13:35:36Z</time></trkpt><trkpt lat="45.932809534918356" lon="10.208936074262263"><ele>1022.3333333333333</ele><time>2026-03-28T13:35:39Z</time></trkpt><trkpt lat="45.93287316252057" lon="10.208925129523912"><ele>1026.0</ele><time>2026-03-28T13:36:13Z</time></trkpt><trkpt lat="45.93293882625553" lon="10.208919096517365"><ele>1029.6666666666667</ele><time>2026-03-28T13:36:15Z</time></trkpt><trkpt lat="45.93303191020056" lon="10.20888513428666"><ele>1033.3333333333335</ele><time>2026-03-28T13:36:16Z</time></trkpt><trkpt lat="45.933132699998836" lon="10.20886512809245"><ele>1037.0</ele><time>2026-03-28T13:36:17Z</time></trkpt><trkpt lat="45.93322765292545" lon="10.208903377229035"><ele>1037.0</ele><time>2026-03-28T13:36:18Z</time></trkpt><trkpt lat="45.933294271586874" lon="10.208921919229871"><ele>1037.0</ele><time>2026-03-28T13:36:19Z</time></trkpt><trkpt lat="45.93340574622061" lon="10.208996606163248"><ele>1037.0</ele><time>2026-03-28T13:36:20Z</time></trkpt><trkpt lat="45.93350171315894" lon="10.209040256760138"><ele>1037.0</ele><time>2026-03-28T13:36:21Z</time></trkpt><trkpt lat="45.93360582084846" lon="10.209060958803347"><ele>1037.0</ele><time>2026-03-28T13:36:22Z</time></trkpt><trkpt lat="45.9336968855555" lon="10.209096160281616"><ele>1028.2</ele><time>2026-03-28T13:36:23Z</time></trkpt><trkpt lat="45.933778675972036" lon="10.209159303619765"><ele>1019.4000000000001</ele><time>2026-03-28T13:36:24Z</time></trkpt><trkpt lat="45.9338583012866" lon="10.20922405624375"><ele>1010.5999999999999</ele><time>2026-03-28T13:36:25Z</time></trkpt><trkpt lat="45.93391300371403" lon="10.209288877341065"><ele>1001.8</ele><time>2026-03-28T13:36:26Z</time></trkpt><trkpt lat="45.93401060066786" lon="10.209338997769967"><ele>993.0</ele><time>2026-03-28T13:36:27Z</time></trkpt><trkpt lat="45.93409414184038" lon="10.209423569895407"><ele>993.0</ele><time>2026-03-28T13:36:28Z</time></trkpt><trkpt lat="45.93416717333581" lon="10.209480770516128"><ele>993.0</ele><time>2026-03-28T13:36:29Z</time></trkpt><trkpt lat="45.93424937534482" lon="10.209535803999989"><ele>993.0</ele><time>2026-03-28T13:36:30Z</time></trkpt><trkpt lat="45.93433375193957" lon="10.209567850668162"><ele>993.0</ele><time>2026-03-28T13:36:31Z</time></trkpt><trkpt lat="45.934400243809705" lon="10.209618734358346"><ele>993.0</ele><time>2026-03-28T13:36:32Z</time></trkpt><trkpt lat="45.93446860001116" lon="10.209628049985799"><ele>993.0</ele><time>2026-03-28T13:36:33Z</time></trkpt><trkpt lat="45.93454759654798" lon="10.209609674013015"><ele>992.4</ele><time>2026-03-28T13:36:34Z</time></trkpt><trkpt lat="45.934648673465944" lon="10.209556665698123"><ele>991.8</ele><time>2026-03-28T13:36:35Z</time></trkpt><trkpt lat="45.93472952558497" lon="10.209489023367643"><ele>991.2</ele><time>2026-03-28T13:36:36Z</time></trkpt><trkpt lat="45.93479856635004" lon="10.20940948545517"><ele>990.6</ele><time>2026-03-28T13:36:37Z</time></trkpt><trkpt lat="45.934859565320174" lon="10.209344189909718"><ele>990.0</ele><time>2026-03-28T13:36:38Z</time></trkpt><trkpt lat="45.934957588932555" lon="10.209327420009869"><ele>990.0</ele><time>2026-03-28T13:36:40Z</time></trkpt><trkpt lat="45.93499304772962" lon="10.209481677975843"><ele>990.0</ele><time>2026-03-28T13:36:42Z</time></trkpt><trkpt lat="45.934999686254486" lon="10.209583002426426"><ele>990.0</ele><time>2026-03-28T13:36:43Z</time></trkpt><trkpt lat="45.93500974043487" lon="10.20968393382631"><ele>990.0</ele><time>2026-03-28T13:36:44Z</time></trkpt><trkpt lat="45.93504592228105" lon="10.209767190455812"><ele>990.0</ele><time>2026-03-28T13:36:45Z</time></trkpt><trkpt lat="45.93510251709891" lon="10.209844108318764"><ele>990.0</ele><time>2026-03-28T13:36:46Z</time></trkpt><trkpt lat="45.935158695859364" lon="10.209922944967012"><ele>984.8333333333334</ele><time>2026-03-28T13:36:47Z</time></trkpt><trkpt lat="45.93522315654528" lon="10.209989801060072"><ele>979.6666666666667</ele><time>2026-03-28T13:36:48Z</time></trkpt><trkpt lat="45.93526777453064" lon="10.210105734793371"><ele>974.5</ele><time>2026-03-28T13:36:49Z</time></trkpt><trkpt lat="45.93533848617609" lon="10.210171806890164"><ele>969.3333333333334</ele><time>2026-03-28T13:36:50Z</time></trkpt><trkpt lat="45.93541601277237" lon="10.210254391424593"><ele>964.1666666666667</ele><time>2026-03-28T13:36:51Z</time></trkpt><trkpt lat="45.935488855580665" lon="10.210344076441332"><ele>959.0</ele><time>2026-03-28T13:36:52Z</time></trkpt><trkpt lat="45.935555931100055" lon="10.210424435997453"><ele>959.0</ele><time>2026-03-28T13:36:53Z</time></trkpt><trkpt lat="45.935633777059216" lon="10.21049223729845"><ele>959.0000000000001</ele><time>2026-03-28T13:36:54Z</time></trkpt><trkpt lat="45.93572042459853" lon="10.21055177018864"><ele>959.0000000000001</ele><time>2026-03-28T13:36:55Z</time></trkpt><trkpt lat="45.93581357982974" lon="10.210570519546492"><ele>959.0</ele><time>2026-03-28T13:36:56Z</time></trkpt><trkpt lat="45.93590555019475" lon="10.210602510713777"><ele>959.0</ele><time>2026-03-28T13:36:57Z</time></trkpt><trkpt lat="45.935991844174886" lon="10.210657525234888"><ele>954.0</ele><time>2026-03-28T13:36:58Z</time></trkpt><trkpt lat="45.93606559959891" lon="10.210754887966015"><ele>949.0000000000001</ele><time>2026-03-28T13:36:59Z</time></trkpt><trkpt lat="45.93613060343583" lon="10.210858652724987"><ele>944.0000000000001</ele><time>2026-03-28T13:37:00Z</time></trkpt><trkpt lat="45.936201492239626" lon="10.210924687893009"><ele>939.0</ele><time>2026-03-28T13:37:01Z</time></trkpt><trkpt lat="45.93628888219177" lon="10.210952786343153"><ele>934.0</ele><time>2026-03-28T13:37:02Z</time></trkpt><trkpt lat="45.93637025074899" lon="10.21099074688736"><ele>933.9999999999999</ele><time>2026-03-28T13:37:03Z</time></trkpt><trkpt lat="45.93645552038908" lon="10.211027441421507"><ele>934.0</ele><time>2026-03-28T13:37:04Z</time></trkpt><trkpt lat="45.9365284424846" lon="10.211084883870946"><ele>934.0</ele><time>2026-03-28T13:37:05Z</time></trkpt><trkpt lat="45.93659590721477" lon="10.211127486771694"><ele>934.0</ele><time>2026-03-28T13:37:06Z</time></trkpt><trkpt lat="45.93666893679522" lon="10.211148563003885"><ele>933.9999999999999</ele><time>2026-03-28T13:37:07Z</time></trkpt><trkpt lat="45.93674192126356" lon="10.211151732684666"><ele>934.0</ele><time>2026-03-28T13:37:08Z</time></trkpt><trkpt lat="45.93681290298311" lon="10.21112579755154"><ele>930.9999999999999</ele><time>2026-03-28T13:37:09Z</time></trkpt><trkpt lat="45.936886391016095" lon="10.211107362460243"><ele>928.0</ele><time>2026-03-28T13:37:10Z</time></trkpt><trkpt lat="45.93698964995811" lon="10.211061956517637"><ele>925.0</ele><time>2026-03-28T13:37:11Z</time></trkpt><trkpt lat="45.937056701417376" lon="10.2110212011754"><ele>922.0</ele><time>2026-03-28T13:37:12Z</time></trkpt><trkpt lat="45.93713050562742" lon="10.21095543385966"><ele>918.9999999999999</ele><time>2026-03-28T13:37:13Z</time></trkpt><trkpt lat="45.93720626266978" lon="10.210904215958639"><ele>916.0</ele><time>2026-03-28T13:37:14Z</time></trkpt><trkpt lat="45.93728335198264" lon="10.210860965706235"><ele>915.9999999999999</ele><time>2026-03-28T13:37:15Z</time></trkpt><trkpt lat="45.937368582279205" lon="10.21084114793459"><ele>916.0</ele><time>2026-03-28T13:37:16Z</time></trkpt><trkpt lat="45.93743556684537" lon="10.210810654957593"><ele>916.0</ele><time>2026-03-28T13:37:17Z</time></trkpt><trkpt lat="45.93750882069546" lon="10.210731754076528"><ele>916.0</ele><time>2026-03-28T13:37:19Z</time></trkpt><trkpt lat="45.93757040066662" lon="10.210584126638752"><ele>915.9999999999999</ele><time>2026-03-28T13:37:21Z</time></trkpt><trkpt lat="45.93760168827771" lon="10.21049486803335"><ele>916.0</ele><time>2026-03-28T13:37:22Z</time></trkpt><trkpt lat="45.93762737298494" lon="10.210391766075391"><ele>911.4</ele><time>2026-03-28T13:37:23Z</time></trkpt><trkpt lat="45.93764391706511" lon="10.210259782732951"><ele>906.8</ele><time>2026-03-28T13:37:24Z</time></trkpt><trkpt lat="45.93765380580704" lon="10.210132307289053"><ele>902.1999999999999</ele><time>2026-03-28T13:37:25Z</time></trkpt><trkpt lat="45.93767056084793" lon="10.209998901745973"><ele>897.5999999999999</ele><time>2026-03-28T13:37:26Z</time></trkpt><trkpt lat="45.93768859894919" lon="10.209868352172077"><ele>893.0</ele><time>2026-03-28T13:37:27Z</time></trkpt><trkpt lat="45.93770343332503" lon="10.209731532872327"><ele>892.4</ele><time>2026-03-28T13:37:28Z</time></trkpt><trkpt lat="45.93772028765488" lon="10.20959399286048"><ele>891.8</ele><time>2026-03-28T13:37:29Z</time></trkpt><trkpt lat="45.93775234770135" lon="10.209464027484682"><ele>891.2</ele><time>2026-03-28T13:37:30Z</time></trkpt><trkpt lat="45.937794640609695" lon="10.209334892580687"><ele>890.6</ele><time>2026-03-28T13:37:31Z</time></trkpt><trkpt lat="45.93782764051901" lon="10.209211563477743"><ele>890.0</ele><time>2026-03-28T13:37:32Z</time></trkpt><trkpt lat="45.93785230483016" lon="10.209086386375443"><ele>891.2</ele><time>2026-03-28T13:37:33Z</time></trkpt><trkpt lat="45.93790380680443" lon="10.20897338643053"><ele>892.4</ele><time>2026-03-28T13:37:34Z</time></trkpt><trkpt lat="45.93795446647329" lon="10.208866615356495"><ele>893.5999999999999</ele><time>2026-03-28T13:37:35Z</time></trkpt><trkpt lat="45.938012787493044" lon="10.20876767753665"><ele>894.8</ele><time>2026-03-28T13:37:36Z</time></trkpt><trkpt lat="45.938079068600274" lon="10.208673815109911"><ele>896.0</ele><time>2026-03-28T13:37:37Z</time></trkpt><trkpt lat="45.93813683997871" lon="10.208581971043763"><ele>896.0</ele><time>2026-03-28T13:37:38Z</time></trkpt><trkpt lat="45.93821478508638" lon="10.208511347496325"><ele>895.9999999999999</ele><time>2026-03-28T13:37:39Z</time></trkpt><trkpt lat="45.9382879056831" lon="10.20844921276895"><ele>895.9999999999999</ele><time>2026-03-28T13:37:40Z</time></trkpt><trkpt lat="45.93835895224637" lon="10.208408546284382"><ele>896.0</ele><time>2026-03-28T13:37:41Z</time></trkpt><trkpt lat="45.9384732515555" lon="10.208376443033123"><ele>896.0</ele><time>2026-03-28T13:37:43Z</time></trkpt><trkpt lat="45.938568390747456" lon="10.208396486053623"><ele>893.0000000000001</ele><time>2026-03-28T13:37:45Z</time></trkpt><trkpt lat="45.9386131518426" lon="10.208498993345875"><ele>890.0</ele><time>2026-03-28T13:37:47Z</time></trkpt><trkpt lat="45.93868816123676" lon="10.208529792887518"><ele>887.0</ele><time>2026-03-28T13:37:48Z</time></trkpt><trkpt lat="45.93874581341334" lon="10.208571999966217"><ele>884.0</ele><time>2026-03-28T13:37:49Z</time></trkpt><trkpt lat="45.93882318645749" lon="10.20859199887619"><ele>881.0000000000001</ele><time>2026-03-28T13:37:51Z</time></trkpt><trkpt lat="45.93891461563466" lon="10.208610859336666"><ele>878.0</ele><time>2026-03-28T13:37:54Z</time></trkpt><trkpt lat="45.93898619736015" lon="10.208600311026998"><ele>878.0</ele><time>2026-03-28T13:37:56Z</time></trkpt><trkpt lat="45.93905025255425" lon="10.208578137329832"><ele>878.0</ele><time>2026-03-28T13:37:58Z</time></trkpt><trkpt lat="45.9391358111376" lon="10.208528578286032"><ele>878.0</ele><time>2026-03-28T13:38:01Z</time></trkpt><trkpt lat="45.93921837208292" lon="10.20846592619697"><ele>878.0</ele><time>2026-03-28T13:38:04Z</time></trkpt><trkpt lat="45.93929434606171" lon="10.208397446435654"><ele>878.0</ele><time>2026-03-28T13:38:06Z</time></trkpt><trkpt lat="45.93935183859228" lon="10.208248950712747"><ele>877.0000000000001</ele><time>2026-03-28T13:38:08Z</time></trkpt><trkpt lat="45.93934668068109" lon="10.208147972541951"><ele>876.0</ele><time>2026-03-28T13:38:09Z</time></trkpt><trkpt lat="45.93937380051786" lon="10.208055332112526"><ele>875.0</ele><time>2026-03-28T13:38:10Z</time></trkpt><trkpt lat="45.93937685694328" lon="10.207963093389127"><ele>874.0</ele><time>2026-03-28T13:38:11Z</time></trkpt><trkpt lat="45.93940767499609" lon="10.207843965993627"><ele>873.0000000000001</ele><time>2026-03-28T13:38:13Z</time></trkpt><trkpt lat="45.939537619956425" lon="10.207824604997192"><ele>872.0</ele><time>2026-03-28T13:38:15Z</time></trkpt><trkpt lat="45.93962115892324" lon="10.20782397491417"><ele>872.0</ele><time>2026-03-28T13:38:16Z</time></trkpt><trkpt lat="45.93970804594855" lon="10.207777543899196"><ele>872.0</ele><time>2026-03-28T13:38:17Z</time></trkpt><trkpt lat="45.93981664997699" lon="10.207689991385207"><ele>872.0</ele><time>2026-03-28T13:38:18Z</time></trkpt><trkpt lat="45.93992359466245" lon="10.207618520099496"><ele>872.0</ele><time>2026-03-28T13:38:19Z</time></trkpt><trkpt lat="45.9400110163015" lon="10.207540980428629"><ele>872.0</ele><time>2026-03-28T13:38:20Z</time></trkpt><trkpt lat="45.94008096374609" lon="10.20744928661965"><ele>872.0000000000001</ele><time>2026-03-28T13:38:21Z</time></trkpt><trkpt lat="45.94014427265999" lon="10.207366475642198"><ele>872.0</ele><time>2026-03-28T13:38:22Z</time></trkpt><trkpt lat="45.94021052748635" lon="10.207284276170219"><ele>872.0</ele><time>2026-03-28T13:38:23Z</time></trkpt><trkpt lat="45.94027485628656" lon="10.207222804937674"><ele>872.0</ele><time>2026-03-28T13:38:24Z</time></trkpt><trkpt lat="45.940344962065026" lon="10.207166888224576"><ele>872.0000000000001</ele><time>2026-03-28T13:38:25Z</time></trkpt><trkpt lat="45.94040885101204" lon="10.20711330648357"><ele>872.0</ele><time>2026-03-28T13:38:26Z</time></trkpt><trkpt lat="45.940509280942074" lon="10.20704575738258"><ele>872.0000000000001</ele><time>2026-03-28T13:38:28Z</time></trkpt><trkpt lat="45.94058164850038" lon="10.207015558916833"><ele>872.0</ele><time>2026-03-28T13:38:30Z</time></trkpt><trkpt lat="45.94071521661763" lon="10.206980141848813"><ele>872.0</ele><time>2026-03-28T13:38:35Z</time></trkpt><trkpt lat="45.940785335766655" lon="10.206965881030222"><ele>872.0</ele><time>2026-03-28T13:38:36Z</time></trkpt><trkpt lat="45.94084977049012" lon="10.206946000364615"><ele>872.0000000000001</ele><time>2026-03-28T13:38:37Z</time></trkpt><trkpt lat="45.940908823025914" lon="10.206911052989469"><ele>872.0</ele><time>2026-03-28T13:38:38Z</time></trkpt><trkpt lat="45.94101685801706" lon="10.206867663089978"><ele>867.8</ele><time>2026-03-28T13:38:40Z</time></trkpt><trkpt lat="45.94110257451183" lon="10.206831329034229"><ele>863.6</ele><time>2026-03-28T13:38:42Z</time></trkpt><trkpt lat="45.94123556711911" lon="10.206751084760407"><ele>859.4</ele><time>2026-03-28T13:38:44Z</time></trkpt><trkpt lat="45.94130122954656" lon="10.20668425852932"><ele>855.1999999999999</ele><time>2026-03-28T13:38:45Z</time></trkpt><trkpt lat="45.9413675611538" lon="10.20664181859987"><ele>851.0</ele><time>2026-03-28T13:38:46Z</time></trkpt><trkpt lat="45.94144259884087" lon="10.206618404837187"><ele>851.0000000000001</ele><time>2026-03-28T13:38:47Z</time></trkpt><trkpt lat="45.941507151157495" lon="10.206559530972937"><ele>851.0</ele><time>2026-03-28T13:38:48Z</time></trkpt><trkpt lat="45.94156681392307" lon="10.20650029004597"><ele>851.0</ele><time>2026-03-28T13:38:49Z</time></trkpt><trkpt lat="45.941643032234715" lon="10.206439410041476"><ele>851.0</ele><time>2026-03-28T13:38:50Z</time></trkpt><trkpt lat="45.94171558801668" lon="10.206390411364211"><ele>851.0000000000001</ele><time>2026-03-28T13:38:51Z</time></trkpt><trkpt lat="45.94178291465663" lon="10.206358587862965"><ele>851.0</ele><time>2026-03-28T13:38:52Z</time></trkpt><trkpt lat="45.9418434347353" lon="10.206326058920189"><ele>849.3333333333334</ele><time>2026-03-28T13:38:53Z</time></trkpt><trkpt lat="45.94190162161488" lon="10.206289356780381"><ele>847.6666666666667</ele><time>2026-03-28T13:38:54Z</time></trkpt><trkpt lat="45.94199389852214" lon="10.206224951355965"><ele>846.0</ele><time>2026-03-28T13:38:56Z</time></trkpt><trkpt lat="45.94206904724424" lon="10.206152598893793"><ele>844.3333333333333</ele><time>2026-03-28T13:38:58Z</time></trkpt><trkpt lat="45.94212136434327" lon="10.20608596668069"><ele>842.6666666666666</ele><time>2026-03-28T13:39:00Z</time></trkpt><trkpt lat="45.94220008482237" lon="10.20601820319118"><ele>841.0</ele><time>2026-03-28T13:39:02Z</time></trkpt><trkpt lat="45.94227195370253" lon="10.20593820445234"><ele>841.0</ele><time>2026-03-28T13:39:04Z</time></trkpt><trkpt lat="45.942318833868704" lon="10.205848975299912"><ele>841.0</ele><time>2026-03-28T13:39:06Z</time></trkpt><trkpt lat="45.94237125359361" lon="10.205714296057156"><ele>841.0</ele><time>2026-03-28T13:39:08Z</time></trkpt><trkpt lat="45.942410997645005" lon="10.205607758764655"><ele>841.0</ele><time>2026-03-28T13:39:09Z</time></trkpt><trkpt lat="45.94244798242304" lon="10.205460154920855"><ele>841.0</ele><time>2026-03-28T13:39:10Z</time></trkpt><trkpt lat="45.9425080191195" lon="10.20530899130611"><ele>840.0</ele><time>2026-03-28T13:39:11Z</time></trkpt><trkpt lat="45.942546853200234" lon="10.205143704559006"><ele>839.0</ele><time>2026-03-28T13:39:12Z</time></trkpt><trkpt lat="45.94256469450676" lon="10.205002742491692"><ele>838.0</ele><time>2026-03-28T13:39:13Z</time></trkpt><trkpt lat="45.9425671733115" lon="10.20483493339843"><ele>837.0</ele><time>2026-03-28T13:39:14Z</time></trkpt><trkpt lat="45.94256987581796" lon="10.204659840865258"><ele>837.0</ele><time>2026-03-28T13:39:15Z</time></trkpt><trkpt lat="45.942573456552665" lon="10.20447401466716"><ele>837.0</ele><time>2026-03-28T13:39:16Z</time></trkpt><trkpt lat="45.942573601355576" lon="10.2042765009797"><ele>837.0</ele><time>2026-03-28T13:39:17Z</time></trkpt><trkpt lat="45.94255952560669" lon="10.204071331219499"><ele>837.0</ele><time>2026-03-28T13:39:18Z</time></trkpt><trkpt lat="45.942568427254066" lon="10.203901240150724"><ele>838.2</ele><time>2026-03-28T13:39:19Z</time></trkpt><trkpt lat="45.94257222835417" lon="10.203748021320061"><ele>839.4000000000001</ele><time>2026-03-28T13:39:20Z</time></trkpt><trkpt lat="45.94257751268787" lon="10.203606078425588"><ele>840.5999999999999</ele><time>2026-03-28T13:39:21Z</time></trkpt><trkpt lat="45.942597307648484" lon="10.203470615040203"><ele>841.8</ele><time>2026-03-28T13:39:22Z</time></trkpt><trkpt lat="45.94260619327158" lon="10.203327726907297"><ele>843.0</ele><time>2026-03-28T13:39:23Z</time></trkpt><trkpt lat="45.94261729806108" lon="10.203180666066261"><ele>843.8</ele><time>2026-03-28T13:39:24Z</time></trkpt><trkpt lat="45.942620643923796" lon="10.203034119002819"><ele>844.5999999999999</ele><time>2026-03-28T13:39:25Z</time></trkpt><trkpt lat="45.94264631108155" lon="10.202896526582988"><ele>845.4000000000001</ele><time>2026-03-28T13:39:26Z</time></trkpt><trkpt lat="45.942677228648364" lon="10.202766910274592"><ele>846.2</ele><time>2026-03-28T13:39:27Z</time></trkpt><trkpt lat="45.942716411772246" lon="10.202642041722951"><ele>847.0</ele><time>2026-03-28T13:39:28Z</time></trkpt><trkpt lat="45.942766203425826" lon="10.202523275270567"><ele>846.9999999999999</ele><time>2026-03-28T13:39:29Z</time></trkpt><trkpt lat="45.94280866833336" lon="10.202405462529804"><ele>847.0</ele><time>2026-03-28T13:39:30Z</time></trkpt><trkpt lat="45.94284953094156" lon="10.202282177272249"><ele>847.0</ele><time>2026-03-28T13:39:31Z</time></trkpt><trkpt lat="45.94288624683413" lon="10.202161253280984"><ele>847.0</ele><time>2026-03-28T13:39:32Z</time></trkpt><trkpt lat="45.942950983821895" lon="10.202078017889221"><ele>846.9999999999999</ele><time>2026-03-28T13:39:33Z</time></trkpt><trkpt lat="45.94300173465323" lon="10.2019876404903"><ele>847.0</ele><time>2026-03-28T13:39:34Z</time></trkpt><trkpt lat="45.94305294596533" lon="10.201906096934833"><ele>848.6</ele><time>2026-03-28T13:39:35Z</time></trkpt><trkpt lat="45.943103913132404" lon="10.201837482973513"><ele>850.2</ele><time>2026-03-28T13:39:36Z</time></trkpt><trkpt lat="45.94315392804303" lon="10.201781079689537"><ele>851.8</ele><time>2026-03-28T13:39:37Z</time></trkpt><trkpt lat="45.943215021169955" lon="10.201698185125137"><ele>853.4</ele><time>2026-03-28T13:39:39Z</time></trkpt><trkpt lat="45.94314911227101" lon="10.201770519540258"><ele>855.0</ele><time>2026-03-28T13:39:43Z</time></trkpt><trkpt lat="45.942993720230696" lon="10.201759390856662"><ele>855.0</ele><time>2026-03-28T13:39:44Z</time></trkpt><trkpt lat="45.942940592912606" lon="10.201613390604804"><ele>855.0</ele><time>2026-03-28T13:39:45Z</time></trkpt><trkpt lat="45.94287591720736" lon="10.201572222029982"><ele>855.0</ele><time>2026-03-28T13:39:46Z</time></trkpt><trkpt lat="45.94280057694338" lon="10.201519413167249"><ele>855.0</ele><time>2026-03-28T13:39:47Z</time></trkpt><trkpt lat="45.94271986008649" lon="10.201476388986404"><ele>855.0</ele><time>2026-03-28T13:39:48Z</time></trkpt><trkpt lat="45.94263317951028" lon="10.201462572882408"><ele>855.0</ele><time>2026-03-28T13:39:49Z</time></trkpt><trkpt lat="45.94256937749723" lon="10.201467846396918"><ele>858.1666666666666</ele><time>2026-03-28T13:39:50Z</time></trkpt><trkpt lat="45.942505896615074" lon="10.20147362316106"><ele>861.3333333333333</ele><time>2026-03-28T13:39:50.999Z</time></trkpt><trkpt lat="45.94244131448056" lon="10.201496713333189"><ele>864.5</ele><time>2026-03-28T13:39:51.999Z</time></trkpt><trkpt lat="45.9423791606527" lon="10.201552199821206"><ele>867.6666666666666</ele><time>2026-03-28T13:39:52.999Z</time></trkpt><trkpt lat="45.94231598865284" lon="10.201642359559697"><ele>870.8333333333333</ele><time>2026-03-28T13:39:53.999Z</time></trkpt><trkpt lat="45.94224164438306" lon="10.201757144808663"><ele>874.0</ele><time>2026-03-28T13:39:54.999Z</time></trkpt><trkpt lat="45.94218155653056" lon="10.201859472832076"><ele>873.9999999999999</ele><time>2026-03-28T13:39:55.999Z</time></trkpt><trkpt lat="45.94213354763195" lon="10.201951008441737"><ele>874.0</ele><time>2026-03-28T13:39:56.999Z</time></trkpt><trkpt lat="45.94208715813773" lon="10.20204038335224"><ele>874.0</ele><time>2026-03-28T13:39:57.999Z</time></trkpt><trkpt lat="45.942035254738414" lon="10.20216946470441"><ele>874.0</ele><time>2026-03-28T13:39:58.999Z</time></trkpt><trkpt lat="45.942008066475154" lon="10.202251118254622"><ele>873.9999999999999</ele><time>2026-03-28T13:39:59.999Z</time></trkpt><trkpt lat="45.941969158202184" lon="10.202335446423767"><ele>874.0</ele><time>2026-03-28T13:40:00.999Z</time></trkpt><trkpt lat="45.94192318027583" lon="10.202439080557877"><ele>872.6</ele><time>2026-03-28T13:40:01.999Z</time></trkpt><trkpt lat="45.94188274773369" lon="10.20255362182297"><ele>871.2</ele><time>2026-03-28T13:40:02.999Z</time></trkpt><trkpt lat="45.94183219036117" lon="10.202739024092256"><ele>869.8000000000001</ele><time>2026-03-28T13:40:03.999Z</time></trkpt><trkpt lat="45.94180246085188" lon="10.202887222386911"><ele>868.4000000000001</ele><time>2026-03-28T13:40:04.999Z</time></trkpt><trkpt lat="45.941758767266776" lon="10.203030111774108"><ele>867.0</ele><time>2026-03-28T13:40:05.999Z</time></trkpt><trkpt lat="45.941721757040796" lon="10.203124454410565"><ele>874.6</ele><time>2026-03-28T13:40:06.999Z</time></trkpt><trkpt lat="45.941669512994565" lon="10.203224653926416"><ele>882.2</ele><time>2026-03-28T13:40:07.999Z</time></trkpt><trkpt lat="45.94161039229654" lon="10.203326950711329"><ele>889.8</ele><time>2026-03-28T13:40:09Z</time></trkpt><trkpt lat="45.94155358982277" lon="10.203413709454708"><ele>897.4</ele><time>2026-03-28T13:40:10Z</time></trkpt><trkpt lat="45.94144933028374" lon="10.2035192049112"><ele>905.0</ele><time>2026-03-28T13:40:12Z</time></trkpt><trkpt lat="45.94131049337621" lon="10.203553206072494"><ele>905.0000000000001</ele><time>2026-03-28T13:40:14Z</time></trkpt><trkpt lat="45.94122046694438" lon="10.203588012876034"><ele>905.0</ele><time>2026-03-28T13:40:16Z</time></trkpt><trkpt lat="45.94113760438399" lon="10.203582732159845"><ele>905.0</ele><time>2026-03-28T13:40:17Z</time></trkpt><trkpt lat="45.941069458623154" lon="10.20358704063367"><ele>905.0</ele><time>2026-03-28T13:40:18Z</time></trkpt><trkpt lat="45.9409881613975" lon="10.203588490834514"><ele>905.0000000000001</ele><time>2026-03-28T13:40:19Z</time></trkpt><trkpt lat="45.940878627465395" lon="10.20359127419604"><ele>905.0</ele><time>2026-03-28T13:40:20Z</time></trkpt><trkpt lat="45.94077484108797" lon="10.203627120302695"><ele>908.6666666666667</ele><time>2026-03-28T13:40:21Z</time></trkpt><trkpt lat="45.94069462160846" lon="10.203688220645956"><ele>912.3333333333334</ele><time>2026-03-28T13:40:22Z</time></trkpt><trkpt lat="45.940643773706725" lon="10.203772076895005"><ele>916.0</ele><time>2026-03-28T13:40:23Z</time></trkpt><trkpt lat="45.94057884039039" lon="10.203838366750631"><ele>919.6666666666667</ele><time>2026-03-28T13:40:24Z</time></trkpt><trkpt lat="45.94050983842869" lon="10.20390129587659"><ele>923.3333333333334</ele><time>2026-03-28T13:40:25Z</time></trkpt><trkpt lat="45.940433426613694" lon="10.203954549363479"><ele>927.0</ele><time>2026-03-28T13:40:27Z</time></trkpt><trkpt lat="45.94017448845195" lon="10.203574926506509"><ele>927.0</ele><time>2026-03-28T13:40:28Z</time></trkpt><trkpt lat="45.94009024773745" lon="10.203471911506686"><ele>927.0</ele><time>2026-03-28T13:40:30Z</time></trkpt><trkpt lat="45.94019766338967" lon="10.20340112510022"><ele>927.0</ele><time>2026-03-28T13:40:32Z</time></trkpt><trkpt lat="45.940254774606764" lon="10.203353243223487"><ele>927.0</ele><time>2026-03-28T13:40:34Z</time></trkpt><trkpt lat="45.94026429562658" lon="10.20323580644283"><ele>927.0</ele><time>2026-03-28T13:40:37.001Z</time></trkpt><trkpt lat="45.940285092824276" lon="10.20312218300045"><ele>928.2</ele><time>2026-03-28T13:40:39.001Z</time></trkpt><trkpt lat="45.940270000775726" lon="10.203004407291784"><ele>929.4000000000001</ele><time>2026-03-28T13:40:41.001Z</time></trkpt><trkpt lat="45.94027917579234" lon="10.202853815637619"><ele>930.5999999999999</ele><time>2026-03-28T13:40:43.001Z</time></trkpt><trkpt lat="45.940274832090516" lon="10.202704950202365"><ele>931.8</ele><time>2026-03-28T13:40:45.001Z</time></trkpt><trkpt lat="45.940277217530316" lon="10.202530174853983"><ele>933.0</ele><time>2026-03-28T13:40:47.001Z</time></trkpt><trkpt lat="45.940271891136845" lon="10.202362384888902"><ele>933.6666666666666</ele><time>2026-03-28T13:40:49.001Z</time></trkpt><trkpt lat="45.94025692813635" lon="10.202270525403177"><ele>934.3333333333333</ele><time>2026-03-28T13:40:50.001Z</time></trkpt><trkpt lat="45.9402479147312" lon="10.202135590287261"><ele>935.0</ele><time>2026-03-28T13:40:52.001Z</time></trkpt><trkpt lat="45.94022362772987" lon="10.202040402287436"><ele>935.6666666666666</ele><time>2026-03-28T13:40:54.001Z</time></trkpt><trkpt lat="45.940229999966164" lon="10.201927773855262"><ele>936.3333333333333</ele><time>2026-03-28T13:40:57.001Z</time></trkpt><trkpt lat="45.94019983931618" lon="10.201830843361254"><ele>937.0</ele><time>2026-03-28T13:40:59.001Z</time></trkpt><trkpt lat="45.94016747603722" lon="10.201720302104269"><ele>936.9999999999999</ele><time>2026-03-28T13:41:02.001Z</time></trkpt><trkpt lat="45.940130342183686" lon="10.201616118974417"><ele>937.0</ele><time>2026-03-28T13:41:05.001Z</time></trkpt><trkpt lat="45.940110667566735" lon="10.201528957579546"><ele>937.0</ele><time>2026-03-28T13:41:08.001Z</time></trkpt><trkpt lat="45.940108556523484" lon="10.201413949652313"><ele>937.0</ele><time>2026-03-28T13:41:12.001Z</time></trkpt><trkpt lat="45.94010442028533" lon="10.20129397512822"><ele>936.9999999999999</ele><time>2026-03-28T13:41:16.001Z</time></trkpt><trkpt lat="45.94007984047328" lon="10.201185517812533"><ele>937.0</ele><time>2026-03-28T13:41:18.001Z</time></trkpt><trkpt lat="45.94007389608937" lon="10.20104762000463"><ele>937.4999999999999</ele><time>2026-03-28T13:41:20.001Z</time></trkpt><trkpt lat="45.940079049382256" lon="10.200903193546326"><ele>938.0</ele><time>2026-03-28T13:41:22.001Z</time></trkpt><trkpt lat="45.9400646597425" lon="10.200767109943998"><ele>938.5</ele><time>2026-03-28T13:41:24.001Z</time></trkpt><trkpt lat="45.94003631609512" lon="10.200672298253474"><ele>939.0</ele><time>2026-03-28T13:41:27.001Z</time></trkpt><trkpt lat="45.94004112242492" lon="10.20056521115208"><ele>939.4999999999999</ele><time>2026-03-28T13:41:30.001Z</time></trkpt><trkpt lat="45.94007013463025" lon="10.200441469338863"><ele>940.0</ele><time>2026-03-28T13:41:33.001Z</time></trkpt><trkpt lat="45.94005179671346" lon="10.200344300733628"><ele>940.2</ele><time>2026-03-28T13:41:35.001Z</time></trkpt><trkpt lat="45.940077053715214" lon="10.200192787404236"><ele>940.4</ele><time>2026-03-28T13:41:37.001Z</time></trkpt><trkpt lat="45.940061801662296" lon="10.20007610963911"><ele>940.5999999999999</ele><time>2026-03-28T13:41:39.001Z</time></trkpt><trkpt lat="45.94006180201365" lon="10.199977166150832"><ele>940.8</ele><time>2026-03-28T13:41:41.001Z</time></trkpt><trkpt lat="45.940049085242464" lon="10.199823407587996"><ele>941.0</ele><time>2026-03-28T13:41:43.001Z</time></trkpt><trkpt lat="45.94005761561268" lon="10.199687436760206"><ele>941.5999999999999</ele><time>2026-03-28T13:41:45.001Z</time></trkpt><trkpt lat="45.94004691805106" lon="10.199500666758702"><ele>942.1999999999999</ele><time>2026-03-28T13:41:47.001Z</time></trkpt><trkpt lat="45.940059155034206" lon="10.199342415102516"><ele>942.8000000000001</ele><time>2026-03-28T13:41:49.001Z</time></trkpt><trkpt lat="45.940052718448456" lon="10.199230199768532"><ele>943.4000000000001</ele><time>2026-03-28T13:41:50.001Z</time></trkpt><trkpt lat="45.940041851136336" lon="10.199109611263596"><ele>944.0</ele><time>2026-03-28T13:41:52.001Z</time></trkpt><trkpt lat="45.94002392432497" lon="10.198987352629485"><ele>950.7142857142857</ele><time>2026-03-28T13:41:54.001Z</time></trkpt><trkpt lat="45.940007292203475" lon="10.198889696322329"><ele>957.4285714285716</ele><time>2026-03-28T13:41:56.001Z</time></trkpt><trkpt lat="45.939974925278044" lon="10.198779956912775"><ele>964.1428571428572</ele><time>2026-03-28T13:41:58.001Z</time></trkpt><trkpt lat="45.93996662663804" lon="10.19866792836409"><ele>970.8571428571429</ele><time>2026-03-28T13:42:00.001Z</time></trkpt><trkpt lat="45.93994647727646" lon="10.198575042240233"><ele>977.5714285714287</ele><time>2026-03-28T13:42:02.001Z</time></trkpt><trkpt lat="45.93990923539785" lon="10.198490806300287"><ele>984.2857142857144</ele><time>2026-03-28T13:42:04.001Z</time></trkpt><trkpt lat="45.93989164097595" lon="10.19840245297261"><ele>991.0000000000001</ele><time>2026-03-28T13:42:06.001Z</time></trkpt><trkpt lat="45.93983093394207" lon="10.198284795121172"><ele>990.9999999999999</ele><time>2026-03-28T13:42:08.001Z</time></trkpt><trkpt lat="45.939806368922845" lon="10.198187169341615"><ele>991.0</ele><time>2026-03-28T13:42:10.001Z</time></trkpt><trkpt lat="45.93980937182831" lon="10.198074432116199"><ele>991.0</ele><time>2026-03-28T13:42:13.001Z</time></trkpt><trkpt lat="45.93980891422217" lon="10.197954473390425"><ele>991.0</ele><time>2026-03-28T13:42:30.001Z</time></trkpt><trkpt lat="45.93976735372688" lon="10.197850292836982"><ele>990.9999999999999</ele><time>2026-03-28T13:42:33.001Z</time></trkpt><trkpt lat="45.939729511411834" lon="10.197747080735938"><ele>991.0</ele><time>2026-03-28T13:42:35.001Z</time></trkpt><trkpt lat="45.93970021292543" lon="10.19764009668125"><ele>990.9999999999999</ele><time>2026-03-28T13:42:37.001Z</time></trkpt><trkpt lat="45.93965017410592" lon="10.197561516840807"><ele>991.0</ele><time>2026-03-28T13:42:39.001Z</time></trkpt><trkpt lat="45.939614930368045" lon="10.197430666361104"><ele>991.0</ele><time>2026-03-28T13:42:42.001Z</time></trkpt><trkpt lat="45.93957213529412" lon="10.197318986791483"><ele>991.0</ele><time>2026-03-28T13:42:44.001Z</time></trkpt><trkpt lat="45.939501093319116" lon="10.197229177370524"><ele>990.9999999999999</ele><time>2026-03-28T13:42:47.001Z</time></trkpt><trkpt lat="45.93945958906968" lon="10.19713132476383"><ele>991.0</ele><time>2026-03-28T13:42:49.001Z</time></trkpt><trkpt lat="45.93940719050039" lon="10.197051623930824"><ele>992.1666666666666</ele><time>2026-03-28T13:42:51.001Z</time></trkpt><trkpt lat="45.93940335660116" lon="10.196953406630977"><ele>993.3333333333333</ele><time>2026-03-28T13:42:53.001Z</time></trkpt><trkpt lat="45.93939357951046" lon="10.196809022030418"><ele>994.5</ele><time>2026-03-28T13:42:55.001Z</time></trkpt><trkpt lat="45.939357937913186" lon="10.196708965410265"><ele>995.6666666666667</ele><time>2026-03-28T13:42:57.001Z</time></trkpt><trkpt lat="45.9393046850105" lon="10.196585927587936"><ele>996.8333333333334</ele><time>2026-03-28T13:43:00.001Z</time></trkpt><trkpt lat="45.93924147516811" lon="10.196536358735319"><ele>998.0</ele><time>2026-03-28T13:43:02.001Z</time></trkpt><trkpt lat="45.93916646252991" lon="10.196548539943603"><ele>1003.0000000000001</ele><time>2026-03-28T13:43:05.001Z</time></trkpt><trkpt lat="45.93914361996783" lon="10.196664583266365"><ele>1008.0</ele><time>2026-03-28T13:44:02.001Z</time></trkpt><trkpt lat="45.93911561057198" lon="10.196759474221471"><ele>1013.0</ele><time>2026-03-28T13:44:04.001Z</time></trkpt><trkpt lat="45.93912180281048" lon="10.196872284281085"><ele>1018.0</ele><time>2026-03-28T13:44:07.001Z</time></trkpt><trkpt lat="45.93905137393716" lon="10.196968134739034"><ele>1023.0000000000001</ele><time>2026-03-28T13:44:36.001Z</time></trkpt><trkpt lat="45.93911907605997" lon="10.196929993052906"><ele>1028.0</ele><time>2026-03-28T13:44:52.001Z</time></trkpt><trkpt lat="45.93904936304221" lon="10.196854455850175"><ele>1028.0</ele><time>2026-03-28T13:45:09.001Z</time></trkpt><trkpt lat="45.93898140042915" lon="10.196822496855978"><ele>1028.0</ele><time>2026-03-28T13:45:11.001Z</time></trkpt><trkpt lat="45.93894478300764" lon="10.196909203579182"><ele>1028.0</ele><time>2026-03-28T13:45:17.001Z</time></trkpt><trkpt lat="45.93901261036899" lon="10.196968644247496"><ele>1028.0</ele><time>2026-03-28T13:45:24.001Z</time></trkpt><trkpt lat="45.93907500367678" lon="10.196942430026448"><ele>1028.0</ele><time>2026-03-28T13:45:26.001Z</time></trkpt><trkpt lat="45.939145433264784" lon="10.196907149027021"><ele>1028.0</ele><time>2026-03-28T13:45:31.001Z</time></trkpt><trkpt lat="45.939064193223075" lon="10.196879237081534"><ele>1028.0</ele><time>2026-03-28T13:46:04.001Z</time></trkpt><trkpt lat="45.93905814226326" lon="10.196997160974917"><ele>1028.0</ele><time>2026-03-28T13:46:07.001Z</time></trkpt><trkpt lat="45.939024009090026" lon="10.197104422726818"><ele>1028.0</ele><time>2026-03-28T13:46:09.001Z</time></trkpt><trkpt lat="45.93898693061281" lon="10.197277833877873"><ele>1028.0</ele><time>2026-03-28T13:46:11.001Z</time></trkpt><trkpt lat="45.938970433733914" lon="10.197369578877147"><ele>1028.0</ele><time>2026-03-28T13:46:12.001Z</time></trkpt><trkpt lat="45.93895273885248" lon="10.197472142316883"><ele>1028.0</ele><time>2026-03-28T13:46:13.001Z</time></trkpt><trkpt lat="45.93889213758923" lon="10.197549673098845"><ele>1028.0</ele><time>2026-03-28T13:46:14.001Z</time></trkpt><trkpt lat="45.9388599080763" lon="10.197651058437046"><ele>1027.8333333333335</ele><time>2026-03-28T13:46:15.001Z</time></trkpt><trkpt lat="45.93883179751786" lon="10.197778341528519"><ele>1027.6666666666667</ele><time>2026-03-28T13:46:16.001Z</time></trkpt><trkpt lat="45.93878731916315" lon="10.197890657138432"><ele>1027.5</ele><time>2026-03-28T13:46:17.001Z</time></trkpt><trkpt lat="45.9387528731393" lon="10.197984777165257"><ele>1027.3333333333333</ele><time>2026-03-28T13:46:18.001Z</time></trkpt><trkpt lat="45.938721902772365" lon="10.198104284812363"><ele>1027.1666666666665</ele><time>2026-03-28T13:46:19.001Z</time></trkpt><trkpt lat="45.93868464330852" lon="10.198234084442223"><ele>1027.0</ele><time>2026-03-28T13:46:20.001Z</time></trkpt><trkpt lat="45.93863506647023" lon="10.19837229104011"><ele>1026.0</ele><time>2026-03-28T13:46:21.001Z</time></trkpt><trkpt lat="45.93859326028283" lon="10.198508411655071"><ele>1025.0</ele><time>2026-03-28T13:46:22.001Z</time></trkpt><trkpt lat="45.938554669052834" lon="10.198658596850986"><ele>1024.0</ele><time>2026-03-28T13:46:23.001Z</time></trkpt><trkpt lat="45.93852243562294" lon="10.198788645075737"><ele>1023.0</ele><time>2026-03-28T13:46:24.001Z</time></trkpt><trkpt lat="45.938492735736595" lon="10.19890720606008"><ele>1022.0</ele><time>2026-03-28T13:46:25.001Z</time></trkpt><trkpt lat="45.93845335646951" lon="10.199037077498456"><ele>1021.6</ele><time>2026-03-28T13:46:26.001Z</time></trkpt><trkpt lat="45.93842997979415" lon="10.199175326603774"><ele>1021.2</ele><time>2026-03-28T13:46:27.001Z</time></trkpt><trkpt lat="45.9384043022474" lon="10.199310598957592"><ele>1020.8</ele><time>2026-03-28T13:46:28.001Z</time></trkpt><trkpt lat="45.93838388451208" lon="10.199443854048349"><ele>1020.4</ele><time>2026-03-28T13:46:29.001Z</time></trkpt><trkpt lat="45.938356490719464" lon="10.199567196245557"><ele>1020.0</ele><time>2026-03-28T13:46:30.001Z</time></trkpt><trkpt lat="45.93832282528205" lon="10.199695875429311"><ele>1026.2</ele><time>2026-03-28T13:46:31.001Z</time></trkpt><trkpt lat="45.93827166574149" lon="10.199823244376056"><ele>1032.4</ele><time>2026-03-28T13:46:32.001Z</time></trkpt><trkpt lat="45.93822910161679" lon="10.199954581632847"><ele>1038.6</ele><time>2026-03-28T13:46:33.001Z</time></trkpt><trkpt lat="45.938182140233394" lon="10.200087609422248"><ele>1044.8</ele><time>2026-03-28T13:46:34.001Z</time></trkpt><trkpt lat="45.93813448390321" lon="10.20020857216478"><ele>1051.0</ele><time>2026-03-28T13:46:35.001Z</time></trkpt><trkpt lat="45.93808600517641" lon="10.200307232146994"><ele>1051.0</ele><time>2026-03-28T13:46:36.001Z</time></trkpt><trkpt lat="45.93801829397948" lon="10.200392065074263"><ele>1051.0</ele><time>2026-03-28T13:46:38.001Z</time></trkpt><trkpt lat="45.937973370584466" lon="10.200241892790674"><ele>1051.0</ele><time>2026-03-28T13:46:49.001Z</time></trkpt><trkpt lat="45.93796382498391" lon="10.200002016733611"><ele>1051.0</ele><time>2026-03-28T13:46:51.001Z</time></trkpt><trkpt lat="45.937962752172076" lon="10.199902778566512"><ele>1051.0</ele><time>2026-03-28T13:46:52.001Z</time></trkpt><trkpt lat="45.93796128001646" lon="10.199782212868266"><ele>1052.6</ele><time>2026-03-28T13:46:53.001Z</time></trkpt><trkpt lat="45.93796393088284" lon="10.199615821924544"><ele>1054.1999999999998</ele><time>2026-03-28T13:46:54.001Z</time></trkpt><trkpt lat="45.937939278476094" lon="10.199468519838039"><ele>1055.8000000000002</ele><time>2026-03-28T13:46:55.001Z</time></trkpt><trkpt lat="45.93789849638937" lon="10.199350926878106"><ele>1057.4</ele><time>2026-03-28T13:46:56.001Z</time></trkpt><trkpt lat="45.93787376262927" lon="10.199200030544633"><ele>1059.0</ele><time>2026-03-28T13:46:57.001Z</time></trkpt><trkpt lat="45.93784595732191" lon="10.199055140036924"><ele>1059.0</ele><time>2026-03-28T13:46:58.001Z</time></trkpt><trkpt lat="45.93783996826064" lon="10.198889923746453"><ele>1059.0</ele><time>2026-03-28T13:46:59.001Z</time></trkpt><trkpt lat="45.93787791347734" lon="10.198718642983685"><ele>1059.0</ele><time>2026-03-28T13:47:00.001Z</time></trkpt><trkpt lat="45.937902962049925" lon="10.198551680764535"><ele>1059.0</ele><time>2026-03-28T13:47:01.001Z</time></trkpt><trkpt lat="45.93792351256341" lon="10.198348310739929"><ele>1059.5</ele><time>2026-03-28T13:47:02.001Z</time></trkpt><trkpt lat="45.93792705521664" lon="10.198166885236805"><ele>1060.0</ele><time>2026-03-28T13:47:03.001Z</time></trkpt><trkpt lat="45.93791251588846" lon="10.198004322052979"><ele>1060.5</ele><time>2026-03-28T13:47:04.001Z</time></trkpt><trkpt lat="45.937902482110346" lon="10.197843050960692"><ele>1061.0</ele><time>2026-03-28T13:47:05.001Z</time></trkpt><trkpt lat="45.93788914953621" lon="10.197669262637493"><ele>1061.0</ele><time>2026-03-28T13:47:06.001Z</time></trkpt><trkpt lat="45.937867514502145" lon="10.197515811103315"><ele>1061.0</ele><time>2026-03-28T13:47:07.001Z</time></trkpt><trkpt lat="45.93783801966338" lon="10.197372633452128"><ele>1061.0</ele><time>2026-03-28T13:47:08.001Z</time></trkpt><trkpt lat="45.93782445154565" lon="10.19723288511005"><ele>1061.0</ele><time>2026-03-28T13:47:09.001Z</time></trkpt><trkpt lat="45.937806613747725" lon="10.197109384300743"><ele>1061.0</ele><time>2026-03-28T13:47:10.001Z</time></trkpt><trkpt lat="45.93776701083634" lon="10.196979316025002"><ele>1062.0</ele><time>2026-03-28T13:47:11.001Z</time></trkpt><trkpt lat="45.9377550261446" lon="10.196847596435179"><ele>1063.0</ele><time>2026-03-28T13:47:12.001Z</time></trkpt><trkpt lat="45.93774303613513" lon="10.19672132379382"><ele>1064.0</ele><time>2026-03-28T13:47:13.001Z</time></trkpt><trkpt lat="45.93774155990966" lon="10.196607533739838"><ele>1065.0</ele><time>2026-03-28T13:47:14.001Z</time></trkpt><trkpt lat="45.93774440440642" lon="10.19649463332718"><ele>1066.0</ele><time>2026-03-28T13:47:15.001Z</time></trkpt><trkpt lat="45.937733730926084" lon="10.19638656507359"><ele>1067.0</ele><time>2026-03-28T13:47:16.001Z</time></trkpt><trkpt lat="45.937725228247366" lon="10.196270651592966"><ele>1067.5</ele><time>2026-03-28T13:47:17.001Z</time></trkpt><trkpt lat="45.93772642742093" lon="10.196140302847072"><ele>1068.0</ele><time>2026-03-28T13:47:18.001Z</time></trkpt><trkpt lat="45.93772767226384" lon="10.196005600849556"><ele>1068.5</ele><time>2026-03-28T13:47:19.001Z</time></trkpt><trkpt lat="45.93770922523156" lon="10.19589292878509"><ele>1069.0</ele><time>2026-03-28T13:47:20.001Z</time></trkpt><trkpt lat="45.93769448135863" lon="10.19577294167301"><ele>1069.5</ele><time>2026-03-28T13:47:21.001Z</time></trkpt><trkpt lat="45.93766759292531" lon="10.195644548374544"><ele>1070.0</ele><time>2026-03-28T13:47:22.001Z</time></trkpt><trkpt lat="45.93765371257705" lon="10.195521779018282"><ele>1070.6666666666667</ele><time>2026-03-28T13:47:23.001Z</time></trkpt><trkpt lat="45.93764005463683" lon="10.195401638141677"><ele>1071.3333333333335</ele><time>2026-03-28T13:47:24.001Z</time></trkpt><trkpt lat="45.937596558316" lon="10.195291007442892"><ele>1072.0</ele><time>2026-03-28T13:47:25.001Z</time></trkpt><trkpt lat="45.93757198837207" lon="10.195191624923478"><ele>1072.6666666666667</ele><time>2026-03-28T13:47:26.001Z</time></trkpt><trkpt lat="45.937536937845486" lon="10.19508317164138"><ele>1073.3333333333333</ele><time>2026-03-28T13:47:27.001Z</time></trkpt><trkpt lat="45.93752024845733" lon="10.194985041928"><ele>1074.0</ele><time>2026-03-28T13:47:28.001Z</time></trkpt><trkpt lat="45.93748479767688" lon="10.194879552052342"><ele>1081.0</ele><time>2026-03-28T13:47:29.001Z</time></trkpt><trkpt lat="45.937412625518704" lon="10.194722595752463"><ele>1088.0</ele><time>2026-03-28T13:47:31.001Z</time></trkpt><trkpt lat="45.93736698481171" lon="10.19461789539006"><ele>1095.0</ele><time>2026-03-28T13:47:32.001Z</time></trkpt><trkpt lat="45.93732071723381" lon="10.194503695709818"><ele>1102.0</ele><time>2026-03-28T13:47:33.001Z</time></trkpt><trkpt lat="45.93727211273935" lon="10.194409565416708"><ele>1109.0</ele><time>2026-03-28T13:47:34.001Z</time></trkpt><trkpt lat="45.93722402761647" lon="10.194322104896877"><ele>1109.0</ele><time>2026-03-28T13:47:35.001Z</time></trkpt><trkpt lat="45.93718852974014" lon="10.194210295382145"><ele>1109.0</ele><time>2026-03-28T13:47:36.001Z</time></trkpt><trkpt lat="45.93712705093751" lon="10.194106692514353"><ele>1109.0</ele><time>2026-03-28T13:47:37.001Z</time></trkpt><trkpt lat="45.93706783741756" lon="10.194042170850516"><ele>1109.0</ele><time>2026-03-28T13:47:38.001Z</time></trkpt><trkpt lat="45.936992523124545" lon="10.193960914951989"><ele>1109.0</ele><time>2026-03-28T13:47:39.001Z</time></trkpt><trkpt lat="45.936909150205835" lon="10.193898170933293"><ele>1109.0</ele><time>2026-03-28T13:47:40.001Z</time></trkpt><trkpt lat="45.93681655271003" lon="10.193807114606095"><ele>1106.6666666666667</ele><time>2026-03-28T13:47:41.001Z</time></trkpt><trkpt lat="45.93672078477612" lon="10.193754454430819"><ele>1104.3333333333335</ele><time>2026-03-28T13:47:42.001Z</time></trkpt><trkpt lat="45.93663868751782" lon="10.193691578208897"><ele>1102.0</ele><time>2026-03-28T13:47:43.001Z</time></trkpt><trkpt lat="45.93657209923087" lon="10.193640687055765"><ele>1099.6666666666667</ele><time>2026-03-28T13:47:44.001Z</time></trkpt><trkpt lat="45.93651315558061" lon="10.193592269196904"><ele>1097.3333333333333</ele><time>2026-03-28T13:47:45.001Z</time></trkpt><trkpt lat="45.93640797164739" lon="10.193577550717414"><ele>1095.0</ele><time>2026-03-28T13:47:47.001Z</time></trkpt><trkpt lat="45.936269223334726" lon="10.193521563263952"><ele>1102.0</ele><time>2026-03-28T13:47:49.001Z</time></trkpt><trkpt lat="45.93615586554727" lon="10.193500269750887"><ele>1109.0</ele><time>2026-03-28T13:47:51.001Z</time></trkpt><trkpt lat="45.936092926080015" lon="10.19350748782081"><ele>1116.0</ele><time>2026-03-28T13:47:52.001Z</time></trkpt><trkpt lat="45.93607469436195" lon="10.193617205944504"><ele>1123.0</ele><time>2026-03-28T13:47:54.001Z</time></trkpt><trkpt lat="45.936067654014295" lon="10.1937138438616"><ele>1130.0</ele><time>2026-03-28T13:47:56.001Z</time></trkpt><trkpt lat="45.93610335860852" lon="10.193842429960295"><ele>1137.0</ele><time>2026-03-28T13:47:58.001Z</time></trkpt><trkpt lat="45.93608320073545" lon="10.193948224914996"><ele>1140.3333333333333</ele><time>2026-03-28T13:48:00.001Z</time></trkpt><trkpt lat="45.93602435020383" lon="10.194014558478827"><ele>1143.6666666666667</ele><time>2026-03-28T13:48:02.001Z</time></trkpt><trkpt lat="45.93598730983564" lon="10.194091970145505"><ele>1147.0</ele><time>2026-03-28T13:48:04.001Z</time></trkpt><trkpt lat="45.936069117392755" lon="10.194131008209451"><ele>1150.3333333333335</ele><time>2026-03-28T13:48:07.001Z</time></trkpt><trkpt lat="45.936083638948524" lon="10.194272060492306"><ele>1153.6666666666667</ele><time>2026-03-28T13:48:31.001Z</time></trkpt><trkpt lat="45.93612572193853" lon="10.194430040260286"><ele>1157.0</ele><time>2026-03-28T13:48:33.001Z</time></trkpt><trkpt lat="45.93614518633406" lon="10.194526745873556"><ele>1157.0</ele><time>2026-03-28T13:48:34.001Z</time></trkpt><trkpt lat="45.93615357712401" lon="10.194659564482327"><ele>1157.0</ele><time>2026-03-28T13:48:36.001Z</time></trkpt><trkpt lat="45.93616445271235" lon="10.194768377826774"><ele>1157.0</ele><time>2026-03-28T13:48:38.001Z</time></trkpt><trkpt lat="45.93616844223487" lon="10.19490069896364"><ele>1157.0</ele><time>2026-03-28T13:48:40.001Z</time></trkpt><trkpt lat="45.93617110506487" lon="10.194995678232983"><ele>1157.0</ele><time>2026-03-28T13:48:43.001Z</time></trkpt><trkpt lat="45.93614564766319" lon="10.195098644369258"><ele>1157.0</ele><time>2026-03-28T13:48:45.001Z</time></trkpt><trkpt lat="45.936129059338796" lon="10.195234572057087"><ele>1159.3333333333335</ele><time>2026-03-28T13:48:47.001Z</time></trkpt><trkpt lat="45.93615426906628" lon="10.195331596895384"><ele>1161.6666666666667</ele><time>2026-03-28T13:48:49.001Z</time></trkpt><trkpt lat="45.936074747404156" lon="10.195286500223533"><ele>1164.0</ele><time>2026-03-28T13:48:54.001Z</time></trkpt><trkpt lat="45.936027984261784" lon="10.195213947281637"><ele>1166.3333333333333</ele><time>2026-03-28T13:48:57.001Z</time></trkpt><trkpt lat="45.93596083940446" lon="10.195181482650382"><ele>1168.6666666666665</ele><time>2026-03-28T13:48:59.001Z</time></trkpt><trkpt lat="45.93589709402716" lon="10.195063502088828"><ele>1171.0</ele><time>2026-03-28T13:49:01.001Z</time></trkpt><trkpt lat="45.93581669205653" lon="10.195007998987535"><ele>1174.8333333333333</ele><time>2026-03-28T13:49:02.001Z</time></trkpt><trkpt lat="45.935776498043865" lon="10.194921796391093"><ele>1178.6666666666665</ele><time>2026-03-28T13:49:03.001Z</time></trkpt><trkpt lat="45.93572821155889" lon="10.194846936076617"><ele>1182.5</ele><time>2026-03-28T13:49:04.001Z</time></trkpt><trkpt lat="45.935685835067304" lon="10.194779850490036"><ele>1186.3333333333333</ele><time>2026-03-28T13:49:05.001Z</time></trkpt><trkpt lat="45.93559564148421" lon="10.194650547785656"><ele>1190.1666666666667</ele><time>2026-03-28T13:49:07.001Z</time></trkpt><trkpt lat="45.93551286456676" lon="10.194540283006393"><ele>1194.0</ele><time>2026-03-28T13:49:09.001Z</time></trkpt><trkpt lat="45.93543367536469" lon="10.194422712861176"><ele>1194.0</ele><time>2026-03-28T13:49:11.001Z</time></trkpt><trkpt lat="45.9353302321396" lon="10.194324278683155"><ele>1194.0</ele><time>2026-03-28T13:49:13.001Z</time></trkpt><trkpt lat="45.93523407028407" lon="10.194229748699968"><ele>1194.0</ele><time>2026-03-28T13:49:15.001Z</time></trkpt><trkpt lat="45.935157977109" lon="10.19419062491191"><ele>1194.0</ele><time>2026-03-28T13:49:16.001Z</time></trkpt><trkpt lat="45.935105806505305" lon="10.194131953761364"><ele>1194.0</ele><time>2026-03-28T13:49:17.001Z</time></trkpt><trkpt lat="45.935054255667986" lon="10.194073944661124"><ele>1198.0</ele><time>2026-03-28T13:49:18.001Z</time></trkpt><trkpt lat="45.93496600320283" lon="10.194011183332842"><ele>1202.0</ele><time>2026-03-28T13:49:19.001Z</time></trkpt><trkpt lat="45.93493219928848" lon="10.193857248892954"><ele>1206.0</ele><time>2026-03-28T13:49:21.001Z</time></trkpt><trkpt lat="45.93485727433791" lon="10.193852570701749"><ele>1210.0</ele><time>2026-03-28T13:49:22.001Z</time></trkpt><trkpt lat="45.93478586269599" lon="10.193842970265836"><ele>1214.0</ele><time>2026-03-28T13:49:23.001Z</time></trkpt><trkpt lat="45.93469809015855" lon="10.193851927842822"><ele>1218.0</ele><time>2026-03-28T13:49:24.001Z</time></trkpt><trkpt lat="45.93460550919341" lon="10.193826818892138"><ele>1218.0</ele><time>2026-03-28T13:49:26.001Z</time></trkpt><trkpt lat="45.93458744515511" lon="10.193703460606265"><ele>1218.0</ele><time>2026-03-28T13:49:29.001Z</time></trkpt><trkpt lat="45.93449537185194" lon="10.193624093085967"><ele>1218.0</ele><time>2026-03-28T13:49:31.001Z</time></trkpt><trkpt lat="45.93441605463965" lon="10.193629692050894"><ele>1218.0</ele><time>2026-03-28T13:49:33.001Z</time></trkpt><trkpt lat="45.93434493640032" lon="10.193635468612428"><ele>1218.0</ele><time>2026-03-28T13:49:39.001Z</time></trkpt><trkpt lat="45.934277265166735" lon="10.193648194460497"><ele>1218.0</ele><time>2026-03-28T13:49:41.001Z</time></trkpt><trkpt lat="45.93415562337925" lon="10.193649242218473"><ele>1221.6</ele><time>2026-03-28T13:49:43.001Z</time></trkpt><trkpt lat="45.934086286538914" lon="10.193639106479074"><ele>1225.1999999999998</ele><time>2026-03-28T13:49:44.001Z</time></trkpt><trkpt lat="45.93401941454464" lon="10.193685782952938"><ele>1228.8</ele><time>2026-03-28T13:49:46.001Z</time></trkpt><trkpt lat="45.934076633793936" lon="10.193804188025014"><ele>1232.3999999999999</ele><time>2026-03-28T13:49:49.001Z</time></trkpt><trkpt lat="45.93412787589882" lon="10.193938605264998"><ele>1236.0</ele><time>2026-03-28T13:49:51.001Z</time></trkpt><trkpt lat="45.9341839223279" lon="10.194065528080953"><ele>1240.1666666666667</ele><time>2026-03-28T13:49:53.001Z</time></trkpt><trkpt lat="45.93416806142748" lon="10.19415407548797"><ele>1244.3333333333333</ele><time>2026-03-28T13:49:55.001Z</time></trkpt><trkpt lat="45.93420358371764" lon="10.194262780421841"><ele>1248.5</ele><time>2026-03-28T13:49:58.001Z</time></trkpt><trkpt lat="45.93417242930096" lon="10.194364453049964"><ele>1252.6666666666665</ele><time>2026-03-28T13:49:59.001Z</time></trkpt><trkpt lat="45.934165029498864" lon="10.194487383748472"><ele>1256.8333333333333</ele><time>2026-03-28T13:50:01.001Z</time></trkpt><trkpt lat="45.934112811331666" lon="10.19457970197875"><ele>1261.0</ele><time>2026-03-28T13:50:02.001Z</time></trkpt><trkpt lat="45.93407363993106" lon="10.19467137273569"><ele>1261.0</ele><time>2026-03-28T13:50:04.001Z</time></trkpt><trkpt lat="45.93400812089323" lon="10.194712485754843"><ele>1261.0</ele><time>2026-03-28T13:50:06.001Z</time></trkpt><trkpt lat="45.93403924918723" lon="10.194800633953262"><ele>1261.0</ele><time>2026-03-28T13:50:08.001Z</time></trkpt><trkpt lat="45.93406239272298" lon="10.194885062937168"><ele>1261.0</ele><time>2026-03-28T13:50:09.001Z</time></trkpt><trkpt lat="45.93414847276608" lon="10.195017377677189"><ele>1261.0</ele><time>2026-03-28T13:50:11.001Z</time></trkpt><trkpt lat="45.93418429293914" lon="10.195161316800975"><ele>1261.0</ele><time>2026-03-28T13:50:13.001Z</time></trkpt><trkpt lat="45.93422829431236" lon="10.195298261959618"><ele>1259.8</ele><time>2026-03-28T13:50:15.001Z</time></trkpt><trkpt lat="45.93428056277663" lon="10.195391098625329"><ele>1258.6</ele><time>2026-03-28T13:50:17.001Z</time></trkpt><trkpt lat="45.934287345368205" lon="10.195528485036235"><ele>1257.4</ele><time>2026-03-28T13:50:19.001Z</time></trkpt><trkpt lat="45.93427994725058" lon="10.195692232020141"><ele>1256.2</ele><time>2026-03-28T13:50:21Z</time></trkpt><trkpt lat="45.93425809029146" lon="10.195813301693866"><ele>1255.0</ele><time>2026-03-28T13:50:23Z</time></trkpt><trkpt lat="45.93424422350432" lon="10.195912169784128"><ele>1258.0</ele><time>2026-03-28T13:50:26Z</time></trkpt><trkpt lat="45.93432598618728" lon="10.195918811472374"><ele>1261.0</ele><time>2026-03-28T13:50:28Z</time></trkpt><trkpt lat="45.93443492869441" lon="10.19592271362808"><ele>1264.0</ele><time>2026-03-28T13:50:31Z</time></trkpt><trkpt lat="45.93440193449329" lon="10.1958443714513"><ele>1267.0</ele><time>2026-03-28T13:50:33Z</time></trkpt><trkpt lat="45.9343254962785" lon="10.19577093532477"><ele>1270.0</ele><time>2026-03-28T13:50:37Z</time></trkpt><trkpt lat="45.93415097014488" lon="10.195781224065199"><ele>1277.25</ele><time>2026-03-28T13:50:39Z</time></trkpt><trkpt lat="45.93399641105334" lon="10.195801612507365"><ele>1284.5</ele><time>2026-03-28T13:50:41Z</time></trkpt><trkpt lat="45.933871200073995" lon="10.195843134355663"><ele>1291.75</ele><time>2026-03-28T13:50:43Z</time></trkpt><trkpt lat="45.933791824017725" lon="10.195842149946655"><ele>1299.0</ele><time>2026-03-28T13:50:44Z</time></trkpt><trkpt lat="45.93369130381444" lon="10.195841850427085"><ele>1299.0</ele><time>2026-03-28T13:50:46Z</time></trkpt><trkpt lat="45.933596697913075" lon="10.19581009834188"><ele>1299.0</ele><time>2026-03-28T13:50:48Z</time></trkpt><trkpt lat="45.93352495260726" lon="10.195795344535433"><ele>1299.0</ele><time>2026-03-28T13:50:49Z</time></trkpt><trkpt lat="45.93346146614528" lon="10.195829430925963"><ele>1299.0</ele><time>2026-03-28T13:50:50Z</time></trkpt><trkpt lat="45.933393806792076" lon="10.195849269147315"><ele>1299.0</ele><time>2026-03-28T13:50:51Z</time></trkpt><trkpt lat="45.933344105961226" lon="10.195978448518384"><ele>1299.0</ele><time>2026-03-28T13:50:53Z</time></trkpt><trkpt lat="45.93327311670876" lon="10.196074016828046"><ele>1302.6</ele><time>2026-03-28T13:50:55Z</time></trkpt><trkpt lat="45.93327096017551" lon="10.196205623435741"><ele>1306.2</ele><time>2026-03-28T13:50:57Z</time></trkpt><trkpt lat="45.93319128827167" lon="10.196318548997477"><ele>1309.8</ele><time>2026-03-28T13:50:59Z</time></trkpt><trkpt lat="45.93312512692255" lon="10.196372011202557"><ele>1313.3999999999999</ele><time>2026-03-28T13:51:02Z</time></trkpt><trkpt lat="45.93303456514773" lon="10.196353302262175"><ele>1317.0</ele><time>2026-03-28T13:51:07Z</time></trkpt><trkpt lat="45.932910006156604" lon="10.196380110774726"><ele>1317.0</ele><time>2026-03-28T13:51:09Z</time></trkpt><trkpt lat="45.932844422320954" lon="10.196380976479164"><ele>1317.0</ele><time>2026-03-28T13:51:10Z</time></trkpt><trkpt lat="45.93276820110744" lon="10.196414859107115"><ele>1317.0</ele><time>2026-03-28T13:51:12Z</time></trkpt><trkpt lat="45.9326708987807" lon="10.19641023330125"><ele>1317.0</ele><time>2026-03-28T13:51:14Z</time></trkpt><trkpt lat="45.93260908068749" lon="10.196370908022663"><ele>1317.0</ele><time>2026-03-28T13:51:15Z</time></trkpt><trkpt lat="45.93252512929583" lon="10.196427195569328"><ele>1317.0</ele><time>2026-03-28T13:51:17Z</time></trkpt><trkpt lat="45.93244537541321" lon="10.196475862806688"><ele>1321.6666666666667</ele><time>2026-03-28T13:51:18Z</time></trkpt><trkpt lat="45.93238473718065" lon="10.196535659023057"><ele>1326.3333333333333</ele><time>2026-03-28T13:51:19Z</time></trkpt><trkpt lat="45.932316616694216" lon="10.196599485479727"><ele>1331.0</ele><time>2026-03-28T13:51:22Z</time></trkpt><trkpt lat="45.932309188812816" lon="10.19669122500742"><ele>1335.6666666666665</ele><time>2026-03-28T13:51:24Z</time></trkpt><trkpt lat="45.93224671856786" lon="10.196623835054487"><ele>1340.3333333333333</ele><time>2026-03-28T13:51:28Z</time></trkpt><trkpt lat="45.93231670026784" lon="10.196655370961361"><ele>1345.0</ele><time>2026-03-28T13:51:30Z</time></trkpt><trkpt lat="45.932412787362885" lon="10.19673496408672"><ele>1345.0</ele><time>2026-03-28T13:52:13.001Z</time></trkpt><trkpt lat="45.932482004295906" lon="10.196685452030227"><ele>1345.0</ele><time>2026-03-28T14:07:12.999Z</time></trkpt><trkpt lat="45.93254951212379" lon="10.196643121747398"><ele>1345.0</ele><time>2026-03-28T14:09:00.001Z</time></trkpt><trkpt lat="45.93260801788685" lon="10.196582935428097"><ele>1345.0</ele><time>2026-03-28T14:09:06.001Z</time></trkpt><trkpt lat="45.93268064382848" lon="10.196521435049767"><ele>1345.0</ele><time>2026-03-28T14:09:11.001Z</time></trkpt><trkpt lat="45.93275932533955" lon="10.196476772997542"><ele>1345.0</ele><time>2026-03-28T14:09:14Z</time></trkpt><trkpt lat="45.93283065683405" lon="10.19644359325194"><ele>1340.3333333333333</ele><time>2026-03-28T14:09:18Z</time></trkpt><trkpt lat="45.93290525553862" lon="10.196417148427463"><ele>1335.6666666666665</ele><time>2026-03-28T14:09:22Z</time></trkpt><trkpt lat="45.93299132931713" lon="10.196417719719618"><ele>1331.0</ele><time>2026-03-28T14:09:25Z</time></trkpt><trkpt lat="45.93305492187492" lon="10.19636958632923"><ele>1326.3333333333333</ele><time>2026-03-28T14:09:27Z</time></trkpt><trkpt lat="45.93302016029875" lon="10.19629240787522"><ele>1321.6666666666667</ele><time>2026-03-28T14:09:34Z</time></trkpt><trkpt lat="45.932937162566716" lon="10.196368702260948"><ele>1317.0</ele><time>2026-03-28T14:09:36Z</time></trkpt><trkpt lat="45.932867396781674" lon="10.196364865063252"><ele>1317.0</ele><time>2026-03-28T14:09:39Z</time></trkpt><trkpt lat="45.93278936616156" lon="10.196374432734013"><ele>1317.0</ele><time>2026-03-28T14:09:43Z</time></trkpt><trkpt lat="45.93279988618702" lon="10.196281531077648"><ele>1317.0</ele><time>2026-03-28T14:09:46Z</time></trkpt><trkpt lat="45.93282082769484" lon="10.196192530235859"><ele>1317.0</ele><time>2026-03-28T14:09:49Z</time></trkpt><trkpt lat="45.932873385876384" lon="10.196138232457043"><ele>1317.0</ele><time>2026-03-28T14:09:53Z</time></trkpt><trkpt lat="45.93294291984073" lon="10.196072902004627"><ele>1317.0</ele><time>2026-03-28T14:09:55Z</time></trkpt><trkpt lat="45.93298989193589" lon="10.196005248722583"><ele>1317.0</ele><time>2026-03-28T14:09:58Z</time></trkpt><trkpt lat="45.93305502476184" lon="10.19594666797918"><ele>1317.0</ele><time>2026-03-28T14:10:01Z</time></trkpt><trkpt lat="45.933119721538894" lon="10.195918549415024"><ele>1317.0</ele><time>2026-03-28T14:10:04Z</time></trkpt><trkpt lat="45.93320970537629" lon="10.19592280215159"><ele>1317.0</ele><time>2026-03-28T14:10:07Z</time></trkpt><trkpt lat="45.93327670998575" lon="10.195874957977228"><ele>1317.0</ele><time>2026-03-28T14:10:10Z</time></trkpt><trkpt lat="45.93319041164827" lon="10.195916749777334"><ele>1317.0</ele><time>2026-03-28T14:10:17Z</time></trkpt><trkpt lat="45.93311007932202" lon="10.195964162174663"><ele>1317.0</ele><time>2026-03-28T14:10:18Z</time></trkpt><trkpt lat="45.93304597794274" lon="10.196019337664062"><ele>1317.0</ele><time>2026-03-28T14:10:19Z</time></trkpt><trkpt lat="45.93295910782309" lon="10.19606867224357"><ele>1317.0</ele><time>2026-03-28T14:10:20Z</time></trkpt><trkpt lat="45.93286264673818" lon="10.196125386185129"><ele>1317.0</ele><time>2026-03-28T14:10:21Z</time></trkpt><trkpt lat="45.93275597907364" lon="10.196178311799635"><ele>1317.0</ele><time>2026-03-28T14:10:22Z</time></trkpt><trkpt lat="45.93268761942181" lon="10.196181227365676"><ele>1317.0</ele><time>2026-03-28T14:10:23Z</time></trkpt><trkpt lat="45.93261871976738" lon="10.196183964358672"><ele>1317.0</ele><time>2026-03-28T14:10:24Z</time></trkpt><trkpt lat="45.932536319404974" lon="10.196213373645124"><ele>1321.1666666666667</ele><time>2026-03-28T14:10:26Z</time></trkpt><trkpt lat="45.932427594727606" lon="10.196258152522562"><ele>1325.3333333333333</ele><time>2026-03-28T14:10:30Z</time></trkpt><trkpt lat="45.93231127716304" lon="10.196257449021765"><ele>1329.5</ele><time>2026-03-28T14:10:32Z</time></trkpt><trkpt lat="45.93225547466958" lon="10.196212940438977"><ele>1333.6666666666665</ele><time>2026-03-28T14:10:42Z</time></trkpt><trkpt lat="45.93220224136265" lon="10.196267093334159"><ele>1337.8333333333333</ele><time>2026-03-28T14:10:44Z</time></trkpt><trkpt lat="45.93219915096422" lon="10.196387626421055"><ele>1342.0</ele><time>2026-03-28T14:10:47Z</time></trkpt><trkpt lat="45.932149742610164" lon="10.196501310479741"><ele>1342.0</ele><time>2026-03-28T14:10:50.001Z</time></trkpt><trkpt lat="45.93220511678215" lon="10.196590942900805"><ele>1342.0</ele><time>2026-03-28T14:10:55.001Z</time></trkpt><trkpt lat="45.93223694067713" lon="10.196705040219866"><ele>1342.0</ele><time>2026-03-28T14:10:59.001Z</time></trkpt><trkpt lat="45.93229782748136" lon="10.196758567711516"><ele>1342.0</ele><time>2026-03-28T14:11:02.001Z</time></trkpt><trkpt lat="45.9323641395497" lon="10.196723189940414"><ele>1342.0</ele><time>2026-03-28T14:11:05.001Z</time></trkpt><trkpt lat="45.93230578589096" lon="10.19666455675095"><ele>1342.0</ele><time>2026-03-28T14:11:18.001Z</time></trkpt><trkpt lat="45.93230324302559" lon="10.196568475899412"><ele>1342.0</ele><time>2026-03-28T14:11:36Z</time></trkpt><trkpt lat="45.932255667986624" lon="10.19646367350288"><ele>1342.0</ele><time>2026-03-28T14:11:39Z</time></trkpt><trkpt lat="45.93219334613502" lon="10.196344201927106"><ele>1342.0</ele><time>2026-03-28T14:11:41Z</time></trkpt><trkpt lat="45.93211089048344" lon="10.19622555783887"><ele>1342.0</ele><time>2026-03-28T14:11:43Z</time></trkpt><trkpt lat="45.93208139435019" lon="10.196087044378697"><ele>1342.0</ele><time>2026-03-28T14:11:45Z</time></trkpt><trkpt lat="45.93205057681044" lon="10.195931360956601"><ele>1342.0</ele><time>2026-03-28T14:11:47Z</time></trkpt><trkpt lat="45.931998502219116" lon="10.195772399141621"><ele>1342.0</ele><time>2026-03-28T14:11:49Z</time></trkpt><trkpt lat="45.93196942226307" lon="10.195683283479342"><ele>1342.0</ele><time>2026-03-28T14:11:50Z</time></trkpt><trkpt lat="45.93193167030947" lon="10.19559766147256"><ele>1342.0</ele><time>2026-03-28T14:11:51Z</time></trkpt><trkpt lat="45.931890399109044" lon="10.195514605751502"><ele>1342.0</ele><time>2026-03-28T14:11:52Z</time></trkpt><trkpt lat="45.93183992968014" lon="10.195428837096454"><ele>1342.0</ele><time>2026-03-28T14:11:53Z</time></trkpt><trkpt lat="45.931781749532476" lon="10.195345020008274"><ele>1342.0</ele><time>2026-03-28T14:11:54Z</time></trkpt><trkpt lat="45.93172066463398" lon="10.195275378547747"><ele>1342.0</ele><time>2026-03-28T14:11:55Z</time></trkpt><trkpt lat="45.93165673941545" lon="10.195209716973087"><ele>1344.0</ele><time>2026-03-28T14:11:56Z</time></trkpt><trkpt lat="45.93157896864767" lon="10.195144555499697"><ele>1346.0</ele><time>2026-03-28T14:11:57Z</time></trkpt><trkpt lat="45.93150336258594" lon="10.195107532999646"><ele>1348.0</ele><time>2026-03-28T14:11:58Z</time></trkpt><trkpt lat="45.931389111421986" lon="10.195076081713232"><ele>1350.0</ele><time>2026-03-28T14:12:00Z</time></trkpt><trkpt lat="45.931329926474255" lon="10.195041117650295"><ele>1352.0</ele><time>2026-03-28T14:12:01Z</time></trkpt><trkpt lat="45.93126322554629" lon="10.19501623977296"><ele>1354.0</ele><time>2026-03-28T14:12:02Z</time></trkpt><trkpt lat="45.931160592165796" lon="10.194972094770817"><ele>1354.0</ele><time>2026-03-28T14:12:04.001Z</time></trkpt><trkpt lat="45.93109967577304" lon="10.194938410180619"><ele>1354.0</ele><time>2026-03-28T14:12:05.001Z</time></trkpt><trkpt lat="45.93102652348239" lon="10.194810480329744"><ele>1354.0</ele><time>2026-03-28T14:12:07.001Z</time></trkpt><trkpt lat="45.930973657205726" lon="10.1947400381342"><ele>1354.0</ele><time>2026-03-28T14:12:08.001Z</time></trkpt><trkpt lat="45.930898887113486" lon="10.194672696637804"><ele>1354.0</ele><time>2026-03-28T14:12:09.001Z</time></trkpt><trkpt lat="45.930835312534185" lon="10.194600520725885"><ele>1354.0</ele><time>2026-03-28T14:12:10.001Z</time></trkpt><trkpt lat="45.93076316826504" lon="10.194514471596879"><ele>1354.1666666666665</ele><time>2026-03-28T14:12:11.001Z</time></trkpt><trkpt lat="45.93070058840339" lon="10.194443222732831"><ele>1354.3333333333333</ele><time>2026-03-28T14:12:12.001Z</time></trkpt><trkpt lat="45.93065792039279" lon="10.194375653597008"><ele>1354.5</ele><time>2026-03-28T14:12:13.001Z</time></trkpt><trkpt lat="45.93063332430856" lon="10.194229727020696"><ele>1354.6666666666667</ele><time>2026-03-28T14:12:15.001Z</time></trkpt><trkpt lat="45.9306171602263" lon="10.194061772705243"><ele>1354.8333333333335</ele><time>2026-03-28T14:12:17.001Z</time></trkpt><trkpt lat="45.93061014397812" lon="10.193969352293538"><ele>1355.0</ele><time>2026-03-28T14:12:18.001Z</time></trkpt><trkpt lat="45.93059553985604" lon="10.19387566403145"><ele>1351.5</ele><time>2026-03-28T14:12:19.001Z</time></trkpt><trkpt lat="45.9305556750512" lon="10.193710648368803"><ele>1348.0</ele><time>2026-03-28T14:12:21.001Z</time></trkpt><trkpt lat="45.9305154489222" lon="10.193618905906632"><ele>1344.5</ele><time>2026-03-28T14:12:22.001Z</time></trkpt><trkpt lat="45.93048381398286" lon="10.19353791459158"><ele>1341.0</ele><time>2026-03-28T14:12:23.001Z</time></trkpt><trkpt lat="45.93044458362127" lon="10.193461788203363"><ele>1337.5</ele><time>2026-03-28T14:12:24.001Z</time></trkpt><trkpt lat="45.9304012719125" lon="10.193376388425552"><ele>1334.0</ele><time>2026-03-28T14:12:25.001Z</time></trkpt><trkpt lat="45.93034525812328" lon="10.193291345223237"><ele>1334.0</ele><time>2026-03-28T14:12:26.001Z</time></trkpt><trkpt lat="45.93028665800015" lon="10.193205404163429"><ele>1334.0</ele><time>2026-03-28T14:12:27.001Z</time></trkpt><trkpt lat="45.93022210606092" lon="10.193106124092267"><ele>1334.0</ele><time>2026-03-28T14:12:28.001Z</time></trkpt><trkpt lat="45.93018089714972" lon="10.192999863075096"><ele>1334.0</ele><time>2026-03-28T14:12:29.001Z</time></trkpt><trkpt lat="45.93015112019761" lon="10.192897325284516"><ele>1334.0</ele><time>2026-03-28T14:12:30.001Z</time></trkpt><trkpt lat="45.93011890915645" lon="10.192797111836938"><ele>1334.0</ele><time>2026-03-28T14:12:31.001Z</time></trkpt><trkpt lat="45.9300790135198" lon="10.192713378451804"><ele>1333.1666666666667</ele><time>2026-03-28T14:12:32.001Z</time></trkpt><trkpt lat="45.930021454682446" lon="10.19260944900611"><ele>1332.3333333333335</ele><time>2026-03-28T14:12:33.001Z</time></trkpt><trkpt lat="45.929962690370886" lon="10.192505993442548"><ele>1331.5</ele><time>2026-03-28T14:12:34.001Z</time></trkpt><trkpt lat="45.92994911306199" lon="10.192388783930525"><ele>1330.6666666666667</ele><time>2026-03-28T14:12:35.001Z</time></trkpt><trkpt lat="45.92991765393055" lon="10.19227485802881"><ele>1329.8333333333333</ele><time>2026-03-28T14:12:36.001Z</time></trkpt><trkpt lat="45.929875371140774" lon="10.19215129370123"><ele>1329.0</ele><time>2026-03-28T14:12:37.001Z</time></trkpt><trkpt lat="45.92984434991578" lon="10.192019522456773"><ele>1329.0</ele><time>2026-03-28T14:12:38.001Z</time></trkpt><trkpt lat="45.92981213438756" lon="10.19188576701468"><ele>1329.0</ele><time>2026-03-28T14:12:39.001Z</time></trkpt><trkpt lat="45.929789114840204" lon="10.191769840837734"><ele>1329.0</ele><time>2026-03-28T14:12:40.001Z</time></trkpt><trkpt lat="45.92973681217641" lon="10.191688483560092"><ele>1329.0</ele><time>2026-03-28T14:12:41.001Z</time></trkpt><trkpt lat="45.92966898931972" lon="10.191624689652603"><ele>1329.0</ele><time>2026-03-28T14:12:42.001Z</time></trkpt><trkpt lat="45.929607685958246" lon="10.191574430968847"><ele>1329.0</ele><time>2026-03-28T14:12:43.001Z</time></trkpt><trkpt lat="45.92952454510927" lon="10.191431043902721"><ele>1324.4</ele><time>2026-03-28T14:12:45.001Z</time></trkpt><trkpt lat="45.92948234584169" lon="10.191300661964135"><ele>1319.8000000000002</ele><time>2026-03-28T14:12:46.001Z</time></trkpt><trkpt lat="45.929449260142455" lon="10.191148731088829"><ele>1315.1999999999998</ele><time>2026-03-28T14:12:47.001Z</time></trkpt><trkpt lat="45.92942572692164" lon="10.191000697807983"><ele>1310.6</ele><time>2026-03-28T14:12:48.001Z</time></trkpt><trkpt lat="45.92939163225118" lon="10.19085402057573"><ele>1306.0</ele><time>2026-03-28T14:12:49.001Z</time></trkpt><trkpt lat="45.92937691562761" lon="10.19070558859011"><ele>1304.1666666666665</ele><time>2026-03-28T14:12:50.001Z</time></trkpt><trkpt lat="45.92934899196764" lon="10.190574696036538"><ele>1302.3333333333333</ele><time>2026-03-28T14:12:51.001Z</time></trkpt><trkpt lat="45.929315387489204" lon="10.190464531000213"><ele>1300.5</ele><time>2026-03-28T14:12:52.001Z</time></trkpt><trkpt lat="45.9292681208069" lon="10.190372244324642"><ele>1298.6666666666667</ele><time>2026-03-28T14:12:53.001Z</time></trkpt><trkpt lat="45.929233223149794" lon="10.190266297150702"><ele>1296.8333333333335</ele><time>2026-03-28T14:12:54.001Z</time></trkpt><trkpt lat="45.92921992947176" lon="10.190166419341265"><ele>1295.0</ele><time>2026-03-28T14:12:55.001Z</time></trkpt><trkpt lat="45.929200958723214" lon="10.190073051275705"><ele>1297.1666666666667</ele><time>2026-03-28T14:12:56.001Z</time></trkpt><trkpt lat="45.929193808970815" lon="10.189981939526032"><ele>1299.3333333333335</ele><time>2026-03-28T14:12:57.002Z</time></trkpt><trkpt lat="45.92921000853557" lon="10.189853212268446"><ele>1301.5</ele><time>2026-03-28T14:12:59.002Z</time></trkpt><trkpt lat="45.92925289550731" lon="10.18978012534554"><ele>1303.6666666666667</ele><time>2026-03-28T14:13:01.002Z</time></trkpt><trkpt lat="45.92927591590374" lon="10.189667996874148"><ele>1305.8333333333333</ele><time>2026-03-28T14:13:05.002Z</time></trkpt><trkpt lat="45.929276134767996" lon="10.189566277441504"><ele>1308.0</ele><time>2026-03-28T14:13:08.002Z</time></trkpt><trkpt lat="45.929276407423934" lon="10.189448388710183"><ele>1308.0</ele><time>2026-03-28T14:13:12.002Z</time></trkpt><trkpt lat="45.92924258789909" lon="10.189361287349648"><ele>1308.0</ele><time>2026-03-28T14:13:29.001Z</time></trkpt><trkpt lat="45.92925343208798" lon="10.189499918128009"><ele>1308.0</ele><time>2026-03-28T14:13:34.001Z</time></trkpt><trkpt lat="45.92924765146681" lon="10.189619124838963"><ele>1308.0</ele><time>2026-03-28T14:13:37.001Z</time></trkpt><trkpt lat="45.929293090817694" lon="10.18968955260653"><ele>1308.0</ele><time>2026-03-28T14:13:40.001Z</time></trkpt><trkpt lat="45.92933566695883" lon="10.189620675317608"><ele>1308.0</ele><time>2026-03-28T14:13:46.001Z</time></trkpt><trkpt lat="45.92939591938761" lon="10.189509651157465"><ele>1308.0</ele><time>2026-03-28T14:13:48.001Z</time></trkpt><trkpt lat="45.92943002508518" lon="10.189396794808824"><ele>1308.0</ele><time>2026-03-28T14:13:50.001Z</time></trkpt><trkpt lat="45.929506244421916" lon="10.189297851778703"><ele>1308.0</ele><time>2026-03-28T14:13:52.001Z</time></trkpt><trkpt lat="45.9295612032474" lon="10.189202408272687"><ele>1308.0</ele><time>2026-03-28T14:13:54.001Z</time></trkpt><trkpt lat="45.92964287926577" lon="10.189080943123008"><ele>1308.0</ele><time>2026-03-28T14:13:56.001Z</time></trkpt><trkpt lat="45.929706173882785" lon="10.188977591186235"><ele>1310.8333333333333</ele><time>2026-03-28T14:13:58.001Z</time></trkpt><trkpt lat="45.92977413324921" lon="10.188834019987805"><ele>1313.6666666666667</ele><time>2026-03-28T14:14:00.001Z</time></trkpt><trkpt lat="45.92984784256691" lon="10.188751663076667"><ele>1316.5</ele><time>2026-03-28T14:14:02.001Z</time></trkpt><trkpt lat="45.929927022681895" lon="10.188706101484518"><ele>1319.3333333333335</ele><time>2026-03-28T14:14:06.001Z</time></trkpt><trkpt lat="45.929968435123314" lon="10.188637197720492"><ele>1322.1666666666667</ele><time>2026-03-28T14:14:08.001Z</time></trkpt><trkpt lat="45.9300424968571" lon="10.188604392280663"><ele>1325.0</ele><time>2026-03-28T14:14:12.001Z</time></trkpt><trkpt lat="45.93010371836983" lon="10.188451395338975"><ele>1318.5</ele><time>2026-03-28T14:14:33.001Z</time></trkpt><trkpt lat="45.930166945549814" lon="10.18838208230387"><ele>1312.0</ele><time>2026-03-28T14:14:36.001Z</time></trkpt><trkpt lat="45.930244981381946" lon="10.18829303063804"><ele>1305.5</ele><time>2026-03-28T14:14:38.001Z</time></trkpt><trkpt lat="45.93032833593959" lon="10.188261159405844"><ele>1299.0</ele><time>2026-03-28T14:14:39.001Z</time></trkpt><trkpt lat="45.930427657688426" lon="10.188185414398532"><ele>1292.5</ele><time>2026-03-28T14:14:41.001Z</time></trkpt><trkpt lat="45.93046258531522" lon="10.18810575793722"><ele>1286.0</ele><time>2026-03-28T14:14:42.001Z</time></trkpt><trkpt lat="45.93053342896038" lon="10.18800264219071"><ele>1286.0</ele><time>2026-03-28T14:14:44.001Z</time></trkpt><trkpt lat="45.930601923163756" lon="10.187933471289192"><ele>1286.0</ele><time>2026-03-28T14:14:46.001Z</time></trkpt><trkpt lat="45.930671273136745" lon="10.187884699901833"><ele>1286.0</ele><time>2026-03-28T14:14:48.001Z</time></trkpt><trkpt lat="45.930743571567554" lon="10.187935855514285"><ele>1286.0</ele><time>2026-03-28T14:14:51.001Z</time></trkpt><trkpt lat="45.930795177110205" lon="10.188028870185327"><ele>1286.0</ele><time>2026-03-28T14:14:53.001Z</time></trkpt><trkpt lat="45.93085938671113" lon="10.188079302482196"><ele>1286.0</ele><time>2026-03-28T14:14:55.001Z</time></trkpt><trkpt lat="45.930919660789534" lon="10.188116248250317"><ele>1279.2</ele><time>2026-03-28T14:14:57.001Z</time></trkpt><trkpt lat="45.93102239313015" lon="10.188094219883462"><ele>1272.3999999999999</ele><time>2026-03-28T14:14:59.001Z</time></trkpt><trkpt lat="45.93111075109458" lon="10.188070680050766"><ele>1265.6</ele><time>2026-03-28T14:15:02.001Z</time></trkpt><trkpt lat="45.931180865415214" lon="10.18804065165676"><ele>1258.8</ele><time>2026-03-28T14:15:04.001Z</time></trkpt><trkpt lat="45.93127943790501" lon="10.188004033245653"><ele>1252.0</ele><time>2026-03-28T14:15:07.001Z</time></trkpt><trkpt lat="45.931351243348914" lon="10.187896651309654"><ele>1252.0</ele><time>2026-03-28T14:15:09.001Z</time></trkpt><trkpt lat="45.93140972307454" lon="10.187731942900607"><ele>1252.0</ele><time>2026-03-28T14:15:11.001Z</time></trkpt><trkpt lat="45.93145379997152" lon="10.187584958359341"><ele>1252.0</ele><time>2026-03-28T14:15:13.001Z</time></trkpt><trkpt lat="45.93146405390072" lon="10.187441349500808"><ele>1252.0</ele><time>2026-03-28T14:15:15.001Z</time></trkpt><trkpt lat="45.93151786846827" lon="10.187335228379057"><ele>1252.0</ele><time>2026-03-28T14:15:18.001Z</time></trkpt><trkpt lat="45.931575331067556" lon="10.187295391016878"><ele>1252.0</ele><time>2026-03-28T14:15:20.001Z</time></trkpt><trkpt lat="45.9316381293158" lon="10.187346827223605"><ele>1252.0</ele><time>2026-03-28T14:15:23.001Z</time></trkpt><trkpt lat="45.931716316321754" lon="10.18736974404768"><ele>1252.0</ele><time>2026-03-28T14:15:24.001Z</time></trkpt><trkpt lat="45.931840791002735" lon="10.187422381717232"><ele>1252.0</ele><time>2026-03-28T14:15:26.001Z</time></trkpt><trkpt lat="45.931798740821456" lon="10.187345693145591"><ele>1252.0</ele><time>2026-03-28T14:15:32.001Z</time></trkpt><trkpt lat="45.93174760239407" lon="10.187284893705138"><ele>1252.0</ele><time>2026-03-28T14:15:34.001Z</time></trkpt><trkpt lat="45.93173046204308" lon="10.18716305597616"><ele>1252.0</ele><time>2026-03-28T14:15:39.001Z</time></trkpt><trkpt lat="45.931762379220295" lon="10.187084725645926"><ele>1252.0</ele><time>2026-03-28T14:15:41.001Z</time></trkpt><trkpt lat="45.931824432993785" lon="10.187068756330504"><ele>1252.0</ele><time>2026-03-28T14:15:45.001Z</time></trkpt><trkpt lat="45.93176386450417" lon="10.18716003921927"><ele>1252.0</ele><time>2026-03-28T14:16:04Z</time></trkpt><trkpt lat="45.93175727624261" lon="10.187254895259695"><ele>1252.0</ele><time>2026-03-28T14:16:08Z</time></trkpt><trkpt lat="45.93170671218193" lon="10.187358642702854"><ele>1252.0</ele><time>2026-03-28T14:16:09Z</time></trkpt><trkpt lat="45.93165973657718" lon="10.187491552514487"><ele>1252.0</ele><time>2026-03-28T14:16:11Z</time></trkpt><trkpt lat="45.931612212886215" lon="10.187558009959279"><ele>1252.0</ele><time>2026-03-28T14:16:12Z</time></trkpt><trkpt lat="45.931625473522246" lon="10.187660588789118"><ele>1252.0</ele><time>2026-03-28T14:16:14Z</time></trkpt><trkpt lat="45.93169578689286" lon="10.187660308589845"><ele>1252.0</ele><time>2026-03-28T14:16:22Z</time></trkpt><trkpt lat="45.931717233342596" lon="10.187556692746348"><ele>1252.0</ele><time>2026-03-28T14:16:25Z</time></trkpt><trkpt lat="45.931722531800546" lon="10.187466172901772"><ele>1252.0</ele><time>2026-03-28T14:16:28Z</time></trkpt><trkpt lat="45.931737856736824" lon="10.18733622284257"><ele>1252.0</ele><time>2026-03-28T14:16:30Z</time></trkpt><trkpt lat="45.931764059880436" lon="10.187219650278115"><ele>1250.6</ele><time>2026-03-28T14:16:32Z</time></trkpt><trkpt lat="45.93177443902966" lon="10.187014355374757"><ele>1249.2</ele><time>2026-03-28T14:17:53Z</time></trkpt><trkpt lat="45.931797453733076" lon="10.187138665404595"><ele>1247.8</ele><time>2026-03-28T14:18:32.001Z</time></trkpt><trkpt lat="45.93186375086678" lon="10.187094298213449"><ele>1246.4</ele><time>2026-03-28T14:19:29.001Z</time></trkpt><trkpt lat="45.93174481621656" lon="10.187136428850396"><ele>1245.0</ele><time>2026-03-28T14:19:55Z</time></trkpt><trkpt lat="45.931693072199515" lon="10.187197136261604"><ele>1245.0</ele><time>2026-03-28T14:19:56Z</time></trkpt><trkpt lat="45.93162918817256" lon="10.18727667694685"><ele>1245.0</ele><time>2026-03-28T14:19:58Z</time></trkpt><trkpt lat="45.93167740135766" lon="10.18736042765913"><ele>1245.0</ele><time>2026-03-28T14:20:01Z</time></trkpt><trkpt lat="45.93166953931124" lon="10.18726986521767"><ele>1245.0</ele><time>2026-03-28T14:20:11Z</time></trkpt><trkpt lat="45.93167501902378" lon="10.187151083508786"><ele>1245.0</ele><time>2026-03-28T14:20:27.001Z</time></trkpt><trkpt lat="45.93175460089563" lon="10.187117533975073"><ele>1245.0</ele><time>2026-03-28T14:20:32.001Z</time></trkpt><trkpt lat="45.93182860941469" lon="10.18715495823702"><ele>1239.1666666666667</ele><time>2026-03-28T14:20:51.001Z</time></trkpt><trkpt lat="45.931918159268015" lon="10.18722996085831"><ele>1233.3333333333333</ele><time>2026-03-28T14:20:54.001Z</time></trkpt><trkpt lat="45.93191789780796" lon="10.18733035357384"><ele>1227.5</ele><time>2026-03-28T14:20:56.001Z</time></trkpt><trkpt lat="45.9319799824689" lon="10.187385356951669"><ele>1221.6666666666665</ele><time>2026-03-28T14:20:58.001Z</time></trkpt><trkpt lat="45.93198187869552" lon="10.18749357762752"><ele>1215.8333333333333</ele><time>2026-03-28T14:21:01.001Z</time></trkpt><trkpt lat="45.93197602724146" lon="10.187608019899853"><ele>1210.0</ele><time>2026-03-28T14:21:03.001Z</time></trkpt><trkpt lat="45.931968282764224" lon="10.187711283653247"><ele>1210.0</ele><time>2026-03-28T14:21:06.001Z</time></trkpt><trkpt lat="45.93198522209843" lon="10.187823089661471"><ele>1210.0</ele><time>2026-03-28T14:21:09.001Z</time></trkpt><trkpt lat="45.932041387602524" lon="10.187976054354058"><ele>1210.0</ele><time>2026-03-28T14:21:12.001Z</time></trkpt><trkpt lat="45.93210780123195" lon="10.188050991487904"><ele>1210.0</ele><time>2026-03-28T14:21:13.001Z</time></trkpt><trkpt lat="45.93215926799356" lon="10.188116019438905"><ele>1210.0</ele><time>2026-03-28T14:21:14.001Z</time></trkpt><trkpt lat="45.93221958813253" lon="10.188162081272157"><ele>1210.0</ele><time>2026-03-28T14:21:15.001Z</time></trkpt><trkpt lat="45.93228686226967" lon="10.188187477665386"><ele>1209.8333333333333</ele><time>2026-03-28T14:21:16.001Z</time></trkpt><trkpt lat="45.93235267370805" lon="10.188217993773963"><ele>1209.6666666666665</ele><time>2026-03-28T14:21:17.001Z</time></trkpt><trkpt lat="45.93242219891475" lon="10.188258562471251"><ele>1209.5</ele><time>2026-03-28T14:21:18.001Z</time></trkpt><trkpt lat="45.932500018582026" lon="10.188353454346574"><ele>1209.3333333333333</ele><time>2026-03-28T14:21:20.001Z</time></trkpt><trkpt lat="45.93258872638213" lon="10.188363232233069"><ele>1209.1666666666667</ele><time>2026-03-28T14:21:22.001Z</time></trkpt><trkpt lat="45.93267239536601" lon="10.188319254157266"><ele>1209.0</ele><time>2026-03-28T14:21:25.001Z</time></trkpt><trkpt lat="45.9327767662282" lon="10.188242805005913"><ele>1205.6666666666667</ele><time>2026-03-28T14:21:27.001Z</time></trkpt><trkpt lat="45.93285692849935" lon="10.18819364024251"><ele>1202.3333333333333</ele><time>2026-03-28T14:21:29.001Z</time></trkpt><trkpt lat="45.932894410230226" lon="10.1880887700695"><ele>1199.0</ele><time>2026-03-28T14:21:31.001Z</time></trkpt><trkpt lat="45.93295582343634" lon="10.188045359842429"><ele>1195.6666666666665</ele><time>2026-03-28T14:21:32.001Z</time></trkpt><trkpt lat="45.93304230416036" lon="10.187962904031778"><ele>1192.3333333333333</ele><time>2026-03-28T14:21:34.001Z</time></trkpt><trkpt lat="45.93309966850868" lon="10.187842691856023"><ele>1189.0</ele><time>2026-03-28T14:21:36.001Z</time></trkpt><trkpt lat="45.93313260916541" lon="10.187757360550922"><ele>1187.0</ele><time>2026-03-28T14:21:37.001Z</time></trkpt><trkpt lat="45.93315712645821" lon="10.187641718103999"><ele>1185.0</ele><time>2026-03-28T14:21:38.001Z</time></trkpt><trkpt lat="45.93318198972961" lon="10.18748168333238"><ele>1183.0</ele><time>2026-03-28T14:21:39.001Z</time></trkpt><trkpt lat="45.93324596883771" lon="10.187330801469333"><ele>1181.0</ele><time>2026-03-28T14:21:41.001Z</time></trkpt><trkpt lat="45.933252024084446" lon="10.187214882618116"><ele>1179.0</ele><time>2026-03-28T14:21:42.001Z</time></trkpt><trkpt lat="45.93323429645563" lon="10.187127028540582"><ele>1176.6666666666667</ele><time>2026-03-28T14:21:43.001Z</time></trkpt><trkpt lat="45.93323213399901" lon="10.186976721951519"><ele>1174.3333333333333</ele><time>2026-03-28T14:21:45.001Z</time></trkpt><trkpt lat="45.93322047568773" lon="10.186848002873779"><ele>1172.0</ele><time>2026-03-28T14:21:47.001Z</time></trkpt><trkpt lat="45.93318900578507" lon="10.186719770359202"><ele>1169.6666666666665</ele><time>2026-03-28T14:21:49Z</time></trkpt><trkpt lat="45.933124675426505" lon="10.186695489973038"><ele>1167.3333333333333</ele><time>2026-03-28T14:21:52Z</time></trkpt><trkpt lat="45.93308879853548" lon="10.186615866024168"><ele>1165.0</ele><time>2026-03-28T14:22:48Z</time></trkpt><trkpt lat="45.93308797046411" lon="10.186506071437144"><ele>1162.8</ele><time>2026-03-28T14:22:51Z</time></trkpt><trkpt lat="45.93311198504167" lon="10.186396873997829"><ele>1160.6</ele><time>2026-03-28T14:22:53Z</time></trkpt><trkpt lat="45.9331493999249" lon="10.186235767995962"><ele>1158.4</ele><time>2026-03-28T14:22:55Z</time></trkpt><trkpt lat="45.933164984800996" lon="10.186142370699356"><ele>1156.2</ele><time>2026-03-28T14:22:56.001Z</time></trkpt><trkpt lat="45.933184685563035" lon="10.185985870381307"><ele>1154.0</ele><time>2026-03-28T14:22:58.001Z</time></trkpt><trkpt lat="45.933224130466776" lon="10.18581609447917"><ele>1153.3333333333335</ele><time>2026-03-28T14:23:00.001Z</time></trkpt><trkpt lat="45.933228544740196" lon="10.18565921101322"><ele>1152.6666666666667</ele><time>2026-03-28T14:23:02.001Z</time></trkpt><trkpt lat="45.93324875129539" lon="10.18556854226623"><ele>1152.0</ele><time>2026-03-28T14:23:03.001Z</time></trkpt><trkpt lat="45.93324850496119" lon="10.185471837936337"><ele>1151.3333333333333</ele><time>2026-03-28T14:23:04.001Z</time></trkpt><trkpt lat="45.933289912732576" lon="10.185312933775638"><ele>1150.6666666666665</ele><time>2026-03-28T14:23:06.001Z</time></trkpt><trkpt lat="45.93330247494513" lon="10.185209664230916"><ele>1150.0</ele><time>2026-03-28T14:23:07.001Z</time></trkpt><trkpt lat="45.93333885467164" lon="10.185034978521243"><ele>1150.0</ele><time>2026-03-28T14:23:09.001Z</time></trkpt><trkpt lat="45.93334066829466" lon="10.184939715839704"><ele>1150.0</ele><time>2026-03-28T14:23:10.001Z</time></trkpt><trkpt lat="45.933341236703406" lon="10.184820186410061"><ele>1150.0</ele><time>2026-03-28T14:23:11.001Z</time></trkpt><trkpt lat="45.93336366837667" lon="10.184692551004021"><ele>1150.0</ele><time>2026-03-28T14:23:12.001Z</time></trkpt><trkpt lat="45.933384906290215" lon="10.184567937760665"><ele>1150.0</ele><time>2026-03-28T14:23:13.001Z</time></trkpt><trkpt lat="45.9334098870787" lon="10.184474455390072"><ele>1150.0</ele><time>2026-03-28T14:23:14.001Z</time></trkpt><trkpt lat="45.933447872565495" lon="10.184385410282125"><ele>1143.4</ele><time>2026-03-28T14:23:15.001Z</time></trkpt><trkpt lat="45.933498287876986" lon="10.184197279555196"><ele>1136.8</ele><time>2026-03-28T14:23:17.001Z</time></trkpt><trkpt lat="45.933499418587836" lon="10.184082132570378"><ele>1130.2</ele><time>2026-03-28T14:23:18.001Z</time></trkpt><trkpt lat="45.93350715357044" lon="10.183908210600482"><ele>1123.6</ele><time>2026-03-28T14:23:20.001Z</time></trkpt><trkpt lat="45.93351287815895" lon="10.18381348718988"><ele>1117.0</ele><time>2026-03-28T14:23:22.001Z</time></trkpt><trkpt lat="45.933490591328145" lon="10.183703147035118"><ele>1116.1666666666665</ele><time>2026-03-28T14:23:24.001Z</time></trkpt><trkpt lat="45.9334284144637" lon="10.183610285621999"><ele>1115.3333333333333</ele><time>2026-03-28T14:23:26.001Z</time></trkpt><trkpt lat="45.9333694540744" lon="10.183535584612251"><ele>1114.5</ele><time>2026-03-28T14:23:28.001Z</time></trkpt><trkpt lat="45.93328340208617" lon="10.183447499635971"><ele>1113.6666666666667</ele><time>2026-03-28T14:23:29.001Z</time></trkpt><trkpt lat="45.933211830002854" lon="10.183388816065243"><ele>1112.8333333333335</ele><time>2026-03-28T14:23:30.001Z</time></trkpt><trkpt lat="45.93313244021152" lon="10.183359944383767"><ele>1112.0</ele><time>2026-03-28T14:23:31.001Z</time></trkpt><trkpt lat="45.93302816328907" lon="10.18335913829756"><ele>1110.8</ele><time>2026-03-28T14:23:32.001Z</time></trkpt><trkpt lat="45.93291703894506" lon="10.18334934702856"><ele>1109.6</ele><time>2026-03-28T14:23:33.001Z</time></trkpt><trkpt lat="45.93283061633038" lon="10.183250590248853"><ele>1108.3999999999999</ele><time>2026-03-28T14:23:35.001Z</time></trkpt><trkpt lat="45.93275331218476" lon="10.183236427169884"><ele>1107.2</ele><time>2026-03-28T14:23:36.001Z</time></trkpt><trkpt lat="45.93265639960359" lon="10.183138356469534"><ele>1106.0</ele><time>2026-03-28T14:23:38.001Z</time></trkpt><trkpt lat="45.9326418259794" lon="10.183011848437664"><ele>1106.0</ele><time>2026-03-28T14:23:40.001Z</time></trkpt><trkpt lat="45.93264037095792" lon="10.182906495697193"><ele>1106.0</ele><time>2026-03-28T14:23:41.001Z</time></trkpt><trkpt lat="45.93270204841587" lon="10.182759096668063"><ele>1106.0</ele><time>2026-03-28T14:23:43.001Z</time></trkpt><trkpt lat="45.93276689226728" lon="10.182693314591067"><ele>1106.0</ele><time>2026-03-28T14:23:44.001Z</time></trkpt><trkpt lat="45.932854927828835" lon="10.182672313839092"><ele>1106.0</ele><time>2026-03-28T14:23:47.001Z</time></trkpt><trkpt lat="45.932917646176186" lon="10.182551029547467"><ele>1106.0</ele><time>2026-03-28T14:23:50.001Z</time></trkpt><trkpt lat="45.933021699008776" lon="10.182501146983803"><ele>1106.0</ele><time>2026-03-28T14:23:56Z</time></trkpt><trkpt lat="45.93314351643585" lon="10.182523087908361"><ele>1106.0</ele><time>2026-03-28T14:23:58Z</time></trkpt><trkpt lat="45.93323255326929" lon="10.182495925321927"><ele>1106.0</ele><time>2026-03-28T14:23:59Z</time></trkpt><trkpt lat="45.933328976971886" lon="10.182377011670082"><ele>1107.3999999999999</ele><time>2026-03-28T14:24:00Z</time></trkpt><trkpt lat="45.93337534916858" lon="10.182251246593799"><ele>1108.8</ele><time>2026-03-28T14:24:01Z</time></trkpt><trkpt lat="45.93343031104105" lon="10.182109970152444"><ele>1110.1999999999998</ele><time>2026-03-28T14:24:02Z</time></trkpt><trkpt lat="45.933477674804294" lon="10.181985865604823"><ele>1111.6</ele><time>2026-03-28T14:24:03Z</time></trkpt><trkpt lat="45.93358346163529" lon="10.181896670922065"><ele>1113.0</ele><time>2026-03-28T14:24:04Z</time></trkpt><trkpt lat="45.93368119721047" lon="10.181919431409641"><ele>1108.0</ele><time>2026-03-28T14:24:05Z</time></trkpt><trkpt lat="45.933765641223154" lon="10.181915716622319"><ele>1103.0</ele><time>2026-03-28T14:24:06Z</time></trkpt><trkpt lat="45.93387502269971" lon="10.181893764758913"><ele>1098.0</ele><time>2026-03-28T14:24:07Z</time></trkpt><trkpt lat="45.93395642990571" lon="10.181867154599162"><ele>1093.0</ele><time>2026-03-28T14:24:08Z</time></trkpt><trkpt lat="45.93409766219506" lon="10.181840759078675"><ele>1088.0</ele><time>2026-03-28T14:24:09Z</time></trkpt><trkpt lat="45.93423516098962" lon="10.181814633761661"><ele>1082.25</ele><time>2026-03-28T14:24:10Z</time></trkpt><trkpt lat="45.93432935044237" lon="10.181749631154327"><ele>1076.5</ele><time>2026-03-28T14:24:11Z</time></trkpt><trkpt lat="45.93440570333139" lon="10.18167392629078"><ele>1070.75</ele><time>2026-03-28T14:24:12Z</time></trkpt><trkpt lat="45.934534760350154" lon="10.181574294732146"><ele>1065.0</ele><time>2026-03-28T14:24:13Z</time></trkpt><trkpt lat="45.93467970054602" lon="10.181513792927388"><ele>1064.5</ele><time>2026-03-28T14:24:14Z</time></trkpt><trkpt lat="45.934803029652805" lon="10.181477132067748"><ele>1064.0</ele><time>2026-03-28T14:24:15Z</time></trkpt><trkpt lat="45.934928919101374" lon="10.181454189434609"><ele>1063.5</ele><time>2026-03-28T14:24:16Z</time></trkpt><trkpt lat="45.935064999462604" lon="10.181413793071226"><ele>1063.0</ele><time>2026-03-28T14:24:17Z</time></trkpt><trkpt lat="45.93521999761706" lon="10.181359929943444"><ele>1058.0</ele><time>2026-03-28T14:24:18Z</time></trkpt><trkpt lat="45.93531839307015" lon="10.181290397070029"><ele>1053.0</ele><time>2026-03-28T14:24:19Z</time></trkpt><trkpt lat="45.93540753569628" lon="10.1812027674131"><ele>1048.0</ele><time>2026-03-28T14:24:20Z</time></trkpt><trkpt lat="45.93547203175081" lon="10.181103682367825"><ele>1043.0</ele><time>2026-03-28T14:24:21Z</time></trkpt><trkpt lat="45.93553853334463" lon="10.181014446229268"><ele>1038.0</ele><time>2026-03-28T14:24:22Z</time></trkpt><trkpt lat="45.935616603077335" lon="10.180958487644546"><ele>1038.0</ele><time>2026-03-28T14:24:23Z</time></trkpt><trkpt lat="45.93568229248123" lon="10.180901422860849"><ele>1038.0</ele><time>2026-03-28T14:24:24Z</time></trkpt><trkpt lat="45.93572718949748" lon="10.180820717209656"><ele>1038.0</ele><time>2026-03-28T14:24:25Z</time></trkpt><trkpt lat="45.93581436836578" lon="10.180705191167164"><ele>1038.0</ele><time>2026-03-28T14:24:27Z</time></trkpt><trkpt lat="45.93592685865877" lon="10.180649642656409"><ele>1038.0</ele><time>2026-03-28T14:24:29Z</time></trkpt><trkpt lat="45.935992737823774" lon="10.180607394186818"><ele>1033.8333333333333</ele><time>2026-03-28T14:24:30Z</time></trkpt><trkpt lat="45.93607822097649" lon="10.180560105885622"><ele>1029.6666666666667</ele><time>2026-03-28T14:24:31Z</time></trkpt><trkpt lat="45.93614617119657" lon="10.180509566893106"><ele>1025.5</ele><time>2026-03-28T14:24:32Z</time></trkpt><trkpt lat="45.936222345096354" lon="10.180429105175493"><ele>1021.3333333333334</ele><time>2026-03-28T14:24:34Z</time></trkpt><trkpt lat="45.93620691537563" lon="10.180519304427449"><ele>1017.1666666666667</ele><time>2026-03-28T14:24:42Z</time></trkpt><trkpt lat="45.936138257694715" lon="10.18048840218587"><ele>1013.0</ele><time>2026-03-28T14:25:14Z</time></trkpt><trkpt lat="45.93617537491895" lon="10.18039435774105"><ele>1013.0</ele><time>2026-03-28T14:25:23Z</time></trkpt><trkpt lat="45.93623187341743" lon="10.180289076790732"><ele>1013.0</ele><time>2026-03-28T14:25:25Z</time></trkpt><trkpt lat="45.936293287315294" lon="10.180202523409244"><ele>1013.0</ele><time>2026-03-28T14:25:28Z</time></trkpt><trkpt lat="45.93623105258853" lon="10.180156620428154"><ele>1013.0</ele><time>2026-03-28T14:25:34Z</time></trkpt><trkpt lat="45.936149163834834" lon="10.180112037704328"><ele>1013.0</ele><time>2026-03-28T14:25:37Z</time></trkpt><trkpt lat="45.93604261356271" lon="10.180173169210484"><ele>1013.0000000000001</ele><time>2026-03-28T14:25:39Z</time></trkpt><trkpt lat="45.9359598099915" lon="10.180269574643516"><ele>1013.0</ele><time>2026-03-28T14:25:41Z</time></trkpt><trkpt lat="45.9358877459634" lon="10.180306646529395"><ele>1013.0</ele><time>2026-03-28T14:25:43Z</time></trkpt><trkpt lat="45.935801812573985" lon="10.180312514950916"><ele>1013.0</ele><time>2026-03-28T14:25:45Z</time></trkpt><trkpt lat="45.93571750796543" lon="10.18032831718107"><ele>1013.0000000000001</ele><time>2026-03-28T14:25:47.001Z</time></trkpt><trkpt lat="45.93566598824622" lon="10.180258381535168"><ele>1013.0</ele><time>2026-03-28T14:25:52.001Z</time></trkpt><trkpt lat="45.93566553623823" lon="10.180140508369389"><ele>1016.5000000000001</ele><time>2026-03-28T14:25:55.001Z</time></trkpt><trkpt lat="45.93569224735213" lon="10.180017569699368"><ele>1020.0</ele><time>2026-03-28T14:25:58.001Z</time></trkpt><trkpt lat="45.93568174940486" lon="10.179900211674289"><ele>1023.5</ele><time>2026-03-28T14:26:02Z</time></trkpt><trkpt lat="45.93573542730888" lon="10.179806177890018"><ele>1027.0</ele><time>2026-03-28T14:26:26Z</time></trkpt><trkpt lat="45.935765533734454" lon="10.179721775807007"><ele>1030.5</ele><time>2026-03-28T14:26:29Z</time></trkpt><trkpt lat="45.93580057880319" lon="10.179643317605858"><ele>1034.0</ele><time>2026-03-28T14:26:31Z</time></trkpt><trkpt lat="45.93576700737182" lon="10.179542685826043"><ele>1034.0</ele><time>2026-03-28T14:26:34Z</time></trkpt><trkpt lat="45.93572636096026" lon="10.179468144850512"><ele>1034.0</ele><time>2026-03-28T14:26:36Z</time></trkpt><trkpt lat="45.93567609729383" lon="10.179391280805632"><ele>1034.0</ele><time>2026-03-28T14:26:39Z</time></trkpt><trkpt lat="45.93561117873185" lon="10.179305438082412"><ele>1034.0</ele><time>2026-03-28T14:26:43Z</time></trkpt><trkpt lat="45.93560345330765" lon="10.179215547759414"><ele>1034.0</ele><time>2026-03-28T14:27:52Z</time></trkpt><trkpt lat="45.93556240430805" lon="10.179145757958848"><ele>1034.0</ele><time>2026-03-28T14:27:57Z</time></trkpt><trkpt lat="45.9355175997043" lon="10.17907190026945"><ele>1034.0</ele><time>2026-03-28T14:27:58Z</time></trkpt><trkpt lat="45.935461464235274" lon="10.17900314792304"><ele>1032.0</ele><time>2026-03-28T14:27:59Z</time></trkpt><trkpt lat="45.93540631752391" lon="10.178921495229341"><ele>1030.0</ele><time>2026-03-28T14:28:00Z</time></trkpt><trkpt lat="45.93533632360697" lon="10.178843956358838"><ele>1028.0</ele><time>2026-03-28T14:28:01Z</time></trkpt><trkpt lat="45.93527949969744" lon="10.178796784199823"><ele>1026.0</ele><time>2026-03-28T14:28:02Z</time></trkpt><trkpt lat="45.93519633674839" lon="10.178719100325074"><ele>1024.0</ele><time>2026-03-28T14:28:03Z</time></trkpt><trkpt lat="45.935141983104636" lon="10.178644702569011"><ele>1022.0</ele><time>2026-03-28T14:28:04Z</time></trkpt><trkpt lat="45.935080181216534" lon="10.178575333705767"><ele>1027.8333333333335</ele><time>2026-03-28T14:28:05Z</time></trkpt><trkpt lat="45.935037348363714" lon="10.178508705169836"><ele>1033.6666666666667</ele><time>2026-03-28T14:28:06Z</time></trkpt><trkpt lat="45.93495451429697" lon="10.17845433948095"><ele>1039.5</ele><time>2026-03-28T14:28:07Z</time></trkpt><trkpt lat="45.93495740337477" lon="10.178614822739945"><ele>1045.3333333333333</ele><time>2026-03-28T14:28:11Z</time></trkpt><trkpt lat="45.93497448037394" lon="10.178715302602999"><ele>1051.1666666666665</ele><time>2026-03-28T14:28:12Z</time></trkpt><trkpt lat="45.934946774668305" lon="10.178799708024561"><ele>1057.0</ele><time>2026-03-28T14:28:13Z</time></trkpt><trkpt lat="45.93488078607771" lon="10.17894597534397"><ele>1057.0</ele><time>2026-03-28T14:28:15Z</time></trkpt><trkpt lat="45.93480507737349" lon="10.17893539391981"><ele>1057.0</ele><time>2026-03-28T14:28:18Z</time></trkpt><trkpt lat="45.93474872348835" lon="10.179004675932664"><ele>1057.0</ele><time>2026-03-28T14:28:20Z</time></trkpt><trkpt lat="45.93468775790825" lon="10.179042218770983"><ele>1057.0</ele><time>2026-03-28T14:28:22Z</time></trkpt><trkpt lat="45.93456802579737" lon="10.17923571788967"><ele>1057.0</ele><time>2026-03-28T14:28:27Z</time></trkpt><trkpt lat="45.934513899026406" lon="10.179323946683146"><ele>1060.0</ele><time>2026-03-28T14:28:28Z</time></trkpt><trkpt lat="45.934406143815416" lon="10.179372594692152"><ele>1063.0</ele><time>2026-03-28T14:28:29Z</time></trkpt><trkpt lat="45.93434093051531" lon="10.179463843609106"><ele>1066.0</ele><time>2026-03-28T14:28:30Z</time></trkpt><trkpt lat="45.934364670503754" lon="10.17955481679451"><ele>1069.0</ele><time>2026-03-28T14:28:31Z</time></trkpt><trkpt lat="45.93434828778669" lon="10.179685546588976"><ele>1072.0</ele><time>2026-03-28T14:28:32Z</time></trkpt><trkpt lat="45.93433600691409" lon="10.17978337389451"><ele>1075.0</ele><time>2026-03-28T14:28:33Z</time></trkpt><trkpt lat="45.934219979855904" lon="10.179849637016012"><ele>1080.0</ele><time>2026-03-28T14:28:35Z</time></trkpt><trkpt lat="45.9341832883582" lon="10.17974417112827"><ele>1085.0</ele><time>2026-03-28T14:28:36Z</time></trkpt><trkpt lat="45.93415438972235" lon="10.179562585025932"><ele>1090.0</ele><time>2026-03-28T14:28:38Z</time></trkpt><trkpt lat="45.934028355148335" lon="10.179398428378938"><ele>1095.0</ele><time>2026-03-28T14:28:39Z</time></trkpt><trkpt lat="45.93396490487212" lon="10.17932420481683"><ele>1095.0</ele><time>2026-03-28T14:28:41Z</time></trkpt><trkpt lat="45.93406267686758" lon="10.179269940412446"><ele>1095.0</ele><time>2026-03-28T14:28:42Z</time></trkpt><trkpt lat="45.93411640883565" lon="10.17921937444011"><ele>1095.0</ele><time>2026-03-28T14:28:43Z</time></trkpt><trkpt lat="45.93418018492325" lon="10.179145884838668"><ele>1095.0</ele><time>2026-03-28T14:28:44Z</time></trkpt><trkpt lat="45.93437892802523" lon="10.179025565778401"><ele>1085.5</ele><time>2026-03-28T14:28:45Z</time></trkpt><trkpt lat="45.934523187365606" lon="10.17887547155236"><ele>1076.0</ele><time>2026-03-28T14:28:46Z</time></trkpt><trkpt lat="45.93459001203394" lon="10.1788121171455"><ele>1066.5</ele><time>2026-03-28T14:28:47Z</time></trkpt><trkpt lat="45.93467168263193" lon="10.178689430801548"><ele>1057.0</ele><time>2026-03-28T14:28:48Z</time></trkpt><trkpt lat="45.93477882896823" lon="10.178612099947685"><ele>1057.0</ele><time>2026-03-28T14:28:49Z</time></trkpt><trkpt lat="45.93492341555232" lon="10.178587583087644"><ele>1057.0</ele><time>2026-03-28T14:28:51Z</time></trkpt><trkpt lat="45.93500569870404" lon="10.178618819839238"><ele>1057.0</ele><time>2026-03-28T14:28:53Z</time></trkpt><trkpt lat="45.935045299816025" lon="10.178694044927852"><ele>1057.0</ele><time>2026-03-28T14:28:54Z</time></trkpt><trkpt lat="45.93510450463128" lon="10.178785614688193"><ele>1057.0</ele><time>2026-03-28T14:28:55Z</time></trkpt><trkpt lat="45.93518489184051" lon="10.178866051297765"><ele>1052.4</ele><time>2026-03-28T14:28:56Z</time></trkpt><trkpt lat="45.93526476336406" lon="10.178930206037446"><ele>1047.8000000000002</ele><time>2026-03-28T14:28:57Z</time></trkpt><trkpt lat="45.93531619886302" lon="10.178996976516588"><ele>1043.2</ele><time>2026-03-28T14:28:58Z</time></trkpt><trkpt lat="45.935389175458404" lon="10.179057971406285"><ele>1038.6000000000001</ele><time>2026-03-28T14:28:59Z</time></trkpt><trkpt lat="45.9354517796007" lon="10.179140006392592"><ele>1034.0</ele><time>2026-03-28T14:29:00Z</time></trkpt><trkpt lat="45.93554111005938" lon="10.179259277476376"><ele>1034.0</ele><time>2026-03-28T14:29:02Z</time></trkpt><trkpt lat="45.93560852753843" lon="10.179283703847759"><ele>1034.0</ele><time>2026-03-28T14:29:13Z</time></trkpt><trkpt lat="45.93563677084169" lon="10.179405282384426"><ele>1034.0</ele><time>2026-03-28T14:29:15Z</time></trkpt><trkpt lat="45.935720934277505" lon="10.179466668903132"><ele>1034.0</ele><time>2026-03-28T14:29:17Z</time></trkpt><trkpt lat="45.93577498149466" lon="10.179559394775863"><ele>1034.0</ele><time>2026-03-28T14:29:19Z</time></trkpt><trkpt lat="45.93570193055016" lon="10.179468097750762"><ele>1034.0</ele><time>2026-03-28T14:29:26Z</time></trkpt><trkpt lat="45.935643894738135" lon="10.179398728661383"><ele>1034.0</ele><time>2026-03-28T14:29:28Z</time></trkpt><trkpt lat="45.93561032298726" lon="10.179303266319247"><ele>1034.0</ele><time>2026-03-28T14:29:29Z</time></trkpt><trkpt lat="45.935568568003426" lon="10.179212991990294"><ele>1034.0</ele><time>2026-03-28T14:29:30Z</time></trkpt><trkpt lat="45.93551789007088" lon="10.17910499453624"><ele>1034.0</ele><time>2026-03-28T14:29:31Z</time></trkpt><trkpt lat="45.93547096075179" lon="10.179020838416715"><ele>1034.0</ele><time>2026-03-28T14:29:32Z</time></trkpt><trkpt lat="45.93540447678815" lon="10.178948838370284"><ele>1034.0</ele><time>2026-03-28T14:29:33Z</time></trkpt><trkpt lat="45.935327836889755" lon="10.178852119360883"><ele>1031.6000000000001</ele><time>2026-03-28T14:29:34Z</time></trkpt><trkpt lat="45.935232009052086" lon="10.17877633167333"><ele>1029.2</ele><time>2026-03-28T14:29:35Z</time></trkpt><trkpt lat="45.93515797436569" lon="10.178705116950187"><ele>1026.8000000000002</ele><time>2026-03-28T14:29:36Z</time></trkpt><trkpt lat="45.93509392364692" lon="10.178634275839823"><ele>1024.4</ele><time>2026-03-28T14:29:37Z</time></trkpt><trkpt lat="45.93502761813748" lon="10.17857413918082"><ele>1022.0</ele><time>2026-03-28T14:29:38Z</time></trkpt><trkpt lat="45.93495267190372" lon="10.178486979932021"><ele>1024.8</ele><time>2026-03-28T14:29:39Z</time></trkpt><trkpt lat="45.93486363567103" lon="10.178416120502407"><ele>1027.6</ele><time>2026-03-28T14:29:40Z</time></trkpt><trkpt lat="45.9348053579696" lon="10.178330359858355"><ele>1030.3999999999999</ele><time>2026-03-28T14:29:41Z</time></trkpt><trkpt lat="45.93478445602061" lon="10.178219144763688"><ele>1033.2</ele><time>2026-03-28T14:29:42Z</time></trkpt><trkpt lat="45.934703418410884" lon="10.178130911161023"><ele>1036.0</ele><time>2026-03-28T14:29:44Z</time></trkpt><trkpt lat="45.93456661602217" lon="10.178088769616865"><ele>1036.0</ele><time>2026-03-28T14:29:46Z</time></trkpt><trkpt lat="45.93448770605366" lon="10.178123018811709"><ele>1036.0</ele><time>2026-03-28T14:29:47.001Z</time></trkpt><trkpt lat="45.93439360926696" lon="10.178120756048928"><ele>1036.0</ele><time>2026-03-28T14:29:49.001Z</time></trkpt><trkpt lat="45.9343267686131" lon="10.178097624924634"><ele>1036.0</ele><time>2026-03-28T14:29:50.001Z</time></trkpt><trkpt lat="45.93421288624163" lon="10.17808007211265"><ele>1036.0</ele><time>2026-03-28T14:29:52.001Z</time></trkpt><trkpt lat="45.934144338231725" lon="10.178053144675399"><ele>1036.0</ele><time>2026-03-28T14:29:54.001Z</time></trkpt><trkpt lat="45.93424001901486" lon="10.177917068032983"><ele>1036.0</ele><time>2026-03-28T14:30:01.001Z</time></trkpt><trkpt lat="45.93427996763927" lon="10.17783875951688"><ele>1036.0</ele><time>2026-03-28T14:30:03.001Z</time></trkpt><trkpt lat="45.93419434556045" lon="10.177800609634737"><ele>1036.0</ele><time>2026-03-28T14:30:04.001Z</time></trkpt><trkpt lat="45.934119875166786" lon="10.177787216736375"><ele>1036.0</ele><time>2026-03-28T14:30:05.001Z</time></trkpt><trkpt lat="45.93403179920159" lon="10.177780752269799"><ele>1036.0</ele><time>2026-03-28T14:30:06.001Z</time></trkpt><trkpt lat="45.934002188651185" lon="10.177688161015553"><ele>1036.0</ele><time>2026-03-28T14:30:08.001Z</time></trkpt><trkpt lat="45.93401843049583" lon="10.177529497960533"><ele>1036.0</ele><time>2026-03-28T14:30:10.001Z</time></trkpt><trkpt lat="45.93405652340623" lon="10.177425410091882"><ele>1036.0</ele><time>2026-03-28T14:30:12Z</time></trkpt><trkpt lat="45.93412930762638" lon="10.177378543246688"><ele>1036.0</ele><time>2026-03-28T14:30:20Z</time></trkpt><trkpt lat="45.93421499216508" lon="10.177358428301712"><ele>1036.0</ele><time>2026-03-28T14:30:22Z</time></trkpt><trkpt lat="45.93429898368782" lon="10.177367952872359"><ele>1036.0</ele><time>2026-03-28T14:30:24Z</time></trkpt><trkpt lat="45.93437854549066" lon="10.177417257790932"><ele>1036.0</ele><time>2026-03-28T14:30:26Z</time></trkpt><trkpt lat="45.93433422536407" lon="10.17748180645071"><ele>1036.0</ele><time>2026-03-28T14:30:30Z</time></trkpt><trkpt lat="45.93427022643382" lon="10.177499702775535"><ele>1036.0</ele><time>2026-03-28T14:30:52Z</time></trkpt><trkpt lat="45.93417308600511" lon="10.177531208106462"><ele>1036.0</ele><time>2026-03-28T14:30:54Z</time></trkpt><trkpt lat="45.93405647879876" lon="10.177517914001497"><ele>1036.0</ele><time>2026-03-28T14:30:56Z</time></trkpt><trkpt lat="45.93398894732521" lon="10.177507846294692"><ele>1036.0</ele><time>2026-03-28T14:30:57Z</time></trkpt><trkpt lat="45.93391028703906" lon="10.177502664367587"><ele>1036.0</ele><time>2026-03-28T14:30:58Z</time></trkpt><trkpt lat="45.933829521841595" lon="10.177502285838187"><ele>1039.0</ele><time>2026-03-28T14:30:59Z</time></trkpt><trkpt lat="45.93373161253234" lon="10.177500620879787"><ele>1042.0</ele><time>2026-03-28T14:31:00Z</time></trkpt><trkpt lat="45.93364613127263" lon="10.177532501107347"><ele>1045.0</ele><time>2026-03-28T14:31:01Z</time></trkpt><trkpt lat="45.933535092379934" lon="10.17753990995705"><ele>1048.0</ele><time>2026-03-28T14:31:02Z</time></trkpt><trkpt lat="45.93344315194598" lon="10.177562388114959"><ele>1051.0</ele><time>2026-03-28T14:31:03Z</time></trkpt><trkpt lat="45.9333267258318" lon="10.177581844138706"><ele>1055.2</ele><time>2026-03-28T14:31:04Z</time></trkpt><trkpt lat="45.93322434395526" lon="10.177581248253588"><ele>1059.3999999999999</ele><time>2026-03-28T14:31:05Z</time></trkpt><trkpt lat="45.93315967354787" lon="10.177568812599842"><ele>1063.6</ele><time>2026-03-28T14:31:06Z</time></trkpt><trkpt lat="45.93305222837614" lon="10.17748372316438"><ele>1067.8</ele><time>2026-03-28T14:31:08Z</time></trkpt><trkpt lat="45.93299020266064" lon="10.177431321173563"><ele>1072.0</ele><time>2026-03-28T14:31:09Z</time></trkpt><trkpt lat="45.93290401653897" lon="10.177461462536247"><ele>1072.0</ele><time>2026-03-28T14:31:11Z</time></trkpt><trkpt lat="45.932834146819204" lon="10.177477305425926"><ele>1072.0</ele><time>2026-03-28T14:31:12Z</time></trkpt><trkpt lat="45.93276827999168" lon="10.177464604900214"><ele>1072.0</ele><time>2026-03-28T14:31:13Z</time></trkpt><trkpt lat="45.932623928281046" lon="10.177410186079783"><ele>1072.0</ele><time>2026-03-28T14:31:15Z</time></trkpt><trkpt lat="45.932532069005966" lon="10.177404794975196"><ele>1072.0</ele><time>2026-03-28T14:31:16Z</time></trkpt><trkpt lat="45.93242713275295" lon="10.177431355986913"><ele>1076.3333333333333</ele><time>2026-03-28T14:31:17Z</time></trkpt><trkpt lat="45.932354783089735" lon="10.177406074340327"><ele>1080.6666666666665</ele><time>2026-03-28T14:31:20Z</time></trkpt><trkpt lat="45.932271772939536" lon="10.17737060440016"><ele>1085.0</ele><time>2026-03-28T14:31:23Z</time></trkpt><trkpt lat="45.93219175941883" lon="10.177332507031434"><ele>1089.3333333333333</ele><time>2026-03-28T14:31:26Z</time></trkpt><trkpt lat="45.932124792322014" lon="10.177314072801805"><ele>1093.6666666666667</ele><time>2026-03-28T14:31:27Z</time></trkpt><trkpt lat="45.932016761218534" lon="10.17723579837813"><ele>1098.0</ele><time>2026-03-28T14:31:29Z</time></trkpt><trkpt lat="45.93194942880741" lon="10.177110120645027"><ele>1099.857142857143</ele><time>2026-03-28T14:31:31Z</time></trkpt><trkpt lat="45.93191656487837" lon="10.177026931991296"><ele>1101.7142857142858</ele><time>2026-03-28T14:31:38Z</time></trkpt><trkpt lat="45.931963045169056" lon="10.177092973386346"><ele>1103.5714285714287</ele><time>2026-03-28T14:32:05.001Z</time></trkpt><trkpt lat="45.93189488139224" lon="10.177124289292795"><ele>1105.4285714285716</ele><time>2026-03-28T14:33:01Z</time></trkpt><trkpt lat="45.931828315525" lon="10.177078741464031"><ele>1107.2857142857144</ele><time>2026-03-28T14:33:05Z</time></trkpt><trkpt lat="45.931798574181116" lon="10.176985438203525"><ele>1109.142857142857</ele><time>2026-03-28T14:33:10Z</time></trkpt><trkpt lat="45.93180168290099" lon="10.176867279844458"><ele>1111.0</ele><time>2026-03-28T14:34:05Z</time></trkpt><trkpt lat="45.93178552266134" lon="10.176776297258836"><ele>1111.0</ele><time>2026-03-28T14:34:31Z</time></trkpt><trkpt lat="45.931771448114354" lon="10.176873212383871"><ele>1111.0</ele><time>2026-03-28T14:35:09Z</time></trkpt><trkpt lat="45.931765945372454" lon="10.176969948379933"><ele>1111.0</ele><time>2026-03-28T14:35:40Z</time></trkpt><trkpt lat="45.931719375880945" lon="10.176887595827061"><ele>1111.0</ele><time>2026-03-28T14:35:47Z</time></trkpt><trkpt lat="45.93168844431366" lon="10.176787722607495"><ele>1111.0</ele><time>2026-03-28T14:35:51Z</time></trkpt><trkpt lat="45.931717237312675" lon="10.176699844955253"><ele>1111.0</ele><time>2026-03-28T14:35:53Z</time></trkpt><trkpt lat="45.931719584057745" lon="10.176598321475975"><ele>1111.0</ele><time>2026-03-28T14:35:55Z</time></trkpt><trkpt lat="45.93170707498256" lon="10.17650631445967"><ele>1115.0</ele><time>2026-03-28T14:35:58Z</time></trkpt><trkpt lat="45.93166442881675" lon="10.176420108135414"><ele>1119.0</ele><time>2026-03-28T14:36:03Z</time></trkpt><trkpt lat="45.93158831628845" lon="10.176452151043126"><ele>1123.0</ele><time>2026-03-28T14:36:19Z</time></trkpt><trkpt lat="45.93151901740333" lon="10.176475723589917"><ele>1127.0</ele><time>2026-03-28T14:36:27Z</time></trkpt><trkpt lat="45.93151388562371" lon="10.176372950043966"><ele>1131.0</ele><time>2026-03-28T14:36:32Z</time></trkpt><trkpt lat="45.93145262930782" lon="10.176332747400002"><ele>1135.0</ele><time>2026-03-28T14:36:36Z</time></trkpt><trkpt lat="45.931387646734" lon="10.176278041001954"><ele>1139.0</ele><time>2026-03-28T14:36:39Z</time></trkpt><trkpt lat="45.9312902822371" lon="10.176256957288365"><ele>1139.0</ele><time>2026-03-28T14:36:43Z</time></trkpt><trkpt lat="45.931224697560516" lon="10.176201930892267"><ele>1139.0</ele><time>2026-03-28T14:36:46Z</time></trkpt><trkpt lat="45.93113487404932" lon="10.17618669083162"><ele>1139.0</ele><time>2026-03-28T14:36:49Z</time></trkpt><trkpt lat="45.93106824295328" lon="10.176206430850694"><ele>1139.0</ele><time>2026-03-28T14:36:52Z</time></trkpt><trkpt lat="45.931011385687775" lon="10.17607445283151"><ele>1139.0</ele><time>2026-03-28T14:37:03Z</time></trkpt><trkpt lat="45.93093752468387" lon="10.176011797347899"><ele>1139.0</ele><time>2026-03-28T14:37:04Z</time></trkpt><trkpt lat="45.93085129518617" lon="10.175950065193877"><ele>1142.8</ele><time>2026-03-28T14:37:05Z</time></trkpt><trkpt lat="45.93074076842524" lon="10.175882527351915"><ele>1146.6000000000001</ele><time>2026-03-28T14:37:06Z</time></trkpt><trkpt lat="45.930665117181555" lon="10.175797407567929"><ele>1150.4</ele><time>2026-03-28T14:37:07Z</time></trkpt><trkpt lat="45.93059273687079" lon="10.175725857278849"><ele>1154.2</ele><time>2026-03-28T14:37:08Z</time></trkpt><trkpt lat="45.93049797252468" lon="10.175664999109937"><ele>1158.0</ele><time>2026-03-28T14:37:09Z</time></trkpt><trkpt lat="45.93037918775156" lon="10.175646300343807"><ele>1158.0</ele><time>2026-03-28T14:37:10Z</time></trkpt><trkpt lat="45.93024876563617" lon="10.175664010707395"><ele>1158.0</ele><time>2026-03-28T14:37:11Z</time></trkpt><trkpt lat="45.930115691850716" lon="10.175673605862816"><ele>1158.0</ele><time>2026-03-28T14:37:12Z</time></trkpt><trkpt lat="45.929987254511765" lon="10.175668324124326"><ele>1158.0</ele><time>2026-03-28T14:37:13Z</time></trkpt><trkpt lat="45.92986619494295" lon="10.175649082760557"><ele>1168.0</ele><time>2026-03-28T14:37:14Z</time></trkpt><trkpt lat="45.92969757100526" lon="10.175631638372991"><ele>1178.0</ele><time>2026-03-28T14:37:15Z</time></trkpt><trkpt lat="45.9295376353503" lon="10.175651698506993"><ele>1188.0</ele><time>2026-03-28T14:37:16Z</time></trkpt><trkpt lat="45.92937743424015" lon="10.175629181291491"><ele>1188.0</ele><time>2026-03-28T14:37:17Z</time></trkpt><trkpt lat="45.92926186677306" lon="10.175674793866298"><ele>1188.0</ele><time>2026-03-28T14:37:18Z</time></trkpt><trkpt lat="45.92914109094169" lon="10.17573142894153"><ele>1188.0</ele><time>2026-03-28T14:37:19Z</time></trkpt><trkpt lat="45.92902028273239" lon="10.175765318947434"><ele>1188.0</ele><time>2026-03-28T14:37:20Z</time></trkpt><trkpt lat="45.928902386535405" lon="10.175809566393214"><ele>1196.6</ele><time>2026-03-28T14:37:21Z</time></trkpt><trkpt lat="45.92878955955259" lon="10.175834663838673"><ele>1205.1999999999998</ele><time>2026-03-28T14:37:22Z</time></trkpt><trkpt lat="45.928681398283594" lon="10.17586225827275"><ele>1213.8</ele><time>2026-03-28T14:37:23Z</time></trkpt><trkpt lat="45.928577918923644" lon="10.17590126954622"><ele>1222.3999999999999</ele><time>2026-03-28T14:37:24Z</time></trkpt><trkpt lat="45.92847664526873" lon="10.175932076880596"><ele>1231.0</ele><time>2026-03-28T14:37:25Z</time></trkpt><trkpt lat="45.928379462586236" lon="10.175936455759864"><ele>1236.0</ele><time>2026-03-28T14:37:26Z</time></trkpt><trkpt lat="45.92828196465675" lon="10.175945161078735"><ele>1241.0</ele><time>2026-03-28T14:37:27Z</time></trkpt><trkpt lat="45.92819146063739" lon="10.175948213005379"><ele>1246.0</ele><time>2026-03-28T14:37:28Z</time></trkpt><trkpt lat="45.928110171545846" lon="10.175915379762316"><ele>1251.0</ele><time>2026-03-28T14:37:29Z</time></trkpt><trkpt lat="45.92803079329781" lon="10.175915199749793"><ele>1256.0</ele><time>2026-03-28T14:37:30Z</time></trkpt><trkpt lat="45.92795940611141" lon="10.175934987739918"><ele>1261.0</ele><time>2026-03-28T14:37:31Z</time></trkpt><trkpt lat="45.9278953845117" lon="10.17589914417551"><ele>1261.0</ele><time>2026-03-28T14:37:32Z</time></trkpt><trkpt lat="45.92781917468469" lon="10.17584230592417"><ele>1261.0</ele><time>2026-03-28T14:37:34Z</time></trkpt><trkpt lat="45.92778993692416" lon="10.17593085308208"><ele>1261.0</ele><time>2026-03-28T14:37:37Z</time></trkpt><trkpt lat="45.927855650415175" lon="10.17591527285299"><ele>1261.0</ele><time>2026-03-28T14:37:41Z</time></trkpt><trkpt lat="45.92792693594198" lon="10.175918443391346"><ele>1261.0</ele><time>2026-03-28T14:37:45Z</time></trkpt><trkpt lat="45.92797822375022" lon="10.17599870905327"><ele>1261.0</ele><time>2026-03-28T14:37:49Z</time></trkpt><trkpt lat="45.92804563375615" lon="10.176021118656037"><ele>1261.0</ele><time>2026-03-28T14:37:52Z</time></trkpt><trkpt lat="45.92811402717077" lon="10.176035081760771"><ele>1261.0</ele><time>2026-03-28T14:37:55Z</time></trkpt><trkpt lat="45.92819580447793" lon="10.176098091415161"><ele>1261.0</ele><time>2026-03-28T14:37:58Z</time></trkpt><trkpt lat="45.92826776755677" lon="10.176089557482797"><ele>1261.0</ele><time>2026-03-28T14:38:00Z</time></trkpt><trkpt lat="45.92834058103095" lon="10.176064184443756"><ele>1261.0</ele><time>2026-03-28T14:38:02Z</time></trkpt><trkpt lat="45.928402469735175" lon="10.176043247234144"><ele>1261.0</ele><time>2026-03-28T14:38:04Z</time></trkpt><trkpt lat="45.928469197181386" lon="10.176018895449085"><ele>1261.0</ele><time>2026-03-28T14:38:06Z</time></trkpt><trkpt lat="45.92856178133302" lon="10.176006787273206"><ele>1256.0</ele><time>2026-03-28T14:38:09Z</time></trkpt><trkpt lat="45.928631452290155" lon="10.175988736454567"><ele>1251.0</ele><time>2026-03-28T14:38:11Z</time></trkpt><trkpt lat="45.928698292290434" lon="10.17597351829421"><ele>1246.0</ele><time>2026-03-28T14:38:13Z</time></trkpt><trkpt lat="45.92877333214049" lon="10.175948807253096"><ele>1241.0</ele><time>2026-03-28T14:38:15Z</time></trkpt><trkpt lat="45.92884827858826" lon="10.175929635822957"><ele>1236.0</ele><time>2026-03-28T14:38:17Z</time></trkpt><trkpt lat="45.92892925380569" lon="10.17591215864718"><ele>1231.0</ele><time>2026-03-28T14:38:19Z</time></trkpt><trkpt lat="45.92902245837716" lon="10.175883804199918"><ele>1231.0</ele><time>2026-03-28T14:38:21Z</time></trkpt><trkpt lat="45.92912566692144" lon="10.175855131583887"><ele>1231.0</ele><time>2026-03-28T14:38:23Z</time></trkpt><trkpt lat="45.929231735212646" lon="10.175827317586482"><ele>1231.0</ele><time>2026-03-28T14:38:25Z</time></trkpt><trkpt lat="45.92934036920143" lon="10.17580487553249"><ele>1231.0</ele><time>2026-03-28T14:38:27Z</time></trkpt><trkpt lat="45.92944666001413" lon="10.175785355992813"><ele>1231.0</ele><time>2026-03-28T14:38:29Z</time></trkpt><trkpt lat="45.92954977714936" lon="10.175750959804054"><ele>1224.75</ele><time>2026-03-28T14:38:31Z</time></trkpt><trkpt lat="45.92965687581977" lon="10.175721108628789"><ele>1218.5</ele><time>2026-03-28T14:38:33Z</time></trkpt><trkpt lat="45.92976986792284" lon="10.175693342696709"><ele>1212.25</ele><time>2026-03-28T14:38:35Z</time></trkpt><trkpt lat="45.929884397151966" lon="10.175686446619675"><ele>1206.0</ele><time>2026-03-28T14:38:37Z</time></trkpt><trkpt lat="45.930003453104966" lon="10.17564142696945"><ele>1196.3999999999999</ele><time>2026-03-28T14:38:39Z</time></trkpt><trkpt lat="45.930126413612584" lon="10.175623277282291"><ele>1186.8</ele><time>2026-03-28T14:38:41Z</time></trkpt><trkpt lat="45.930231210517604" lon="10.175626088819326"><ele>1177.1999999999998</ele><time>2026-03-28T14:38:43Z</time></trkpt><trkpt lat="45.93031535247999" lon="10.175635018403792"><ele>1167.6</ele><time>2026-03-28T14:38:45Z</time></trkpt><trkpt lat="45.93040552804525" lon="10.17565889851119"><ele>1158.0</ele><time>2026-03-28T14:38:47Z</time></trkpt><trkpt lat="45.93050588067871" lon="10.175660414860666"><ele>1158.0</ele><time>2026-03-28T14:38:49Z</time></trkpt><trkpt lat="45.93060586710226" lon="10.17568062108335"><ele>1158.0</ele><time>2026-03-28T14:38:51Z</time></trkpt><trkpt lat="45.93069592533242" lon="10.175727831841462"><ele>1158.0</ele><time>2026-03-28T14:38:53Z</time></trkpt><trkpt lat="45.93078156016026" lon="10.17578765695452"><ele>1158.0</ele><time>2026-03-28T14:38:55Z</time></trkpt><trkpt lat="45.93082974602582" lon="10.175875969391527"><ele>1158.0</ele><time>2026-03-28T14:38:58Z</time></trkpt><trkpt lat="45.93087990702167" lon="10.175963946600103"><ele>1158.0</ele><time>2026-03-28T14:39:00Z</time></trkpt><trkpt lat="45.9309507614536" lon="10.176042334021563"><ele>1154.8333333333333</ele><time>2026-03-28T14:39:02Z</time></trkpt><trkpt lat="45.93102591611392" lon="10.176151185417336"><ele>1151.6666666666667</ele><time>2026-03-28T14:39:04Z</time></trkpt><trkpt lat="45.93106161343438" lon="10.176263256988364"><ele>1148.5</ele><time>2026-03-28T14:39:06Z</time></trkpt><trkpt lat="45.931095547466384" lon="10.176346861955217"><ele>1145.3333333333335</ele><time>2026-03-28T14:39:10Z</time></trkpt><trkpt lat="45.931159022197875" lon="10.176330894729452"><ele>1142.1666666666667</ele><time>2026-03-28T14:39:18Z</time></trkpt><trkpt lat="45.93122997060268" lon="10.176339031901678"><ele>1139.0</ele><time>2026-03-28T14:39:22Z</time></trkpt><trkpt lat="45.93129446748148" lon="10.176356157081266"><ele>1139.0</ele><time>2026-03-28T14:39:26Z</time></trkpt><trkpt lat="45.93136008419871" lon="10.176353278035725"><ele>1139.0</ele><time>2026-03-28T14:39:36Z</time></trkpt><trkpt lat="45.931423652144865" lon="10.176369158403219"><ele>1139.0</ele><time>2026-03-28T14:39:40Z</time></trkpt><trkpt lat="45.9315123459158" lon="10.17641661812778"><ele>1139.0</ele><time>2026-03-28T14:40:14Z</time></trkpt><trkpt lat="45.93156860329001" lon="10.176372472855283"><ele>1139.0</ele><time>2026-03-28T14:40:42Z</time></trkpt><trkpt lat="45.93150986567616" lon="10.17642723186184"><ele>1139.0</ele><time>2026-03-28T14:42:08Z</time></trkpt><trkpt lat="45.93155567410856" lon="10.176505058262467"><ele>1139.0</ele><time>2026-03-28T14:43:33Z</time></trkpt><trkpt lat="45.931525531894984" lon="10.176423448072136"><ele>1139.0</ele><time>2026-03-28T14:46:05.001Z</time></trkpt><trkpt lat="45.93146753847323" lon="10.176379077758794"><ele>1139.0</ele><time>2026-03-28T14:46:40.001Z</time></trkpt><trkpt lat="45.93149874531849" lon="10.176457703096501"><ele>1139.0</ele><time>2026-03-28T14:47:27Z</time></trkpt><trkpt lat="45.93141047378394" lon="10.176366367494195"><ele>1139.0</ele><time>2026-03-28T14:48:09Z</time></trkpt><trkpt lat="45.93134422254935" lon="10.176335790085801"><ele>1139.0</ele><time>2026-03-28T14:48:11Z</time></trkpt><trkpt lat="45.931258985755775" lon="10.176326397776384"><ele>1139.0</ele><time>2026-03-28T14:48:14Z</time></trkpt><trkpt lat="45.93116553227168" lon="10.17626901858408"><ele>1139.0</ele><time>2026-03-28T14:48:16Z</time></trkpt><trkpt lat="45.93107710493079" lon="10.176246635921487"><ele>1139.0</ele><time>2026-03-28T14:48:19Z</time></trkpt><trkpt lat="45.931007935306674" lon="10.1762352070203"><ele>1139.0</ele><time>2026-03-28T14:48:38Z</time></trkpt><trkpt lat="45.9309785676489" lon="10.17613398811629"><ele>1139.0</ele><time>2026-03-28T14:49:45Z</time></trkpt><trkpt lat="45.93089532525792" lon="10.17606313921642"><ele>1139.0</ele><time>2026-03-28T14:49:47Z</time></trkpt><trkpt lat="45.9308059890538" lon="10.175983001721445"><ele>1139.0</ele><time>2026-03-28T14:49:48Z</time></trkpt><trkpt lat="45.93071132274141" lon="10.175936443428157"><ele>1146.0</ele><time>2026-03-28T14:49:49Z</time></trkpt><trkpt lat="45.930622887754225" lon="10.175904618694382"><ele>1153.0</ele><time>2026-03-28T14:49:50Z</time></trkpt><trkpt lat="45.93053846227176" lon="10.175853718146142"><ele>1160.0</ele><time>2026-03-28T14:49:51Z</time></trkpt><trkpt lat="45.930441239811046" lon="10.175787294223635"><ele>1167.0</ele><time>2026-03-28T14:49:52Z</time></trkpt><trkpt lat="45.93033249070026" lon="10.175754943459522"><ele>1174.0</ele><time>2026-03-28T14:49:53Z</time></trkpt><trkpt lat="45.930219222204904" lon="10.175738245766205"><ele>1174.0</ele><time>2026-03-28T14:49:54Z</time></trkpt><trkpt lat="45.93010795481193" lon="10.175724890162922"><ele>1174.0</ele><time>2026-03-28T14:49:55Z</time></trkpt><trkpt lat="45.929985558389426" lon="10.175729075078754"><ele>1174.0</ele><time>2026-03-28T14:49:56Z</time></trkpt><trkpt lat="45.92985905800195" lon="10.175737202851675"><ele>1174.0</ele><time>2026-03-28T14:49:57Z</time></trkpt><trkpt lat="45.929723914422325" lon="10.175755116938493"><ele>1182.0</ele><time>2026-03-28T14:49:58Z</time></trkpt><trkpt lat="45.92959283650251" lon="10.175759936824013"><ele>1190.0</ele><time>2026-03-28T14:49:59Z</time></trkpt><trkpt lat="45.92944842538586" lon="10.175722854186745"><ele>1198.0</ele><time>2026-03-28T14:50:00Z</time></trkpt><trkpt lat="45.929343312164455" lon="10.175716103158196"><ele>1206.0</ele><time>2026-03-28T14:50:01Z</time></trkpt><trkpt lat="45.929253570599364" lon="10.175755211622487"><ele>1211.0</ele><time>2026-03-28T14:50:02Z</time></trkpt><trkpt lat="45.929181462456064" lon="10.175844404361857"><ele>1216.0</ele><time>2026-03-28T14:50:03Z</time></trkpt><trkpt lat="45.9291338351849" lon="10.175933185271438"><ele>1221.0</ele><time>2026-03-28T14:50:04Z</time></trkpt><trkpt lat="45.929069807286744" lon="10.175994501075591"><ele>1226.0</ele><time>2026-03-28T14:50:05Z</time></trkpt><trkpt lat="45.929101286016945" lon="10.175850155654029"><ele>1231.0</ele><time>2026-03-28T14:50:07Z</time></trkpt><trkpt lat="45.92919246760635" lon="10.175893913670645"><ele>1226.8333333333333</ele><time>2026-03-28T14:50:09Z</time></trkpt><trkpt lat="45.92924746650864" lon="10.175830935453451"><ele>1222.6666666666665</ele><time>2026-03-28T14:50:10Z</time></trkpt><trkpt lat="45.92932211959416" lon="10.175838616530873"><ele>1218.5</ele><time>2026-03-28T14:50:11Z</time></trkpt><trkpt lat="45.92940263754256" lon="10.175818336261496"><ele>1214.3333333333333</ele><time>2026-03-28T14:50:12Z</time></trkpt><trkpt lat="45.929480639883344" lon="10.175806694004079"><ele>1210.1666666666667</ele><time>2026-03-28T14:50:13Z</time></trkpt><trkpt lat="45.929612237705925" lon="10.175778364174729"><ele>1206.0</ele><time>2026-03-28T14:50:15Z</time></trkpt><trkpt lat="45.92968644649331" lon="10.175764613720904"><ele>1206.0</ele><time>2026-03-28T14:50:16Z</time></trkpt><trkpt lat="45.92977149936525" lon="10.175751210936427"><ele>1206.0</ele><time>2026-03-28T14:50:17Z</time></trkpt><trkpt lat="45.92985639382371" lon="10.175725231837937"><ele>1206.0</ele><time>2026-03-28T14:50:18Z</time></trkpt><trkpt lat="45.929942416079236" lon="10.175699586123173"><ele>1206.0</ele><time>2026-03-28T14:50:19Z</time></trkpt><trkpt lat="45.930024654838554" lon="10.175670449652966"><ele>1206.0</ele><time>2026-03-28T14:50:20Z</time></trkpt><trkpt lat="45.93010151840891" lon="10.175655685555695"><ele>1206.0</ele><time>2026-03-28T14:50:21Z</time></trkpt><trkpt lat="45.93017171250585" lon="10.175646679994943"><ele>1200.6666666666667</ele><time>2026-03-28T14:50:22Z</time></trkpt><trkpt lat="45.93025049574532" lon="10.175635601854358"><ele>1195.3333333333333</ele><time>2026-03-28T14:50:23Z</time></trkpt><trkpt lat="45.930335929250084" lon="10.175620604595897"><ele>1190.0</ele><time>2026-03-28T14:50:24Z</time></trkpt><trkpt lat="45.93042265992434" lon="10.175627342584692"><ele>1184.6666666666665</ele><time>2026-03-28T14:50:25Z</time></trkpt><trkpt lat="45.93050978659046" lon="10.17565657338085"><ele>1179.3333333333333</ele><time>2026-03-28T14:50:26Z</time></trkpt><trkpt lat="45.930596259637454" lon="10.175698884178718"><ele>1174.0</ele><time>2026-03-28T14:50:27Z</time></trkpt><trkpt lat="45.93068382809966" lon="10.175789878431557"><ele>1174.0</ele><time>2026-03-28T14:50:28Z</time></trkpt><trkpt lat="45.93075068256122" lon="10.175858420590345"><ele>1174.0</ele><time>2026-03-28T14:50:29Z</time></trkpt><trkpt lat="45.93080326756068" lon="10.175923484050598"><ele>1174.0</ele><time>2026-03-28T14:50:30Z</time></trkpt><trkpt lat="45.930856183667366" lon="10.175978792011461"><ele>1174.0</ele><time>2026-03-28T14:50:31Z</time></trkpt><trkpt lat="45.93091819426518" lon="10.176031923251806"><ele>1174.0</ele><time>2026-03-28T14:50:32Z</time></trkpt><trkpt lat="45.930979518222095" lon="10.176094094751909"><ele>1174.0</ele><time>2026-03-28T14:50:33Z</time></trkpt><trkpt lat="45.93103450758002" lon="10.176144130087183"><ele>1174.0</ele><time>2026-03-28T14:50:34Z</time></trkpt><trkpt lat="45.931097722225196" lon="10.176232589863046"><ele>1174.0</ele><time>2026-03-28T14:50:36Z</time></trkpt><trkpt lat="45.931032480648966" lon="10.176191904285073"><ele>1174.0</ele><time>2026-03-28T14:50:46Z</time></trkpt><trkpt lat="45.93093557985899" lon="10.176100996651122"><ele>1174.0</ele><time>2026-03-28T14:50:48Z</time></trkpt><trkpt lat="45.93084963707678" lon="10.176026218580812"><ele>1174.0</ele><time>2026-03-28T14:50:49Z</time></trkpt><trkpt lat="45.930754947449856" lon="10.175942491373679"><ele>1174.0</ele><time>2026-03-28T14:50:50Z</time></trkpt><trkpt lat="45.930679050537044" lon="10.175870444488883"><ele>1174.0</ele><time>2026-03-28T14:50:51.001Z</time></trkpt><trkpt lat="45.93061146285355" lon="10.175805977799794"><ele>1174.0</ele><time>2026-03-28T14:50:52.001Z</time></trkpt><trkpt lat="45.930523588935515" lon="10.175759876116555"><ele>1174.0</ele><time>2026-03-28T14:50:53.001Z</time></trkpt><trkpt lat="45.930412402355756" lon="10.175696049813313"><ele>1174.0</ele><time>2026-03-28T14:50:54.001Z</time></trkpt><trkpt lat="45.93029396506711" lon="10.175669245781602"><ele>1174.0</ele><time>2026-03-28T14:50:55.001Z</time></trkpt><trkpt lat="45.93015535789788" lon="10.175651808816317"><ele>1177.5</ele><time>2026-03-28T14:50:56.001Z</time></trkpt><trkpt lat="45.93002312330423" lon="10.175662780070267"><ele>1181.0</ele><time>2026-03-28T14:50:57.001Z</time></trkpt><trkpt lat="45.92988942820766" lon="10.175726469602296"><ele>1184.5</ele><time>2026-03-28T14:50:58.001Z</time></trkpt><trkpt lat="45.929772659434015" lon="10.175800822903621"><ele>1188.0</ele><time>2026-03-28T14:50:59.001Z</time></trkpt><trkpt lat="45.92965634452816" lon="10.175853404569132"><ele>1191.6</ele><time>2026-03-28T14:51:00.001Z</time></trkpt><trkpt lat="45.9295242371222" lon="10.175849724088852"><ele>1195.1999999999998</ele><time>2026-03-28T14:51:01.001Z</time></trkpt><trkpt lat="45.92941484507894" lon="10.175825393208413"><ele>1198.8</ele><time>2026-03-28T14:51:02.001Z</time></trkpt><trkpt lat="45.929317940063264" lon="10.17579894206974"><ele>1202.3999999999999</ele><time>2026-03-28T14:51:03.001Z</time></trkpt><trkpt lat="45.92921461991527" lon="10.175778311226875"><ele>1206.0</ele><time>2026-03-28T14:51:04.001Z</time></trkpt><trkpt lat="45.929105473616865" lon="10.1757807327512"><ele>1211.0</ele><time>2026-03-28T14:51:05.001Z</time></trkpt><trkpt lat="45.929001506022516" lon="10.175782664402655"><ele>1216.0</ele><time>2026-03-28T14:51:06.001Z</time></trkpt><trkpt lat="45.92889971156531" lon="10.175798353597626"><ele>1221.0</ele><time>2026-03-28T14:51:07.001Z</time></trkpt><trkpt lat="45.92880814940362" lon="10.175813503007948"><ele>1226.0</ele><time>2026-03-28T14:51:08.001Z</time></trkpt><trkpt lat="45.9287157747167" lon="10.17582958945121"><ele>1231.0</ele><time>2026-03-28T14:51:09.001Z</time></trkpt><trkpt lat="45.9286285854093" lon="10.17586198220711"><ele>1231.0</ele><time>2026-03-28T14:51:10.001Z</time></trkpt><trkpt lat="45.92854169746996" lon="10.175891144748487"><ele>1231.0</ele><time>2026-03-28T14:51:11.001Z</time></trkpt><trkpt lat="45.92845226057965" lon="10.175922218343981"><ele>1231.0</ele><time>2026-03-28T14:51:12Z</time></trkpt><trkpt lat="45.92837854644577" lon="10.175958515151644"><ele>1231.0</ele><time>2026-03-28T14:51:13Z</time></trkpt><trkpt lat="45.9283027966209" lon="10.175989233898182"><ele>1231.0</ele><time>2026-03-28T14:51:14Z</time></trkpt><trkpt lat="45.928231707973445" lon="10.176007182706215"><ele>1231.0</ele><time>2026-03-28T14:51:15Z</time></trkpt><trkpt lat="45.928164665330954" lon="10.176006950149384"><ele>1236.0</ele><time>2026-03-28T14:51:16Z</time></trkpt><trkpt lat="45.928097510677574" lon="10.175983403214461"><ele>1241.0</ele><time>2026-03-28T14:51:17Z</time></trkpt><trkpt lat="45.92803247081652" lon="10.175947331554104"><ele>1246.0</ele><time>2026-03-28T14:51:18Z</time></trkpt><trkpt lat="45.927940448966666" lon="10.175937192947334"><ele>1251.0</ele><time>2026-03-28T14:51:20Z</time></trkpt><trkpt lat="45.927876448125005" lon="10.175920387165581"><ele>1256.0</ele><time>2026-03-28T14:51:22Z</time></trkpt><trkpt lat="45.927792942215724" lon="10.175897880952457"><ele>1261.0</ele><time>2026-03-28T14:51:24Z</time></trkpt><trkpt lat="45.92772108328788" lon="10.175896658924074"><ele>1261.0</ele><time>2026-03-28T14:51:25Z</time></trkpt><trkpt lat="45.927650858948766" lon="10.175896255248439"><ele>1261.0</ele><time>2026-03-28T14:51:26Z</time></trkpt><trkpt lat="45.92761168863551" lon="10.175822388762196"><ele>1261.0</ele><time>2026-03-28T14:51:27Z</time></trkpt><trkpt lat="45.92752768918986" lon="10.175842891683226"><ele>1261.0</ele><time>2026-03-28T14:51:29Z</time></trkpt><trkpt lat="45.92750690795005" lon="10.175931288270151"><ele>1261.0</ele><time>2026-03-28T14:52:27Z</time></trkpt><trkpt lat="45.927442950134186" lon="10.176042878373105"><ele>1261.0</ele><time>2026-03-28T14:52:30Z</time></trkpt><trkpt lat="45.927374148917984" lon="10.176092927001216"><ele>1261.0</ele><time>2026-03-28T14:52:33Z</time></trkpt><trkpt lat="45.92733683083005" lon="10.175998086821066"><ele>1261.0</ele><time>2026-03-28T14:52:46.001Z</time></trkpt><trkpt lat="45.92738123866118" lon="10.175903147262861"><ele>1261.0</ele><time>2026-03-28T14:52:48.001Z</time></trkpt><trkpt lat="45.92747710994247" lon="10.175904667226078"><ele>1261.0</ele><time>2026-03-28T14:52:50.001Z</time></trkpt><trkpt lat="45.927546074905734" lon="10.175878599833261"><ele>1261.0</ele><time>2026-03-28T14:52:52.001Z</time></trkpt><trkpt lat="45.92760762529219" lon="10.175853561902226"><ele>1261.0</ele><time>2026-03-28T14:52:54.001Z</time></trkpt><trkpt lat="45.927668435654354" lon="10.175882035451158"><ele>1261.0</ele><time>2026-03-28T14:53:00.001Z</time></trkpt><trkpt lat="45.92774259252892" lon="10.175926255945837"><ele>1261.0</ele><time>2026-03-28T14:53:04.001Z</time></trkpt><trkpt lat="45.92782280846253" lon="10.175947050734612"><ele>1261.0</ele><time>2026-03-28T14:53:07.001Z</time></trkpt><trkpt lat="45.92789985418381" lon="10.175981803324692"><ele>1261.0</ele><time>2026-03-28T14:53:10.001Z</time></trkpt><trkpt lat="45.9279560428666" lon="10.176026154277217"><ele>1261.0</ele><time>2026-03-28T14:53:13.001Z</time></trkpt><trkpt lat="45.92803427010162" lon="10.176065220198176"><ele>1261.0</ele><time>2026-03-28T14:53:16.001Z</time></trkpt><trkpt lat="45.92810510914421" lon="10.176107170906354"><ele>1261.0</ele><time>2026-03-28T14:53:18Z</time></trkpt><trkpt lat="45.92817678384267" lon="10.176150545699688"><ele>1261.0</ele><time>2026-03-28T14:53:20Z</time></trkpt><trkpt lat="45.92826337364239" lon="10.17617751314918"><ele>1261.0</ele><time>2026-03-28T14:53:22Z</time></trkpt><trkpt lat="45.928342073521826" lon="10.176144471121338"><ele>1261.0</ele><time>2026-03-28T14:53:24Z</time></trkpt><trkpt lat="45.928421714161615" lon="10.176077743258233"><ele>1261.0</ele><time>2026-03-28T14:53:26Z</time></trkpt><trkpt lat="45.928516795630664" lon="10.17603852228746"><ele>1261.0</ele><time>2026-03-28T14:53:28Z</time></trkpt><trkpt lat="45.92861915551733" lon="10.176011269967052"><ele>1255.0</ele><time>2026-03-28T14:53:30Z</time></trkpt><trkpt lat="45.92873526702965" lon="10.175985128885062"><ele>1249.0</ele><time>2026-03-28T14:53:32Z</time></trkpt><trkpt lat="45.928864572771076" lon="10.175949168730686"><ele>1243.0</ele><time>2026-03-28T14:53:34Z</time></trkpt><trkpt lat="45.92893042820228" lon="10.175936557112804"><ele>1237.0</ele><time>2026-03-28T14:53:35Z</time></trkpt><trkpt lat="45.92899455685189" lon="10.175920202873042"><ele>1231.0</ele><time>2026-03-28T14:53:36Z</time></trkpt><trkpt lat="45.92911276735586" lon="10.175879960480636"><ele>1226.0</ele><time>2026-03-28T14:53:38Z</time></trkpt><trkpt lat="45.92922595546357" lon="10.175852768644543"><ele>1221.0</ele><time>2026-03-28T14:53:40Z</time></trkpt><trkpt lat="45.92933563758977" lon="10.175834956040363"><ele>1216.0</ele><time>2026-03-28T14:53:42Z</time></trkpt><trkpt lat="45.92943183975793" lon="10.175816769947387"><ele>1211.0</ele><time>2026-03-28T14:53:44Z</time></trkpt><trkpt lat="45.92952124648738" lon="10.175789116060859"><ele>1206.0</ele><time>2026-03-28T14:53:46Z</time></trkpt><trkpt lat="45.92957710282268" lon="10.17574166146478"><ele>1206.0</ele><time>2026-03-28T14:53:48Z</time></trkpt><trkpt lat="45.92962399724004" lon="10.175669329515546"><ele>1206.0</ele><time>2026-03-28T14:53:51Z</time></trkpt><trkpt lat="45.92971179164182" lon="10.175668999842888"><ele>1206.0</ele><time>2026-03-28T14:53:54Z</time></trkpt><trkpt lat="45.92977027229008" lon="10.175749826212824"><ele>1206.0</ele><time>2026-03-28T14:53:56Z</time></trkpt><trkpt lat="45.92982023318127" lon="10.17581782853798"><ele>1206.0</ele><time>2026-03-28T14:53:57Z</time></trkpt><trkpt lat="45.92990126345742" lon="10.175848205755212"><ele>1206.0</ele><time>2026-03-28T14:53:59Z</time></trkpt><trkpt lat="45.92994826364557" lon="10.175754887383997"><ele>1203.0</ele><time>2026-03-28T14:54:01Z</time></trkpt><trkpt lat="45.930007985132846" lon="10.175637933662236"><ele>1200.0</ele><time>2026-03-28T14:54:04Z</time></trkpt><trkpt lat="45.93008152998729" lon="10.175687762990048"><ele>1197.0</ele><time>2026-03-28T14:54:07Z</time></trkpt><trkpt lat="45.93014082966689" lon="10.17580080843538"><ele>1194.0</ele><time>2026-03-28T14:54:09Z</time></trkpt><trkpt lat="45.93020565158369" lon="10.175781752597382"><ele>1191.0</ele><time>2026-03-28T14:54:11Z</time></trkpt><trkpt lat="45.93024969007027" lon="10.175694421650478"><ele>1188.0</ele><time>2026-03-28T14:54:13Z</time></trkpt><trkpt lat="45.93032912107351" lon="10.175691560925324"><ele>1185.6666666666667</ele><time>2026-03-28T14:54:16Z</time></trkpt><trkpt lat="45.930345526074696" lon="10.17580714856431"><ele>1183.3333333333333</ele><time>2026-03-28T14:54:18Z</time></trkpt><trkpt lat="45.93041213205605" lon="10.17577174982618"><ele>1181.0</ele><time>2026-03-28T14:54:21Z</time></trkpt><trkpt lat="45.93047679031894" lon="10.175728587562316"><ele>1178.6666666666665</ele><time>2026-03-28T14:54:24Z</time></trkpt><trkpt lat="45.93054977550084" lon="10.175748432671194"><ele>1176.3333333333333</ele><time>2026-03-28T14:57:18.001Z</time></trkpt><trkpt lat="45.93064209959017" lon="10.175837873142369"><ele>1174.0</ele><time>2026-03-28T14:57:21.001Z</time></trkpt><trkpt lat="45.93065870917016" lon="10.1759259433396"><ele>1174.0</ele><time>2026-03-28T14:57:23.001Z</time></trkpt><trkpt lat="45.93065294078318" lon="10.176039755532496"><ele>1174.0</ele><time>2026-03-28T14:57:25.001Z</time></trkpt><trkpt lat="45.93069548598778" lon="10.176131694120668"><ele>1174.0</ele><time>2026-03-28T14:57:27.001Z</time></trkpt><trkpt lat="45.93077864561773" lon="10.176210705049195"><ele>1174.0</ele><time>2026-03-28T14:57:29.001Z</time></trkpt><trkpt lat="45.93084508067196" lon="10.17632128908566"><ele>1174.0</ele><time>2026-03-28T14:57:30.999Z</time></trkpt><trkpt lat="45.93084933970971" lon="10.176416870156622"><ele>1174.0</ele><time>2026-03-28T14:57:32.999Z</time></trkpt><trkpt lat="45.93083010075381" lon="10.1765247971722"><ele>1172.0</ele><time>2026-03-28T14:57:34.999Z</time></trkpt><trkpt lat="45.93080471310524" lon="10.176611611701556"><ele>1170.0</ele><time>2026-03-28T14:57:36.999Z</time></trkpt><trkpt lat="45.93076242780665" lon="10.176703681308673"><ele>1168.0</ele><time>2026-03-28T14:57:39.999Z</time></trkpt><trkpt lat="45.93075080704259" lon="10.17681432958711"><ele>1166.0</ele><time>2026-03-28T14:57:41.999Z</time></trkpt><trkpt lat="45.930743601166554" lon="10.176927917564242"><ele>1164.0</ele><time>2026-03-28T14:57:44Z</time></trkpt><trkpt lat="45.9307655184776" lon="10.177086466335131"><ele>1162.0</ele><time>2026-03-28T14:57:46Z</time></trkpt><trkpt lat="45.93081528939197" lon="10.177229479127867"><ele>1162.0</ele><time>2026-03-28T14:57:48Z</time></trkpt><trkpt lat="45.93087698772407" lon="10.177321956063983"><ele>1162.0</ele><time>2026-03-28T14:57:50Z</time></trkpt><trkpt lat="45.93093293893012" lon="10.177391189507654"><ele>1162.0</ele><time>2026-03-28T14:57:52Z</time></trkpt><trkpt lat="45.93097008166869" lon="10.177468942892512"><ele>1162.0</ele><time>2026-03-28T14:57:56Z</time></trkpt><trkpt lat="45.930914272889744" lon="10.177523662455995"><ele>1162.0</ele><time>2026-03-28T14:58:03Z</time></trkpt><trkpt lat="45.930874642059415" lon="10.177605129816785"><ele>1162.0</ele><time>2026-03-28T14:58:06Z</time></trkpt><trkpt lat="45.93081662419979" lon="10.177644237150666"><ele>1162.0</ele><time>2026-03-28T14:58:12Z</time></trkpt><trkpt lat="45.93077750992735" lon="10.177568903696862"><ele>1162.0</ele><time>2026-03-28T14:58:17Z</time></trkpt><trkpt lat="45.93063546883118" lon="10.177407004891295"><ele>1162.0</ele><time>2026-03-28T14:58:20Z</time></trkpt><trkpt lat="45.93062230044304" lon="10.1773037103919"><ele>1162.0</ele><time>2026-03-28T14:58:21Z</time></trkpt><trkpt lat="45.93064044650372" lon="10.177207365786492"><ele>1162.0</ele><time>2026-03-28T14:58:22Z</time></trkpt><trkpt lat="45.93065564707069" lon="10.177103265719126"><ele>1162.0</ele><time>2026-03-28T14:58:24Z</time></trkpt><trkpt lat="45.93064585241503" lon="10.177199859224912"><ele>1162.0</ele><time>2026-03-28T14:58:26Z</time></trkpt><trkpt lat="45.93065243698083" lon="10.177322378247624"><ele>1162.0</ele><time>2026-03-28T14:58:28Z</time></trkpt><trkpt lat="45.93067962233964" lon="10.177461999298517"><ele>1162.0</ele><time>2026-03-28T14:58:30Z</time></trkpt><trkpt lat="45.93073140638977" lon="10.177583759609433"><ele>1162.0</ele><time>2026-03-28T14:58:32Z</time></trkpt><trkpt lat="45.93077397916227" lon="10.177666289491986"><ele>1162.0</ele><time>2026-03-28T14:58:34Z</time></trkpt><trkpt lat="45.930802754020846" lon="10.177568442906649"><ele>1162.0</ele><time>2026-03-28T14:58:38Z</time></trkpt><trkpt lat="45.93087484096351" lon="10.177403394098514"><ele>1159.7142857142858</ele><time>2026-03-28T14:58:40Z</time></trkpt><trkpt lat="45.930913275208816" lon="10.17731358521512"><ele>1157.4285714285716</ele><time>2026-03-28T14:58:42Z</time></trkpt><trkpt lat="45.9309171086256" lon="10.17741743987068"><ele>1155.142857142857</ele><time>2026-03-28T14:58:54Z</time></trkpt><trkpt lat="45.93087160728955" lon="10.177509343803276"><ele>1152.857142857143</ele><time>2026-03-28T14:58:58Z</time></trkpt><trkpt lat="45.93083114672862" lon="10.177588460380422"><ele>1150.5714285714287</ele><time>2026-03-28T14:59:01Z</time></trkpt><trkpt lat="45.9308456933724" lon="10.177682762147834"><ele>1148.2857142857142</ele><time>2026-03-28T14:59:04Z</time></trkpt><trkpt lat="45.930929412484666" lon="10.17766988938702"><ele>1146.0</ele><time>2026-03-28T14:59:07Z</time></trkpt><trkpt lat="45.93100609127541" lon="10.177674356549263"><ele>1141.8333333333333</ele><time>2026-03-28T14:59:09Z</time></trkpt><trkpt lat="45.93107049743628" lon="10.177674588673245"><ele>1137.6666666666667</ele><time>2026-03-28T14:59:10Z</time></trkpt><trkpt lat="45.93114340641629" lon="10.177677533302031"><ele>1133.5</ele><time>2026-03-28T14:59:13Z</time></trkpt><trkpt lat="45.93122092977372" lon="10.177650923474399"><ele>1129.3333333333335</ele><time>2026-03-28T14:59:16Z</time></trkpt><trkpt lat="45.93128776922929" lon="10.177660969310363"><ele>1125.1666666666667</ele><time>2026-03-28T14:59:17Z</time></trkpt><trkpt lat="45.931357366237656" lon="10.177674571970595"><ele>1121.0</ele><time>2026-03-28T14:59:18Z</time></trkpt><trkpt lat="45.93147119037172" lon="10.177620539873663"><ele>1121.0</ele><time>2026-03-28T14:59:20Z</time></trkpt><trkpt lat="45.931547406786045" lon="10.177608609594593"><ele>1121.0</ele><time>2026-03-28T14:59:21Z</time></trkpt><trkpt lat="45.93163706820709" lon="10.177643633186952"><ele>1121.0</ele><time>2026-03-28T14:59:22Z</time></trkpt><trkpt lat="45.931708533765885" lon="10.177693423207797"><ele>1121.0</ele><time>2026-03-28T14:59:23Z</time></trkpt><trkpt lat="45.93178155335792" lon="10.177723405222991"><ele>1121.0</ele><time>2026-03-28T14:59:24Z</time></trkpt><trkpt lat="45.93183883922292" lon="10.177775971216372"><ele>1121.0</ele><time>2026-03-28T14:59:25Z</time></trkpt><trkpt lat="45.93190809173917" lon="10.177811726134284"><ele>1117.1666666666667</ele><time>2026-03-28T14:59:26Z</time></trkpt><trkpt lat="45.931980588376895" lon="10.177849013468883"><ele>1113.3333333333335</ele><time>2026-03-28T14:59:27Z</time></trkpt><trkpt lat="45.932053995264816" lon="10.17788598162268"><ele>1109.5</ele><time>2026-03-28T14:59:28Z</time></trkpt><trkpt lat="45.93212999171232" lon="10.177918564642404"><ele>1105.6666666666667</ele><time>2026-03-28T14:59:29Z</time></trkpt><trkpt lat="45.93222460434264" lon="10.177939082231028"><ele>1101.8333333333333</ele><time>2026-03-28T14:59:30Z</time></trkpt><trkpt lat="45.93230559791698" lon="10.177952646136236"><ele>1098.0</ele><time>2026-03-28T14:59:31Z</time></trkpt><trkpt lat="45.932386512665886" lon="10.17796776288883"><ele>1098.0</ele><time>2026-03-28T14:59:32.001Z</time></trkpt><trkpt lat="45.93247360323642" lon="10.177970580503734"><ele>1098.0</ele><time>2026-03-28T14:59:33.001Z</time></trkpt><trkpt lat="45.932556918417895" lon="10.177967233796103"><ele>1098.0</ele><time>2026-03-28T14:59:34.001Z</time></trkpt><trkpt lat="45.932630767434276" lon="10.177961868911646"><ele>1098.0</ele><time>2026-03-28T14:59:35.001Z</time></trkpt><trkpt lat="45.93271015481234" lon="10.177934778951313"><ele>1098.0</ele><time>2026-03-28T14:59:36Z</time></trkpt><trkpt lat="45.93279330722511" lon="10.177927656792757"><ele>1098.0</ele><time>2026-03-28T14:59:37Z</time></trkpt><trkpt lat="45.93285444263526" lon="10.177901544489611"><ele>1093.6666666666667</ele><time>2026-03-28T14:59:38Z</time></trkpt><trkpt lat="45.932921356689285" lon="10.177862945846218"><ele>1089.3333333333333</ele><time>2026-03-28T14:59:40Z</time></trkpt><trkpt lat="45.93298170864647" lon="10.177747943791784"><ele>1085.0</ele><time>2026-03-28T14:59:42Z</time></trkpt><trkpt lat="45.93301869018985" lon="10.177670677748031"><ele>1080.6666666666665</ele><time>2026-03-28T14:59:43Z</time></trkpt><trkpt lat="45.93312330520821" lon="10.177577815290649"><ele>1076.3333333333333</ele><time>2026-03-28T14:59:45Z</time></trkpt><trkpt lat="45.93318644893126" lon="10.177549118419016"><ele>1072.0</ele><time>2026-03-28T14:59:46Z</time></trkpt><trkpt lat="45.933290226733924" lon="10.177484050128198"><ele>1072.0</ele><time>2026-03-28T14:59:47Z</time></trkpt><trkpt lat="45.93337546536162" lon="10.177412435484538"><ele>1072.0</ele><time>2026-03-28T14:59:48Z</time></trkpt><trkpt lat="45.933426470751044" lon="10.177332671452291"><ele>1072.0</ele><time>2026-03-28T14:59:49Z</time></trkpt><trkpt lat="45.93346112529446" lon="10.177237124375152"><ele>1072.0</ele><time>2026-03-28T14:59:50Z</time></trkpt><trkpt lat="45.93350504409691" lon="10.177149160833231"><ele>1072.0</ele><time>2026-03-28T14:59:51Z</time></trkpt><trkpt lat="45.933563915853206" lon="10.177059257548871"><ele>1072.0</ele><time>2026-03-28T14:59:52Z</time></trkpt><trkpt lat="45.9336217563283" lon="10.17697706277736"><ele>1067.8</ele><time>2026-03-28T14:59:53Z</time></trkpt><trkpt lat="45.933698172669125" lon="10.176908010527455"><ele>1063.6</ele><time>2026-03-28T14:59:55Z</time></trkpt><trkpt lat="45.93378447148138" lon="10.176792909485297"><ele>1059.3999999999999</ele><time>2026-03-28T14:59:57Z</time></trkpt><trkpt lat="45.933827149414945" lon="10.176667930586031"><ele>1055.2</ele><time>2026-03-28T14:59:59Z</time></trkpt><trkpt lat="45.93381326561066" lon="10.176560568634038"><ele>1051.0</ele><time>2026-03-28T15:00:01Z</time></trkpt><trkpt lat="45.933769672015856" lon="10.176460149578768"><ele>1051.0</ele><time>2026-03-28T15:00:05Z</time></trkpt><trkpt lat="45.93378591537478" lon="10.176341222658126"><ele>1051.0</ele><time>2026-03-28T15:00:07Z</time></trkpt><trkpt lat="45.93386803560499" lon="10.176298745013565"><ele>1051.0</ele><time>2026-03-28T15:00:10Z</time></trkpt><trkpt lat="45.93393228066157" lon="10.176343153082328"><ele>1051.0</ele><time>2026-03-28T15:00:15Z</time></trkpt><trkpt lat="45.93402929468576" lon="10.176359000836186"><ele>1051.0</ele><time>2026-03-28T15:00:27Z</time></trkpt><trkpt lat="45.93414894926748" lon="10.17629104068557"><ele>1051.0</ele><time>2026-03-28T15:00:29Z</time></trkpt><trkpt lat="45.93421439521509" lon="10.176218595017831"><ele>1051.0</ele><time>2026-03-28T15:00:30Z</time></trkpt><trkpt lat="45.93422342995547" lon="10.176127383258507"><ele>1051.0</ele><time>2026-03-28T15:00:31Z</time></trkpt><trkpt lat="45.93424422688583" lon="10.175988101319685"><ele>1051.0</ele><time>2026-03-28T15:00:32Z</time></trkpt><trkpt lat="45.93430891467439" lon="10.175870392644494"><ele>1051.0</ele><time>2026-03-28T15:00:33Z</time></trkpt><trkpt lat="45.93436489992024" lon="10.175735458672492"><ele>1050.0</ele><time>2026-03-28T15:00:34Z</time></trkpt><trkpt lat="45.93440251856015" lon="10.175605065964275"><ele>1049.0</ele><time>2026-03-28T15:00:35Z</time></trkpt><trkpt lat="45.934436190646124" lon="10.175480166229857"><ele>1048.0</ele><time>2026-03-28T15:00:36Z</time></trkpt><trkpt lat="45.93441289623136" lon="10.175333094733023"><ele>1047.0</ele><time>2026-03-28T15:00:38Z</time></trkpt><trkpt lat="45.93430014324021" lon="10.175340082293408"><ele>1046.0</ele><time>2026-03-28T15:00:40Z</time></trkpt><trkpt lat="45.93424640153678" lon="10.175390532888832"><ele>1050.2</ele><time>2026-03-28T15:00:41Z</time></trkpt><trkpt lat="45.934163563878975" lon="10.175398249731462"><ele>1054.3999999999999</ele><time>2026-03-28T15:00:42Z</time></trkpt><trkpt lat="45.934077579389395" lon="10.175391260178529"><ele>1058.6</ele><time>2026-03-28T15:00:43Z</time></trkpt><trkpt lat="45.93397181773583" lon="10.175349859681521"><ele>1062.8</ele><time>2026-03-28T15:00:44Z</time></trkpt><trkpt lat="45.93386644929696" lon="10.175265839512994"><ele>1067.0</ele><time>2026-03-28T15:00:45Z</time></trkpt><trkpt lat="45.93375580186781" lon="10.175156029066619"><ele>1067.0</ele><time>2026-03-28T15:00:46Z</time></trkpt><trkpt lat="45.93367672286118" lon="10.175046338499204"><ele>1067.0</ele><time>2026-03-28T15:00:47Z</time></trkpt><trkpt lat="45.93362432816605" lon="10.174933726527694"><ele>1067.0</ele><time>2026-03-28T15:00:48Z</time></trkpt><trkpt lat="45.933557559922754" lon="10.174810557335007"><ele>1067.0</ele><time>2026-03-28T15:00:49Z</time></trkpt><trkpt lat="45.933480747052755" lon="10.174724029766512"><ele>1067.0</ele><time>2026-03-28T15:00:50Z</time></trkpt><trkpt lat="45.933379884695285" lon="10.174669247081114"><ele>1071.3333333333335</ele><time>2026-03-28T15:00:51Z</time></trkpt><trkpt lat="45.93330946571426" lon="10.17462743888222"><ele>1075.6666666666667</ele><time>2026-03-28T15:00:52Z</time></trkpt><trkpt lat="45.933244717227126" lon="10.174632060486077"><ele>1080.0</ele><time>2026-03-28T15:00:53Z</time></trkpt><trkpt lat="45.933116920724146" lon="10.174689372875829"><ele>1084.3333333333333</ele><time>2026-03-28T15:00:55Z</time></trkpt><trkpt lat="45.93305322261292" lon="10.17465895825224"><ele>1088.6666666666665</ele><time>2026-03-28T15:00:56Z</time></trkpt><trkpt lat="45.93298717605256" lon="10.17461312968272"><ele>1093.0</ele><time>2026-03-28T15:00:57Z</time></trkpt><trkpt lat="45.93288496560722" lon="10.174540886823202"><ele>1093.0</ele><time>2026-03-28T15:00:58Z</time></trkpt><trkpt lat="45.93277086604715" lon="10.174496627901078"><ele>1093.0</ele><time>2026-03-28T15:00:59Z</time></trkpt><trkpt lat="45.93268526892618" lon="10.174466892498538"><ele>1093.0</ele><time>2026-03-28T15:01:00Z</time></trkpt><trkpt lat="45.93261376179949" lon="10.17441588755763"><ele>1093.0</ele><time>2026-03-28T15:01:01.001Z</time></trkpt><trkpt lat="45.932523074477714" lon="10.17438325329882"><ele>1093.0</ele><time>2026-03-28T15:01:02.001Z</time></trkpt><trkpt lat="45.93243934176504" lon="10.174343070488963"><ele>1095.1666666666665</ele><time>2026-03-28T15:01:03.001Z</time></trkpt><trkpt lat="45.93236739460083" lon="10.174326390538463"><ele>1097.3333333333333</ele><time>2026-03-28T15:01:04.001Z</time></trkpt><trkpt lat="45.93228267580808" lon="10.174359048682268"><ele>1099.5</ele><time>2026-03-28T15:01:05.001Z</time></trkpt><trkpt lat="45.93219189511066" lon="10.174347655499899"><ele>1101.6666666666667</ele><time>2026-03-28T15:01:06.001Z</time></trkpt><trkpt lat="45.93212315365193" lon="10.174317781768323"><ele>1103.8333333333335</ele><time>2026-03-28T15:01:07.001Z</time></trkpt><trkpt lat="45.9320488252169" lon="10.174299823664006"><ele>1106.0</ele><time>2026-03-28T15:01:08.001Z</time></trkpt><trkpt lat="45.93196805871553" lon="10.174271597221711"><ele>1106.0</ele><time>2026-03-28T15:01:09.001Z</time></trkpt><trkpt lat="45.93191353037084" lon="10.174176548761542"><ele>1106.0</ele><time>2026-03-28T15:01:10.001Z</time></trkpt><trkpt lat="45.931852829468745" lon="10.174060262532663"><ele>1106.0</ele><time>2026-03-28T15:01:11.001Z</time></trkpt><trkpt lat="45.93178643555936" lon="10.173947451274788"><ele>1106.0</ele><time>2026-03-28T15:01:12.001Z</time></trkpt><trkpt lat="45.93169447458347" lon="10.17397149174385"><ele>1106.0</ele><time>2026-03-28T15:01:13.001Z</time></trkpt><trkpt lat="45.93179690523849" lon="10.174017471512686"><ele>1106.0</ele><time>2026-03-28T15:01:18.001Z</time></trkpt><trkpt lat="45.93186179706081" lon="10.174082842978153"><ele>1106.0</ele><time>2026-03-28T15:01:19.001Z</time></trkpt><trkpt lat="45.93193346422896" lon="10.17405701478538"><ele>1106.0</ele><time>2026-03-28T15:01:21.001Z</time></trkpt><trkpt lat="45.93198546140639" lon="10.173968856164247"><ele>1106.0</ele><time>2026-03-28T15:01:22.001Z</time></trkpt><trkpt lat="45.93207189649279" lon="10.173940278309654"><ele>1106.0</ele><time>2026-03-28T15:01:23.001Z</time></trkpt><trkpt lat="45.932164149456696" lon="10.173925681465604"><ele>1106.0</ele><time>2026-03-28T15:01:24.001Z</time></trkpt><trkpt lat="45.932233065310896" lon="10.173859704866004"><ele>1110.8333333333335</ele><time>2026-03-28T15:01:25.001Z</time></trkpt><trkpt lat="45.932300669231914" lon="10.173803690884197"><ele>1115.6666666666667</ele><time>2026-03-28T15:01:26.001Z</time></trkpt><trkpt lat="45.93232249370287" lon="10.173675110696708"><ele>1120.5</ele><time>2026-03-28T15:01:27.001Z</time></trkpt><trkpt lat="45.93231259210306" lon="10.173582783318615"><ele>1125.3333333333333</ele><time>2026-03-28T15:01:28.001Z</time></trkpt><trkpt lat="45.932249569949775" lon="10.17350892306865"><ele>1130.1666666666665</ele><time>2026-03-28T15:01:30.001Z</time></trkpt><trkpt lat="45.93216479718276" lon="10.173388959628806"><ele>1135.0</ele><time>2026-03-28T15:01:32.001Z</time></trkpt><trkpt lat="45.93208803064546" lon="10.173315848788645"><ele>1135.0</ele><time>2026-03-28T15:01:34.001Z</time></trkpt><trkpt lat="45.9320318903539" lon="10.173233606183334"><ele>1135.0</ele><time>2026-03-28T15:01:35.001Z</time></trkpt><trkpt lat="45.93193577044771" lon="10.173199831890019"><ele>1135.0</ele><time>2026-03-28T15:01:36.001Z</time></trkpt><trkpt lat="45.931835078764315" lon="10.173153793779486"><ele>1135.0</ele><time>2026-03-28T15:01:37.001Z</time></trkpt><trkpt lat="45.93169456116993" lon="10.173109205353835"><ele>1135.0</ele><time>2026-03-28T15:01:38.001Z</time></trkpt><trkpt lat="45.931558009280735" lon="10.173088333584538"><ele>1152.3333333333333</ele><time>2026-03-28T15:01:39.001Z</time></trkpt><trkpt lat="45.93139327532149" lon="10.173068414346629"><ele>1169.6666666666667</ele><time>2026-03-28T15:01:40.001Z</time></trkpt><trkpt lat="45.93122541960212" lon="10.17301062164692"><ele>1187.0</ele><time>2026-03-28T15:01:41.001Z</time></trkpt><trkpt lat="45.93107573756171" lon="10.172943552818593"><ele>1187.0</ele><time>2026-03-28T15:01:42Z</time></trkpt><trkpt lat="45.93094742520807" lon="10.172924501352039"><ele>1187.0</ele><time>2026-03-28T15:01:43Z</time></trkpt><trkpt lat="45.93078447185114" lon="10.172921015906157"><ele>1187.0</ele><time>2026-03-28T15:01:44Z</time></trkpt><trkpt lat="45.930711308063955" lon="10.172915062509226"><ele>1187.0</ele><time>2026-03-28T15:01:45Z</time></trkpt><trkpt lat="45.93066743505449" lon="10.17278753947559"><ele>1188.1666666666667</ele><time>2026-03-28T15:01:47Z</time></trkpt><trkpt lat="45.93065371605156" lon="10.172670008240518"><ele>1189.3333333333335</ele><time>2026-03-28T15:01:48Z</time></trkpt><trkpt lat="45.93062808651801" lon="10.172499264829993"><ele>1190.5</ele><time>2026-03-28T15:01:49Z</time></trkpt><trkpt lat="45.930598273416535" lon="10.172413801380243"><ele>1191.6666666666667</ele><time>2026-03-28T15:01:50Z</time></trkpt><trkpt lat="45.930643836097396" lon="10.172336872762953"><ele>1192.8333333333333</ele><time>2026-03-28T15:01:53Z</time></trkpt><trkpt lat="45.93065780055885" lon="10.172208275814079"><ele>1194.0</ele><time>2026-03-28T15:01:54Z</time></trkpt><trkpt lat="45.93065867580154" lon="10.172096484140715"><ele>1198.8</ele><time>2026-03-28T15:01:55Z</time></trkpt><trkpt lat="45.93078323541526" lon="10.172124637607045"><ele>1203.6000000000001</ele><time>2026-03-28T15:01:56Z</time></trkpt><trkpt lat="45.93083434561038" lon="10.171951215573051"><ele>1208.4</ele><time>2026-03-28T15:01:59Z</time></trkpt><trkpt lat="45.9307743289318" lon="10.171916587244837"><ele>1213.2</ele><time>2026-03-28T15:02:01Z</time></trkpt><trkpt lat="45.930848315902104" lon="10.171901687271843"><ele>1218.0</ele><time>2026-03-28T15:02:03Z</time></trkpt><trkpt lat="45.93091813425693" lon="10.171895056533645"><ele>1218.0</ele><time>2026-03-28T15:02:04Z</time></trkpt><trkpt lat="45.93101900494033" lon="10.17185758524924"><ele>1218.0</ele><time>2026-03-28T15:02:06Z</time></trkpt><trkpt lat="45.931070211964624" lon="10.171783066287324"><ele>1218.0</ele><time>2026-03-28T15:02:08Z</time></trkpt><trkpt lat="45.93113946590493" lon="10.171771827329156"><ele>1218.0</ele><time>2026-03-28T15:02:10Z</time></trkpt><trkpt lat="45.931192157557746" lon="10.171624231048005"><ele>1218.0</ele><time>2026-03-28T15:02:12Z</time></trkpt><trkpt lat="45.93124785263883" lon="10.171476749150392"><ele>1223.4</ele><time>2026-03-28T15:02:14Z</time></trkpt><trkpt lat="45.93133237265995" lon="10.171300228572365"><ele>1228.8</ele><time>2026-03-28T15:02:16Z</time></trkpt><trkpt lat="45.931380631645126" lon="10.171217040891403"><ele>1234.2</ele><time>2026-03-28T15:02:17Z</time></trkpt><trkpt lat="45.9314062571099" lon="10.171088243346974"><ele>1239.6</ele><time>2026-03-28T15:02:19Z</time></trkpt><trkpt lat="45.93150701877071" lon="10.17107195388998"><ele>1245.0</ele><time>2026-03-28T15:02:24Z</time></trkpt><trkpt lat="45.93156188525954" lon="10.171000688486787"><ele>1245.0</ele><time>2026-03-28T15:02:25Z</time></trkpt><trkpt lat="45.93161062130008" lon="10.170940029326246"><ele>1245.0</ele><time>2026-03-28T15:02:26Z</time></trkpt><trkpt lat="45.93163494449538" lon="10.170842422440527"><ele>1245.0</ele><time>2026-03-28T15:02:27Z</time></trkpt><trkpt lat="45.93168072642903" lon="10.170722096335886"><ele>1245.0</ele><time>2026-03-28T15:02:29Z</time></trkpt><trkpt lat="45.93176600246852" lon="10.17076706429745"><ele>1245.0</ele><time>2026-03-28T15:02:32Z</time></trkpt><trkpt lat="45.93183877966488" lon="10.170734555708043"><ele>1245.0</ele><time>2026-03-28T15:02:35Z</time></trkpt><trkpt lat="45.93189658169109" lon="10.170675951621686"><ele>1246.0</ele><time>2026-03-28T15:02:39Z</time></trkpt><trkpt lat="45.932008011365106" lon="10.170602025115283"><ele>1247.0</ele><time>2026-03-28T15:03:14.001Z</time></trkpt><trkpt lat="45.93195944276698" lon="10.170511952408384"><ele>1248.0</ele><time>2026-03-28T15:06:56Z</time></trkpt><trkpt lat="45.93191784006179" lon="10.170436677428716"><ele>1249.0</ele><time>2026-03-28T15:06:58Z</time></trkpt><trkpt lat="45.93190210965696" lon="10.170304592810536"><ele>1250.0</ele><time>2026-03-28T15:07:03Z</time></trkpt><trkpt lat="45.93185045785776" lon="10.170232756292922"><ele>1251.0</ele><time>2026-03-28T15:07:06Z</time></trkpt><trkpt lat="45.93179144949497" lon="10.170157166179902"><ele>1253.1666666666667</ele><time>2026-03-28T15:07:09Z</time></trkpt><trkpt lat="45.93171052324714" lon="10.170177428421217"><ele>1255.3333333333333</ele><time>2026-03-28T15:07:13Z</time></trkpt><trkpt lat="45.931642974177464" lon="10.170196244206442"><ele>1257.5</ele><time>2026-03-28T15:07:15Z</time></trkpt><trkpt lat="45.93158866662285" lon="10.170248753676358"><ele>1259.6666666666665</ele><time>2026-03-28T15:07:18Z</time></trkpt><trkpt lat="45.93151511569723" lon="10.170217881876702"><ele>1261.8333333333333</ele><time>2026-03-28T15:07:20Z</time></trkpt><trkpt lat="45.9314250803386" lon="10.170271328639853"><ele>1264.0</ele><time>2026-03-28T15:07:22Z</time></trkpt><trkpt lat="45.93132166433297" lon="10.170246790507617"><ele>1264.0</ele><time>2026-03-28T15:07:24Z</time></trkpt><trkpt lat="45.93123273367752" lon="10.1702313112429"><ele>1264.0</ele><time>2026-03-28T15:07:27Z</time></trkpt><trkpt lat="45.931293190088006" lon="10.170287704865121"><ele>1264.0</ele><time>2026-03-28T15:07:45.001Z</time></trkpt><trkpt lat="45.93131557495392" lon="10.170423091738249"><ele>1264.0</ele><time>2026-03-28T15:08:32Z</time></trkpt><trkpt lat="45.93124303554554" lon="10.170399264676005"><ele>1264.0</ele><time>2026-03-28T15:09:19Z</time></trkpt><trkpt lat="45.93117158482097" lon="10.170378319951366"><ele>1264.0</ele><time>2026-03-28T15:09:22Z</time></trkpt><trkpt lat="45.931260396000404" lon="10.17037576104316"><ele>1264.0000000000002</ele><time>2026-03-28T15:09:27Z</time></trkpt><trkpt lat="45.93132490249454" lon="10.170361529416748"><ele>1264.0</ele><time>2026-03-28T15:09:29Z</time></trkpt><trkpt lat="45.93138204322482" lon="10.170410892801591"><ele>1264.0</ele><time>2026-03-28T15:09:32Z</time></trkpt><trkpt lat="45.93145436339064" lon="10.170436800114992"><ele>1264.0</ele><time>2026-03-28T15:09:34Z</time></trkpt><trkpt lat="45.93154064311971" lon="10.170461231228273"><ele>1264.0</ele><time>2026-03-28T15:09:38Z</time></trkpt><trkpt lat="45.93160991139055" lon="10.170465864512671"><ele>1264.0000000000002</ele><time>2026-03-28T15:09:41Z</time></trkpt><trkpt lat="45.93168064768496" lon="10.170415170711522"><ele>1264.0</ele><time>2026-03-28T15:09:43Z</time></trkpt><trkpt lat="45.93172570621909" lon="10.17034573924591"><ele>1261.8333333333333</ele><time>2026-03-28T15:09:45Z</time></trkpt><trkpt lat="45.931793194267094" lon="10.170315198761188"><ele>1259.6666666666665</ele><time>2026-03-28T15:09:49Z</time></trkpt><trkpt lat="45.9318279520114" lon="10.170427675395187"><ele>1257.5</ele><time>2026-03-28T15:09:53Z</time></trkpt><trkpt lat="45.93189081626449" lon="10.170484362057604"><ele>1255.3333333333333</ele><time>2026-03-28T15:09:56Z</time></trkpt><trkpt lat="45.93196564453227" lon="10.170417324491273"><ele>1253.1666666666667</ele><time>2026-03-28T15:10:01Z</time></trkpt><trkpt lat="45.93202065839185" lon="10.170325883174648"><ele>1251.0</ele><time>2026-03-28T15:10:04Z</time></trkpt><trkpt lat="45.932264458855464" lon="10.169875250608813"><ele>1251.0</ele><time>2026-03-28T15:10:08Z</time></trkpt><trkpt lat="45.932348778266864" lon="10.169875334649607"><ele>1251.0</ele><time>2026-03-28T15:10:09Z</time></trkpt><trkpt lat="45.93246728529417" lon="10.169950528851812"><ele>1251.0</ele><time>2026-03-28T15:10:10Z</time></trkpt><trkpt lat="45.9325579286851" lon="10.169988356363291"><ele>1251.0</ele><time>2026-03-28T15:10:11Z</time></trkpt><trkpt lat="45.93262869394453" lon="10.170013519590276"><ele>1251.0</ele><time>2026-03-28T15:10:12Z</time></trkpt><trkpt lat="45.93275398689967" lon="10.170035212137341"><ele>1253.0</ele><time>2026-03-28T15:10:14Z</time></trkpt><trkpt lat="45.93283456646774" lon="10.17003821720675"><ele>1255.0</ele><time>2026-03-28T15:10:15.999Z</time></trkpt><trkpt lat="45.932826338277245" lon="10.170135747997593"><ele>1257.0</ele><time>2026-03-28T15:10:19Z</time></trkpt><trkpt lat="45.93288421235707" lon="10.17020119558609"><ele>1259.0</ele><time>2026-03-28T15:10:26Z</time></trkpt><trkpt lat="45.93282342284341" lon="10.170235088677925"><ele>1261.0</ele><time>2026-03-28T15:10:33Z</time></trkpt><trkpt lat="45.932697487232154" lon="10.170160234393977"><ele>1263.0</ele><time>2026-03-28T15:10:36Z</time></trkpt><trkpt lat="45.93261791702949" lon="10.170194870257003"><ele>1263.0</ele><time>2026-03-28T15:10:38Z</time></trkpt><trkpt lat="45.932556657065064" lon="10.170134710113157"><ele>1263.0</ele><time>2026-03-28T15:10:40Z</time></trkpt><trkpt lat="45.932503513734915" lon="10.170056602076194"><ele>1263.0</ele><time>2026-03-28T15:10:41Z</time></trkpt><trkpt lat="45.9324202426545" lon="10.169922524701157"><ele>1263.0</ele><time>2026-03-28T15:10:42Z</time></trkpt><trkpt lat="45.93236923428918" lon="10.169830889822244"><ele>1263.0</ele><time>2026-03-28T15:10:43Z</time></trkpt><trkpt lat="45.93231528965855" lon="10.169749274807256"><ele>1263.0</ele><time>2026-03-28T15:10:44Z</time></trkpt><trkpt lat="45.9322414023309" lon="10.169701743586815"><ele>1261.0</ele><time>2026-03-28T15:10:46Z</time></trkpt><trkpt lat="45.9321775864302" lon="10.169772321065572"><ele>1259.0</ele><time>2026-03-28T15:10:48Z</time></trkpt><trkpt lat="45.93209931924836" lon="10.169843309019896"><ele>1257.0</ele><time>2026-03-28T15:10:50Z</time></trkpt><trkpt lat="45.9320304385576" lon="10.169943027507964"><ele>1255.0</ele><time>2026-03-28T15:10:52Z</time></trkpt><trkpt lat="45.931957724901956" lon="10.169970909048068"><ele>1253.0</ele><time>2026-03-28T15:10:54Z</time></trkpt><trkpt lat="45.931889736744516" lon="10.169999983387768"><ele>1251.0</ele><time>2026-03-28T15:10:56Z</time></trkpt><trkpt lat="45.931808815153666" lon="10.17005037921429"><ele>1251.0</ele><time>2026-03-28T15:11:00Z</time></trkpt><trkpt lat="45.93174924545473" lon="10.170117688100424"><ele>1251.0</ele><time>2026-03-28T15:11:03Z</time></trkpt><trkpt lat="45.93171757124871" lon="10.170238283378326"><ele>1251.0</ele><time>2026-03-28T15:11:06Z</time></trkpt><trkpt lat="45.931853822453554" lon="10.170341625194421"><ele>1251.0</ele><time>2026-03-28T15:11:07Z</time></trkpt><trkpt lat="45.93180359478233" lon="10.170411864379577"><ele>1251.0</ele><time>2026-03-28T15:11:09Z</time></trkpt><trkpt lat="45.931764720894" lon="10.170515739510716"><ele>1251.0</ele><time>2026-03-28T15:11:14Z</time></trkpt><trkpt lat="45.931830495563574" lon="10.170532851537631"><ele>1251.0</ele><time>2026-03-28T15:11:24Z</time></trkpt><trkpt lat="45.93189990850444" lon="10.170594526088024"><ele>1251.0</ele><time>2026-03-28T15:11:34Z</time></trkpt><trkpt lat="45.93197184066185" lon="10.170548224515976"><ele>1251.0</ele><time>2026-03-28T15:11:44Z</time></trkpt><trkpt lat="45.93194447891294" lon="10.170451326770586"><ele>1251.0</ele><time>2026-03-28T15:11:48Z</time></trkpt><trkpt lat="45.93188398241525" lon="10.170421061568163"><ele>1251.0</ele><time>2026-03-28T15:11:50Z</time></trkpt><trkpt lat="45.93183601478764" lon="10.170344719190652"><ele>1251.0</ele><time>2026-03-28T15:11:56Z</time></trkpt><trkpt lat="45.931775533556575" lon="10.17031791702868"><ele>1252.857142857143</ele><time>2026-03-28T15:12:11Z</time></trkpt><trkpt lat="45.93169706107581" lon="10.170296687020487"><ele>1254.7142857142858</ele><time>2026-03-28T15:12:33Z</time></trkpt><trkpt lat="45.9316273088671" lon="10.170280694636048"><ele>1256.5714285714287</ele><time>2026-03-28T15:12:36Z</time></trkpt><trkpt lat="45.93156320006156" lon="10.17031054495836"><ele>1258.4285714285716</ele><time>2026-03-28T15:12:42Z</time></trkpt><trkpt lat="45.931514958997475" lon="10.17037929480767"><ele>1260.2857142857142</ele><time>2026-03-28T15:12:45Z</time></trkpt><trkpt lat="45.931451539648094" lon="10.17041411810455"><ele>1262.1428571428573</ele><time>2026-03-28T15:12:48Z</time></trkpt><trkpt lat="45.931438181112796" lon="10.170506518192676"><ele>1264.0</ele><time>2026-03-28T15:12:59Z</time></trkpt><trkpt lat="45.93135674752165" lon="10.170504521447054"><ele>1264.0</ele><time>2026-03-28T15:13:02Z</time></trkpt><trkpt lat="45.931290747327814" lon="10.170489271351268"><ele>1264.0</ele><time>2026-03-28T15:13:04Z</time></trkpt><trkpt lat="45.9312142702205" lon="10.170489166600579"><ele>1264.0</ele><time>2026-03-28T15:13:07Z</time></trkpt><trkpt lat="45.93114955093726" lon="10.170468694362562"><ele>1264.0</ele><time>2026-03-28T15:13:11Z</time></trkpt><trkpt lat="45.93105378663513" lon="10.170470212932477"><ele>1264.0</ele><time>2026-03-28T15:14:27Z</time></trkpt><trkpt lat="45.93099058626375" lon="10.170375177700386"><ele>1264.0</ele><time>2026-03-28T15:15:06Z</time></trkpt><trkpt lat="45.93106293122975" lon="10.170444934370083"><ele>1264.0</ele><time>2026-03-28T15:17:17.001Z</time></trkpt><trkpt lat="45.930998156155255" lon="10.170434381528496"><ele>1264.0</ele><time>2026-03-28T15:17:43.001Z</time></trkpt><trkpt lat="45.93090334852036" lon="10.170436361373168"><ele>1264.0</ele><time>2026-03-28T15:17:46.001Z</time></trkpt><trkpt lat="45.93083818770761" lon="10.170375685670473"><ele>1264.0</ele><time>2026-03-28T15:17:48.001Z</time></trkpt><trkpt lat="45.93075372351722" lon="10.17034949094322"><ele>1264.0</ele><time>2026-03-28T15:17:51.001Z</time></trkpt><trkpt lat="45.93066778578705" lon="10.170327050376535"><ele>1264.0</ele><time>2026-03-28T15:17:54.001Z</time></trkpt><trkpt lat="45.9305692040024" lon="10.170286981239908"><ele>1267.6666666666665</ele><time>2026-03-28T15:17:57.001Z</time></trkpt><trkpt lat="45.93049769894043" lon="10.17026119993559"><ele>1271.3333333333333</ele><time>2026-03-28T15:17:59.001Z</time></trkpt><trkpt lat="45.930433337185775" lon="10.170293348569553"><ele>1275.0</ele><time>2026-03-28T15:18:01.001Z</time></trkpt><trkpt lat="45.93035535565165" lon="10.17028032999931"><ele>1278.6666666666667</ele><time>2026-03-28T15:18:03.001Z</time></trkpt><trkpt lat="45.93026409335982" lon="10.170314432119945"><ele>1282.3333333333335</ele><time>2026-03-28T15:18:07.001Z</time></trkpt><trkpt lat="45.93016904907995" lon="10.170313334809727"><ele>1286.0</ele><time>2026-03-28T15:18:10.001Z</time></trkpt><trkpt lat="45.930112044960175" lon="10.170249920466036"><ele>1286.0</ele><time>2026-03-28T15:18:13.001Z</time></trkpt><trkpt lat="45.93004174288264" lon="10.170218877869395"><ele>1286.0</ele><time>2026-03-28T15:18:15.001Z</time></trkpt><trkpt lat="45.9299883722614" lon="10.17016158402673"><ele>1286.0</ele><time>2026-03-28T15:18:18.001Z</time></trkpt><trkpt lat="45.92993608995886" lon="10.170095081547803"><ele>1286.0</ele><time>2026-03-28T15:18:21.001Z</time></trkpt><trkpt lat="45.92994045578313" lon="10.169999848551827"><ele>1286.0</ele><time>2026-03-28T15:18:24.001Z</time></trkpt><trkpt lat="45.929899990275835" lon="10.16989515658901"><ele>1286.0</ele><time>2026-03-28T15:18:30Z</time></trkpt><trkpt lat="45.92985953203988" lon="10.16980871970869"><ele>1286.0</ele><time>2026-03-28T15:18:32Z</time></trkpt><trkpt lat="45.929832644757276" lon="10.169703740202856"><ele>1289.142857142857</ele><time>2026-03-28T15:18:34Z</time></trkpt><trkpt lat="45.92980649819489" lon="10.169592892077452"><ele>1292.2857142857144</ele><time>2026-03-28T15:18:36Z</time></trkpt><trkpt lat="45.929815262208336" lon="10.169492993339512"><ele>1295.4285714285716</ele><time>2026-03-28T15:18:40Z</time></trkpt><trkpt lat="45.92981734410098" lon="10.169400347769773"><ele>1298.5714285714284</ele><time>2026-03-28T15:18:45Z</time></trkpt><trkpt lat="45.929853583884075" lon="10.169314976473382"><ele>1301.7142857142858</ele><time>2026-03-28T15:18:52Z</time></trkpt><trkpt lat="45.9298897428011" lon="10.169235697520518"><ele>1304.857142857143</ele><time>2026-03-28T15:18:54Z</time></trkpt><trkpt lat="45.929955001223014" lon="10.169194170884436"><ele>1308.0</ele><time>2026-03-28T15:18:57Z</time></trkpt><trkpt lat="45.93003545948183" lon="10.169181462311847"><ele>1307.8333333333333</ele><time>2026-03-28T15:18:59Z</time></trkpt><trkpt lat="45.930092819563306" lon="10.169118794999644"><ele>1307.6666666666667</ele><time>2026-03-28T15:19:03Z</time></trkpt><trkpt lat="45.93012865978377" lon="10.168998910216853"><ele>1307.5</ele><time>2026-03-28T15:19:06Z</time></trkpt><trkpt lat="45.930113004128586" lon="10.168883785978455"><ele>1307.3333333333335</ele><time>2026-03-28T15:19:07Z</time></trkpt><trkpt lat="45.93004974339412" lon="10.168786667451077"><ele>1307.1666666666667</ele><time>2026-03-28T15:19:10Z</time></trkpt><trkpt lat="45.929984494542545" lon="10.16868917999005"><ele>1307.0</ele><time>2026-03-28T15:19:14Z</time></trkpt><trkpt lat="45.92997388032381" lon="10.168577816863113"><ele>1308.5714285714284</ele><time>2026-03-28T15:19:17Z</time></trkpt><trkpt lat="45.929957480803246" lon="10.168472015348007"><ele>1310.1428571428573</ele><time>2026-03-28T15:19:20Z</time></trkpt><trkpt lat="45.93002207387732" lon="10.168415031535059"><ele>1311.7142857142858</ele><time>2026-03-28T15:19:23Z</time></trkpt><trkpt lat="45.92998635385739" lon="10.168492759711134"><ele>1313.2857142857142</ele><time>2026-03-28T15:19:27Z</time></trkpt><trkpt lat="45.929920955273204" lon="10.168483968717966"><ele>1314.8571428571427</ele><time>2026-03-28T15:19:29Z</time></trkpt><trkpt lat="45.92987097049933" lon="10.16842282221013"><ele>1316.4285714285716</ele><time>2026-03-28T15:19:35.001Z</time></trkpt><trkpt lat="45.929949456854935" lon="10.16841293455759"><ele>1318.0</ele><time>2026-03-28T15:19:37.001Z</time></trkpt><trkpt lat="45.93004694045757" lon="10.168414969119478"><ele>1318.0</ele><time>2026-03-28T15:19:39.001Z</time></trkpt><trkpt lat="45.93014045357558" lon="10.168422297371418"><ele>1318.0</ele><time>2026-03-28T15:19:41.001Z</time></trkpt><trkpt lat="45.930234220641765" lon="10.168403724452714"><ele>1318.0</ele><time>2026-03-28T15:19:44.001Z</time></trkpt><trkpt lat="45.93019072665418" lon="10.16833648001336"><ele>1318.0</ele><time>2026-03-28T15:20:00.001Z</time></trkpt><trkpt lat="45.930117225338954" lon="10.16830829689351"><ele>1318.0</ele><time>2026-03-28T15:20:15.001Z</time></trkpt><trkpt lat="45.9300389976608" lon="10.168368592605532"><ele>1318.0</ele><time>2026-03-28T15:20:18.001Z</time></trkpt><trkpt lat="45.9299758244414" lon="10.168388799381729"><ele>1318.0</ele><time>2026-03-28T15:20:21.001Z</time></trkpt><trkpt lat="45.929909473514485" lon="10.168432527333602"><ele>1318.0</ele><time>2026-03-28T15:21:11Z</time></trkpt><trkpt lat="45.92982529139512" lon="10.168447112708233"><ele>1318.0</ele><time>2026-03-28T15:21:15Z</time></trkpt><trkpt lat="45.929791168406034" lon="10.168544623684024"><ele>1318.0</ele><time>2026-03-28T15:21:19Z</time></trkpt><trkpt lat="45.92984773862371" lon="10.168591333133564"><ele>1318.0</ele><time>2026-03-28T15:21:25Z</time></trkpt><trkpt lat="45.92990967707197" lon="10.168637796317322"><ele>1318.0</ele><time>2026-03-28T15:21:28Z</time></trkpt><trkpt lat="45.92997080883447" lon="10.168675063714202"><ele>1318.0</ele><time>2026-03-28T15:21:33Z</time></trkpt><trkpt lat="45.930021826709854" lon="10.16874115288505"><ele>1318.0</ele><time>2026-03-28T15:21:37Z</time></trkpt><trkpt lat="45.930011786650695" lon="10.16884486639529"><ele>1318.0</ele><time>2026-03-28T15:21:41Z</time></trkpt><trkpt lat="45.92997251218043" lon="10.168936462326876"><ele>1318.0</ele><time>2026-03-28T15:21:44Z</time></trkpt><trkpt lat="45.92992628477445" lon="10.169000149878439"><ele>1318.0</ele><time>2026-03-28T15:21:47Z</time></trkpt><trkpt lat="45.9298680854295" lon="10.169037154718147"><ele>1318.0</ele><time>2026-03-28T15:21:52Z</time></trkpt><trkpt lat="45.929854518567666" lon="10.169131799925058"><ele>1318.0</ele><time>2026-03-28T15:21:56Z</time></trkpt><trkpt lat="45.92978981791654" lon="10.169194126662607"><ele>1318.0</ele><time>2026-03-28T15:22:00Z</time></trkpt><trkpt lat="45.9297542755327" lon="10.169284776358944"><ele>1318.5714285714287</ele><time>2026-03-28T15:22:05Z</time></trkpt><trkpt lat="45.929813086668894" lon="10.169252029848296"><ele>1319.142857142857</ele><time>2026-03-28T15:22:48Z</time></trkpt><trkpt lat="45.92984552031813" lon="10.169167126876703"><ele>1319.7142857142858</ele><time>2026-03-28T15:22:51Z</time></trkpt><trkpt lat="45.92990655257542" lon="10.16910289644004"><ele>1320.2857142857142</ele><time>2026-03-28T15:22:58Z</time></trkpt><trkpt lat="45.929984890449575" lon="10.169101037801527"><ele>1320.857142857143</ele><time>2026-03-28T15:23:01Z</time></trkpt><trkpt lat="45.93005825145431" lon="10.16907520579935"><ele>1321.4285714285713</ele><time>2026-03-28T15:23:13Z</time></trkpt><trkpt lat="45.930104780982404" lon="10.168990010729006"><ele>1322.0</ele><time>2026-03-28T15:23:16Z</time></trkpt><trkpt lat="45.9300912089008" lon="10.168898394051803"><ele>1322.0</ele><time>2026-03-28T15:23:18Z</time></trkpt><trkpt lat="45.930060876495" lon="10.168804439160315"><ele>1322.0</ele><time>2026-03-28T15:23:21Z</time></trkpt><trkpt lat="45.93002098599835" lon="10.16872583583533"><ele>1322.0</ele><time>2026-03-28T15:23:24Z</time></trkpt><trkpt lat="45.92993986867041" lon="10.16868791321809"><ele>1322.0</ele><time>2026-03-28T15:23:27Z</time></trkpt><trkpt lat="45.92988980289492" lon="10.168625273427526"><ele>1322.0</ele><time>2026-03-28T15:23:30Z</time></trkpt><trkpt lat="45.929842624845314" lon="10.168518181345366"><ele>1322.0</ele><time>2026-03-28T15:23:34Z</time></trkpt><trkpt lat="45.92985688648145" lon="10.16840953292073"><ele>1321.3333333333335</ele><time>2026-03-28T15:23:38Z</time></trkpt><trkpt lat="45.9299330922495" lon="10.168382884390493"><ele>1320.6666666666667</ele><time>2026-03-28T15:23:44Z</time></trkpt><trkpt lat="45.92998158192913" lon="10.168292076275675"><ele>1320.0</ele><time>2026-03-28T15:23:47Z</time></trkpt><trkpt lat="45.93004473560178" lon="10.168218442976102"><ele>1319.3333333333333</ele><time>2026-03-28T15:23:51Z</time></trkpt><trkpt lat="45.930042843387284" lon="10.168098626241305"><ele>1318.6666666666665</ele><time>2026-03-28T15:23:54Z</time></trkpt><trkpt lat="45.93005270263167" lon="10.167956157521402"><ele>1318.0</ele><time>2026-03-28T15:23:56Z</time></trkpt><trkpt lat="45.93007659696463" lon="10.167824145780628"><ele>1318.5</ele><time>2026-03-28T15:23:58Z</time></trkpt><trkpt lat="45.930125157173336" lon="10.16770653999506"><ele>1319.0</ele><time>2026-03-28T15:24:00Z</time></trkpt><trkpt lat="45.930105883216584" lon="10.167552635455916"><ele>1319.5</ele><time>2026-03-28T15:24:03Z</time></trkpt><trkpt lat="45.93007163080578" lon="10.16735301927663"><ele>1320.0</ele><time>2026-03-28T15:24:05Z</time></trkpt><trkpt lat="45.93004641544762" lon="10.167204310348785"><ele>1320.0</ele><time>2026-03-28T15:24:06Z</time></trkpt><trkpt lat="45.930007850956045" lon="10.16705290137192"><ele>1320.0</ele><time>2026-03-28T15:24:07Z</time></trkpt><trkpt lat="45.92993977955069" lon="10.166907255123194"><ele>1320.0</ele><time>2026-03-28T15:24:08Z</time></trkpt><trkpt lat="45.929864356096985" lon="10.166759522709171"><ele>1320.0</ele><time>2026-03-28T15:24:09.001Z</time></trkpt><trkpt lat="45.929777197489294" lon="10.166622502962243"><ele>1322.6</ele><time>2026-03-28T15:24:10.001Z</time></trkpt><trkpt lat="45.92967667993175" lon="10.166489917820387"><ele>1325.2</ele><time>2026-03-28T15:24:11.001Z</time></trkpt><trkpt lat="45.92957754472423" lon="10.166368161190832"><ele>1327.8000000000002</ele><time>2026-03-28T15:24:12.001Z</time></trkpt><trkpt lat="45.92949576926377" lon="10.166282639476135"><ele>1330.4</ele><time>2026-03-28T15:24:13.001Z</time></trkpt><trkpt lat="45.9294377379138" lon="10.16620963097185"><ele>1333.0</ele><time>2026-03-28T15:24:14.001Z</time></trkpt><trkpt lat="45.92939122706791" lon="10.166138697194803"><ele>1333.0</ele><time>2026-03-28T15:24:15.001Z</time></trkpt><trkpt lat="45.929360969532" lon="10.166046358793201"><ele>1333.0</ele><time>2026-03-28T15:24:17.001Z</time></trkpt><trkpt lat="45.92931771024657" lon="10.165954662380372"><ele>1333.0</ele><time>2026-03-28T15:24:19.001Z</time></trkpt><trkpt lat="45.92928098085854" lon="10.165831719931788"><ele>1333.0</ele><time>2026-03-28T15:24:22.001Z</time></trkpt><trkpt lat="45.92919146756736" lon="10.165728483989938"><ele>1333.0</ele><time>2026-03-28T15:24:24.001Z</time></trkpt><trkpt lat="45.929125894084024" lon="10.165687922357792"><ele>1333.0</ele><time>2026-03-28T15:24:25.001Z</time></trkpt><trkpt lat="45.929019619608006" lon="10.165620010610398"><ele>1335.0</ele><time>2026-03-28T15:24:27.001Z</time></trkpt><trkpt lat="45.92895538049476" lon="10.165466435468737"><ele>1337.0</ele><time>2026-03-28T15:24:29.001Z</time></trkpt><trkpt lat="45.92887096320643" lon="10.165374287726271"><ele>1339.0</ele><time>2026-03-28T15:24:31.001Z</time></trkpt><trkpt lat="45.92874410675333" lon="10.165270970021831"><ele>1341.0</ele><time>2026-03-28T15:24:33.001Z</time></trkpt><trkpt lat="45.928656190346985" lon="10.165200046659514"><ele>1341.0</ele><time>2026-03-28T15:24:34.001Z</time></trkpt><trkpt lat="45.92857933800731" lon="10.165057427469234"><ele>1341.0</ele><time>2026-03-28T15:24:36.001Z</time></trkpt><trkpt lat="45.92854560472807" lon="10.164945185118912"><ele>1341.0</ele><time>2026-03-28T15:24:37.001Z</time></trkpt><trkpt lat="45.928509491946706" lon="10.164859109996579"><ele>1341.0</ele><time>2026-03-28T15:24:38.001Z</time></trkpt><trkpt lat="45.928472314769245" lon="10.1647752393974"><ele>1341.0</ele><time>2026-03-28T15:24:39.001Z</time></trkpt><trkpt lat="45.92843263416616" lon="10.164684433213246"><ele>1341.0</ele><time>2026-03-28T15:24:40.001Z</time></trkpt><trkpt lat="45.92839990064449" lon="10.164597316704754"><ele>1344.1666666666667</ele><time>2026-03-28T15:24:41.001Z</time></trkpt><trkpt lat="45.928359884806085" lon="10.164511866251466"><ele>1347.3333333333333</ele><time>2026-03-28T15:24:42.001Z</time></trkpt><trkpt lat="45.92831970126062" lon="10.164433712455057"><ele>1350.5</ele><time>2026-03-28T15:24:43.001Z</time></trkpt><trkpt lat="45.92823551769886" lon="10.164285841725732"><ele>1353.6666666666665</ele><time>2026-03-28T15:24:45.001Z</time></trkpt><trkpt lat="45.928189588050024" lon="10.16421008157254"><ele>1356.8333333333333</ele><time>2026-03-28T15:24:46.001Z</time></trkpt><trkpt lat="45.92814503591257" lon="10.164119907586391"><ele>1360.0</ele><time>2026-03-28T15:24:47.001Z</time></trkpt><trkpt lat="45.92811366987107" lon="10.164025336260945"><ele>1362.75</ele><time>2026-03-28T15:24:48Z</time></trkpt><trkpt lat="45.928067454101" lon="10.163910949772921"><ele>1365.5</ele><time>2026-03-28T15:24:49Z</time></trkpt><trkpt lat="45.92800634740207" lon="10.163720317159056"><ele>1368.25</ele><time>2026-03-28T15:24:50Z</time></trkpt><trkpt lat="45.92795433150508" lon="10.163556325248825"><ele>1371.0</ele><time>2026-03-28T15:24:51Z</time></trkpt><trkpt lat="45.92792509604738" lon="10.163432596544688"><ele>1371.0</ele><time>2026-03-28T15:24:52Z</time></trkpt><trkpt lat="45.927853911041986" lon="10.163334055992026"><ele>1371.0</ele><time>2026-03-28T15:24:53Z</time></trkpt><trkpt lat="45.92778317978763" lon="10.163233549271425"><ele>1371.0</ele><time>2026-03-28T15:24:54Z</time></trkpt><trkpt lat="45.92771341583936" lon="10.163127806809063"><ele>1371.0</ele><time>2026-03-28T15:24:55Z</time></trkpt><trkpt lat="45.9276511041355" lon="10.163080248694493"><ele>1371.0</ele><time>2026-03-28T15:24:56Z</time></trkpt><trkpt lat="45.92758623957224" lon="10.162982877412276"><ele>1373.4</ele><time>2026-03-28T15:24:57Z</time></trkpt><trkpt lat="45.92750528257183" lon="10.16292248274162"><ele>1375.8</ele><time>2026-03-28T15:24:58Z</time></trkpt><trkpt lat="45.92739234113346" lon="10.162868990398357"><ele>1378.2</ele><time>2026-03-28T15:24:59Z</time></trkpt><trkpt lat="45.92731937906545" lon="10.162796641584967"><ele>1380.6000000000001</ele><time>2026-03-28T15:25:00Z</time></trkpt><trkpt lat="45.927200879643976" lon="10.162716425381477"><ele>1383.0</ele><time>2026-03-28T15:25:01Z</time></trkpt><trkpt lat="45.92710297712166" lon="10.162618547084803"><ele>1383.0</ele><time>2026-03-28T15:25:02Z</time></trkpt><trkpt lat="45.92702696769924" lon="10.162483737894746"><ele>1383.0</ele><time>2026-03-28T15:25:04Z</time></trkpt><trkpt lat="45.926987048824934" lon="10.1623979698288"><ele>1383.0</ele><time>2026-03-28T15:25:05Z</time></trkpt><trkpt lat="45.92693621229735" lon="10.16232580695228"><ele>1383.0</ele><time>2026-03-28T15:25:06Z</time></trkpt><trkpt lat="45.92689599584765" lon="10.162226762630477"><ele>1383.0</ele><time>2026-03-28T15:25:07Z</time></trkpt><trkpt lat="45.92687445200919" lon="10.162128642890401"><ele>1383.0</ele><time>2026-03-28T15:25:08Z</time></trkpt><trkpt lat="45.926835160493034" lon="10.162003540053488"><ele>1385.0</ele><time>2026-03-28T15:25:09Z</time></trkpt><trkpt lat="45.92677964167286" lon="10.161828138736993"><ele>1387.0</ele><time>2026-03-28T15:25:10Z</time></trkpt><trkpt lat="45.92672882407893" lon="10.161689104247726"><ele>1389.0</ele><time>2026-03-28T15:25:11Z</time></trkpt><trkpt lat="45.92667778378119" lon="10.161562696902394"><ele>1391.0</ele><time>2026-03-28T15:25:12Z</time></trkpt><trkpt lat="45.92663056403285" lon="10.161451021074368"><ele>1393.0</ele><time>2026-03-28T15:25:13Z</time></trkpt><trkpt lat="45.92659624445797" lon="10.161339101846425"><ele>1396.2</ele><time>2026-03-28T15:25:14Z</time></trkpt><trkpt lat="45.92655888728363" lon="10.16122449991691"><ele>1399.4</ele><time>2026-03-28T15:25:15Z</time></trkpt><trkpt lat="45.9264934509805" lon="10.161094074965758"><ele>1402.6000000000001</ele><time>2026-03-28T15:25:16Z</time></trkpt><trkpt lat="45.926427620146576" lon="10.160985428712602"><ele>1405.8000000000002</ele><time>2026-03-28T15:25:17Z</time></trkpt><trkpt lat="45.92636572377555" lon="10.160911576947772"><ele>1409.0</ele><time>2026-03-28T15:25:18Z</time></trkpt><trkpt lat="45.92629137675529" lon="10.160831626337284"><ele>1409.0</ele><time>2026-03-28T15:25:19Z</time></trkpt><trkpt lat="45.926188081898026" lon="10.160737905003932"><ele>1409.0</ele><time>2026-03-28T15:25:20Z</time></trkpt><trkpt lat="45.926098260015436" lon="10.160662004625618"><ele>1409.0</ele><time>2026-03-28T15:25:21Z</time></trkpt><trkpt lat="45.92604947314796" lon="10.160601775755909"><ele>1409.0</ele><time>2026-03-28T15:25:22Z</time></trkpt><trkpt lat="45.92600108938701" lon="10.160515679523233"><ele>1409.0</ele><time>2026-03-28T15:25:23Z</time></trkpt><trkpt lat="45.92594461358889" lon="10.160428626155483"><ele>1412.0</ele><time>2026-03-28T15:25:24Z</time></trkpt><trkpt lat="45.925929748413004" lon="10.160288953972145"><ele>1415.0</ele><time>2026-03-28T15:25:26Z</time></trkpt><trkpt lat="45.925961006811555" lon="10.160090988398563"><ele>1418.0</ele><time>2026-03-28T15:25:28Z</time></trkpt><trkpt lat="45.92599342592328" lon="10.159986112345546"><ele>1421.0</ele><time>2026-03-28T15:25:29Z</time></trkpt><trkpt lat="45.92605077347296" lon="10.159909517761445"><ele>1424.0</ele><time>2026-03-28T15:25:30Z</time></trkpt><trkpt lat="45.926092911755255" lon="10.159794064038142"><ele>1424.1666666666667</ele><time>2026-03-28T15:25:31Z</time></trkpt><trkpt lat="45.926100874861454" lon="10.15963862166536"><ele>1424.3333333333335</ele><time>2026-03-28T15:25:33.001Z</time></trkpt><trkpt lat="45.92602889189923" lon="10.159568556369946"><ele>1424.5</ele><time>2026-03-28T15:25:35.001Z</time></trkpt><trkpt lat="45.92594415055272" lon="10.159591263240452"><ele>1424.6666666666667</ele><time>2026-03-28T15:25:37.001Z</time></trkpt><trkpt lat="45.925911625560516" lon="10.159680067082167"><ele>1424.8333333333333</ele><time>2026-03-28T15:25:40.001Z</time></trkpt><trkpt lat="45.925872281777984" lon="10.159755496496546"><ele>1425.0</ele><time>2026-03-28T15:26:43.001Z</time></trkpt><trkpt lat="45.92593122186491" lon="10.15982239398578"><ele>1425.0</ele><time>2026-03-28T15:26:46.001Z</time></trkpt><trkpt lat="45.926004399064965" lon="10.159864849774674"><ele>1425.0</ele><time>2026-03-28T15:26:49.001Z</time></trkpt><trkpt lat="45.92606037487893" lon="10.159918644623177"><ele>1425.0</ele><time>2026-03-28T15:26:53.001Z</time></trkpt><trkpt lat="45.926146484980066" lon="10.159973156490068"><ele>1425.0</ele><time>2026-03-28T15:26:56.001Z</time></trkpt><trkpt lat="45.9262097312731" lon="10.159993483483193"><ele>1425.0</ele><time>2026-03-28T15:26:57.001Z</time></trkpt><trkpt lat="45.92628103559707" lon="10.160018246220547"><ele>1425.0</ele><time>2026-03-28T15:26:58.001Z</time></trkpt><trkpt lat="45.92634474027402" lon="10.160090042635328"><ele>1425.0</ele><time>2026-03-28T15:27:00.001Z</time></trkpt><trkpt lat="45.92641200227721" lon="10.160159138946108"><ele>1425.0</ele><time>2026-03-28T15:27:03.001Z</time></trkpt><trkpt lat="45.9264818003602" lon="10.16012503534246"><ele>1425.0</ele><time>2026-03-28T15:27:05.001Z</time></trkpt><trkpt lat="45.92648763300244" lon="10.16000211174428"><ele>1425.0</ele><time>2026-03-28T15:27:07.001Z</time></trkpt><trkpt lat="45.92645831605485" lon="10.159914266208409"><ele>1425.0</ele><time>2026-03-28T15:27:08.001Z</time></trkpt><trkpt lat="45.92642248373987" lon="10.159756705212065"><ele>1425.0</ele><time>2026-03-28T15:27:10.001Z</time></trkpt><trkpt lat="45.92648859762793" lon="10.159678091374763"><ele>1425.0</ele><time>2026-03-28T15:27:13.001Z</time></trkpt><trkpt lat="45.926560861097606" lon="10.159601234872303"><ele>1425.0</ele><time>2026-03-28T15:27:15.001Z</time></trkpt><trkpt lat="45.92659224454782" lon="10.159514957342353"><ele>1425.0</ele><time>2026-03-28T15:27:16.001Z</time></trkpt><trkpt lat="45.92658957358497" lon="10.159415364347101"><ele>1425.0</ele><time>2026-03-28T15:27:17.001Z</time></trkpt><trkpt lat="45.92656356887443" lon="10.15932173634669"><ele>1425.0</ele><time>2026-03-28T15:27:18.001Z</time></trkpt><trkpt lat="45.926474021937544" lon="10.15924673765843"><ele>1425.0</ele><time>2026-03-28T15:27:20.001Z</time></trkpt><trkpt lat="45.92639259011728" lon="10.15917196740433"><ele>1425.0</ele><time>2026-03-28T15:27:22.001Z</time></trkpt><trkpt lat="45.926401339055985" lon="10.159069128929962"><ele>1425.0</ele><time>2026-03-28T15:27:25.001Z</time></trkpt><trkpt lat="45.92644582873167" lon="10.158996486626599"><ele>1425.0</ele><time>2026-03-28T15:27:26.001Z</time></trkpt><trkpt lat="45.926538786958865" lon="10.15893507746394"><ele>1425.0</ele><time>2026-03-28T15:27:27.001Z</time></trkpt><trkpt lat="45.926648201049254" lon="10.158846040607502"><ele>1425.0</ele><time>2026-03-28T15:27:28.001Z</time></trkpt><trkpt lat="45.926713356362455" lon="10.158764546127362"><ele>1425.6</ele><time>2026-03-28T15:27:29.001Z</time></trkpt><trkpt lat="45.92675842173247" lon="10.158671881500172"><ele>1426.2</ele><time>2026-03-28T15:27:30.001Z</time></trkpt><trkpt lat="45.926769149423556" lon="10.158507870620452"><ele>1426.8000000000002</ele><time>2026-03-28T15:27:32.001Z</time></trkpt><trkpt lat="45.92674730377695" lon="10.158417208970507"><ele>1427.4</ele><time>2026-03-28T15:27:33.001Z</time></trkpt><trkpt lat="45.92671945148403" lon="10.158288736002907"><ele>1428.0</ele><time>2026-03-28T15:27:34.001Z</time></trkpt><trkpt lat="45.926688196157116" lon="10.158152314367152"><ele>1435.4</ele><time>2026-03-28T15:27:36.001Z</time></trkpt><trkpt lat="45.9267417165872" lon="10.15806753828485"><ele>1442.8000000000002</ele><time>2026-03-28T15:27:39.001Z</time></trkpt><trkpt lat="45.92681073497853" lon="10.157984799888997"><ele>1450.2</ele><time>2026-03-28T15:27:41.001Z</time></trkpt><trkpt lat="45.926861031176784" lon="10.157884766854668"><ele>1457.6</ele><time>2026-03-28T15:27:43.001Z</time></trkpt><trkpt lat="45.926883561742926" lon="10.157755800481626"><ele>1465.0</ele><time>2026-03-28T15:27:44.001Z</time></trkpt><trkpt lat="45.9269188654288" lon="10.157588165285084"><ele>1465.0</ele><time>2026-03-28T15:27:45.001Z</time></trkpt><trkpt lat="45.92695819300438" lon="10.157396283962214"><ele>1465.0</ele><time>2026-03-28T15:27:46.001Z</time></trkpt><trkpt lat="45.926997534796" lon="10.157222829645388"><ele>1465.0</ele><time>2026-03-28T15:27:47.001Z</time></trkpt><trkpt lat="45.92702933083228" lon="10.157059350541926"><ele>1465.0</ele><time>2026-03-28T15:27:48.001Z</time></trkpt><trkpt lat="45.927036677505626" lon="10.156882002083494"><ele>1464.8</ele><time>2026-03-28T15:27:49.001Z</time></trkpt><trkpt lat="45.92705005654467" lon="10.156697208773926"><ele>1464.6</ele><time>2026-03-28T15:27:50.001Z</time></trkpt><trkpt lat="45.92705464463741" lon="10.156539699757708"><ele>1464.4</ele><time>2026-03-28T15:27:51.001Z</time></trkpt><trkpt lat="45.92707117656256" lon="10.156396065422799"><ele>1464.2</ele><time>2026-03-28T15:27:52.001Z</time></trkpt><trkpt lat="45.92707539245532" lon="10.156256643540603"><ele>1464.0</ele><time>2026-03-28T15:27:53.001Z</time></trkpt><trkpt lat="45.92707272915711" lon="10.156079300674316"><ele>1464.4</ele><time>2026-03-28T15:27:54.001Z</time></trkpt><trkpt lat="45.92709996211711" lon="10.155901301709642"><ele>1464.8000000000002</ele><time>2026-03-28T15:27:55.001Z</time></trkpt><trkpt lat="45.9271359112237" lon="10.155731619388588"><ele>1465.1999999999998</ele><time>2026-03-28T15:27:56.001Z</time></trkpt><trkpt lat="45.92716564180465" lon="10.155575787150601"><ele>1465.6</ele><time>2026-03-28T15:27:57.001Z</time></trkpt><trkpt lat="45.927178707139326" lon="10.15547305810404"><ele>1466.0</ele><time>2026-03-28T15:27:58.001Z</time></trkpt><trkpt lat="45.92721002382407" lon="10.155382399346678"><ele>1466.1999999999998</ele><time>2026-03-28T15:27:59.001Z</time></trkpt><trkpt lat="45.927248041114915" lon="10.155272692132167"><ele>1466.3999999999999</ele><time>2026-03-28T15:28:00.001Z</time></trkpt><trkpt lat="45.92728794725229" lon="10.155172538925815"><ele>1466.6</ele><time>2026-03-28T15:28:01.001Z</time></trkpt><trkpt lat="45.927313500864024" lon="10.155085781748076"><ele>1466.8</ele><time>2026-03-28T15:28:02.001Z</time></trkpt><trkpt lat="45.92735354694468" lon="10.154933714310216"><ele>1467.0</ele><time>2026-03-28T15:28:04.001Z</time></trkpt><trkpt lat="45.92738800858847" lon="10.154777857814782"><ele>1467.0</ele><time>2026-03-28T15:28:06.001Z</time></trkpt><trkpt lat="45.92739731179928" lon="10.154682352755666"><ele>1467.0</ele><time>2026-03-28T15:28:07.001Z</time></trkpt><trkpt lat="45.92736789722323" lon="10.154578513232302"><ele>1467.0</ele><time>2026-03-28T15:28:09.001Z</time></trkpt><trkpt lat="45.92737536013762" lon="10.154439233300891"><ele>1467.0</ele><time>2026-03-28T15:28:11.001Z</time></trkpt><trkpt lat="45.92739688211434" lon="10.154335639145785"><ele>1467.0</ele><time>2026-03-28T15:28:12.001Z</time></trkpt><trkpt lat="45.92740975179223" lon="10.154236941185859"><ele>1467.0</ele><time>2026-03-28T15:28:14.001Z</time></trkpt><trkpt lat="45.927459009596596" lon="10.15415001677136"><ele>1467.0</ele><time>2026-03-28T15:28:18.001Z</time></trkpt><trkpt lat="45.927484277224316" lon="10.154060269838306"><ele>1467.0</ele><time>2026-03-28T15:28:21.001Z</time></trkpt><trkpt lat="45.92753334211943" lon="10.153926115483005"><ele>1467.0</ele><time>2026-03-28T15:28:27.001Z</time></trkpt><trkpt lat="45.9275894621478" lon="10.15381432998053"><ele>1467.0</ele><time>2026-03-28T15:28:28.001Z</time></trkpt><trkpt lat="45.92765483496447" lon="10.153686704996518"><ele>1467.0</ele><time>2026-03-28T15:28:29.001Z</time></trkpt><trkpt lat="45.927715905526306" lon="10.153502574843193"><ele>1468.3333333333333</ele><time>2026-03-28T15:28:30.001Z</time></trkpt><trkpt lat="45.927783711094264" lon="10.15326167384341"><ele>1469.6666666666665</ele><time>2026-03-28T15:28:31.001Z</time></trkpt><trkpt lat="45.92786524080317" lon="10.153006145627984"><ele>1471.0</ele><time>2026-03-28T15:28:32.001Z</time></trkpt><trkpt lat="45.92790989399104" lon="10.152840020037848"><ele>1471.0</ele><time>2026-03-28T15:28:33.001Z</time></trkpt><trkpt lat="45.92793873415874" lon="10.15273639811714"><ele>1471.0</ele><time>2026-03-28T15:28:34.001Z</time></trkpt><trkpt lat="45.927936109438335" lon="10.152627200966894"><ele>1471.0</ele><time>2026-03-28T15:28:36.001Z</time></trkpt><trkpt lat="45.92794494732382" lon="10.152502914908972"><ele>1471.0</ele><time>2026-03-28T15:28:38.001Z</time></trkpt><trkpt lat="45.927979146655794" lon="10.152422741016293"><ele>1471.0</ele><time>2026-03-28T15:28:39.001Z</time></trkpt><trkpt lat="45.92803055505264" lon="10.152354018541756"><ele>1471.0</ele><time>2026-03-28T15:28:40.001Z</time></trkpt><trkpt lat="45.928088639136085" lon="10.152260484363762"><ele>1472.0</ele><time>2026-03-28T15:28:41.001Z</time></trkpt><trkpt lat="45.92815404729163" lon="10.15217836423721"><ele>1473.0</ele><time>2026-03-28T15:28:42.001Z</time></trkpt><trkpt lat="45.92823818547683" lon="10.15209888570702"><ele>1474.0</ele><time>2026-03-28T15:28:43.001Z</time></trkpt><trkpt lat="45.928328473351414" lon="10.15199021292731"><ele>1475.0</ele><time>2026-03-28T15:28:44.001Z</time></trkpt><trkpt lat="45.92840746098674" lon="10.151867150292222"><ele>1476.0</ele><time>2026-03-28T15:28:45.001Z</time></trkpt><trkpt lat="45.92849261859285" lon="10.151726898220177"><ele>1479.0</ele><time>2026-03-28T15:28:46.001Z</time></trkpt><trkpt lat="45.928607396422365" lon="10.151549267218432"><ele>1482.0</ele><time>2026-03-28T15:28:47.001Z</time></trkpt><trkpt lat="45.92874940612305" lon="10.151355033109123"><ele>1485.0</ele><time>2026-03-28T15:28:48.001Z</time></trkpt><trkpt lat="45.9288625680738" lon="10.151164668520703"><ele>1486.25</ele><time>2026-03-28T15:28:49.001Z</time></trkpt><trkpt lat="45.92895458852251" lon="10.150967696496076"><ele>1487.5</ele><time>2026-03-28T15:28:50.001Z</time></trkpt><trkpt lat="45.929033364292785" lon="10.150818216796178"><ele>1488.75</ele><time>2026-03-28T15:28:51.001Z</time></trkpt><trkpt lat="45.92910225419049" lon="10.150744432219124"><ele>1490.0</ele><time>2026-03-28T15:28:52.001Z</time></trkpt><trkpt lat="45.92916426678961" lon="10.150675629884798"><ele>1490.2</ele><time>2026-03-28T15:28:53.001Z</time></trkpt><trkpt lat="45.929221092280535" lon="10.150628437547518"><ele>1490.4</ele><time>2026-03-28T15:28:54.001Z</time></trkpt><trkpt lat="45.92932257008621" lon="10.15059547819415"><ele>1490.6</ele><time>2026-03-28T15:28:56.001Z</time></trkpt><trkpt lat="45.92943240740245" lon="10.150542022355362"><ele>1490.8</ele><time>2026-03-28T15:28:58.001Z</time></trkpt><trkpt lat="45.929532182846465" lon="10.150420221185788"><ele>1491.0</ele><time>2026-03-28T15:29:00.001Z</time></trkpt><trkpt lat="45.929590671146585" lon="10.150367723421729"><ele>1491.4</ele><time>2026-03-28T15:29:01.001Z</time></trkpt><trkpt lat="45.92965826835188" lon="10.15033932879887"><ele>1491.8</ele><time>2026-03-28T15:29:02.001Z</time></trkpt><trkpt lat="45.929728502223675" lon="10.150308484178623"><ele>1492.2</ele><time>2026-03-28T15:29:03.001Z</time></trkpt><trkpt lat="45.92982599296843" lon="10.15033836881227"><ele>1492.6000000000001</ele><time>2026-03-28T15:29:05.001Z</time></trkpt><trkpt lat="45.92985530518342" lon="10.150521318383124"><ele>1493.0</ele><time>2026-03-28T15:29:07.001Z</time></trkpt><trkpt lat="45.929888126710225" lon="10.15063226143089"><ele>1493.0</ele><time>2026-03-28T15:29:09.001Z</time></trkpt><trkpt lat="45.92992915574297" lon="10.1507035386952"><ele>1493.0</ele><time>2026-03-28T15:29:10.001Z</time></trkpt><trkpt lat="45.92999780497354" lon="10.150775854324124"><ele>1493.0</ele><time>2026-03-28T15:29:11.001Z</time></trkpt><trkpt lat="45.93008771906431" lon="10.150807078883362"><ele>1493.0</ele><time>2026-03-28T15:29:12.001Z</time></trkpt><trkpt lat="45.93017704158161" lon="10.150827045759192"><ele>1493.0</ele><time>2026-03-28T15:29:13.001Z</time></trkpt><trkpt lat="45.93026276841967" lon="10.1508453923305"><ele>1493.0</ele><time>2026-03-28T15:29:14.001Z</time></trkpt><trkpt lat="45.93039071126331" lon="10.150829647785859"><ele>1496.8000000000002</ele><time>2026-03-28T15:29:15.001Z</time></trkpt><trkpt lat="45.93054846649604" lon="10.150822881419275"><ele>1500.6</ele><time>2026-03-28T15:29:16.001Z</time></trkpt><trkpt lat="45.93064368750946" lon="10.150821116508666"><ele>1504.4</ele><time>2026-03-28T15:29:17.001Z</time></trkpt><trkpt lat="45.93072404955148" lon="10.15082883395832"><ele>1508.1999999999998</ele><time>2026-03-28T15:29:18.001Z</time></trkpt><trkpt lat="45.93079661177273" lon="10.150850604586527"><ele>1512.0</ele><time>2026-03-28T15:29:19.001Z</time></trkpt><trkpt lat="45.93087270409992" lon="10.150887937034486"><ele>1513.5</ele><time>2026-03-28T15:29:20.001Z</time></trkpt><trkpt lat="45.93102147134427" lon="10.150956556368556"><ele>1515.0</ele><time>2026-03-28T15:29:22.001Z</time></trkpt><trkpt lat="45.931144794015296" lon="10.151014501435665"><ele>1516.5</ele><time>2026-03-28T15:29:24.001Z</time></trkpt><trkpt lat="45.93124537356422" lon="10.151035013222721"><ele>1518.0</ele><time>2026-03-28T15:29:25.001Z</time></trkpt><trkpt lat="45.93131660288384" lon="10.15103657563069"><ele>1518.0</ele><time>2026-03-28T15:29:26.001Z</time></trkpt><trkpt lat="45.931415313635775" lon="10.151019441331563"><ele>1518.0</ele><time>2026-03-28T15:29:27.001Z</time></trkpt><trkpt lat="45.93150155032151" lon="10.15098464454559"><ele>1518.0</ele><time>2026-03-28T15:29:28.001Z</time></trkpt><trkpt lat="45.93161141611307" lon="10.150979733328017"><ele>1518.0</ele><time>2026-03-28T15:29:29.001Z</time></trkpt><trkpt lat="45.931734602980214" lon="10.150968586768025"><ele>1518.0</ele><time>2026-03-28T15:29:30.001Z</time></trkpt><trkpt lat="45.93187077379226" lon="10.150961205340815"><ele>1519.0</ele><time>2026-03-28T15:29:31.001Z</time></trkpt><trkpt lat="45.93202392991258" lon="10.15092939149157"><ele>1520.0</ele><time>2026-03-28T15:29:32.001Z</time></trkpt><trkpt lat="45.93214304104618" lon="10.150886325643361"><ele>1521.0</ele><time>2026-03-28T15:29:33.001Z</time></trkpt><trkpt lat="45.93226942548637" lon="10.15086042580922"><ele>1522.0</ele><time>2026-03-28T15:29:34.001Z</time></trkpt><trkpt lat="45.93236424924858" lon="10.150825442033645"><ele>1522.0</ele><time>2026-03-28T15:29:35.001Z</time></trkpt><trkpt lat="45.93243999124146" lon="10.15079297237057"><ele>1522.0</ele><time>2026-03-28T15:29:36.001Z</time></trkpt><trkpt lat="45.93252399044427" lon="10.150762472439755"><ele>1522.0</ele><time>2026-03-28T15:29:37.001Z</time></trkpt><trkpt lat="45.93258887277448" lon="10.150755120645325"><ele>1522.0</ele><time>2026-03-28T15:29:38.001Z</time></trkpt><trkpt lat="45.93269358412691" lon="10.15077168728456"><ele>1522.0</ele><time>2026-03-28T15:29:40.001Z</time></trkpt><trkpt lat="45.93272423742418" lon="10.150868964464573"><ele>1522.0</ele><time>2026-03-28T15:29:42.001Z</time></trkpt><trkpt lat="45.932716843875504" lon="10.150982426669247"><ele>1521.5</ele><time>2026-03-28T15:29:46.001Z</time></trkpt><trkpt lat="45.93271979412787" lon="10.15113779971555"><ele>1521.0</ele><time>2026-03-28T15:29:49.001Z</time></trkpt><trkpt lat="45.93275675576391" lon="10.151229410922236"><ele>1520.5</ele><time>2026-03-28T15:29:50.001Z</time></trkpt><trkpt lat="45.93280336317353" lon="10.151370406085476"><ele>1520.0</ele><time>2026-03-28T15:29:52.001Z</time></trkpt><trkpt lat="45.93279478571719" lon="10.151471583604051"><ele>1519.5</ele><time>2026-03-28T15:29:54.001Z</time></trkpt><trkpt lat="45.93277685979172" lon="10.151561929441922"><ele>1519.0</ele><time>2026-03-28T15:29:57.001Z</time></trkpt><trkpt lat="45.93275464384435" lon="10.15167273894256"><ele>1520.8333333333333</ele><time>2026-03-28T15:30:00.001Z</time></trkpt><trkpt lat="45.93277404568342" lon="10.151788956177233"><ele>1522.6666666666665</ele><time>2026-03-28T15:30:04.001Z</time></trkpt><trkpt lat="45.93276590792929" lon="10.151926558380074"><ele>1524.5</ele><time>2026-03-28T15:30:07.001Z</time></trkpt><trkpt lat="45.93273070747164" lon="10.152024201793061"><ele>1526.3333333333333</ele><time>2026-03-28T15:30:10.001Z</time></trkpt><trkpt lat="45.93272772562532" lon="10.152121589436145"><ele>1528.1666666666667</ele><time>2026-03-28T15:30:13.001Z</time></trkpt><trkpt lat="45.932749905409494" lon="10.152248063224167"><ele>1530.0</ele><time>2026-03-28T15:30:15.001Z</time></trkpt><trkpt lat="45.93281872305344" lon="10.152403927791779"><ele>1530.6666666666667</ele><time>2026-03-28T15:30:17.001Z</time></trkpt><trkpt lat="45.93285016355623" lon="10.152554800635109"><ele>1531.3333333333333</ele><time>2026-03-28T15:30:19.001Z</time></trkpt><trkpt lat="45.9328794725552" lon="10.152707338315599"><ele>1532.0</ele><time>2026-03-28T15:30:21.001Z</time></trkpt><trkpt lat="45.93291650338369" lon="10.152806007705507"><ele>1532.6666666666665</ele><time>2026-03-28T15:30:24.001Z</time></trkpt><trkpt lat="45.93292943446294" lon="10.152895845638039"><ele>1533.3333333333333</ele><time>2026-03-28T15:30:26.001Z</time></trkpt><trkpt lat="45.93290415682978" lon="10.153001830487188"><ele>1534.0</ele><time>2026-03-28T15:30:28.001Z</time></trkpt><trkpt lat="45.93289946933217" lon="10.153121293007054"><ele>1534.6666666666665</ele><time>2026-03-28T15:30:30.001Z</time></trkpt><trkpt lat="45.93290928037481" lon="10.153250444270714"><ele>1535.3333333333333</ele><time>2026-03-28T15:30:32.001Z</time></trkpt><trkpt lat="45.93288901610962" lon="10.15337254381706"><ele>1536.0</ele><time>2026-03-28T15:30:34.001Z</time></trkpt><trkpt lat="45.932864319478384" lon="10.15350878476871"><ele>1536.6666666666665</ele><time>2026-03-28T15:30:36.001Z</time></trkpt><trkpt lat="45.932837409556946" lon="10.153611569235318"><ele>1537.3333333333333</ele><time>2026-03-28T15:30:39.001Z</time></trkpt><trkpt lat="45.93281322603242" lon="10.153706023950399"><ele>1538.0</ele><time>2026-03-28T15:30:43.001Z</time></trkpt><trkpt lat="45.932733011332026" lon="10.153829205526169"><ele>1537.9999999999998</ele><time>2026-03-28T15:30:46.001Z</time></trkpt><trkpt lat="45.932685698514774" lon="10.153966849919259"><ele>1538.0</ele><time>2026-03-28T15:30:50.001Z</time></trkpt><trkpt lat="45.93263488990363" lon="10.154052429606203"><ele>1538.0</ele><time>2026-03-28T15:30:53.001Z</time></trkpt><trkpt lat="45.9326232102438" lon="10.154154781941378"><ele>1538.0</ele><time>2026-03-28T15:30:55.001Z</time></trkpt><trkpt lat="45.93259791774251" lon="10.154252736671923"><ele>1537.9999999999998</ele><time>2026-03-28T15:30:57.001Z</time></trkpt><trkpt lat="45.93257411050076" lon="10.154407034930017"><ele>1538.0</ele><time>2026-03-28T15:31:00.001Z</time></trkpt><trkpt lat="45.93255072273386" lon="10.154502564765039"><ele>1541.3333333333333</ele><time>2026-03-28T15:31:01.001Z</time></trkpt><trkpt lat="45.93249599167665" lon="10.154621542434304"><ele>1544.6666666666665</ele><time>2026-03-28T15:31:03.001Z</time></trkpt><trkpt lat="45.93248871695186" lon="10.154721407942185"><ele>1548.0</ele><time>2026-03-28T15:31:04.001Z</time></trkpt><trkpt lat="45.93244861564798" lon="10.154872570641317"><ele>1551.3333333333335</ele><time>2026-03-28T15:31:06.001Z</time></trkpt><trkpt lat="45.9324585600768" lon="10.154984423406725"><ele>1554.6666666666667</ele><time>2026-03-28T15:31:08.001Z</time></trkpt><trkpt lat="45.932502365836264" lon="10.15505452471868"><ele>1558.0</ele><time>2026-03-28T15:31:21Z</time></trkpt><trkpt lat="45.932514567254124" lon="10.155146528465885"><ele>1558.1666666666667</ele><time>2026-03-28T15:31:44Z</time></trkpt><trkpt lat="45.93253192964966" lon="10.155236204881044"><ele>1558.3333333333335</ele><time>2026-03-28T15:32:12Z</time></trkpt><trkpt lat="45.93249603181049" lon="10.155319642298759"><ele>1558.5</ele><time>2026-03-28T15:32:23Z</time></trkpt><trkpt lat="45.93255569158324" lon="10.155402137731361"><ele>1558.6666666666665</ele><time>2026-03-28T15:32:26Z</time></trkpt><trkpt lat="45.93263410380017" lon="10.15542993127606"><ele>1558.8333333333333</ele><time>2026-03-28T15:32:29Z</time></trkpt><trkpt lat="45.932715520913746" lon="10.155474796006283"><ele>1559.0</ele><time>2026-03-28T15:32:46Z</time></trkpt><trkpt lat="45.93270231234172" lon="10.15557472379928"><ele>1559.1666666666665</ele><time>2026-03-28T15:32:50Z</time></trkpt><trkpt lat="45.932696496116364" lon="10.155667467841235"><ele>1559.3333333333333</ele><time>2026-03-28T15:32:53Z</time></trkpt><trkpt lat="45.93263675389291" lon="10.155774457048109"><ele>1559.5</ele><time>2026-03-28T15:32:56Z</time></trkpt><trkpt lat="45.93259934235211" lon="10.155869429934645"><ele>1559.6666666666665</ele><time>2026-03-28T15:32:59Z</time></trkpt><trkpt lat="45.9325719473438" lon="10.155969270490678"><ele>1559.8333333333333</ele><time>2026-03-28T15:33:02Z</time></trkpt><trkpt lat="45.93248199631373" lon="10.155966181195243"><ele>1560.0</ele><time>2026-03-28T15:33:05Z</time></trkpt><trkpt lat="45.932421115381175" lon="10.155941082886647"><ele>1560.0</ele><time>2026-03-28T15:33:07Z</time></trkpt><trkpt lat="45.93234865882116" lon="10.155863889530409"><ele>1560.0</ele><time>2026-03-28T15:33:10Z</time></trkpt><trkpt lat="45.93230659906413" lon="10.155750554286099"><ele>1560.0</ele><time>2026-03-28T15:33:13Z</time></trkpt><trkpt lat="45.932353797950405" lon="10.155676553833743"><ele>1560.0</ele><time>2026-03-28T15:33:16Z</time></trkpt><trkpt lat="45.932416004453515" lon="10.155626436632678"><ele>1560.0</ele><time>2026-03-28T15:33:20Z</time></trkpt><trkpt lat="45.9324892326421" lon="10.155613166694183"><ele>1560.0</ele><time>2026-03-28T15:34:06Z</time></trkpt><trkpt lat="45.93255313747243" lon="10.155565161462802"><ele>1558.142857142857</ele><time>2026-03-28T15:34:10Z</time></trkpt><trkpt lat="45.93257749936834" lon="10.15545981506546"><ele>1556.2857142857142</ele><time>2026-03-28T15:34:13Z</time></trkpt><trkpt lat="45.93263003917923" lon="10.155386579247873"><ele>1554.4285714285716</ele><time>2026-03-28T15:34:16Z</time></trkpt><trkpt lat="45.932657983541425" lon="10.155284396516546"><ele>1552.5714285714284</ele><time>2026-03-28T15:34:19Z</time></trkpt><trkpt lat="45.93270494961503" lon="10.155213036603396"><ele>1550.7142857142858</ele><time>2026-03-28T15:34:22Z</time></trkpt><trkpt lat="45.93270589303991" lon="10.155112225502515"><ele>1548.857142857143</ele><time>2026-03-28T15:34:26Z</time></trkpt><trkpt lat="45.932689362979154" lon="10.155005975164448"><ele>1547.0</ele><time>2026-03-28T15:34:31Z</time></trkpt><trkpt lat="45.932641917025286" lon="10.15490179265455"><ele>1545.8333333333333</ele><time>2026-03-28T15:34:52Z</time></trkpt><trkpt lat="45.93261627704626" lon="10.154794729839558"><ele>1544.6666666666665</ele><time>2026-03-28T15:34:55Z</time></trkpt><trkpt lat="45.932638379172516" lon="10.154691348540819"><ele>1543.5</ele><time>2026-03-28T15:34:57Z</time></trkpt><trkpt lat="45.93268933776599" lon="10.154572599333012"><ele>1542.3333333333335</ele><time>2026-03-28T15:34:59Z</time></trkpt><trkpt lat="45.932704147424204" lon="10.154434104660485"><ele>1541.1666666666667</ele><time>2026-03-28T15:35:01Z</time></trkpt><trkpt lat="45.932734026650934" lon="10.154315456524659"><ele>1540.0</ele><time>2026-03-28T15:35:03Z</time></trkpt><trkpt lat="45.93275624738696" lon="10.154216854231906"><ele>1540.0000000000002</ele><time>2026-03-28T15:35:05Z</time></trkpt><trkpt lat="45.932785151662685" lon="10.154092658431333"><ele>1540.0</ele><time>2026-03-28T15:35:07Z</time></trkpt><trkpt lat="45.93283149662601" lon="10.153999580836567"><ele>1540.0</ele><time>2026-03-28T15:35:10Z</time></trkpt><trkpt lat="45.93283481741084" lon="10.153892975887224"><ele>1540.0</ele><time>2026-03-28T15:35:12Z</time></trkpt><trkpt lat="45.93286507818068" lon="10.153758846192588"><ele>1540.0000000000002</ele><time>2026-03-28T15:35:14Z</time></trkpt><trkpt lat="45.93292460942529" lon="10.153635308738954"><ele>1540.0</ele><time>2026-03-28T15:35:18Z</time></trkpt><trkpt lat="45.93293891439815" lon="10.153518014628354"><ele>1539.6666666666667</ele><time>2026-03-28T15:35:20Z</time></trkpt><trkpt lat="45.93294947148375" lon="10.153420371445705"><ele>1539.3333333333335</ele><time>2026-03-28T15:35:23Z</time></trkpt><trkpt lat="45.932957080606016" lon="10.153319294481372"><ele>1539.0</ele><time>2026-03-28T15:35:24Z</time></trkpt><trkpt lat="45.93298648703689" lon="10.153217348628969"><ele>1538.6666666666665</ele><time>2026-03-28T15:35:26Z</time></trkpt><trkpt lat="45.93302246729641" lon="10.153079003536115"><ele>1538.3333333333333</ele><time>2026-03-28T15:35:30Z</time></trkpt><trkpt lat="45.93298685225218" lon="10.15295220371015"><ele>1538.0</ele><time>2026-03-28T15:35:32Z</time></trkpt><trkpt lat="45.932994475530506" lon="10.152794816213852"><ele>1537.3333333333333</ele><time>2026-03-28T15:35:34Z</time></trkpt><trkpt lat="45.93296396516183" lon="10.15263978057748"><ele>1536.6666666666665</ele><time>2026-03-28T15:35:36Z</time></trkpt><trkpt lat="45.93294030482187" lon="10.15253461129729"><ele>1536.0</ele><time>2026-03-28T15:35:37Z</time></trkpt><trkpt lat="45.932900416253396" lon="10.15243363056938"><ele>1535.3333333333333</ele><time>2026-03-28T15:35:38Z</time></trkpt><trkpt lat="45.93286824501973" lon="10.152299107361701"><ele>1534.6666666666665</ele><time>2026-03-28T15:35:40Z</time></trkpt><trkpt lat="45.932838802246245" lon="10.15221714681763"><ele>1534.0</ele><time>2026-03-28T15:35:43Z</time></trkpt><trkpt lat="45.93281703907017" lon="10.15205713939923"><ele>1533.2</ele><time>2026-03-28T15:35:46Z</time></trkpt><trkpt lat="45.932791400346915" lon="10.151973903177746"><ele>1532.4</ele><time>2026-03-28T15:35:50Z</time></trkpt><trkpt lat="45.932789765688" lon="10.151655857764261"><ele>1531.6</ele><time>2026-03-28T15:35:51Z</time></trkpt><trkpt lat="45.93278453614496" lon="10.151543912398552"><ele>1530.8</ele><time>2026-03-28T15:35:54Z</time></trkpt><trkpt lat="45.93281141238056" lon="10.151439832261573"><ele>1530.0</ele><time>2026-03-28T15:35:56Z</time></trkpt><trkpt lat="45.93283371452148" lon="10.151343838191652"><ele>1528.1666666666667</ele><time>2026-03-28T15:35:57Z</time></trkpt><trkpt lat="45.93281766809857" lon="10.151217146036611"><ele>1526.3333333333333</ele><time>2026-03-28T15:35:59Z</time></trkpt><trkpt lat="45.932771341591916" lon="10.15111389803741"><ele>1524.5</ele><time>2026-03-28T15:36:02Z</time></trkpt><trkpt lat="45.93274738970152" lon="10.15101486566205"><ele>1522.6666666666665</ele><time>2026-03-28T15:36:04Z</time></trkpt><trkpt lat="45.932789802272254" lon="10.150932799258072"><ele>1520.8333333333333</ele><time>2026-03-28T15:36:07Z</time></trkpt><trkpt lat="45.932748886045964" lon="10.15085126007299"><ele>1519.0</ele><time>2026-03-28T15:36:09Z</time></trkpt><trkpt lat="45.932667163494074" lon="10.150845836815865"><ele>1519.0</ele><time>2026-03-28T15:36:11Z</time></trkpt><trkpt lat="45.93259536648321" lon="10.150788086813483"><ele>1519.0</ele><time>2026-03-28T15:36:13Z</time></trkpt><trkpt lat="45.932479921965395" lon="10.150712055094942"><ele>1519.0</ele><time>2026-03-28T15:36:15Z</time></trkpt><trkpt lat="45.93239999580466" lon="10.150700056352616"><ele>1519.0</ele><time>2026-03-28T15:36:16Z</time></trkpt><trkpt lat="45.932305636197555" lon="10.150706688087952"><ele>1519.0</ele><time>2026-03-28T15:36:17Z</time></trkpt><trkpt lat="45.93218811872297" lon="10.150743995975759"><ele>1518.6666666666665</ele><time>2026-03-28T15:36:18Z</time></trkpt><trkpt lat="45.932021637803345" lon="10.150760933033352"><ele>1518.3333333333333</ele><time>2026-03-28T15:36:19Z</time></trkpt><trkpt lat="45.93182556529773" lon="10.150773827775929"><ele>1518.0</ele><time>2026-03-28T15:36:20Z</time></trkpt><trkpt lat="45.93168695708177" lon="10.150760646407809"><ele>1518.0</ele><time>2026-03-28T15:36:21Z</time></trkpt><trkpt lat="45.931583099385065" lon="10.150782387349231"><ele>1518.0</ele><time>2026-03-28T15:36:22Z</time></trkpt><trkpt lat="45.93147455077959" lon="10.150811301646446"><ele>1518.0</ele><time>2026-03-28T15:36:23Z</time></trkpt><trkpt lat="45.93139596168578" lon="10.150832630685148"><ele>1518.0</ele><time>2026-03-28T15:36:24Z</time></trkpt><trkpt lat="45.93130014885568" lon="10.15085370602253"><ele>1518.0</ele><time>2026-03-28T15:36:25Z</time></trkpt><trkpt lat="45.93117825626834" lon="10.150879972795238"><ele>1518.0</ele><time>2026-03-28T15:36:26Z</time></trkpt><trkpt lat="45.93106530253655" lon="10.150886177604265"><ele>1518.0</ele><time>2026-03-28T15:36:27Z</time></trkpt><trkpt lat="45.93096808220757" lon="10.15090190819031"><ele>1518.0</ele><time>2026-03-28T15:36:28Z</time></trkpt><trkpt lat="45.930884355955236" lon="10.15090186482331"><ele>1518.0</ele><time>2026-03-28T15:36:29Z</time></trkpt><trkpt lat="45.930773027238764" lon="10.15078053264205"><ele>1518.0</ele><time>2026-03-28T15:36:31Z</time></trkpt><trkpt lat="45.93069650718665" lon="10.150693897123723"><ele>1511.5</ele><time>2026-03-28T15:36:32Z</time></trkpt><trkpt lat="45.930597316685386" lon="10.150685264256278"><ele>1505.0</ele><time>2026-03-28T15:36:33Z</time></trkpt><trkpt lat="45.93048082683209" lon="10.150681121352005"><ele>1498.5</ele><time>2026-03-28T15:36:34Z</time></trkpt><trkpt lat="45.93033368633024" lon="10.15069441147873"><ele>1492.0</ele><time>2026-03-28T15:36:35Z</time></trkpt><trkpt lat="45.93021977308839" lon="10.150683559094956"><ele>1492.142857142857</ele><time>2026-03-28T15:36:36Z</time></trkpt><trkpt lat="45.93013670564647" lon="10.150721732113045"><ele>1492.2857142857142</ele><time>2026-03-28T15:36:37Z</time></trkpt><trkpt lat="45.930066931306065" lon="10.150733816331796"><ele>1492.4285714285716</ele><time>2026-03-28T15:36:38Z</time></trkpt><trkpt lat="45.92999751714851" lon="10.150721226138458"><ele>1492.5714285714284</ele><time>2026-03-28T15:36:39Z</time></trkpt><trkpt lat="45.929942856996256" lon="10.150676004457562"><ele>1492.7142857142856</ele><time>2026-03-28T15:36:40Z</time></trkpt><trkpt lat="45.929893864763116" lon="10.150602826150498"><ele>1492.857142857143</ele><time>2026-03-28T15:36:41Z</time></trkpt><trkpt lat="45.92985253667882" lon="10.150498281602045"><ele>1493.0</ele><time>2026-03-28T15:36:42Z</time></trkpt><trkpt lat="45.929815034426404" lon="10.150395956966074"><ele>1493.0</ele><time>2026-03-28T15:36:43Z</time></trkpt><trkpt lat="45.929780244987825" lon="10.15031026765445"><ele>1493.0</ele><time>2026-03-28T15:36:44Z</time></trkpt><trkpt lat="45.929694263565985" lon="10.150229637851869"><ele>1493.0</ele><time>2026-03-28T15:36:46Z</time></trkpt><trkpt lat="45.92961955838758" lon="10.150267323961266"><ele>1493.0</ele><time>2026-03-28T15:36:47Z</time></trkpt><trkpt lat="45.92954805689533" lon="10.150335777354144"><ele>1493.0</ele><time>2026-03-28T15:36:48Z</time></trkpt><trkpt lat="45.92947286443943" lon="10.150395434162625"><ele>1493.0</ele><time>2026-03-28T15:36:49Z</time></trkpt><trkpt lat="45.92940344424367" lon="10.15045609109517"><ele>1493.0</ele><time>2026-03-28T15:36:50Z</time></trkpt><trkpt lat="45.92935333238533" lon="10.15054378720134"><ele>1493.0</ele><time>2026-03-28T15:36:51Z</time></trkpt><trkpt lat="45.92926570306611" lon="10.1505865193484"><ele>1493.0</ele><time>2026-03-28T15:36:53Z</time></trkpt><trkpt lat="45.92921921507056" lon="10.150519463757272"><ele>1493.0</ele><time>2026-03-28T15:36:55Z</time></trkpt><trkpt lat="45.929232777499585" lon="10.150376918317516"><ele>1493.0</ele><time>2026-03-28T15:36:57Z</time></trkpt><trkpt lat="45.92927118887269" lon="10.150293867456446"><ele>1493.0</ele><time>2026-03-28T15:37:03Z</time></trkpt><trkpt lat="45.929355765723045" lon="10.150279780804143"><ele>1493.0</ele><time>2026-03-28T15:37:30Z</time></trkpt><trkpt lat="45.9294356204342" lon="10.150345449098326"><ele>1493.0</ele><time>2026-03-28T15:37:32Z</time></trkpt><trkpt lat="45.92947238238344" lon="10.150438706294281"><ele>1493.0</ele><time>2026-03-28T15:37:35Z</time></trkpt><trkpt lat="45.92944311391669" lon="10.150524971450391"><ele>1493.0</ele><time>2026-03-28T15:37:37Z</time></trkpt><trkpt lat="45.929334118250125" lon="10.150565489823894"><ele>1493.0</ele><time>2026-03-28T15:37:39Z</time></trkpt><trkpt lat="45.92924556174356" lon="10.150526025309565"><ele>1493.0</ele><time>2026-03-28T15:37:41Z</time></trkpt><trkpt lat="45.92924269922814" lon="10.150422992387368"><ele>1493.0</ele><time>2026-03-28T15:37:43Z</time></trkpt><trkpt lat="45.92927780279795" lon="10.150342538940532"><ele>1493.0</ele><time>2026-03-28T15:37:44Z</time></trkpt><trkpt lat="45.929313086004115" lon="10.150265910089244"><ele>1493.0</ele><time>2026-03-28T15:37:45Z</time></trkpt><trkpt lat="45.92936130619947" lon="10.150141955958185"><ele>1493.0</ele><time>2026-03-28T15:37:47Z</time></trkpt><trkpt lat="45.929396505626585" lon="10.150045879347632"><ele>1493.0</ele><time>2026-03-28T15:37:48Z</time></trkpt><trkpt lat="45.92943746681662" lon="10.14996415346978"><ele>1493.0</ele><time>2026-03-28T15:37:49Z</time></trkpt><trkpt lat="45.92948428263943" lon="10.149866690752958"><ele>1489.8000000000002</ele><time>2026-03-28T15:37:50Z</time></trkpt><trkpt lat="45.92951155505968" lon="10.149775054372594"><ele>1486.6</ele><time>2026-03-28T15:37:51Z</time></trkpt><trkpt lat="45.9295418062276" lon="10.149690052668975"><ele>1483.4</ele><time>2026-03-28T15:37:52Z</time></trkpt><trkpt lat="45.92959725295898" lon="10.149562591343003"><ele>1480.1999999999998</ele><time>2026-03-28T15:37:54Z</time></trkpt><trkpt lat="45.929708828631405" lon="10.14952099656102"><ele>1477.0</ele><time>2026-03-28T15:37:56Z</time></trkpt><trkpt lat="45.929788976509165" lon="10.149419509362573"><ele>1477.0</ele><time>2026-03-28T15:37:58Z</time></trkpt><trkpt lat="45.929795204773406" lon="10.149307605807566"><ele>1477.0</ele><time>2026-03-28T15:38:00Z</time></trkpt><trkpt lat="45.92990938042048" lon="10.149251428743387"><ele>1477.0</ele><time>2026-03-28T15:38:02Z</time></trkpt><trkpt lat="45.929975576710994" lon="10.149197741916458"><ele>1477.0</ele><time>2026-03-28T15:38:03Z</time></trkpt><trkpt lat="45.930050368011294" lon="10.1491718041602"><ele>1477.0</ele><time>2026-03-28T15:38:04Z</time></trkpt><trkpt lat="45.93013338192373" lon="10.149130745320116"><ele>1477.0</ele><time>2026-03-28T15:38:05Z</time></trkpt><trkpt lat="45.93020731587308" lon="10.14909936357126"><ele>1476.3999999999999</ele><time>2026-03-28T15:38:06Z</time></trkpt><trkpt lat="45.93027484395099" lon="10.149073330354373"><ele>1475.8</ele><time>2026-03-28T15:38:07Z</time></trkpt><trkpt lat="45.93041847697061" lon="10.149084342204988"><ele>1475.2</ele><time>2026-03-28T15:38:09Z</time></trkpt><trkpt lat="45.93049879522181" lon="10.149080606739764"><ele>1474.6</ele><time>2026-03-28T15:38:10Z</time></trkpt><trkpt lat="45.930569089459134" lon="10.149083943822163"><ele>1474.0</ele><time>2026-03-28T15:38:11Z</time></trkpt><trkpt lat="45.930673267129784" lon="10.149092359498017"><ele>1474.0</ele><time>2026-03-28T15:38:13Z</time></trkpt><trkpt lat="45.93079652594596" lon="10.149057446723335"><ele>1474.0</ele><time>2026-03-28T15:38:15Z</time></trkpt><trkpt lat="45.9309092245367" lon="10.14904088192566"><ele>1474.0</ele><time>2026-03-28T15:38:17Z</time></trkpt><trkpt lat="45.93099041457126" lon="10.149033481754318"><ele>1474.0</ele><time>2026-03-28T15:38:18Z</time></trkpt><trkpt lat="45.931085737843766" lon="10.149029921692444"><ele>1474.0</ele><time>2026-03-28T15:38:19Z</time></trkpt><trkpt lat="45.931158649842466" lon="10.149030425630857"><ele>1473.6666666666665</ele><time>2026-03-28T15:38:20Z</time></trkpt><trkpt lat="45.931245281427984" lon="10.149083523110166"><ele>1473.3333333333333</ele><time>2026-03-28T15:38:22Z</time></trkpt><trkpt lat="45.93131298871416" lon="10.14907500227561"><ele>1473.0</ele><time>2026-03-28T15:38:25Z</time></trkpt><trkpt lat="45.93138127544466" lon="10.149101093049772"><ele>1472.6666666666667</ele><time>2026-03-28T15:38:29Z</time></trkpt><trkpt lat="45.93145714123575" lon="10.149133905840738"><ele>1472.3333333333335</ele><time>2026-03-28T15:38:33Z</time></trkpt><trkpt lat="45.931537889136436" lon="10.149146095114816"><ele>1472.0</ele><time>2026-03-28T15:38:36Z</time></trkpt><trkpt lat="45.93162842053533" lon="10.149219128963399"><ele>1472.0</ele><time>2026-03-28T15:38:38Z</time></trkpt><trkpt lat="45.931718404369484" lon="10.149278793924543"><ele>1472.0</ele><time>2026-03-28T15:38:39Z</time></trkpt><trkpt lat="45.93181121640123" lon="10.149319481139417"><ele>1472.0</ele><time>2026-03-28T15:38:40Z</time></trkpt><trkpt lat="45.931901242097105" lon="10.149330962282587"><ele>1472.0</ele><time>2026-03-28T15:38:41Z</time></trkpt><trkpt lat="45.93197382802739" lon="10.149341130621037"><ele>1472.0</ele><time>2026-03-28T15:38:42Z</time></trkpt><trkpt lat="45.932043242207676" lon="10.14935582962544"><ele>1472.0</ele><time>2026-03-28T15:38:43Z</time></trkpt><trkpt lat="45.93211985093713" lon="10.149388771903192"><ele>1472.5</ele><time>2026-03-28T15:38:44Z</time></trkpt><trkpt lat="45.93220119594309" lon="10.149418296735538"><ele>1473.0</ele><time>2026-03-28T15:38:45Z</time></trkpt><trkpt lat="45.932265221923586" lon="10.1494054467391"><ele>1473.5</ele><time>2026-03-28T15:38:46Z</time></trkpt><trkpt lat="45.93234613013539" lon="10.149390478799033"><ele>1474.0</ele><time>2026-03-28T15:38:47Z</time></trkpt><trkpt lat="45.932423520162594" lon="10.149379369800853"><ele>1474.5</ele><time>2026-03-28T15:38:48Z</time></trkpt><trkpt lat="45.93250915815292" lon="10.149375770153705"><ele>1475.0</ele><time>2026-03-28T15:38:49Z</time></trkpt><trkpt lat="45.93258814239101" lon="10.149341355715944"><ele>1475.3333333333335</ele><time>2026-03-28T15:38:50Z</time></trkpt><trkpt lat="45.93265463206368" lon="10.149311278574562"><ele>1475.6666666666667</ele><time>2026-03-28T15:38:51Z</time></trkpt><trkpt lat="45.932719491241826" lon="10.149243717086735"><ele>1476.0</ele><time>2026-03-28T15:38:53Z</time></trkpt><trkpt lat="45.93281903241716" lon="10.149200150576245"><ele>1476.3333333333333</ele><time>2026-03-28T15:38:55Z</time></trkpt><trkpt lat="45.93288082367302" lon="10.14917483777716"><ele>1476.6666666666665</ele><time>2026-03-28T15:38:58Z</time></trkpt><trkpt lat="45.93297229733936" lon="10.149166715094571"><ele>1477.0</ele><time>2026-03-28T15:39:00Z</time></trkpt><trkpt lat="45.9330691013026" lon="10.149132956302191"><ele>1477.0</ele><time>2026-03-28T15:39:02Z</time></trkpt><trkpt lat="45.93318408533437" lon="10.149120831298077"><ele>1477.0</ele><time>2026-03-28T15:39:06Z</time></trkpt><trkpt lat="45.933246871656536" lon="10.149154576674999"><ele>1477.0</ele><time>2026-03-28T15:39:09Z</time></trkpt><trkpt lat="45.93355524177911" lon="10.149225501527546"><ele>1471.8333333333333</ele><time>2026-03-28T15:39:12Z</time></trkpt><trkpt lat="45.933613711211734" lon="10.149272152037396"><ele>1466.6666666666665</ele><time>2026-03-28T15:39:13Z</time></trkpt><trkpt lat="45.93367322402991" lon="10.14932106062123"><ele>1461.5</ele><time>2026-03-28T15:39:14Z</time></trkpt><trkpt lat="45.93376722522444" lon="10.149402639568995"><ele>1456.3333333333333</ele><time>2026-03-28T15:39:16Z</time></trkpt><trkpt lat="45.933837256192206" lon="10.149465994404393"><ele>1451.1666666666667</ele><time>2026-03-28T15:39:18Z</time></trkpt><trkpt lat="45.93394888564548" lon="10.149531012911261"><ele>1446.0</ele><time>2026-03-28T15:39:20Z</time></trkpt><trkpt lat="45.93404139388831" lon="10.149594649253094"><ele>1446.0</ele><time>2026-03-28T15:39:22Z</time></trkpt><trkpt lat="45.93410376428804" lon="10.14961893556949"><ele>1446.0</ele><time>2026-03-28T15:39:23Z</time></trkpt><trkpt lat="45.93418207484829" lon="10.149667725861411"><ele>1446.0</ele><time>2026-03-28T15:39:25Z</time></trkpt><trkpt lat="45.93423781159607" lon="10.1497535424576"><ele>1446.0</ele><time>2026-03-28T15:39:31Z</time></trkpt><trkpt lat="45.93432717677804" lon="10.149787651082043"><ele>1446.0</ele><time>2026-03-28T15:39:34Z</time></trkpt><trkpt lat="45.93441578086568" lon="10.149817103088033"><ele>1446.0</ele><time>2026-03-28T15:39:36Z</time></trkpt><trkpt lat="45.93449459919114" lon="10.149835997849559"><ele>1444.1666666666667</ele><time>2026-03-28T15:39:38Z</time></trkpt><trkpt lat="45.93454507450201" lon="10.14990312921533"><ele>1442.3333333333333</ele><time>2026-03-28T15:39:40Z</time></trkpt><trkpt lat="45.93460110342266" lon="10.149954481585432"><ele>1440.5</ele><time>2026-03-28T15:39:43Z</time></trkpt><trkpt lat="45.93467932747585" lon="10.150003737860594"><ele>1438.6666666666665</ele><time>2026-03-28T15:39:45Z</time></trkpt><trkpt lat="45.93473414057243" lon="10.150071855155911"><ele>1436.8333333333333</ele><time>2026-03-28T15:39:47Z</time></trkpt><trkpt lat="45.934772998974175" lon="10.150169671987928"><ele>1435.0</ele><time>2026-03-28T15:39:50Z</time></trkpt><trkpt lat="45.93486011148951" lon="10.15019647073854"><ele>1435.0</ele><time>2026-03-28T15:39:53Z</time></trkpt><trkpt lat="45.934921108150334" lon="10.150268273739675"><ele>1435.0</ele><time>2026-03-28T15:39:56Z</time></trkpt><trkpt lat="45.93497759811377" lon="10.150371420308018"><ele>1435.0</ele><time>2026-03-28T15:39:59Z</time></trkpt><trkpt lat="45.93501401994069" lon="10.150502746292917"><ele>1435.0</ele><time>2026-03-28T15:40:02Z</time></trkpt><trkpt lat="45.935066284775594" lon="10.150575270279278"><ele>1435.0</ele><time>2026-03-28T15:40:06Z</time></trkpt><trkpt lat="45.93512724226933" lon="10.150643596440037"><ele>1435.0</ele><time>2026-03-28T15:40:09Z</time></trkpt><trkpt lat="45.93516770409649" lon="10.150716516185412"><ele>1428.6</ele><time>2026-03-28T15:40:11Z</time></trkpt><trkpt lat="45.935236807916816" lon="10.150750200020923"><ele>1422.2</ele><time>2026-03-28T15:40:13Z</time></trkpt><trkpt lat="45.9353134053233" lon="10.150858505172264"><ele>1415.8000000000002</ele><time>2026-03-28T15:40:15Z</time></trkpt><trkpt lat="45.935365643123404" lon="10.150966938045896"><ele>1409.4</ele><time>2026-03-28T15:40:17Z</time></trkpt><trkpt lat="45.93541196025727" lon="10.151123415426923"><ele>1403.0</ele><time>2026-03-28T15:40:19Z</time></trkpt><trkpt lat="45.93545216541953" lon="10.15122544868138"><ele>1403.0</ele><time>2026-03-28T15:40:21Z</time></trkpt><trkpt lat="45.93551551040897" lon="10.151363400948787"><ele>1403.0</ele><time>2026-03-28T15:40:23Z</time></trkpt><trkpt lat="45.93555519563019" lon="10.15149694539058"><ele>1403.0</ele><time>2026-03-28T15:40:25Z</time></trkpt><trkpt lat="45.935575122399506" lon="10.151611447945106"><ele>1403.0</ele><time>2026-03-28T15:40:27Z</time></trkpt><trkpt lat="45.935579164733134" lon="10.151756408777265"><ele>1403.0</ele><time>2026-03-28T15:40:29Z</time></trkpt><trkpt lat="45.93560191000476" lon="10.151887894725604"><ele>1404.8333333333335</ele><time>2026-03-28T15:40:31Z</time></trkpt><trkpt lat="45.9356429189447" lon="10.152002595290233"><ele>1406.6666666666667</ele><time>2026-03-28T15:40:34Z</time></trkpt><trkpt lat="45.93567876350814" lon="10.152124912712026"><ele>1408.5</ele><time>2026-03-28T15:40:36Z</time></trkpt><trkpt lat="45.935675191180714" lon="10.152225589701546"><ele>1410.3333333333333</ele><time>2026-03-28T15:40:38Z</time></trkpt><trkpt lat="45.935686143513" lon="10.152351258810135"><ele>1412.1666666666665</ele><time>2026-03-28T15:40:41Z</time></trkpt><trkpt lat="45.93568254707087" lon="10.152457119917957"><ele>1414.0</ele><time>2026-03-28T15:40:43Z</time></trkpt><trkpt lat="45.93568829040561" lon="10.152560123886488"><ele>1414.1666666666665</ele><time>2026-03-28T15:40:45Z</time></trkpt><trkpt lat="45.935695797060355" lon="10.152687827335265"><ele>1414.3333333333333</ele><time>2026-03-28T15:40:47Z</time></trkpt><trkpt lat="45.93569407329769" lon="10.152785715985829"><ele>1414.5</ele><time>2026-03-28T15:40:50Z</time></trkpt><trkpt lat="45.93570327334535" lon="10.152881231120078"><ele>1414.6666666666667</ele><time>2026-03-28T15:40:54Z</time></trkpt><trkpt lat="45.935694267505966" lon="10.152993038315314"><ele>1414.8333333333335</ele><time>2026-03-28T15:40:57Z</time></trkpt><trkpt lat="45.93566167679444" lon="10.153103138650316"><ele>1415.0</ele><time>2026-03-28T15:41:00Z</time></trkpt><trkpt lat="45.93569634437062" lon="10.153210057513743"><ele>1415.0</ele><time>2026-03-28T15:41:04Z</time></trkpt><trkpt lat="45.93572896669401" lon="10.15332220934157"><ele>1415.0</ele><time>2026-03-28T15:41:06Z</time></trkpt><trkpt lat="45.93576802639479" lon="10.153422850050102"><ele>1415.0</ele><time>2026-03-28T15:41:10Z</time></trkpt><trkpt lat="45.935779759662715" lon="10.15353750070739"><ele>1415.0</ele><time>2026-03-28T15:41:13Z</time></trkpt><trkpt lat="45.9358091951593" lon="10.153647836743025"><ele>1415.0</ele><time>2026-03-28T15:41:17Z</time></trkpt><trkpt lat="45.93586430130582" lon="10.153710409203311"><ele>1415.0</ele><time>2026-03-28T15:41:20Z</time></trkpt><trkpt lat="45.93589120150057" lon="10.153811745428492"><ele>1409.6</ele><time>2026-03-28T15:41:22Z</time></trkpt><trkpt lat="45.93591180225467" lon="10.153926392007453"><ele>1404.2</ele><time>2026-03-28T15:41:24Z</time></trkpt><trkpt lat="45.93593534139493" lon="10.154067983107197"><ele>1398.8000000000002</ele><time>2026-03-28T15:41:27Z</time></trkpt><trkpt lat="45.93598065129588" lon="10.154245099214025"><ele>1393.4</ele><time>2026-03-28T15:41:29Z</time></trkpt><trkpt lat="45.936028292748" lon="10.154347310354625"><ele>1388.0</ele><time>2026-03-28T15:41:31Z</time></trkpt><trkpt lat="45.93608207845021" lon="10.154438436054534"><ele>1388.0</ele><time>2026-03-28T15:41:33Z</time></trkpt><trkpt lat="45.93616369199675" lon="10.154537101041385"><ele>1388.0</ele><time>2026-03-28T15:41:35Z</time></trkpt><trkpt lat="45.93627970113398" lon="10.154624851701255"><ele>1388.0</ele><time>2026-03-28T15:41:37Z</time></trkpt><trkpt lat="45.93636497037798" lon="10.154705191266276"><ele>1388.0</ele><time>2026-03-28T15:41:39Z</time></trkpt><trkpt lat="45.936452615224866" lon="10.154778322663098"><ele>1388.0</ele><time>2026-03-28T15:41:41Z</time></trkpt><trkpt lat="45.93657083749421" lon="10.15484097398053"><ele>1388.0</ele><time>2026-03-28T15:41:43Z</time></trkpt><trkpt lat="45.93665393856582" lon="10.154869087935163"><ele>1388.0</ele><time>2026-03-28T15:41:45Z</time></trkpt><trkpt lat="45.93671709184786" lon="10.154845333596631"><ele>1388.0</ele><time>2026-03-28T15:41:47Z</time></trkpt><trkpt lat="45.93675132869305" lon="10.154758611145981"><ele>1388.0</ele><time>2026-03-28T15:41:50Z</time></trkpt><trkpt lat="45.93678998750889" lon="10.154673526614873"><ele>1388.0</ele><time>2026-03-28T15:41:53Z</time></trkpt><trkpt lat="45.93683137963916" lon="10.15459115173189"><ele>1388.0</ele><time>2026-03-28T15:41:58Z</time></trkpt><trkpt lat="45.93690821576204" lon="10.154600713707797"><ele>1388.0</ele><time>2026-03-28T15:42:02Z</time></trkpt><trkpt lat="45.93693233177682" lon="10.154694473742707"><ele>1388.4</ele><time>2026-03-28T15:42:04Z</time></trkpt><trkpt lat="45.93684403680492" lon="10.15480622955106"><ele>1388.8000000000002</ele><time>2026-03-28T15:42:40Z</time></trkpt><trkpt lat="45.9368168237005" lon="10.15489871832318"><ele>1389.2</ele><time>2026-03-28T15:42:42Z</time></trkpt><trkpt lat="45.93693219417745" lon="10.154902382632718"><ele>1389.6</ele><time>2026-03-28T15:42:44Z</time></trkpt><trkpt lat="45.93699695405787" lon="10.154800664744903"><ele>1390.0</ele><time>2026-03-28T15:42:46Z</time></trkpt><trkpt lat="45.9369932295065" lon="10.15468534210988"><ele>1390.0</ele><time>2026-03-28T15:42:48Z</time></trkpt><trkpt lat="45.93698337868137" lon="10.154567020925295"><ele>1390.0</ele><time>2026-03-28T15:42:50Z</time></trkpt><trkpt lat="45.93698536206105" lon="10.154428770535226"><ele>1390.0</ele><time>2026-03-28T15:42:52Z</time></trkpt><trkpt lat="45.93705293238723" lon="10.154321458427802"><ele>1390.0</ele><time>2026-03-28T15:42:54Z</time></trkpt><trkpt lat="45.9371530711885" lon="10.154273503545076"><ele>1390.0</ele><time>2026-03-28T15:42:57Z</time></trkpt><trkpt lat="45.93721501813923" lon="10.154206736374434"><ele>1390.0</ele><time>2026-03-28T15:42:59Z</time></trkpt><trkpt lat="45.937274531909495" lon="10.154138195772479"><ele>1390.0</ele><time>2026-03-28T15:43:01Z</time></trkpt><trkpt lat="45.93736185220933" lon="10.15402646986562"><ele>1390.0</ele><time>2026-03-28T15:43:02Z</time></trkpt><trkpt lat="45.93743505209383" lon="10.153935371646252"><ele>1390.0</ele><time>2026-03-28T15:43:04Z</time></trkpt><trkpt lat="45.9374847619658" lon="10.15404567917598"><ele>1390.0</ele><time>2026-03-28T15:44:23Z</time></trkpt><trkpt lat="45.93756871500289" lon="10.154105703243946"><ele>1390.0</ele><time>2026-03-28T15:44:25Z</time></trkpt><trkpt lat="45.93764120598348" lon="10.154137552423746"><ele>1390.0</ele><time>2026-03-28T15:44:27Z</time></trkpt><trkpt lat="45.93771301828766" lon="10.154145929386706"><ele>1390.0</ele><time>2026-03-28T15:44:29Z</time></trkpt><trkpt lat="45.93778577847508" lon="10.154129667695472"><ele>1390.0</ele><time>2026-03-28T15:44:31Z</time></trkpt><trkpt lat="45.93781830407202" lon="10.154050503891089"><ele>1390.0</ele><time>2026-03-28T15:45:03Z</time></trkpt><trkpt lat="45.937892742231725" lon="10.153983399613814"><ele>1390.0</ele><time>2026-03-28T15:45:06Z</time></trkpt><trkpt lat="45.937948488635115" lon="10.153872716951627"><ele>1390.0</ele><time>2026-03-28T15:45:08Z</time></trkpt><trkpt lat="45.93800480370111" lon="10.153737589289308"><ele>1390.0</ele><time>2026-03-28T15:45:10Z</time></trkpt><trkpt lat="45.93807623584137" lon="10.153582296641712"><ele>1390.0</ele><time>2026-03-28T15:45:12Z</time></trkpt><trkpt lat="45.938117093363694" lon="10.153477020506703"><ele>1390.0</ele><time>2026-03-28T15:45:13Z</time></trkpt><trkpt lat="45.938184187827254" lon="10.153360539694702"><ele>1390.0</ele><time>2026-03-28T15:45:14Z</time></trkpt><trkpt lat="45.9382643638745" lon="10.153240011160934"><ele>1389.4</ele><time>2026-03-28T15:45:15Z</time></trkpt><trkpt lat="45.938341547733756" lon="10.153116977697131"><ele>1388.8</ele><time>2026-03-28T15:45:16Z</time></trkpt><trkpt lat="45.9384071560802" lon="10.1529988958506"><ele>1388.1999999999998</ele><time>2026-03-28T15:45:17Z</time></trkpt><trkpt lat="45.93845606266949" lon="10.152899665833417"><ele>1387.6</ele><time>2026-03-28T15:45:18Z</time></trkpt><trkpt lat="45.93849621405296" lon="10.15280994427444"><ele>1387.0</ele><time>2026-03-28T15:45:19Z</time></trkpt><trkpt lat="45.93852353932465" lon="10.152709342322403"><ele>1390.1999999999998</ele><time>2026-03-28T15:45:20Z</time></trkpt><trkpt lat="45.93854530729264" lon="10.152572001791986"><ele>1393.4</ele><time>2026-03-28T15:45:21Z</time></trkpt><trkpt lat="45.938559339600104" lon="10.152421798214025"><ele>1396.6</ele><time>2026-03-28T15:45:22Z</time></trkpt><trkpt lat="45.93856564819619" lon="10.152263853681072"><ele>1399.8000000000002</ele><time>2026-03-28T15:45:23Z</time></trkpt><trkpt lat="45.9385759256047" lon="10.152113595807059"><ele>1403.0</ele><time>2026-03-28T15:45:24Z</time></trkpt><trkpt lat="45.93860848504539" lon="10.151982907796107"><ele>1403.0</ele><time>2026-03-28T15:45:25Z</time></trkpt><trkpt lat="45.93864059224311" lon="10.151825626885511"><ele>1403.0</ele><time>2026-03-28T15:45:26Z</time></trkpt><trkpt lat="45.938659435900874" lon="10.151681386889724"><ele>1403.0</ele><time>2026-03-28T15:45:27Z</time></trkpt><trkpt lat="45.9386712846372" lon="10.151517784356985"><ele>1403.0</ele><time>2026-03-28T15:45:28Z</time></trkpt><trkpt lat="45.93870311614992" lon="10.15137187123992"><ele>1403.0</ele><time>2026-03-28T15:45:29Z</time></trkpt><trkpt lat="45.938734327225426" lon="10.151213945788344"><ele>1402.3333333333335</ele><time>2026-03-28T15:45:30Z</time></trkpt><trkpt lat="45.93876063543231" lon="10.151081153414635"><ele>1401.6666666666667</ele><time>2026-03-28T15:45:31Z</time></trkpt><trkpt lat="45.93879177564973" lon="10.15094835359846"><ele>1401.0</ele><time>2026-03-28T15:45:32Z</time></trkpt><trkpt lat="45.93881274855379" lon="10.150831174901054"><ele>1400.3333333333333</ele><time>2026-03-28T15:45:33Z</time></trkpt><trkpt lat="45.938825575599566" lon="10.150724340830363"><ele>1399.6666666666665</ele><time>2026-03-28T15:45:34Z</time></trkpt><trkpt lat="45.93883164916457" lon="10.150625158735247"><ele>1399.0</ele><time>2026-03-28T15:45:35Z</time></trkpt><trkpt lat="45.93882462129609" lon="10.150462711931175"><ele>1398.4285714285713</ele><time>2026-03-28T15:45:37Z</time></trkpt><trkpt lat="45.938782957231886" lon="10.15037336430016"><ele>1397.857142857143</ele><time>2026-03-28T15:45:38Z</time></trkpt><trkpt lat="45.938745359284866" lon="10.150279260234122"><ele>1397.2857142857142</ele><time>2026-03-28T15:45:39Z</time></trkpt><trkpt lat="45.938724394790775" lon="10.150193660485527"><ele>1396.7142857142858</ele><time>2026-03-28T15:45:40Z</time></trkpt><trkpt lat="45.93870067841713" lon="10.15010651060128"><ele>1396.142857142857</ele><time>2026-03-28T15:45:41Z</time></trkpt><trkpt lat="45.93867190946543" lon="10.150017637195807"><ele>1395.5714285714287</ele><time>2026-03-28T15:45:42Z</time></trkpt><trkpt lat="45.93864421524187" lon="10.149894311249168"><ele>1395.0</ele><time>2026-03-28T15:45:43Z</time></trkpt><trkpt lat="45.93863094159212" lon="10.149784514106196"><ele>1395.0</ele><time>2026-03-28T15:45:44Z</time></trkpt><trkpt lat="45.93861002785313" lon="10.149660276611051"><ele>1395.0</ele><time>2026-03-28T15:45:45Z</time></trkpt><trkpt lat="45.938579391450865" lon="10.14953525713997"><ele>1395.0</ele><time>2026-03-28T15:45:45.999Z</time></trkpt><trkpt lat="45.93856407504677" lon="10.14940481134411"><ele>1395.0</ele><time>2026-03-28T15:45:46.999Z</time></trkpt><trkpt lat="45.938508498178585" lon="10.14923475681907"><ele>1395.0</ele><time>2026-03-28T15:45:48.999Z</time></trkpt><trkpt lat="45.93845858426262" lon="10.14914517931947"><ele>1395.0</ele><time>2026-03-28T15:45:49.999Z</time></trkpt><trkpt lat="45.93843648507312" lon="10.14904647729778"><ele>1395.0</ele><time>2026-03-28T15:45:50.999Z</time></trkpt><trkpt lat="45.93841386563204" lon="10.148928585542933"><ele>1395.0</ele><time>2026-03-28T15:45:51.999Z</time></trkpt><trkpt lat="45.9383801223621" lon="10.148809108417908"><ele>1395.0</ele><time>2026-03-28T15:45:52.999Z</time></trkpt><trkpt lat="45.93834699292603" lon="10.148697131185052"><ele>1395.0</ele><time>2026-03-28T15:45:53.999Z</time></trkpt><trkpt lat="45.93831524879505" lon="10.14858752156761"><ele>1395.0</ele><time>2026-03-28T15:45:54.999Z</time></trkpt><trkpt lat="45.938268084733444" lon="10.14849130006539"><ele>1394.0</ele><time>2026-03-28T15:45:55.999Z</time></trkpt><trkpt lat="45.938216390219594" lon="10.148402344393656"><ele>1393.0</ele><time>2026-03-28T15:45:56.999Z</time></trkpt><trkpt lat="45.93816978494059" lon="10.148288847291916"><ele>1392.0</ele><time>2026-03-28T15:45:57.999Z</time></trkpt><trkpt lat="45.93809751363674" lon="10.148209683966112"><ele>1391.0</ele><time>2026-03-28T15:45:58.999Z</time></trkpt><trkpt lat="45.938041564702715" lon="10.148118338477731"><ele>1390.0</ele><time>2026-03-28T15:45:59.999Z</time></trkpt><trkpt lat="45.9379911616195" lon="10.148022749482852"><ele>1389.0</ele><time>2026-03-28T15:46:00.999Z</time></trkpt><trkpt lat="45.93794995782234" lon="10.147920183043587"><ele>1389.0</ele><time>2026-03-28T15:46:01.999Z</time></trkpt><trkpt lat="45.93792451808629" lon="10.147814714091517"><ele>1389.0</ele><time>2026-03-28T15:46:02.999Z</time></trkpt><trkpt lat="45.93787580953823" lon="10.147732302596973"><ele>1389.0</ele><time>2026-03-28T15:46:03.999Z</time></trkpt><trkpt lat="45.93779972803844" lon="10.147677894140358"><ele>1389.0</ele><time>2026-03-28T15:46:04.999Z</time></trkpt><trkpt lat="45.93773150138823" lon="10.147612845832146"><ele>1389.0</ele><time>2026-03-28T15:46:05.999Z</time></trkpt><trkpt lat="45.93765978697864" lon="10.14752432309175"><ele>1389.0</ele><time>2026-03-28T15:46:06.999Z</time></trkpt><trkpt lat="45.93760573458278" lon="10.147434180990851"><ele>1390.8333333333333</ele><time>2026-03-28T15:46:07.999Z</time></trkpt><trkpt lat="45.93757250707759" lon="10.147345120128245"><ele>1392.6666666666667</ele><time>2026-03-28T15:46:08.999Z</time></trkpt><trkpt lat="45.93752382904736" lon="10.147254630193908"><ele>1394.5</ele><time>2026-03-28T15:46:09.999Z</time></trkpt><trkpt lat="45.93746108437503" lon="10.147182241512262"><ele>1396.3333333333335</ele><time>2026-03-28T15:46:10.999Z</time></trkpt><trkpt lat="45.93741126046239" lon="10.147107669118583"><ele>1398.1666666666667</ele><time>2026-03-28T15:46:11.999Z</time></trkpt><trkpt lat="45.937392764885495" lon="10.146996106475383"><ele>1400.0</ele><time>2026-03-28T15:46:12.999Z</time></trkpt><trkpt lat="45.937374520352044" lon="10.146871433433665"><ele>1396.1666666666667</ele><time>2026-03-28T15:46:13.999Z</time></trkpt><trkpt lat="45.93734561842463" lon="10.146754256171906"><ele>1392.3333333333335</ele><time>2026-03-28T15:46:14.999Z</time></trkpt><trkpt lat="45.93732666116777" lon="10.146644767592322"><ele>1388.5</ele><time>2026-03-28T15:46:15.999Z</time></trkpt><trkpt lat="45.93729416270358" lon="10.146538112655001"><ele>1384.6666666666667</ele><time>2026-03-28T15:46:16.999Z</time></trkpt><trkpt lat="45.93724517048789" lon="10.146438742823555"><ele>1380.8333333333333</ele><time>2026-03-28T15:46:17.999Z</time></trkpt><trkpt lat="45.93718899879499" lon="10.146335818792066"><ele>1377.0</ele><time>2026-03-28T15:46:18.999Z</time></trkpt><trkpt lat="45.93715799962061" lon="10.146228771307232"><ele>1377.0</ele><time>2026-03-28T15:46:19.999Z</time></trkpt><trkpt lat="45.93712977627969" lon="10.146116266775742"><ele>1377.0</ele><time>2026-03-28T15:46:20.999Z</time></trkpt><trkpt lat="45.93710025079401" lon="10.146016046191662"><ele>1377.0</ele><time>2026-03-28T15:46:21.999Z</time></trkpt><trkpt lat="45.93704499470821" lon="10.145875875298064"><ele>1377.0</ele><time>2026-03-28T15:46:23.999Z</time></trkpt><trkpt lat="45.937060115964435" lon="10.145766438040859"><ele>1377.0</ele><time>2026-03-28T15:46:25.999Z</time></trkpt><trkpt lat="45.937067344681196" lon="10.145613732413741"><ele>1379.0</ele><time>2026-03-28T15:46:27.999Z</time></trkpt><trkpt lat="45.93701156762955" lon="10.145496353838016"><ele>1381.0</ele><time>2026-03-28T15:46:29.999Z</time></trkpt><trkpt lat="45.936986506745505" lon="10.145379846400171"><ele>1383.0</ele><time>2026-03-28T15:46:59.999Z</time></trkpt><trkpt lat="45.93695860223517" lon="10.145275927408138"><ele>1385.0</ele><time>2026-03-28T15:47:00.999Z</time></trkpt><trkpt lat="45.93692464159603" lon="10.145155688783733"><ele>1387.0</ele><time>2026-03-28T15:47:01.999Z</time></trkpt><trkpt lat="45.93689817699494" lon="10.144980064113561"><ele>1386.5</ele><time>2026-03-28T15:47:02.999Z</time></trkpt><trkpt lat="45.93687686262767" lon="10.144803205826772"><ele>1386.0</ele><time>2026-03-28T15:47:03.999Z</time></trkpt><trkpt lat="45.93687670881814" lon="10.144617233783531"><ele>1385.5</ele><time>2026-03-28T15:47:04.999Z</time></trkpt><trkpt lat="45.936881072542725" lon="10.144446289403314"><ele>1385.0</ele><time>2026-03-28T15:47:05.999Z</time></trkpt><trkpt lat="45.936888136560306" lon="10.144302672130513"><ele>1385.0</ele><time>2026-03-28T15:47:06.999Z</time></trkpt><trkpt lat="45.93692641726776" lon="10.144135227744892"><ele>1385.0</ele><time>2026-03-28T15:47:07.999Z</time></trkpt><trkpt lat="45.936976961793995" lon="10.143987566036838"><ele>1385.0</ele><time>2026-03-28T15:47:08.999Z</time></trkpt><trkpt lat="45.9370415335339" lon="10.143842278629759"><ele>1385.0</ele><time>2026-03-28T15:47:09.999Z</time></trkpt><trkpt lat="45.93712057074729" lon="10.143674370136106"><ele>1383.0</ele><time>2026-03-28T15:47:10.999Z</time></trkpt><trkpt lat="45.93718855578333" lon="10.143511251423094"><ele>1381.0</ele><time>2026-03-28T15:47:11.999Z</time></trkpt><trkpt lat="45.93725258027194" lon="10.143343820134048"><ele>1379.0</ele><time>2026-03-28T15:47:12.999Z</time></trkpt><trkpt lat="45.93731251819102" lon="10.143150278576003"><ele>1377.0</ele><time>2026-03-28T15:47:13.999Z</time></trkpt><trkpt lat="45.937381429352506" lon="10.142983434182899"><ele>1380.5</ele><time>2026-03-28T15:47:14.999Z</time></trkpt><trkpt lat="45.937467539495" lon="10.14282710936222"><ele>1384.0</ele><time>2026-03-28T15:47:15.999Z</time></trkpt><trkpt lat="45.93756220319389" lon="10.142697479382285"><ele>1387.5</ele><time>2026-03-28T15:47:16.999Z</time></trkpt><trkpt lat="45.937649107308744" lon="10.142576166528972"><ele>1391.0</ele><time>2026-03-28T15:47:17.999Z</time></trkpt><trkpt lat="45.9377235440711" lon="10.142470389513779"><ele>1386.25</ele><time>2026-03-28T15:47:18.999Z</time></trkpt><trkpt lat="45.93781739431179" lon="10.1423667522056"><ele>1381.5</ele><time>2026-03-28T15:47:19.999Z</time></trkpt><trkpt lat="45.93791452038866" lon="10.142239098583115"><ele>1376.75</ele><time>2026-03-28T15:47:20.999Z</time></trkpt><trkpt lat="45.93801012481334" lon="10.142114344640778"><ele>1372.0</ele><time>2026-03-28T15:47:21.999Z</time></trkpt><trkpt lat="45.938104405087884" lon="10.14199581700962"><ele>1372.0</ele><time>2026-03-28T15:47:22.999Z</time></trkpt><trkpt lat="45.9381853840426" lon="10.141906517898931"><ele>1372.0</ele><time>2026-03-28T15:47:23.999Z</time></trkpt><trkpt lat="45.938252093361434" lon="10.141822023443025"><ele>1372.0</ele><time>2026-03-28T15:47:24.999Z</time></trkpt><trkpt lat="45.938323104723395" lon="10.141728001818588"><ele>1372.0</ele><time>2026-03-28T15:47:25.999Z</time></trkpt><trkpt lat="45.93839975753557" lon="10.141613763858748"><ele>1372.0</ele><time>2026-03-28T15:47:26.999Z</time></trkpt><trkpt lat="45.938478603565464" lon="10.141502184555199"><ele>1375.0</ele><time>2026-03-28T15:47:27.999Z</time></trkpt><trkpt lat="45.93854293573136" lon="10.14141178280115"><ele>1378.0</ele><time>2026-03-28T15:47:28.999Z</time></trkpt><trkpt lat="45.93860990263402" lon="10.141341580205255"><ele>1381.0</ele><time>2026-03-28T15:47:29.999Z</time></trkpt><trkpt lat="45.93867625071307" lon="10.141287651033963"><ele>1384.0</ele><time>2026-03-28T15:47:30.999Z</time></trkpt><trkpt lat="45.93872074802916" lon="10.14115184890411"><ele>1387.0</ele><time>2026-03-28T15:47:32.999Z</time></trkpt><trkpt lat="45.93873528757105" lon="10.141061421853369"><ele>1390.0</ele><time>2026-03-28T15:47:33.999Z</time></trkpt><trkpt lat="45.93875388147635" lon="10.140967723402268"><ele>1390.0</ele><time>2026-03-28T15:47:34.999Z</time></trkpt><trkpt lat="45.93877761907701" lon="10.140871343442441"><ele>1390.0</ele><time>2026-03-28T15:47:35.999Z</time></trkpt><trkpt lat="45.938826514301134" lon="10.140728887754836"><ele>1390.0</ele><time>2026-03-28T15:47:36.999Z</time></trkpt><trkpt lat="45.93887272812686" lon="10.14056917424517"><ele>1390.0</ele><time>2026-03-28T15:47:37.999Z</time></trkpt><trkpt lat="45.93894171726541" lon="10.140418101695312"><ele>1390.0</ele><time>2026-03-28T15:47:38.999Z</time></trkpt><trkpt lat="45.93900719425785" lon="10.140248344427599"><ele>1387.0</ele><time>2026-03-28T15:47:39.999Z</time></trkpt><trkpt lat="45.939089756780284" lon="10.140093022383232"><ele>1384.0</ele><time>2026-03-28T15:47:40.999Z</time></trkpt><trkpt lat="45.93914215495131" lon="10.139945601081541"><ele>1381.0</ele><time>2026-03-28T15:47:41.999Z</time></trkpt><trkpt lat="45.93919921702293" lon="10.139779855984374"><ele>1378.0</ele><time>2026-03-28T15:47:42.999Z</time></trkpt><trkpt lat="45.939244035802425" lon="10.139624541266382"><ele>1382.2</ele><time>2026-03-28T15:47:43.999Z</time></trkpt><trkpt lat="45.93930167227733" lon="10.13947712932445"><ele>1386.4</ele><time>2026-03-28T15:47:44.999Z</time></trkpt><trkpt lat="45.93935054549579" lon="10.139339835535798"><ele>1390.6000000000001</ele><time>2026-03-28T15:47:45.999Z</time></trkpt><trkpt lat="45.93938116599712" lon="10.139221183055627"><ele>1394.8000000000002</ele><time>2026-03-28T15:47:46.999Z</time></trkpt><trkpt lat="45.939394453874364" lon="10.139078663262747"><ele>1399.0</ele><time>2026-03-28T15:47:48.999Z</time></trkpt><trkpt lat="45.9394263115278" lon="10.13893957625277"><ele>1399.0</ele><time>2026-03-28T15:47:50.999Z</time></trkpt><trkpt lat="45.93947085828594" lon="10.138813572036826"><ele>1399.0</ele><time>2026-03-28T15:47:52.999Z</time></trkpt><trkpt lat="45.93948800634109" lon="10.138656216845643"><ele>1399.0</ele><time>2026-03-28T15:47:54.999Z</time></trkpt><trkpt lat="45.939493947033846" lon="10.138538553403972"><ele>1399.0</ele><time>2026-03-28T15:47:56.999Z</time></trkpt><trkpt lat="45.939490417487384" lon="10.138431667728454"><ele>1399.0</ele><time>2026-03-28T15:48:00.999Z</time></trkpt><trkpt lat="45.93951116190417" lon="10.138329614950427"><ele>1399.0</ele><time>2026-03-28T15:48:05.999Z</time></trkpt><trkpt lat="45.93952146425675" lon="10.138220247663375"><ele>1395.8000000000002</ele><time>2026-03-28T15:48:08.999Z</time></trkpt><trkpt lat="45.93950958095471" lon="10.13813082290874"><ele>1392.6000000000001</ele><time>2026-03-28T15:48:10.999Z</time></trkpt><trkpt lat="45.93957782186567" lon="10.138055967085268"><ele>1389.4</ele><time>2026-03-28T15:48:13.999Z</time></trkpt><trkpt lat="45.939650743342156" lon="10.13790226965549"><ele>1386.2</ele><time>2026-03-28T15:48:15.999Z</time></trkpt><trkpt lat="45.939692771504994" lon="10.137787448970485"><ele>1383.0</ele><time>2026-03-28T15:48:16.999Z</time></trkpt><trkpt lat="45.939760772823675" lon="10.137640517772256"><ele>1383.0</ele><time>2026-03-28T15:48:17.999Z</time></trkpt><trkpt lat="45.93981041604059" lon="10.137523637241"><ele>1383.0</ele><time>2026-03-28T15:48:18.999Z</time></trkpt><trkpt lat="45.93985478761625" lon="10.13745457026001"><ele>1383.0</ele><time>2026-03-28T15:48:20.999Z</time></trkpt><trkpt lat="45.93993089447062" lon="10.137399696099875"><ele>1383.0</ele><time>2026-03-28T15:48:22.999Z</time></trkpt><trkpt lat="45.93999681503417" lon="10.137351451390138"><ele>1383.0</ele><time>2026-03-28T15:48:27.999Z</time></trkpt><trkpt lat="45.940229827133415" lon="10.137286582636177"><ele>1376.0</ele><time>2026-03-28T15:48:28.999Z</time></trkpt><trkpt lat="45.94031992914891" lon="10.137275429539772"><ele>1369.0</ele><time>2026-03-28T15:48:29.999Z</time></trkpt><trkpt lat="45.94043343510423" lon="10.137258036569452"><ele>1362.0</ele><time>2026-03-28T15:48:30.999Z</time></trkpt><trkpt lat="45.94053994224795" lon="10.137244900253647"><ele>1355.0</ele><time>2026-03-28T15:48:31.999Z</time></trkpt><trkpt lat="45.94063404008201" lon="10.137253093764581"><ele>1348.0</ele><time>2026-03-28T15:48:32.999Z</time></trkpt><trkpt lat="45.94071928511944" lon="10.137240675794708"><ele>1348.0</ele><time>2026-03-28T15:48:33.999Z</time></trkpt><trkpt lat="45.940832527755866" lon="10.137202060953975"><ele>1348.0</ele><time>2026-03-28T15:48:34.999Z</time></trkpt><trkpt lat="45.940923355268275" lon="10.13719276884845"><ele>1348.0</ele><time>2026-03-28T15:48:35.999Z</time></trkpt><trkpt lat="45.94102119493214" lon="10.137203430721115"><ele>1348.0</ele><time>2026-03-28T15:48:36.999Z</time></trkpt><trkpt lat="45.941112871877316" lon="10.13717777946272"><ele>1348.0</ele><time>2026-03-28T15:48:38.999Z</time></trkpt><trkpt lat="45.9411770657968" lon="10.13714145065282"><ele>1349.6000000000001</ele><time>2026-03-28T15:48:39.999Z</time></trkpt><trkpt lat="45.94125285140011" lon="10.137109012828278"><ele>1351.2</ele><time>2026-03-28T15:48:40.999Z</time></trkpt><trkpt lat="45.941346413264114" lon="10.13700333707553"><ele>1352.8</ele><time>2026-03-28T15:48:41.999Z</time></trkpt><trkpt lat="45.9414154043072" lon="10.13693980185997"><ele>1354.4</ele><time>2026-03-28T15:48:42.999Z</time></trkpt><trkpt lat="45.941548713842614" lon="10.136872121904517"><ele>1356.0</ele><time>2026-03-28T15:48:44.999Z</time></trkpt><trkpt lat="45.941635597483966" lon="10.13682605586197"><ele>1353.3333333333333</ele><time>2026-03-28T15:48:46Z</time></trkpt><trkpt lat="45.94172177411817" lon="10.136799581310505"><ele>1350.6666666666667</ele><time>2026-03-28T15:48:47Z</time></trkpt><trkpt lat="45.94178501926633" lon="10.13679295916922"><ele>1348.0</ele><time>2026-03-28T15:48:48Z</time></trkpt><trkpt lat="45.94186719610033" lon="10.136728068072298"><ele>1345.3333333333335</ele><time>2026-03-28T15:48:49Z</time></trkpt><trkpt lat="45.94193000393703" lon="10.136676751166398"><ele>1342.6666666666667</ele><time>2026-03-28T15:48:51Z</time></trkpt><trkpt lat="45.94201724764779" lon="10.136681694597266"><ele>1340.0</ele><time>2026-03-28T15:48:53Z</time></trkpt><trkpt lat="45.94206453932186" lon="10.136752458587813"><ele>1340.0</ele><time>2026-03-28T15:48:55Z</time></trkpt><trkpt lat="45.94213955714793" lon="10.136818161890002"><ele>1340.0</ele><time>2026-03-28T15:48:58Z</time></trkpt><trkpt lat="45.94219020164305" lon="10.136900804735435"><ele>1340.0</ele><time>2026-03-28T15:49:02Z</time></trkpt><trkpt lat="45.942228529732326" lon="10.136975885752399"><ele>1340.0</ele><time>2026-03-28T15:49:03Z</time></trkpt><trkpt lat="45.94222277326289" lon="10.137105149954682"><ele>1340.0</ele><time>2026-03-28T15:49:07Z</time></trkpt><trkpt lat="45.9422773807505" lon="10.137245532017037"><ele>1340.0</ele><time>2026-03-28T15:49:09Z</time></trkpt><trkpt lat="45.94233452029774" lon="10.137344798699507"><ele>1341.8333333333335</ele><time>2026-03-28T15:49:11Z</time></trkpt><trkpt lat="45.9423706955834" lon="10.137496312203101"><ele>1343.6666666666667</ele><time>2026-03-28T15:49:13Z</time></trkpt><trkpt lat="45.94241341551021" lon="10.137583265021892"><ele>1345.5</ele><time>2026-03-28T15:49:14Z</time></trkpt><trkpt lat="45.94246128215342" lon="10.137668617911924"><ele>1347.3333333333333</ele><time>2026-03-28T15:49:15Z</time></trkpt><trkpt lat="45.94253186215338" lon="10.137735394948544"><ele>1349.1666666666665</ele><time>2026-03-28T15:49:17Z</time></trkpt><trkpt lat="45.94258881767193" lon="10.137793196765521"><ele>1351.0</ele><time>2026-03-28T15:49:19Z</time></trkpt><trkpt lat="45.94263585444829" lon="10.137883934544037"><ele>1344.5</ele><time>2026-03-28T15:49:21Z</time></trkpt><trkpt lat="45.942672349989934" lon="10.137962436067232"><ele>1338.0</ele><time>2026-03-28T15:49:22Z</time></trkpt><trkpt lat="45.94272776612693" lon="10.138021404399803"><ele>1331.5</ele><time>2026-03-28T15:49:23Z</time></trkpt><trkpt lat="45.94279532724724" lon="10.138090931919578"><ele>1325.0</ele><time>2026-03-28T15:49:24Z</time></trkpt><trkpt lat="45.94282923990959" lon="10.1381808169839"><ele>1318.5</ele><time>2026-03-28T15:49:28Z</time></trkpt><trkpt lat="45.94287797575281" lon="10.138268713006882"><ele>1312.0</ele><time>2026-03-28T15:49:30Z</time></trkpt><trkpt lat="45.94295580226684" lon="10.138370417692673"><ele>1312.0</ele><time>2026-03-28T15:49:32Z</time></trkpt><trkpt lat="45.94298283657924" lon="10.138517238538089"><ele>1312.0</ele><time>2026-03-28T15:49:34Z</time></trkpt><trkpt lat="45.94299261690889" lon="10.138609850665686"><ele>1312.0</ele><time>2026-03-28T15:49:35Z</time></trkpt><trkpt lat="45.942998978699414" lon="10.138746490298457"><ele>1312.0</ele><time>2026-03-28T15:49:37Z</time></trkpt><trkpt lat="45.94302665690387" lon="10.13885810798294"><ele>1312.0</ele><time>2026-03-28T15:49:39.001Z</time></trkpt><trkpt lat="45.9430539870994" lon="10.138955162190966"><ele>1312.0</ele><time>2026-03-28T15:49:41.001Z</time></trkpt><trkpt lat="45.94305183899392" lon="10.139059950291962"><ele>1313.5</ele><time>2026-03-28T15:49:43.001Z</time></trkpt><trkpt lat="45.94306556973747" lon="10.139150418552749"><ele>1315.0</ele><time>2026-03-28T15:49:45.001Z</time></trkpt><trkpt lat="45.94312794836125" lon="10.13923688814266"><ele>1316.5</ele><time>2026-03-28T15:49:47.001Z</time></trkpt><trkpt lat="45.94316687393918" lon="10.139345398687233"><ele>1318.0</ele><time>2026-03-28T15:49:49.001Z</time></trkpt><trkpt lat="45.943222974101815" lon="10.139411739468306"><ele>1319.5</ele><time>2026-03-28T15:49:51.001Z</time></trkpt><trkpt lat="45.94329690196434" lon="10.139449896797224"><ele>1321.0</ele><time>2026-03-28T15:49:53.001Z</time></trkpt><trkpt lat="45.94336470173735" lon="10.13944680771382"><ele>1311.857142857143</ele><time>2026-03-28T15:49:55.001Z</time></trkpt><trkpt lat="45.943441346499284" lon="10.13942933335051"><ele>1302.7142857142858</ele><time>2026-03-28T15:49:58Z</time></trkpt><trkpt lat="45.94351138436515" lon="10.13939334543193"><ele>1293.5714285714287</ele><time>2026-03-28T15:50:02Z</time></trkpt><trkpt lat="45.943535460394685" lon="10.139297263702705"><ele>1284.4285714285716</ele><time>2026-03-28T15:50:05Z</time></trkpt><trkpt lat="45.94359655234972" lon="10.139330483178288"><ele>1275.2857142857142</ele><time>2026-03-28T15:50:07Z</time></trkpt><trkpt lat="45.94365856149487" lon="10.13936973200458"><ele>1266.1428571428573</ele><time>2026-03-28T15:50:10Z</time></trkpt><trkpt lat="45.943736353377645" lon="10.139378298752034"><ele>1257.0</ele><time>2026-03-28T15:50:13Z</time></trkpt><trkpt lat="45.94378667043082" lon="10.139448801824914"><ele>1257.0</ele><time>2026-03-28T15:50:17Z</time></trkpt><trkpt lat="45.94384197888925" lon="10.139557932205664"><ele>1257.0</ele><time>2026-03-28T15:50:20Z</time></trkpt><trkpt lat="45.94386308962525" lon="10.139654060525979"><ele>1257.0</ele><time>2026-03-28T15:50:22Z</time></trkpt><trkpt lat="45.9438960749627" lon="10.139732306287048"><ele>1257.0</ele><time>2026-03-28T15:50:24Z</time></trkpt><trkpt lat="45.94396719845879" lon="10.139792705527228"><ele>1257.0</ele><time>2026-03-28T15:50:26.001Z</time></trkpt><trkpt lat="45.94404865261016" lon="10.139879180695067"><ele>1257.0</ele><time>2026-03-28T15:50:30.001Z</time></trkpt><trkpt lat="45.94410710963743" lon="10.13998112349434"><ele>1258.8</ele><time>2026-03-28T15:50:33.001Z</time></trkpt><trkpt lat="45.94416146921346" lon="10.140076320490339"><ele>1260.6</ele><time>2026-03-28T15:50:36.001Z</time></trkpt><trkpt lat="45.9441880646469" lon="10.140209646539727"><ele>1262.3999999999999</ele><time>2026-03-28T15:50:38.001Z</time></trkpt><trkpt lat="45.94416079431995" lon="10.140357271012569"><ele>1264.2</ele><time>2026-03-28T15:50:40.001Z</time></trkpt><trkpt lat="45.94419646447647" lon="10.140528715573572"><ele>1266.0</ele><time>2026-03-28T15:50:42.001Z</time></trkpt><trkpt lat="45.94423982430811" lon="10.140599168582616"><ele>1255.1666666666667</ele><time>2026-03-28T15:50:44.001Z</time></trkpt><trkpt lat="45.94424624950626" lon="10.14070152650768"><ele>1244.3333333333333</ele><time>2026-03-28T15:50:47.001Z</time></trkpt><trkpt lat="45.94423829646973" lon="10.14080422345808"><ele>1233.5</ele><time>2026-03-28T15:50:51.001Z</time></trkpt><trkpt lat="45.94425772433314" lon="10.140912236040265"><ele>1222.6666666666665</ele><time>2026-03-28T15:50:56.001Z</time></trkpt><trkpt lat="45.94433407774762" lon="10.140994812037885"><ele>1211.8333333333333</ele><time>2026-03-28T15:50:58.001Z</time></trkpt><trkpt lat="45.94436222122363" lon="10.141090524557784"><ele>1201.0</ele><time>2026-03-28T15:51:02.001Z</time></trkpt><trkpt lat="45.944402245773595" lon="10.141195332975567"><ele>1201.0</ele><time>2026-03-28T15:51:05.001Z</time></trkpt><trkpt lat="45.94445835998047" lon="10.14128956133023"><ele>1201.0</ele><time>2026-03-28T15:51:07.001Z</time></trkpt><trkpt lat="45.94450050817134" lon="10.14140939297162"><ele>1201.0</ele><time>2026-03-28T15:51:09.001Z</time></trkpt><trkpt lat="45.94450504640739" lon="10.141518342240351"><ele>1201.0</ele><time>2026-03-28T15:51:11.001Z</time></trkpt><trkpt lat="45.94455276516757" lon="10.141640306585687"><ele>1201.0</ele><time>2026-03-28T15:51:14.001Z</time></trkpt><trkpt lat="45.94457228252233" lon="10.141757528423678"><ele>1201.0</ele><time>2026-03-28T15:51:18.001Z</time></trkpt><trkpt lat="45.9446447678026" lon="10.14190703689185"><ele>1201.0</ele><time>2026-03-28T15:51:58.001Z</time></trkpt><trkpt lat="45.94468465668838" lon="10.141980036951805"><ele>1201.0</ele><time>2026-03-28T15:52:17.001Z</time></trkpt><trkpt lat="45.94460759550351" lon="10.141864964294031"><ele>1201.0</ele><time>2026-03-28T15:52:48.001Z</time></trkpt><trkpt lat="45.944553276549655" lon="10.141738246460449"><ele>1201.0</ele><time>2026-03-28T15:52:50.001Z</time></trkpt><trkpt lat="45.94448983430629" lon="10.141620049691198"><ele>1201.0</ele><time>2026-03-28T15:52:51.001Z</time></trkpt><trkpt lat="45.94443685486184" lon="10.14152793226101"><ele>1201.0</ele><time>2026-03-28T15:52:52.001Z</time></trkpt><trkpt lat="45.944458357234986" lon="10.141392359535558"><ele>1201.0</ele><time>2026-03-28T15:53:05.001Z</time></trkpt><trkpt lat="45.9444271940632" lon="10.141273297193482"><ele>1201.0</ele><time>2026-03-28T15:53:09.001Z</time></trkpt><trkpt lat="45.94436111921972" lon="10.14116066158412"><ele>1201.0</ele><time>2026-03-28T15:53:15.001Z</time></trkpt><trkpt lat="45.944327868368944" lon="10.141069318725286"><ele>1201.0</ele><time>2026-03-28T15:53:16.001Z</time></trkpt><trkpt lat="45.94431721969515" lon="10.140948439889575"><ele>1201.0</ele><time>2026-03-28T15:53:21.001Z</time></trkpt><trkpt lat="45.944318897142324" lon="10.140857338078126"><ele>1201.0</ele><time>2026-03-28T15:53:37.001Z</time></trkpt><trkpt lat="45.944320397682795" lon="10.140753165569654"><ele>1201.0</ele><time>2026-03-28T15:53:39.001Z</time></trkpt><trkpt lat="45.94437794933473" lon="10.140658551928905"><ele>1201.0</ele><time>2026-03-28T15:53:42.001Z</time></trkpt><trkpt lat="45.944392361524585" lon="10.14056122035832"><ele>1201.0</ele><time>2026-03-28T15:53:44.001Z</time></trkpt><trkpt lat="45.944391181610875" lon="10.140444401185546"><ele>1201.0</ele><time>2026-03-28T15:53:46.001Z</time></trkpt><trkpt lat="45.94441281334555" lon="10.140576787491467"><ele>1201.0</ele><time>2026-03-28T15:53:56.001Z</time></trkpt><trkpt lat="45.94442061372856" lon="10.14072263172278"><ele>1201.0</ele><time>2026-03-28T15:53:59.001Z</time></trkpt><trkpt lat="45.944371290459834" lon="10.140845905546145"><ele>1201.0</ele><time>2026-03-28T15:54:01.001Z</time></trkpt><trkpt lat="45.944374372488" lon="10.140950254708114"><ele>1201.0</ele><time>2026-03-28T15:54:03.001Z</time></trkpt><trkpt lat="45.94443175598423" lon="10.141030483505805"><ele>1201.0</ele><time>2026-03-28T15:54:06.001Z</time></trkpt><trkpt lat="45.94437863083181" lon="10.141083662006565"><ele>1201.0</ele><time>2026-03-28T15:54:37.001Z</time></trkpt><trkpt lat="45.94431072187088" lon="10.141036090109619"><ele>1201.0</ele><time>2026-03-28T15:55:32Z</time></trkpt><trkpt lat="45.9442435772609" lon="10.141006277550089"><ele>1201.0</ele><time>2026-03-28T15:55:40Z</time></trkpt><trkpt lat="45.94431812658865" lon="10.141022224791786"><ele>1201.0</ele><time>2026-03-28T15:55:47Z</time></trkpt><trkpt lat="45.94438290424985" lon="10.141095650538835"><ele>1201.0</ele><time>2026-03-28T15:55:54Z</time></trkpt><trkpt lat="45.94439585251056" lon="10.141184921117198"><ele>1201.0</ele><time>2026-03-28T15:55:55Z</time></trkpt><trkpt lat="45.94445388660289" lon="10.1412837396984"><ele>1201.0</ele><time>2026-03-28T15:55:58Z</time></trkpt><trkpt lat="45.94451010833878" lon="10.141339781333594"><ele>1201.0</ele><time>2026-03-28T15:56:00.001Z</time></trkpt><trkpt lat="45.94455471848898" lon="10.141428668142133"><ele>1201.0</ele><time>2026-03-28T15:56:03.001Z</time></trkpt><trkpt lat="45.944609093885425" lon="10.141514380419062"><ele>1201.0</ele><time>2026-03-28T15:56:05.001Z</time></trkpt><trkpt lat="45.94467508413562" lon="10.141637765242708"><ele>1201.0</ele><time>2026-03-28T15:56:07.001Z</time></trkpt><trkpt lat="45.94473091704636" lon="10.141776558596888"><ele>1201.0</ele><time>2026-03-28T15:56:09.001Z</time></trkpt><trkpt lat="45.94473190202558" lon="10.141882186705546"><ele>1201.0</ele><time>2026-03-28T15:56:11.001Z</time></trkpt><trkpt lat="45.944721669455646" lon="10.14197897310842"><ele>1201.0</ele><time>2026-03-28T15:56:13.001Z</time></trkpt><trkpt lat="45.94478406800727" lon="10.142030806244813"><ele>1201.0</ele><time>2026-03-28T15:56:17.001Z</time></trkpt><trkpt lat="45.94471684201495" lon="10.141995941703662"><ele>1201.0</ele><time>2026-03-28T15:56:41Z</time></trkpt><trkpt lat="45.944734156180004" lon="10.14212788727512"><ele>1201.0</ele><time>2026-03-28T15:58:24Z</time></trkpt><trkpt lat="45.94479077873419" lon="10.142222358364103"><ele>1201.0</ele><time>2026-03-28T15:58:26Z</time></trkpt><trkpt lat="45.94483361937672" lon="10.142303882297869"><ele>1201.0</ele><time>2026-03-28T15:58:28Z</time></trkpt><trkpt lat="45.94487625904916" lon="10.142416112041237"><ele>1201.0</ele><time>2026-03-28T15:58:30Z</time></trkpt><trkpt lat="45.94491720911796" lon="10.142523960755499"><ele>1201.8333333333333</ele><time>2026-03-28T15:58:32Z</time></trkpt><trkpt lat="45.944961600302165" lon="10.142591027003832"><ele>1202.6666666666665</ele><time>2026-03-28T15:58:33Z</time></trkpt><trkpt lat="45.94500599827644" lon="10.142739933584357"><ele>1203.5</ele><time>2026-03-28T15:58:35Z</time></trkpt><trkpt lat="45.94500871352149" lon="10.142885657948424"><ele>1204.3333333333333</ele><time>2026-03-28T15:58:37Z</time></trkpt><trkpt lat="45.945046038889856" lon="10.142985747561719"><ele>1205.1666666666667</ele><time>2026-03-28T15:58:39Z</time></trkpt><trkpt lat="45.945088153753005" lon="10.143063811693196"><ele>1206.0</ele><time>2026-03-28T15:58:41Z</time></trkpt><trkpt lat="45.94514312673362" lon="10.143128444321869"><ele>1197.0</ele><time>2026-03-28T15:58:43Z</time></trkpt><trkpt lat="45.9452065205731" lon="10.143211821933386"><ele>1188.0</ele><time>2026-03-28T15:58:45Z</time></trkpt><trkpt lat="45.945249988526626" lon="10.143313796152276"><ele>1179.0</ele><time>2026-03-28T15:58:47Z</time></trkpt><trkpt lat="45.94527804144911" lon="10.143410908153244"><ele>1170.0</ele><time>2026-03-28T15:58:48Z</time></trkpt><trkpt lat="45.9453019302009" lon="10.143502927026397"><ele>1161.0</ele><time>2026-03-28T15:58:49Z</time></trkpt><trkpt lat="45.945319723287284" lon="10.143615710586737"><ele>1152.0</ele><time>2026-03-28T15:58:51Z</time></trkpt><trkpt lat="45.945351822104264" lon="10.143763100850549"><ele>1152.0</ele><time>2026-03-28T15:58:53Z</time></trkpt><trkpt lat="45.94534327208645" lon="10.1438757592362"><ele>1152.0</ele><time>2026-03-28T15:58:54Z</time></trkpt><trkpt lat="45.94534003364421" lon="10.144046932766623"><ele>1152.0</ele><time>2026-03-28T15:58:55Z</time></trkpt><trkpt lat="45.945337891937875" lon="10.144200600322943"><ele>1152.0</ele><time>2026-03-28T15:58:57Z</time></trkpt><trkpt lat="45.94534554837473" lon="10.1442976225991"><ele>1152.0</ele><time>2026-03-28T15:58:59Z</time></trkpt><trkpt lat="45.94532087101825" lon="10.14441438372023"><ele>1151.6</ele><time>2026-03-28T15:59:01Z</time></trkpt><trkpt lat="45.94535961942439" lon="10.144498533031712"><ele>1151.2</ele><time>2026-03-28T15:59:03Z</time></trkpt><trkpt lat="45.94537872979577" lon="10.144651324757561"><ele>1150.8</ele><time>2026-03-28T15:59:06Z</time></trkpt><trkpt lat="45.945437212308605" lon="10.14481006965407"><ele>1150.4</ele><time>2026-03-28T15:59:08Z</time></trkpt><trkpt lat="45.94551440512262" lon="10.144936149630626"><ele>1150.0</ele><time>2026-03-28T15:59:10Z</time></trkpt><trkpt lat="45.94559203236425" lon="10.145002981054152"><ele>1150.0</ele><time>2026-03-28T15:59:12Z</time></trkpt><trkpt lat="45.945653133207" lon="10.145044214225553"><ele>1150.0</ele><time>2026-03-28T15:59:15Z</time></trkpt><trkpt lat="45.94568772350609" lon="10.145183293637285"><ele>1150.0</ele><time>2026-03-28T15:59:18Z</time></trkpt><trkpt lat="45.945676115719756" lon="10.145288004283811"><ele>1150.0</ele><time>2026-03-28T15:59:21Z</time></trkpt><trkpt lat="45.9456731451248" lon="10.145431346866147"><ele>1150.0</ele><time>2026-03-28T15:59:24Z</time></trkpt><trkpt lat="45.945667556361364" lon="10.145555533177058"><ele>1150.0</ele><time>2026-03-28T15:59:26Z</time></trkpt><trkpt lat="45.945645891629106" lon="10.145668735396024"><ele>1149.8333333333333</ele><time>2026-03-28T15:59:27Z</time></trkpt><trkpt lat="45.94559807988449" lon="10.145785307934752"><ele>1149.6666666666665</ele><time>2026-03-28T15:59:28Z</time></trkpt><trkpt lat="45.94561380896022" lon="10.14587926179118"><ele>1149.5</ele><time>2026-03-28T15:59:29Z</time></trkpt><trkpt lat="45.94563757510025" lon="10.145981949663447"><ele>1149.3333333333333</ele><time>2026-03-28T15:59:30Z</time></trkpt><trkpt lat="45.945647550684164" lon="10.146077053643948"><ele>1149.1666666666667</ele><time>2026-03-28T15:59:31Z</time></trkpt><trkpt lat="45.94566030461534" lon="10.146177246377125"><ele>1149.0</ele><time>2026-03-28T15:59:32Z</time></trkpt><trkpt lat="45.94570302577396" lon="10.146341172749548"><ele>1149.0</ele><time>2026-03-28T15:59:34Z</time></trkpt><trkpt lat="45.94572623946511" lon="10.146449847666206"><ele>1149.0</ele><time>2026-03-28T15:59:35Z</time></trkpt><trkpt lat="45.94576415924715" lon="10.146575673101808"><ele>1149.0</ele><time>2026-03-28T15:59:36Z</time></trkpt><trkpt lat="45.9457836237661" lon="10.14669132860823"><ele>1149.0</ele><time>2026-03-28T15:59:37Z</time></trkpt><trkpt lat="45.94578548694841" lon="10.146810516516485"><ele>1149.0</ele><time>2026-03-28T15:59:38Z</time></trkpt><trkpt lat="45.945800891694326" lon="10.146920985032706"><ele>1149.0</ele><time>2026-03-28T15:59:39Z</time></trkpt><trkpt lat="45.94581786438314" lon="10.147021476179551"><ele>1148.8333333333333</ele><time>2026-03-28T15:59:40Z</time></trkpt><trkpt lat="45.94583593436733" lon="10.147114963100853"><ele>1148.6666666666667</ele><time>2026-03-28T15:59:41Z</time></trkpt><trkpt lat="45.945856867963286" lon="10.14720259452409"><ele>1148.5</ele><time>2026-03-28T15:59:42Z</time></trkpt><trkpt lat="45.945880856547475" lon="10.147321896795175"><ele>1148.3333333333335</ele><time>2026-03-28T15:59:44Z</time></trkpt><trkpt lat="45.945938175243086" lon="10.147424784926619"><ele>1148.1666666666667</ele><time>2026-03-28T15:59:46Z</time></trkpt><trkpt lat="45.945966091014625" lon="10.147554232979621"><ele>1148.0</ele><time>2026-03-28T15:59:48Z</time></trkpt><trkpt lat="45.946007884575195" lon="10.147652298904653"><ele>1142.4</ele><time>2026-03-28T15:59:49Z</time></trkpt><trkpt lat="45.94605255517999" lon="10.147749345738484"><ele>1136.8</ele><time>2026-03-28T15:59:50Z</time></trkpt><trkpt lat="45.946087325733764" lon="10.147842613048613"><ele>1131.2</ele><time>2026-03-28T15:59:51Z</time></trkpt><trkpt lat="45.94612456418766" lon="10.147995262396286"><ele>1125.6</ele><time>2026-03-28T15:59:53Z</time></trkpt><trkpt lat="45.946211536813145" lon="10.148133947657557"><ele>1120.0</ele><time>2026-03-28T15:59:55Z</time></trkpt><trkpt lat="45.9462356767719" lon="10.14825276227402"><ele>1120.0</ele><time>2026-03-28T15:59:57Z</time></trkpt><trkpt lat="45.94624616719357" lon="10.148380995681618"><ele>1120.0</ele><time>2026-03-28T15:59:59Z</time></trkpt><trkpt lat="45.9462515907681" lon="10.148537807972534"><ele>1120.0</ele><time>2026-03-28T16:00:01Z</time></trkpt><trkpt lat="45.94624334033068" lon="10.148635471744164"><ele>1120.0</ele><time>2026-03-28T16:00:02Z</time></trkpt><trkpt lat="45.94624158045787" lon="10.148756898367687"><ele>1120.0</ele><time>2026-03-28T16:00:03Z</time></trkpt><trkpt lat="45.94621864702286" lon="10.14886600072572"><ele>1120.0</ele><time>2026-03-28T16:00:04Z</time></trkpt><trkpt lat="45.94620317155324" lon="10.148977080922235"><ele>1120.1666666666665</ele><time>2026-03-28T16:00:05Z</time></trkpt><trkpt lat="45.94623921555763" lon="10.149156448677585"><ele>1120.3333333333333</ele><time>2026-03-28T16:00:07Z</time></trkpt><trkpt lat="45.94626708729763" lon="10.149265411426938"><ele>1120.5</ele><time>2026-03-28T16:00:08Z</time></trkpt><trkpt lat="45.9462758517275" lon="10.149361094043567"><ele>1120.6666666666667</ele><time>2026-03-28T16:00:09Z</time></trkpt><trkpt lat="45.94631857864539" lon="10.149481240805786"><ele>1120.8333333333335</ele><time>2026-03-28T16:00:10Z</time></trkpt><trkpt lat="45.94635797347907" lon="10.149577802830956"><ele>1121.0</ele><time>2026-03-28T16:00:11Z</time></trkpt><trkpt lat="45.946412291025155" lon="10.149642494852571"><ele>1121.0</ele><time>2026-03-28T16:00:12Z</time></trkpt><trkpt lat="45.946467823932196" lon="10.149696845024039"><ele>1121.0</ele><time>2026-03-28T16:00:13Z</time></trkpt><trkpt lat="45.94652138485438" lon="10.149745015046108"><ele>1121.0</ele><time>2026-03-28T16:00:14Z</time></trkpt><trkpt lat="45.946584145218345" lon="10.149764454642872"><ele>1121.0</ele><time>2026-03-28T16:00:15Z</time></trkpt><trkpt lat="45.94663944877244" lon="10.149819538575933"><ele>1121.0</ele><time>2026-03-28T16:00:16Z</time></trkpt><trkpt lat="45.94674808712477" lon="10.14990824029157"><ele>1121.0</ele><time>2026-03-28T16:00:17Z</time></trkpt><trkpt lat="45.946881258389894" lon="10.149996087821558"><ele>1118.2</ele><time>2026-03-28T16:00:18Z</time></trkpt><trkpt lat="45.94699282878598" lon="10.150032144337741"><ele>1115.3999999999999</ele><time>2026-03-28T16:00:19Z</time></trkpt><trkpt lat="45.94708236866201" lon="10.150103376105658"><ele>1112.6</ele><time>2026-03-28T16:00:20Z</time></trkpt><trkpt lat="45.94717330143134" lon="10.15017998481214"><ele>1109.8</ele><time>2026-03-28T16:00:21Z</time></trkpt><trkpt lat="45.947227132602606" lon="10.150249665060725"><ele>1107.0</ele><time>2026-03-28T16:00:22Z</time></trkpt><trkpt lat="45.94726696199255" lon="10.15035373332217"><ele>1107.0</ele><time>2026-03-28T16:00:23Z</time></trkpt><trkpt lat="45.94731454512358" lon="10.150439283614606"><ele>1107.0</ele><time>2026-03-28T16:00:24Z</time></trkpt><trkpt lat="45.94737030761418" lon="10.15053987971921"><ele>1107.0</ele><time>2026-03-28T16:00:25Z</time></trkpt><trkpt lat="45.94739692620732" lon="10.150685049766984"><ele>1107.0</ele><time>2026-03-28T16:00:26Z</time></trkpt><trkpt lat="45.94742942794056" lon="10.150803970147381"><ele>1107.0</ele><time>2026-03-28T16:00:27Z</time></trkpt><trkpt lat="45.9474345390571" lon="10.15090911692858"><ele>1107.0</ele><time>2026-03-28T16:00:28Z</time></trkpt><trkpt lat="45.94743809086261" lon="10.15105876115375"><ele>1107.2</ele><time>2026-03-28T16:00:30Z</time></trkpt><trkpt lat="45.947395146219826" lon="10.151197346274195"><ele>1107.4</ele><time>2026-03-28T16:00:31Z</time></trkpt><trkpt lat="45.947348586001866" lon="10.15135030752604"><ele>1107.6</ele><time>2026-03-28T16:00:32Z</time></trkpt><trkpt lat="45.94732287793831" lon="10.151485928637277"><ele>1107.8</ele><time>2026-03-28T16:00:33Z</time></trkpt><trkpt lat="45.94729015941749" lon="10.151598053080084"><ele>1108.0</ele><time>2026-03-28T16:00:34Z</time></trkpt><trkpt lat="45.94724869807168" lon="10.151675036313062"><ele>1108.8</ele><time>2026-03-28T16:00:35Z</time></trkpt><trkpt lat="45.94721609872806" lon="10.15177716890957"><ele>1109.6</ele><time>2026-03-28T16:00:37Z</time></trkpt><trkpt lat="45.9473546300648" lon="10.151765072852886"><ele>1110.4</ele><time>2026-03-28T16:00:40Z</time></trkpt><trkpt lat="45.947363567555556" lon="10.151650056621605"><ele>1111.2</ele><time>2026-03-28T16:00:42Z</time></trkpt><trkpt lat="45.94735504296843" lon="10.15175516594073"><ele>1112.0</ele><time>2026-03-28T16:01:19Z</time></trkpt><trkpt lat="45.94728624473687" lon="10.151839277439928"><ele>1112.0</ele><time>2026-03-28T16:01:21Z</time></trkpt><trkpt lat="45.94722217236498" lon="10.151978145228176"><ele>1112.0</ele><time>2026-03-28T16:01:23Z</time></trkpt><trkpt lat="45.947177934879086" lon="10.152082730612134"><ele>1112.0</ele><time>2026-03-28T16:01:24Z</time></trkpt><trkpt lat="45.9471328946644" lon="10.152193150809213"><ele>1112.0</ele><time>2026-03-28T16:01:25Z</time></trkpt><trkpt lat="45.947082091619684" lon="10.152311676535145"><ele>1112.0</ele><time>2026-03-28T16:01:26Z</time></trkpt><trkpt lat="45.947005384043905" lon="10.15241476538603"><ele>1112.3333333333335</ele><time>2026-03-28T16:01:27Z</time></trkpt><trkpt lat="45.94696726085097" lon="10.152525733385241"><ele>1112.6666666666667</ele><time>2026-03-28T16:01:28Z</time></trkpt><trkpt lat="45.9469295624084" lon="10.152630131621427"><ele>1113.0</ele><time>2026-03-28T16:01:29Z</time></trkpt><trkpt lat="45.94689198465806" lon="10.152731492655823"><ele>1113.3333333333333</ele><time>2026-03-28T16:01:30Z</time></trkpt><trkpt lat="45.94685413951737" lon="10.152830703096866"><ele>1113.6666666666665</ele><time>2026-03-28T16:01:31Z</time></trkpt><trkpt lat="45.94681446367059" lon="10.152933741908834"><ele>1114.0</ele><time>2026-03-28T16:01:32Z</time></trkpt><trkpt lat="45.946772637308776" lon="10.153040621574068"><ele>1114.0</ele><time>2026-03-28T16:01:33Z</time></trkpt><trkpt lat="45.94673479036146" lon="10.153137332568136"><ele>1114.0</ele><time>2026-03-28T16:01:34Z</time></trkpt><trkpt lat="45.946697770361325" lon="10.153231930448225"><ele>1114.0</ele><time>2026-03-28T16:01:35Z</time></trkpt><trkpt lat="45.946661899869426" lon="10.153323590970293"><ele>1114.0</ele><time>2026-03-28T16:01:36Z</time></trkpt><trkpt lat="45.946625690528556" lon="10.153416117358537"><ele>1114.0</ele><time>2026-03-28T16:01:37Z</time></trkpt><trkpt lat="45.94659007739026" lon="10.153507120260125"><ele>1114.0</ele><time>2026-03-28T16:01:38Z</time></trkpt><trkpt lat="45.94655544834932" lon="10.153596191498872"><ele>1114.0</ele><time>2026-03-28T16:01:39Z</time></trkpt><trkpt lat="45.94652101210853" lon="10.153684935537719"><ele>1113.3333333333333</ele><time>2026-03-28T16:01:40Z</time></trkpt><trkpt lat="45.94648540743149" lon="10.153776690700134"><ele>1112.6666666666665</ele><time>2026-03-28T16:01:41Z</time></trkpt><trkpt lat="45.94644855607384" lon="10.153871658625352"><ele>1112.0</ele><time>2026-03-28T16:01:42Z</time></trkpt><trkpt lat="45.9464273508028" lon="10.153972956621814"><ele>1111.3333333333333</ele><time>2026-03-28T16:01:43Z</time></trkpt><trkpt lat="45.9463925158537" lon="10.154050382002225"><ele>1110.6666666666667</ele><time>2026-03-28T16:01:44Z</time></trkpt><trkpt lat="45.94632127923899" lon="10.154211506184874"><ele>1110.0</ele><time>2026-03-28T16:01:46Z</time></trkpt><trkpt lat="45.94628518822708" lon="10.154293370160568"><ele>1110.0</ele><time>2026-03-28T16:01:47Z</time></trkpt><trkpt lat="45.946221550352675" lon="10.15444152461736"><ele>1110.0</ele><time>2026-03-28T16:01:49Z</time></trkpt><trkpt lat="45.94618628543562" lon="10.154523744084027"><ele>1110.0</ele><time>2026-03-28T16:01:50Z</time></trkpt><trkpt lat="45.9461527851744" lon="10.154617645759245"><ele>1110.0</ele><time>2026-03-28T16:01:51Z</time></trkpt><trkpt lat="45.946117957022814" lon="10.154711512960077"><ele>1110.0</ele><time>2026-03-28T16:01:52Z</time></trkpt><trkpt lat="45.94608044769873" lon="10.154820662594313"><ele>1110.0</ele><time>2026-03-28T16:01:53Z</time></trkpt><trkpt lat="45.9460414346153" lon="10.154958497575164"><ele>1112.5</ele><time>2026-03-28T16:01:54Z</time></trkpt><trkpt lat="45.94600221680116" lon="10.155109890688315"><ele>1115.0</ele><time>2026-03-28T16:01:55Z</time></trkpt><trkpt lat="45.94596219555879" lon="10.1552736074924"><ele>1117.5</ele><time>2026-03-28T16:01:56Z</time></trkpt><trkpt lat="45.945921310259564" lon="10.155446131006043"><ele>1120.0</ele><time>2026-03-28T16:01:57Z</time></trkpt><trkpt lat="45.94588017645475" lon="10.155620007286995"><ele>1114.6666666666665</ele><time>2026-03-28T16:01:58Z</time></trkpt><trkpt lat="45.94582986952889" lon="10.155811649044804"><ele>1109.3333333333333</ele><time>2026-03-28T16:01:59Z</time></trkpt><trkpt lat="45.94577088976997" lon="10.156013584213415"><ele>1104.0</ele><time>2026-03-28T16:02:00Z</time></trkpt><trkpt lat="45.94570848955819" lon="10.156230461005638"><ele>1104.0</ele><time>2026-03-28T16:02:01Z</time></trkpt><trkpt lat="45.945656613551016" lon="10.156435366746743"><ele>1104.0</ele><time>2026-03-28T16:02:02Z</time></trkpt><trkpt lat="45.945609450862804" lon="10.156636881940074"><ele>1104.0</ele><time>2026-03-28T16:02:03Z</time></trkpt><trkpt lat="45.94556038748353" lon="10.156827137759752"><ele>1104.0</ele><time>2026-03-28T16:02:04Z</time></trkpt><trkpt lat="45.945515406738885" lon="10.157016202203694"><ele>1104.5</ele><time>2026-03-28T16:02:05Z</time></trkpt><trkpt lat="45.94546091862235" lon="10.157199214585312"><ele>1105.0</ele><time>2026-03-28T16:02:06Z</time></trkpt><trkpt lat="45.94540225050681" lon="10.157382316811178"><ele>1105.5</ele><time>2026-03-28T16:02:07Z</time></trkpt><trkpt lat="45.94534666274092" lon="10.157571609662906"><ele>1106.0</ele><time>2026-03-28T16:02:08Z</time></trkpt><trkpt lat="45.94529495553472" lon="10.157766835380073"><ele>1105.5</ele><time>2026-03-28T16:02:09Z</time></trkpt><trkpt lat="45.945245050623726" lon="10.157964040800998"><ele>1105.0</ele><time>2026-03-28T16:02:10Z</time></trkpt><trkpt lat="45.94519843358586" lon="10.15816496312555"><ele>1104.5</ele><time>2026-03-28T16:02:11Z</time></trkpt><trkpt lat="45.945158320059505" lon="10.158367848639081"><ele>1104.0</ele><time>2026-03-28T16:02:12Z</time></trkpt><trkpt lat="45.94510825906901" lon="10.158565913109056"><ele>1104.0</ele><time>2026-03-28T16:02:13Z</time></trkpt><trkpt lat="45.94505974752626" lon="10.158764764508451"><ele>1104.0</ele><time>2026-03-28T16:02:14Z</time></trkpt><trkpt lat="45.94501132458996" lon="10.15896387330097"><ele>1104.0</ele><time>2026-03-28T16:02:15Z</time></trkpt><trkpt lat="45.94496419130426" lon="10.159160883728621"><ele>1104.0</ele><time>2026-03-28T16:02:16Z</time></trkpt><trkpt lat="45.94491797583526" lon="10.159352030338459"><ele>1099.5</ele><time>2026-03-28T16:02:17Z</time></trkpt><trkpt lat="45.94487329569366" lon="10.159537016618806"><ele>1095.0</ele><time>2026-03-28T16:02:18Z</time></trkpt><trkpt lat="45.9448327460469" lon="10.159717923878238"><ele>1090.5</ele><time>2026-03-28T16:02:19Z</time></trkpt><trkpt lat="45.94478864107065" lon="10.159890407614823"><ele>1086.0</ele><time>2026-03-28T16:02:20Z</time></trkpt><trkpt lat="45.944744637394685" lon="10.160065832373665"><ele>1085.6666666666667</ele><time>2026-03-28T16:02:21Z</time></trkpt><trkpt lat="45.94469388704495" lon="10.160262493091638"><ele>1085.3333333333335</ele><time>2026-03-28T16:02:22Z</time></trkpt><trkpt lat="45.94463878256868" lon="10.16047790221239"><ele>1085.0</ele><time>2026-03-28T16:02:23Z</time></trkpt><trkpt lat="45.944582179113326" lon="10.16070520722587"><ele>1084.0</ele><time>2026-03-28T16:02:24Z</time></trkpt><trkpt lat="45.94453379209056" lon="10.160920976847112"><ele>1083.0</ele><time>2026-03-28T16:02:25Z</time></trkpt><trkpt lat="45.94449315697009" lon="10.161134696666712"><ele>1082.0</ele><time>2026-03-28T16:02:26Z</time></trkpt><trkpt lat="45.944460147664806" lon="10.16133771515232"><ele>1082.0</ele><time>2026-03-28T16:02:27Z</time></trkpt><trkpt lat="45.944434473267656" lon="10.161518061579224"><ele>1082.0</ele><time>2026-03-28T16:02:28Z</time></trkpt><trkpt lat="45.944419599163325" lon="10.161673733890087"><ele>1082.0</ele><time>2026-03-28T16:02:29Z</time></trkpt><trkpt lat="45.94440582166994" lon="10.161799071215166"><ele>1082.0</ele><time>2026-03-28T16:02:30Z</time></trkpt><trkpt lat="45.94439540168533" lon="10.161889425440362"><ele>1082.0</ele><time>2026-03-28T16:02:31Z</time></trkpt><trkpt lat="45.944274034365726" lon="10.161924631360606"><ele>1078.8</ele><time>2026-03-28T16:02:34Z</time></trkpt><trkpt lat="45.94415922921861" lon="10.161902734016188"><ele>1075.6</ele><time>2026-03-28T16:02:36Z</time></trkpt><trkpt lat="45.94406044806039" lon="10.161852863129907"><ele>1072.3999999999999</ele><time>2026-03-28T16:02:38Z</time></trkpt><trkpt lat="45.94396802989457" lon="10.161807096621981"><ele>1069.2</ele><time>2026-03-28T16:02:40Z</time></trkpt><trkpt lat="45.94389714022472" lon="10.161765257007387"><ele>1066.0</ele><time>2026-03-28T16:02:41Z</time></trkpt><trkpt lat="45.94382154898885" lon="10.161657495466184"><ele>1066.0</ele><time>2026-03-28T16:02:42Z</time></trkpt><trkpt lat="45.94373439000441" lon="10.16154141381456"><ele>1066.0</ele><time>2026-03-28T16:02:43Z</time></trkpt><trkpt lat="45.94364197253489" lon="10.161465081025005"><ele>1066.0</ele><time>2026-03-28T16:02:44Z</time></trkpt><trkpt lat="45.943566897777025" lon="10.161366278561479"><ele>1066.0</ele><time>2026-03-28T16:02:45Z</time></trkpt><trkpt lat="45.94347646565521" lon="10.161286609191356"><ele>1066.0</ele><time>2026-03-28T16:02:46Z</time></trkpt><trkpt lat="45.94339668288735" lon="10.161184022665461"><ele>1065.3999999999999</ele><time>2026-03-28T16:02:47Z</time></trkpt><trkpt lat="45.943315530976825" lon="10.161093890925683"><ele>1064.8</ele><time>2026-03-28T16:02:48Z</time></trkpt><trkpt lat="45.94323068696688" lon="10.161015740874694"><ele>1064.1999999999998</ele><time>2026-03-28T16:02:49Z</time></trkpt><trkpt lat="45.943149888871346" lon="10.160939182343654"><ele>1063.6</ele><time>2026-03-28T16:02:50Z</time></trkpt><trkpt lat="45.94309191677474" lon="10.1608447621485"><ele>1063.0</ele><time>2026-03-28T16:02:51Z</time></trkpt><trkpt lat="45.94303406879122" lon="10.160755523999972"><ele>1063.0</ele><time>2026-03-28T16:02:52Z</time></trkpt><trkpt lat="45.94299311582756" lon="10.16066613819802"><ele>1063.0</ele><time>2026-03-28T16:02:53Z</time></trkpt><trkpt lat="45.942946664141516" lon="10.160581529784132"><ele>1063.0</ele><time>2026-03-28T16:02:54Z</time></trkpt><trkpt lat="45.94273404253684" lon="10.160888456055458"><ele>1063.0</ele><time>2026-03-28T16:02:58Z</time></trkpt><trkpt lat="45.942706213255924" lon="10.161042393926158"><ele>1063.0</ele><time>2026-03-28T16:02:59Z</time></trkpt><trkpt lat="45.94267717816982" lon="10.161198555409118"><ele>1063.0</ele><time>2026-03-28T16:03:00Z</time></trkpt><trkpt lat="45.942678293724065" lon="10.161352300244939"><ele>1063.0</ele><time>2026-03-28T16:03:01Z</time></trkpt><trkpt lat="45.94270310076704" lon="10.161509368482015"><ele>1063.0</ele><time>2026-03-28T16:03:02Z</time></trkpt><trkpt lat="45.94272389091106" lon="10.161660376308308"><ele>1061.6</ele><time>2026-03-28T16:03:03Z</time></trkpt><trkpt lat="45.942725600747245" lon="10.161805039178308"><ele>1060.1999999999998</ele><time>2026-03-28T16:03:04Z</time></trkpt><trkpt lat="45.94272100100616" lon="10.161938078462553"><ele>1058.8</ele><time>2026-03-28T16:03:05Z</time></trkpt><trkpt lat="45.942694549129044" lon="10.162069799845892"><ele>1057.3999999999999</ele><time>2026-03-28T16:03:06Z</time></trkpt><trkpt lat="45.94267819600656" lon="10.162192760642164"><ele>1056.0</ele><time>2026-03-28T16:03:07Z</time></trkpt><trkpt lat="45.94264755787435" lon="10.162290663087287"><ele>1055.6666666666667</ele><time>2026-03-28T16:03:08Z</time></trkpt><trkpt lat="45.94263387145392" lon="10.162387890848407"><ele>1055.3333333333333</ele><time>2026-03-28T16:03:09Z</time></trkpt><trkpt lat="45.94263353735874" lon="10.162481281295712"><ele>1055.0</ele><time>2026-03-28T16:03:10Z</time></trkpt><trkpt lat="45.94262578140468" lon="10.162571131600323"><ele>1054.6666666666665</ele><time>2026-03-28T16:03:11Z</time></trkpt><trkpt lat="45.94261881766848" lon="10.162728458240167"><ele>1054.3333333333333</ele><time>2026-03-28T16:03:13Z</time></trkpt><trkpt lat="45.94260681723646" lon="10.162875349545676"><ele>1054.0</ele><time>2026-03-28T16:03:15Z</time></trkpt><trkpt lat="45.94256699193744" lon="10.16302026929434"><ele>1053.8333333333333</ele><time>2026-03-28T16:03:17Z</time></trkpt><trkpt lat="45.94253619950643" lon="10.16318469244206"><ele>1053.6666666666665</ele><time>2026-03-28T16:03:19Z</time></trkpt><trkpt lat="45.94251972149613" lon="10.163275304403298"><ele>1053.5</ele><time>2026-03-28T16:03:20Z</time></trkpt><trkpt lat="45.942502192560845" lon="10.16336631250453"><ele>1053.3333333333333</ele><time>2026-03-28T16:03:21Z</time></trkpt><trkpt lat="45.94247873084875" lon="10.163456136320807"><ele>1053.1666666666667</ele><time>2026-03-28T16:03:22Z</time></trkpt><trkpt lat="45.942441714572254" lon="10.163546963973038"><ele>1053.0</ele><time>2026-03-28T16:03:23Z</time></trkpt><trkpt lat="45.942389340040165" lon="10.163637258450379"><ele>1053.0</ele><time>2026-03-28T16:03:24Z</time></trkpt><trkpt lat="45.94234729038249" lon="10.163740524746638"><ele>1053.0</ele><time>2026-03-28T16:03:25Z</time></trkpt><trkpt lat="45.942298861448535" lon="10.163827379617315"><ele>1053.0</ele><time>2026-03-28T16:03:26Z</time></trkpt><trkpt lat="45.94224150174357" lon="10.16390265846399"><ele>1053.0</ele><time>2026-03-28T16:03:27Z</time></trkpt><trkpt lat="45.94219387350262" lon="10.163986745764484"><ele>1053.0</ele><time>2026-03-28T16:03:28Z</time></trkpt><trkpt lat="45.94214459326146" lon="10.164085770363682"><ele>1053.0</ele><time>2026-03-28T16:03:29Z</time></trkpt><trkpt lat="45.942090112400315" lon="10.164195104727947"><ele>1050.4</ele><time>2026-03-28T16:03:30Z</time></trkpt><trkpt lat="45.94202921417075" lon="10.164307379329614"><ele>1047.8</ele><time>2026-03-28T16:03:31Z</time></trkpt><trkpt lat="45.941962902545" lon="10.164421028068357"><ele>1045.2</ele><time>2026-03-28T16:03:32Z</time></trkpt><trkpt lat="45.941898265113906" lon="10.164531486933756"><ele>1042.6</ele><time>2026-03-28T16:03:33Z</time></trkpt><trkpt lat="45.94183425268104" lon="10.164625866131507"><ele>1040.0</ele><time>2026-03-28T16:03:34Z</time></trkpt><trkpt lat="45.941787641165284" lon="10.164751402923855"><ele>1040.0</ele><time>2026-03-28T16:03:35Z</time></trkpt><trkpt lat="45.941735950546175" lon="10.164862032603446"><ele>1040.0</ele><time>2026-03-28T16:03:36Z</time></trkpt><trkpt lat="45.94168239005639" lon="10.164970367015263"><ele>1040.0</ele><time>2026-03-28T16:03:37Z</time></trkpt><trkpt lat="45.941609922674196" lon="10.16505975190266"><ele>1040.0</ele><time>2026-03-28T16:03:38Z</time></trkpt><trkpt lat="45.94152828513382" lon="10.165128391325677"><ele>1040.0</ele><time>2026-03-28T16:03:39Z</time></trkpt><trkpt lat="45.94145245727977" lon="10.165198763522856"><ele>1039.6</ele><time>2026-03-28T16:03:40Z</time></trkpt><trkpt lat="45.94140226139926" lon="10.165287520108853"><ele>1039.2</ele><time>2026-03-28T16:03:41Z</time></trkpt><trkpt lat="45.9413676503677" lon="10.165395982583282"><ele>1038.8</ele><time>2026-03-28T16:03:42Z</time></trkpt><trkpt lat="45.94136190330078" lon="10.165531919153434"><ele>1038.4</ele><time>2026-03-28T16:03:43Z</time></trkpt><trkpt lat="45.941353111358964" lon="10.165684904266294"><ele>1038.0</ele><time>2026-03-28T16:03:44Z</time></trkpt><trkpt lat="45.94133040615929" lon="10.165836483236156"><ele>1034.25</ele><time>2026-03-28T16:03:45Z</time></trkpt><trkpt lat="45.94128499655275" lon="10.165973137307944"><ele>1030.5</ele><time>2026-03-28T16:03:46Z</time></trkpt><trkpt lat="45.94120022117168" lon="10.166117139250517"><ele>1026.75</ele><time>2026-03-28T16:03:47Z</time></trkpt><trkpt lat="45.94111759140224" lon="10.16629268482705"><ele>1023.0</ele><time>2026-03-28T16:03:48Z</time></trkpt><trkpt lat="45.941016936077304" lon="10.16645439211993"><ele>1024.25</ele><time>2026-03-28T16:03:49Z</time></trkpt><trkpt lat="45.9409348548719" lon="10.166591654257545"><ele>1025.5</ele><time>2026-03-28T16:03:50Z</time></trkpt><trkpt lat="45.94087463380134" lon="10.166736592353121"><ele>1026.75</ele><time>2026-03-28T16:03:51Z</time></trkpt><trkpt lat="45.94083639349358" lon="10.166886241821969"><ele>1028.0</ele><time>2026-03-28T16:03:52Z</time></trkpt><trkpt lat="45.9408134009996" lon="10.167061718775393"><ele>1028.0</ele><time>2026-03-28T16:03:53Z</time></trkpt><trkpt lat="45.94078467544695" lon="10.167267251107347"><ele>1028.0</ele><time>2026-03-28T16:03:54Z</time></trkpt><trkpt lat="45.94076529914379" lon="10.167462203669581"><ele>1028.0</ele><time>2026-03-28T16:03:55Z</time></trkpt><trkpt lat="45.94076999513807" lon="10.16765135333248"><ele>1028.0</ele><time>2026-03-28T16:03:56Z</time></trkpt><trkpt lat="45.94078528664729" lon="10.167772594758855"><ele>1025.0</ele><time>2026-03-28T16:03:57Z</time></trkpt><trkpt lat="45.94079450801421" lon="10.167876151300293"><ele>1022.0</ele><time>2026-03-28T16:03:58Z</time></trkpt><trkpt lat="45.94085540261027" lon="10.167977790754597"><ele>1019.0</ele><time>2026-03-28T16:04:00Z</time></trkpt><trkpt lat="45.94094015017954" lon="10.167961827070826"><ele>1016.0</ele><time>2026-03-28T16:04:02Z</time></trkpt><trkpt lat="45.941000016422144" lon="10.167910897651144"><ele>1013.0000000000001</ele><time>2026-03-28T16:04:04Z</time></trkpt><trkpt lat="45.941074299413565" lon="10.167869219609072"><ele>1010.0</ele><time>2026-03-28T16:04:08Z</time></trkpt><trkpt lat="45.94109020390406" lon="10.167958148609394"><ele>1008.6666666666667</ele><time>2026-03-28T16:04:16Z</time></trkpt><trkpt lat="45.94113571846411" lon="10.168039853479726"><ele>1007.3333333333334</ele><time>2026-03-28T16:04:19Z</time></trkpt><trkpt lat="45.94110114676332" lon="10.168135738658506"><ele>1006.0</ele><time>2026-03-28T16:04:22Z</time></trkpt><trkpt lat="45.94106489800376" lon="10.168212609285293"><ele>1004.6666666666667</ele><time>2026-03-28T16:04:25Z</time></trkpt><trkpt lat="45.94098596659804" lon="10.168279994420068"><ele>1003.3333333333334</ele><time>2026-03-28T16:04:29Z</time></trkpt><trkpt lat="45.9409804601474" lon="10.168420344492752"><ele>1002.0</ele><time>2026-03-28T16:04:32Z</time></trkpt><trkpt lat="45.94100429812773" lon="10.16851935888005"><ele>1002.0</ele><time>2026-03-28T16:04:37Z</time></trkpt><trkpt lat="45.94097988747581" lon="10.168618095297484"><ele>1002.0</ele><time>2026-03-28T16:04:40Z</time></trkpt><trkpt lat="45.940945761389706" lon="10.168741661880029"><ele>1002.0</ele><time>2026-03-28T16:04:43Z</time></trkpt><trkpt lat="45.94087561889075" lon="10.168821645523531"><ele>1002.0</ele><time>2026-03-28T16:04:46Z</time></trkpt><trkpt lat="45.940819569835625" lon="10.168941486593715"><ele>1002.0</ele><time>2026-03-28T16:04:49Z</time></trkpt><trkpt lat="45.94079581317422" lon="10.16907565457464"><ele>1000.5</ele><time>2026-03-28T16:04:52Z</time></trkpt><trkpt lat="45.94078108696243" lon="10.169172091615277"><ele>999.0</ele><time>2026-03-28T16:04:55Z</time></trkpt><trkpt lat="45.940782791561176" lon="10.169267954232582"><ele>997.5</ele><time>2026-03-28T16:04:59Z</time></trkpt><trkpt lat="45.940816636367664" lon="10.169371140153384"><ele>996.0</ele><time>2026-03-28T16:05:03Z</time></trkpt><trkpt lat="45.94089731904536" lon="10.169475795939094"><ele>994.5</ele><time>2026-03-28T16:05:05Z</time></trkpt><trkpt lat="45.94093270013942" lon="10.169561593394677"><ele>993.0</ele><time>2026-03-28T16:05:07Z</time></trkpt><trkpt lat="45.9410751728681" lon="10.169509385126645"><ele>993.0</ele><time>2026-03-28T16:05:09Z</time></trkpt><trkpt lat="45.9411579015096" lon="10.169484012776138"><ele>993.0</ele><time>2026-03-28T16:05:10Z</time></trkpt><trkpt lat="45.94122811202989" lon="10.16948276381778"><ele>993.0</ele><time>2026-03-28T16:05:11Z</time></trkpt><trkpt lat="45.94130953083528" lon="10.16954024713747"><ele>993.0</ele><time>2026-03-28T16:05:13Z</time></trkpt><trkpt lat="45.94130666950399" lon="10.169660100087476"><ele>993.0</ele><time>2026-03-28T16:05:16Z</time></trkpt><trkpt lat="45.941258439049484" lon="10.169720014644112"><ele>993.0</ele><time>2026-03-28T16:05:17Z</time></trkpt><trkpt lat="45.94124817516705" lon="10.169810446023783"><ele>992.8</ele><time>2026-03-28T16:05:18Z</time></trkpt><trkpt lat="45.941219706945745" lon="10.169953071208493"><ele>992.5999999999999</ele><time>2026-03-28T16:05:19Z</time></trkpt><trkpt lat="45.941213577555445" lon="10.17010430446035"><ele>992.4000000000001</ele><time>2026-03-28T16:05:20Z</time></trkpt><trkpt lat="45.94118099107238" lon="10.170252784688149"><ele>992.2</ele><time>2026-03-28T16:05:21Z</time></trkpt><trkpt lat="45.94115880179825" lon="10.170388244125277"><ele>992.0</ele><time>2026-03-28T16:05:22Z</time></trkpt><trkpt lat="45.94113755020477" lon="10.170520276984886"><ele>992.0</ele><time>2026-03-28T16:05:23Z</time></trkpt><trkpt lat="45.941117047023376" lon="10.170647660293431"><ele>992.0</ele><time>2026-03-28T16:05:24Z</time></trkpt><trkpt lat="45.94111410058978" lon="10.17077817429321"><ele>992.0</ele><time>2026-03-28T16:05:25Z</time></trkpt><trkpt lat="45.941092176841835" lon="10.170929914168482"><ele>992.0</ele><time>2026-03-28T16:05:26Z</time></trkpt><trkpt lat="45.94107033588804" lon="10.171103384513296"><ele>992.0</ele><time>2026-03-28T16:05:27Z</time></trkpt><trkpt lat="45.94106633462473" lon="10.171291549681174"><ele>991.3333333333334</ele><time>2026-03-28T16:05:28Z</time></trkpt><trkpt lat="45.94108801192398" lon="10.171511091577862"><ele>990.6666666666667</ele><time>2026-03-28T16:05:29Z</time></trkpt><trkpt lat="45.94110798173641" lon="10.171744806019973"><ele>990.0</ele><time>2026-03-28T16:05:30Z</time></trkpt><trkpt lat="45.9411039230352" lon="10.17198367013524"><ele>988.3333333333333</ele><time>2026-03-28T16:05:31Z</time></trkpt><trkpt lat="45.941116380247976" lon="10.172221007444271"><ele>986.6666666666666</ele><time>2026-03-28T16:05:32Z</time></trkpt><trkpt lat="45.94114023894557" lon="10.172471696223935"><ele>985.0</ele><time>2026-03-28T16:05:33Z</time></trkpt><trkpt lat="45.941157435056404" lon="10.17273583198523"><ele>984.0</ele><time>2026-03-28T16:05:34Z</time></trkpt><trkpt lat="45.94119861839456" lon="10.172980848147246"><ele>983.0</ele><time>2026-03-28T16:05:35Z</time></trkpt><trkpt lat="45.941201904400565" lon="10.17321186793227"><ele>982.0</ele><time>2026-03-28T16:05:36Z</time></trkpt><trkpt lat="45.94121708424386" lon="10.173433292903956"><ele>981.75</ele><time>2026-03-28T16:05:37Z</time></trkpt><trkpt lat="45.941250190826715" lon="10.173642879158578"><ele>981.5</ele><time>2026-03-28T16:05:38Z</time></trkpt><trkpt lat="45.941266671909396" lon="10.17382948947681"><ele>981.25</ele><time>2026-03-28T16:05:39Z</time></trkpt><trkpt lat="45.9412980804396" lon="10.174019582223604"><ele>981.0</ele><time>2026-03-28T16:05:40Z</time></trkpt><trkpt lat="45.94134208097975" lon="10.174188547212067"><ele>980.0</ele><time>2026-03-28T16:05:41Z</time></trkpt><trkpt lat="45.941394414443856" lon="10.174335977675048"><ele>979.0</ele><time>2026-03-28T16:05:42Z</time></trkpt><trkpt lat="45.94140459926471" lon="10.174498916588234"><ele>978.0</ele><time>2026-03-28T16:05:43Z</time></trkpt><trkpt lat="45.94144874219169" lon="10.174683477673135"><ele>977.0</ele><time>2026-03-28T16:05:44Z</time></trkpt><trkpt lat="45.94151133830627" lon="10.174878962257823"><ele>976.25</ele><time>2026-03-28T16:05:45Z</time></trkpt><trkpt lat="45.94157778030251" lon="10.175075369546793"><ele>975.5</ele><time>2026-03-28T16:05:46Z</time></trkpt><trkpt lat="45.94164623883055" lon="10.175241892132352"><ele>974.75</ele><time>2026-03-28T16:05:47Z</time></trkpt><trkpt lat="45.94172455702425" lon="10.175387923533718"><ele>974.0</ele><time>2026-03-28T16:05:48Z</time></trkpt><trkpt lat="45.94180599042429" lon="10.175512225887047"><ele>974.0</ele><time>2026-03-28T16:05:49Z</time></trkpt><trkpt lat="45.94188266341077" lon="10.175604590474444"><ele>974.0000000000001</ele><time>2026-03-28T16:05:50Z</time></trkpt><trkpt lat="45.941974112684726" lon="10.17567247526809"><ele>974.0000000000001</ele><time>2026-03-28T16:05:51Z</time></trkpt><trkpt lat="45.942037044595985" lon="10.175766483351723"><ele>974.0</ele><time>2026-03-28T16:05:52Z</time></trkpt><trkpt lat="45.94209255794465" lon="10.175866805140926"><ele>974.0</ele><time>2026-03-28T16:05:53Z</time></trkpt><trkpt lat="45.94213563199627" lon="10.17598746272828"><ele>971.2</ele><time>2026-03-28T16:05:54Z</time></trkpt><trkpt lat="45.9421364885265" lon="10.176134694157755"><ele>968.4000000000001</ele><time>2026-03-28T16:05:55Z</time></trkpt><trkpt lat="45.94215197503671" lon="10.176298770603484"><ele>965.6</ele><time>2026-03-28T16:05:56Z</time></trkpt><trkpt lat="45.94217980991899" lon="10.176447213471011"><ele>962.8</ele><time>2026-03-28T16:05:57Z</time></trkpt><trkpt lat="45.94216967638269" lon="10.176595688459889"><ele>960.0</ele><time>2026-03-28T16:05:58Z</time></trkpt><trkpt lat="45.9421651464686" lon="10.176755438041408"><ele>958.5</ele><time>2026-03-28T16:05:59Z</time></trkpt><trkpt lat="45.94217094101077" lon="10.176940015251501"><ele>957.0</ele><time>2026-03-28T16:06:00Z</time></trkpt><trkpt lat="45.94219159868314" lon="10.17715012227232"><ele>955.5</ele><time>2026-03-28T16:06:01Z</time></trkpt><trkpt lat="45.942177466096524" lon="10.177372688206889"><ele>954.0</ele><time>2026-03-28T16:06:02Z</time></trkpt><trkpt lat="45.94220260491861" lon="10.177574545386651"><ele>953.8000000000001</ele><time>2026-03-28T16:06:03Z</time></trkpt><trkpt lat="45.94222174774197" lon="10.177730219080196"><ele>953.6000000000001</ele><time>2026-03-28T16:06:04Z</time></trkpt><trkpt lat="45.942235931115555" lon="10.177832879993325"><ele>953.4</ele><time>2026-03-28T16:06:05Z</time></trkpt><trkpt lat="45.94221010552509" lon="10.177929051652992"><ele>953.2</ele><time>2026-03-28T16:06:06Z</time></trkpt><trkpt lat="45.94207309422351" lon="10.177945309869234"><ele>953.0</ele><time>2026-03-28T16:06:09Z</time></trkpt><trkpt lat="45.94201123842509" lon="10.177892958351551"><ele>953.0</ele><time>2026-03-28T16:06:10Z</time></trkpt><trkpt lat="45.94186521699499" lon="10.17777273011503"><ele>953.0</ele><time>2026-03-28T16:06:12Z</time></trkpt><trkpt lat="45.94174642261985" lon="10.17768096059435"><ele>953.0</ele><time>2026-03-28T16:06:13Z</time></trkpt><trkpt lat="45.94166602152899" lon="10.177618850167569"><ele>953.0</ele><time>2026-03-28T16:06:14Z</time></trkpt><trkpt lat="45.941241347179314" lon="10.178019467162176"><ele>952.3333333333334</ele><time>2026-03-28T16:06:16Z</time></trkpt><trkpt lat="45.94115915578961" lon="10.178242998088782"><ele>951.6666666666667</ele><time>2026-03-28T16:06:17Z</time></trkpt><trkpt lat="45.94107106758393" lon="10.178482565609348"><ele>951.0</ele><time>2026-03-28T16:06:18Z</time></trkpt><trkpt lat="45.94101339869014" lon="10.178639403166546"><ele>951.0</ele><time>2026-03-28T16:06:19Z</time></trkpt><trkpt lat="45.94097926880957" lon="10.178732223529853"><ele>951.0</ele><time>2026-03-28T16:06:20Z</time></trkpt><trkpt lat="45.940992807128474" lon="10.178861618742543"><ele>951.0</ele><time>2026-03-28T16:06:21Z</time></trkpt><trkpt lat="45.94091885956643" lon="10.178924831313328"><ele>951.0</ele><time>2026-03-28T16:06:22Z</time></trkpt><trkpt lat="45.94082675926105" lon="10.17889911664461"><ele>951.0</ele><time>2026-03-28T16:06:24Z</time></trkpt><trkpt lat="45.94073431847044" lon="10.178865603334122"><ele>951.0</ele><time>2026-03-28T16:06:35Z</time></trkpt><trkpt lat="45.940746357490234" lon="10.17900345418551"><ele>951.0</ele><time>2026-03-28T16:06:39Z</time></trkpt><trkpt lat="45.94082052416105" lon="10.179144290977124"><ele>950.9999999999999</ele><time>2026-03-28T16:06:41Z</time></trkpt><trkpt lat="45.940843203719645" lon="10.179288964934436"><ele>950.9999999999999</ele><time>2026-03-28T16:06:43Z</time></trkpt><trkpt lat="45.94086239827571" lon="10.179422374763476"><ele>951.0</ele><time>2026-03-28T16:06:45Z</time></trkpt><trkpt lat="45.94088451633329" lon="10.1795732214786"><ele>951.0</ele><time>2026-03-28T16:06:47Z</time></trkpt><trkpt lat="45.94092987648029" lon="10.17971126372421"><ele>950.5</ele><time>2026-03-28T16:06:49Z</time></trkpt><trkpt lat="45.940947608510534" lon="10.179805065983862"><ele>950.0</ele><time>2026-03-28T16:06:52Z</time></trkpt><trkpt lat="45.94097186193156" lon="10.179922721656805"><ele>949.5</ele><time>2026-03-28T16:06:54Z</time></trkpt><trkpt lat="45.94099567903776" lon="10.180011070721662"><ele>949.0</ele><time>2026-03-28T16:06:55Z</time></trkpt><trkpt lat="45.94102819303525" lon="10.18014017585806"><ele>948.5</ele><time>2026-03-28T16:06:58Z</time></trkpt><trkpt lat="45.94109020760814" lon="10.180235516205647"><ele>948.0</ele><time>2026-03-28T16:07:00Z</time></trkpt><trkpt lat="45.94112008314698" lon="10.18037650822209"><ele>947.8333333333334</ele><time>2026-03-28T16:07:03Z</time></trkpt><trkpt lat="45.94116657024707" lon="10.180509543249787"><ele>947.6666666666667</ele><time>2026-03-28T16:07:05Z</time></trkpt><trkpt lat="45.94119223750297" lon="10.180627138425608"><ele>947.5</ele><time>2026-03-28T16:07:07Z</time></trkpt><trkpt lat="45.941209167701054" lon="10.180716192927978"><ele>947.3333333333334</ele><time>2026-03-28T16:07:08Z</time></trkpt><trkpt lat="45.94122495346313" lon="10.180828907627337"><ele>947.1666666666667</ele><time>2026-03-28T16:07:10Z</time></trkpt><trkpt lat="45.941227029766914" lon="10.18098907158193"><ele>947.0</ele><time>2026-03-28T16:07:14Z</time></trkpt><trkpt lat="45.94118300838164" lon="10.181086727113895"><ele>947.0</ele><time>2026-03-28T16:07:16Z</time></trkpt><trkpt lat="45.94110097136223" lon="10.181156697371646"><ele>947.0</ele><time>2026-03-28T16:07:18Z</time></trkpt><trkpt lat="45.94098505784008" lon="10.181202731304987"><ele>947.0</ele><time>2026-03-28T16:07:20Z</time></trkpt><trkpt lat="45.94095866320736" lon="10.18134774768419"><ele>947.0</ele><time>2026-03-28T16:07:23Z</time></trkpt><trkpt lat="45.94096866597389" lon="10.181459998018868"><ele>947.0</ele><time>2026-03-28T16:07:24Z</time></trkpt><trkpt lat="45.94097848815061" lon="10.181645510951652"><ele>947.0</ele><time>2026-03-28T16:07:26Z</time></trkpt><trkpt lat="45.94098705121595" lon="10.181743980794135"><ele>946.9999999999999</ele><time>2026-03-28T16:07:28Z</time></trkpt><trkpt lat="45.940985212071354" lon="10.181864417978476"><ele>947.0</ele><time>2026-03-28T16:07:31Z</time></trkpt><trkpt lat="45.94101555898223" lon="10.181950888439532"><ele>947.0</ele><time>2026-03-28T16:07:35Z</time></trkpt><trkpt lat="45.94103285600411" lon="10.182039273846735"><ele>946.9999999999999</ele><time>2026-03-28T16:07:37Z</time></trkpt><trkpt lat="45.940984994540884" lon="10.18210514344738"><ele>947.0</ele><time>2026-03-28T16:07:39Z</time></trkpt><trkpt lat="45.94093890235876" lon="10.182187050329137"><ele>947.0</ele><time>2026-03-28T16:07:41Z</time></trkpt><trkpt lat="45.94089642676349" lon="10.182285888208057"><ele>947.2</ele><time>2026-03-28T16:07:44Z</time></trkpt><trkpt lat="45.9408683140385" lon="10.182487966319606"><ele>947.4000000000001</ele><time>2026-03-28T16:07:47Z</time></trkpt><trkpt lat="45.94085757373725" lon="10.182628851518377"><ele>947.5999999999999</ele><time>2026-03-28T16:07:48Z</time></trkpt><trkpt lat="45.940875775300974" lon="10.18276978788126"><ele>947.8</ele><time>2026-03-28T16:07:50Z</time></trkpt><trkpt lat="45.940886463737115" lon="10.18289610446138"><ele>948.0</ele><time>2026-03-28T16:07:52Z</time></trkpt><trkpt lat="45.94086732182817" lon="10.183044193362866"><ele>947.5999999999999</ele><time>2026-03-28T16:07:54Z</time></trkpt><trkpt lat="45.94085648515844" lon="10.183172994187604"><ele>947.1999999999999</ele><time>2026-03-28T16:07:56Z</time></trkpt><trkpt lat="45.940855475007844" lon="10.183301426661417"><ele>946.8</ele><time>2026-03-28T16:07:58Z</time></trkpt><trkpt lat="45.94086763374259" lon="10.183411796677705"><ele>946.4</ele><time>2026-03-28T16:08:00Z</time></trkpt><trkpt lat="45.94084354308674" lon="10.183541108770788"><ele>946.0</ele><time>2026-03-28T16:08:02Z</time></trkpt><trkpt lat="45.94081275743007" lon="10.183681393106918"><ele>946.0</ele><time>2026-03-28T16:08:04Z</time></trkpt><trkpt lat="45.940758701372474" lon="10.18383485565464"><ele>945.9999999999999</ele><time>2026-03-28T16:08:06Z</time></trkpt><trkpt lat="45.94071844067962" lon="10.183934176680244"><ele>945.9999999999999</ele><time>2026-03-28T16:08:07Z</time></trkpt><trkpt lat="45.940681112989516" lon="10.184037109392095"><ele>946.0</ele><time>2026-03-28T16:08:08Z</time></trkpt><trkpt lat="45.94063859768922" lon="10.184177415779017"><ele>946.0</ele><time>2026-03-28T16:08:10Z</time></trkpt><trkpt lat="45.940589050485876" lon="10.184241487582053"><ele>945.0</ele><time>2026-03-28T16:08:11Z</time></trkpt><trkpt lat="45.940535581912044" lon="10.184301131666558"><ele>943.9999999999999</ele><time>2026-03-28T16:08:12Z</time></trkpt><trkpt lat="45.940472339472066" lon="10.184333817108476"><ele>942.9999999999999</ele><time>2026-03-28T16:08:13Z</time></trkpt><trkpt lat="45.940387243908816" lon="10.184434458349507"><ele>942.0</ele><time>2026-03-28T16:08:15Z</time></trkpt><trkpt lat="45.94038344914419" lon="10.18455815886407"><ele>941.0</ele><time>2026-03-28T16:08:17Z</time></trkpt><trkpt lat="45.94049103724295" lon="10.184691441054591"><ele>941.0</ele><time>2026-03-28T16:08:19Z</time></trkpt><trkpt lat="45.940486537998616" lon="10.184823425235773"><ele>940.9999999999999</ele><time>2026-03-28T16:08:22Z</time></trkpt><trkpt lat="45.9405229211694" lon="10.184944852325081"><ele>940.9999999999999</ele><time>2026-03-28T16:08:24Z</time></trkpt><trkpt lat="45.94057412266569" lon="10.185096410824976"><ele>941.0</ele><time>2026-03-28T16:08:26Z</time></trkpt><trkpt lat="45.94056110723273" lon="10.185223305855166"><ele>941.0</ele><time>2026-03-28T16:08:28Z</time></trkpt><trkpt lat="45.940568138673974" lon="10.185321179506108"><ele>941.0000000000001</ele><time>2026-03-28T16:08:29Z</time></trkpt><trkpt lat="45.940611183245466" lon="10.185463374480465"><ele>941.0</ele><time>2026-03-28T16:08:31Z</time></trkpt><trkpt lat="45.94061581297786" lon="10.185578843781036"><ele>941.0</ele><time>2026-03-28T16:08:33Z</time></trkpt><trkpt lat="45.94061109364391" lon="10.185679981607041"><ele>941.0</ele><time>2026-03-28T16:08:36Z</time></trkpt><trkpt lat="45.94066264429068" lon="10.185749376802132"><ele>941.0000000000001</ele><time>2026-03-28T16:08:38Z</time></trkpt><trkpt lat="45.94071583731031" lon="10.185860044619433"><ele>941.0</ele><time>2026-03-28T16:08:41Z</time></trkpt><trkpt lat="45.9407713455442" lon="10.185975456436877"><ele>941.1666666666667</ele><time>2026-03-28T16:08:43Z</time></trkpt><trkpt lat="45.94081124113179" lon="10.186091182785141"><ele>941.3333333333334</ele><time>2026-03-28T16:08:44Z</time></trkpt><trkpt lat="45.94085183595317" lon="10.186191259000394"><ele>941.5</ele><time>2026-03-28T16:08:45Z</time></trkpt><trkpt lat="45.94087406427015" lon="10.186280820883958"><ele>941.6666666666667</ele><time>2026-03-28T16:08:46Z</time></trkpt><trkpt lat="45.94093010479981" lon="10.186393634658614"><ele>941.8333333333334</ele><time>2026-03-28T16:08:48Z</time></trkpt><trkpt lat="45.940984249154646" lon="10.186483824268539"><ele>942.0</ele><time>2026-03-28T16:08:51Z</time></trkpt><trkpt lat="45.941054036443695" lon="10.186555697775445"><ele>942.6</ele><time>2026-03-28T16:08:54Z</time></trkpt><trkpt lat="45.941133233209285" lon="10.186619392076143"><ele>943.2</ele><time>2026-03-28T16:08:57Z</time></trkpt><trkpt lat="45.94114553379442" lon="10.186737803308974"><ele>943.8</ele><time>2026-03-28T16:09:00Z</time></trkpt><trkpt lat="45.9411382432695" lon="10.18683863199807"><ele>944.4</ele><time>2026-03-28T16:09:01Z</time></trkpt><trkpt lat="45.941157181404705" lon="10.187020224354109"><ele>945.0</ele><time>2026-03-28T16:09:02Z</time></trkpt><trkpt lat="45.94113854511974" lon="10.187144425613033"><ele>945.0</ele><time>2026-03-28T16:09:06Z</time></trkpt><trkpt lat="45.9411758351794" lon="10.187246030306197"><ele>945.0</ele><time>2026-03-28T16:09:07Z</time></trkpt><trkpt lat="45.94122373020079" lon="10.187314536919107"><ele>945.0</ele><time>2026-03-28T16:09:08Z</time></trkpt><trkpt lat="45.94130981694412" lon="10.187386099509444"><ele>945.0</ele><time>2026-03-28T16:09:10Z</time></trkpt><trkpt lat="45.94142958737574" lon="10.187510421046793"><ele>945.0</ele><time>2026-03-28T16:09:12Z</time></trkpt><trkpt lat="45.941486129170684" lon="10.1876372751721"><ele>943.6666666666666</ele><time>2026-03-28T16:09:13Z</time></trkpt><trkpt lat="45.941538875050334" lon="10.187708684813112"><ele>942.3333333333333</ele><time>2026-03-28T16:09:14Z</time></trkpt><trkpt lat="45.94156420322693" lon="10.18787070057825"><ele>941.0</ele><time>2026-03-28T16:09:16Z</time></trkpt><trkpt lat="45.941629515596745" lon="10.187948579050449"><ele>939.6666666666666</ele><time>2026-03-28T16:09:17Z</time></trkpt><trkpt lat="45.94161407944235" lon="10.188041322741187"><ele>938.3333333333333</ele><time>2026-03-28T16:09:21Z</time></trkpt><trkpt lat="45.94168523317038" lon="10.188102251226002"><ele>937.0</ele><time>2026-03-28T16:09:25Z</time></trkpt><trkpt lat="45.941666404701074" lon="10.188207903998618"><ele>935.8</ele><time>2026-03-28T16:09:28Z</time></trkpt><trkpt lat="45.94172508072606" lon="10.18828474108465"><ele>934.6</ele><time>2026-03-28T16:09:31Z</time></trkpt><trkpt lat="45.941692266044164" lon="10.188366794218135"><ele>933.3999999999999</ele><time>2026-03-28T16:09:33Z</time></trkpt><trkpt lat="45.941715054644284" lon="10.188620345872698"><ele>932.1999999999999</ele><time>2026-03-28T16:09:35Z</time></trkpt><trkpt lat="45.9417556542038" lon="10.188778659356522"><ele>931.0</ele><time>2026-03-28T16:09:36Z</time></trkpt><trkpt lat="45.941758533635515" lon="10.188886777311303"><ele>933.0</ele><time>2026-03-28T16:09:37Z</time></trkpt><trkpt lat="45.94175009061649" lon="10.189013855232101"><ele>935.0</ele><time>2026-03-28T16:09:38Z</time></trkpt><trkpt lat="45.94204904815352" lon="10.189519051946576"><ele>935.0000000000001</ele><time>2026-03-28T16:09:39Z</time></trkpt><trkpt lat="45.942128976299344" lon="10.189623417575165"><ele>935.0</ele><time>2026-03-28T16:09:41Z</time></trkpt><trkpt lat="45.942181220278016" lon="10.189694312264612"><ele>935.0</ele><time>2026-03-28T16:09:42Z</time></trkpt><trkpt lat="45.9422368429344" lon="10.189770170121568"><ele>935.0</ele><time>2026-03-28T16:09:43Z</time></trkpt><trkpt lat="45.94230236065369" lon="10.189843437184086"><ele>935.0000000000001</ele><time>2026-03-28T16:09:45Z</time></trkpt><trkpt lat="45.94234170435494" lon="10.189946058347699"><ele>935.0</ele><time>2026-03-28T16:09:49Z</time></trkpt><trkpt lat="45.94238763106415" lon="10.1900524411509"><ele>931.0</ele><time>2026-03-28T16:09:55Z</time></trkpt><trkpt lat="45.942451283653355" lon="10.190117482748896"><ele>927.0</ele><time>2026-03-28T16:09:58Z</time></trkpt><trkpt lat="45.94248365805619" lon="10.190483594137223"><ele>923.0</ele><time>2026-03-28T16:10:00Z</time></trkpt><trkpt lat="45.94240551133282" lon="10.190085477476655"><ele>923.0</ele><time>2026-03-28T16:10:01Z</time></trkpt><trkpt lat="45.942437468403575" lon="10.19020535467982"><ele>923.0</ele><time>2026-03-28T16:10:02Z</time></trkpt><trkpt lat="45.942380153487186" lon="10.190346411789827"><ele>923.0</ele><time>2026-03-28T16:10:03Z</time></trkpt><trkpt lat="45.94238353150341" lon="10.190454458547814"><ele>923.0</ele><time>2026-03-28T16:10:04Z</time></trkpt><trkpt lat="45.94236874288409" lon="10.190606259237583"><ele>923.0</ele><time>2026-03-28T16:10:05Z</time></trkpt><trkpt lat="45.94233198306222" lon="10.190749486450281"><ele>922.0</ele><time>2026-03-28T16:10:06Z</time></trkpt><trkpt lat="45.94254602389717" lon="10.191080624773528"><ele>921.0</ele><time>2026-03-28T16:10:08Z</time></trkpt><trkpt lat="45.942556796707365" lon="10.191185362217594"><ele>920.0</ele><time>2026-03-28T16:10:13Z</time></trkpt><trkpt lat="45.942600705576886" lon="10.191304548263716"><ele>920.0000000000001</ele><time>2026-03-28T16:10:16Z</time></trkpt><trkpt lat="45.94261834826071" lon="10.191433638841815"><ele>920.0</ele><time>2026-03-28T16:10:18Z</time></trkpt><trkpt lat="45.942556243136444" lon="10.191462936952016"><ele>920.0</ele><time>2026-03-28T16:10:22Z</time></trkpt><trkpt lat="45.94248302722791" lon="10.191338606971726"><ele>920.0</ele><time>2026-03-28T16:10:24Z</time></trkpt><trkpt lat="45.94243816768055" lon="10.191229707736762"><ele>920.0000000000001</ele><time>2026-03-28T16:10:26Z</time></trkpt><trkpt lat="45.94236804515817" lon="10.191203796312127"><ele>920.0</ele><time>2026-03-28T16:10:30Z</time></trkpt><trkpt lat="45.94234804137211" lon="10.191329989455939"><ele>920.0000000000001</ele><time>2026-03-28T16:10:32Z</time></trkpt><trkpt lat="45.94237241424556" lon="10.191423844277844"><ele>920.0</ele><time>2026-03-28T16:10:33Z</time></trkpt><trkpt lat="45.94240059850855" lon="10.191515097463311"><ele>920.0</ele><time>2026-03-28T16:10:34Z</time></trkpt><trkpt lat="45.942417397961506" lon="10.191621659332675"><ele>920.0</ele><time>2026-03-28T16:10:35Z</time></trkpt><trkpt lat="45.942478219017204" lon="10.191702798947732"><ele>920.0000000000001</ele><time>2026-03-28T16:10:36Z</time></trkpt><trkpt lat="45.94254502909406" lon="10.191767513092264"><ele>920.0</ele><time>2026-03-28T16:10:37Z</time></trkpt><trkpt lat="45.942600437809894" lon="10.191846834320998"><ele>921.0000000000001</ele><time>2026-03-28T16:10:38Z</time></trkpt><trkpt lat="45.94265235181792" lon="10.191905065805809"><ele>922.0</ele><time>2026-03-28T16:10:39Z</time></trkpt><trkpt lat="45.94272471710573" lon="10.191990894871784"><ele>923.0</ele><time>2026-03-28T16:10:41Z</time></trkpt><trkpt lat="45.94278343625584" lon="10.192041074564152"><ele>924.0</ele><time>2026-03-28T16:10:44Z</time></trkpt><trkpt lat="45.94270149164048" lon="10.19209844156098"><ele>925.0000000000001</ele><time>2026-03-28T16:10:48Z</time></trkpt><trkpt lat="45.942643702364876" lon="10.19203389902113"><ele>926.0</ele><time>2026-03-28T16:10:51Z</time></trkpt><trkpt lat="45.942638783769986" lon="10.191933247307135"><ele>926.0</ele><time>2026-03-28T16:10:53Z</time></trkpt><trkpt lat="45.942667847867945" lon="10.19181671267707"><ele>926.0</ele><time>2026-03-28T16:10:56Z</time></trkpt><trkpt lat="45.942720665311164" lon="10.191887449382419"><ele>926.0</ele><time>2026-03-28T16:11:02Z</time></trkpt><trkpt lat="45.942536501634315" lon="10.192112110177563"><ele>926.0</ele><time>2026-03-28T16:11:04Z</time></trkpt><trkpt lat="45.94277043203297" lon="10.192034310216565"><ele>926.0</ele><time>2026-03-28T16:11:07Z</time></trkpt><trkpt lat="45.942714424030676" lon="10.192078473758448"><ele>925.9999999999999</ele><time>2026-03-28T16:11:11Z</time></trkpt><trkpt lat="45.94266435694543" lon="10.192005316189668"><ele>926.0</ele><time>2026-03-28T16:11:15Z</time></trkpt><trkpt lat="45.94264511733463" lon="10.191912534585724"><ele>926.0</ele><time>2026-03-28T16:11:18Z</time></trkpt><trkpt lat="45.94264895330735" lon="10.191815494886006"><ele>925.9999999999999</ele><time>2026-03-28T16:11:23Z</time></trkpt><trkpt lat="45.942721217455265" lon="10.19188543881138"><ele>926.0</ele><time>2026-03-28T16:11:28Z</time></trkpt><trkpt lat="45.94275445971974" lon="10.191992574933423"><ele>926.0</ele><time>2026-03-28T16:11:32Z</time></trkpt><trkpt lat="45.94276292923939" lon="10.192089651767223"><ele>926.0</ele><time>2026-03-28T16:11:35Z</time></trkpt><trkpt lat="45.94269963755154" lon="10.19212350716444"><ele>925.9999999999999</ele><time>2026-03-28T16:11:39Z</time></trkpt><trkpt lat="45.94266512471278" lon="10.192217579485185"><ele>926.0</ele><time>2026-03-28T16:11:42Z</time></trkpt><trkpt lat="45.94269133405749" lon="10.19232800372803"><ele>926.0</ele><time>2026-03-28T16:11:44Z</time></trkpt><trkpt lat="45.94265079154585" lon="10.192411010761935"><ele>925.9999999999999</ele><time>2026-03-28T16:11:47Z</time></trkpt><trkpt lat="45.94259398089104" lon="10.192364194319827"><ele>926.0</ele><time>2026-03-28T16:11:50Z</time></trkpt><trkpt lat="45.94258182889093" lon="10.192250764743829"><ele>926.0</ele><time>2026-03-28T16:11:53Z</time></trkpt><trkpt lat="45.94249643139139" lon="10.192203812708103"><ele>923.1666666666667</ele><time>2026-03-28T16:11:57Z</time></trkpt><trkpt lat="45.9424165380227" lon="10.19224341616111"><ele>920.3333333333334</ele><time>2026-03-28T16:11:58Z</time></trkpt><trkpt lat="45.942345731276966" lon="10.192309785951515"><ele>917.5</ele><time>2026-03-28T16:11:59Z</time></trkpt><trkpt lat="45.942288738534685" lon="10.192364037373869"><ele>914.6666666666667</ele><time>2026-03-28T16:12:00Z</time></trkpt><trkpt lat="45.94220850001163" lon="10.192389684909239"><ele>911.8333333333334</ele><time>2026-03-28T16:12:03Z</time></trkpt><trkpt lat="45.942246471692656" lon="10.192483590340151"><ele>909.0</ele><time>2026-03-28T16:12:06Z</time></trkpt><trkpt lat="45.94232020486109" lon="10.192396312452052"><ele>909.0</ele><time>2026-03-28T16:12:08Z</time></trkpt><trkpt lat="45.94232576827691" lon="10.192293218172045"><ele>909.0</ele><time>2026-03-28T16:12:11Z</time></trkpt><trkpt lat="45.942354120007266" lon="10.19221030185162"><ele>909.0</ele><time>2026-03-28T16:12:17Z</time></trkpt><trkpt lat="45.942433485388385" lon="10.192200104883762"><ele>909.0</ele><time>2026-03-28T16:12:19Z</time></trkpt><trkpt lat="45.94249872421049" lon="10.192216097002364"><ele>909.0</ele><time>2026-03-28T16:12:20Z</time></trkpt><trkpt lat="45.94257175539993" lon="10.192240248520804"><ele>909.0</ele><time>2026-03-28T16:12:21Z</time></trkpt><trkpt lat="45.94252444453774" lon="10.192166223325867"><ele>909.0</ele><time>2026-03-28T16:12:32Z</time></trkpt><trkpt lat="45.94245393025404" lon="10.192179227575062"><ele>909.0</ele><time>2026-03-28T16:12:33Z</time></trkpt><trkpt lat="45.94238008969445" lon="10.192196818647062"><ele>909.0</ele><time>2026-03-28T16:12:34Z</time></trkpt><trkpt lat="45.94231134989492" lon="10.192188341352855"><ele>909.0</ele><time>2026-03-28T16:12:35Z</time></trkpt><trkpt lat="45.94229969159765" lon="10.192067200980532"><ele>909.0</ele><time>2026-03-28T16:12:39Z</time></trkpt><trkpt lat="45.94233575052479" lon="10.191934048477556"><ele>909.0</ele><time>2026-03-28T16:12:41Z</time></trkpt><trkpt lat="45.942426151578275" lon="10.191930221557719"><ele>909.0</ele><time>2026-03-28T16:12:43Z</time></trkpt><trkpt lat="45.942493339478474" lon="10.192055083661861"><ele>909.0</ele><time>2026-03-28T16:12:45Z</time></trkpt><trkpt lat="45.942534483006774" lon="10.19212605020401"><ele>909.0</ele><time>2026-03-28T16:12:47Z</time></trkpt><trkpt lat="45.94256974190604" lon="10.192206406641693"><ele>909.0</ele><time>2026-03-28T16:13:15Z</time></trkpt><trkpt lat="45.94256208809956" lon="10.192306412768085"><ele>909.0</ele><time>2026-03-28T16:13:20Z</time></trkpt><trkpt lat="45.94258554677001" lon="10.192399769667311"><ele>909.0</ele><time>2026-03-28T16:13:23Z</time></trkpt><trkpt lat="45.94262359526265" lon="10.192520459429607"><ele>909.0</ele><time>2026-03-28T16:13:26Z</time></trkpt><trkpt lat="45.94271194813898" lon="10.192557666381834"><ele>909.6666666666666</ele><time>2026-03-28T16:13:29Z</time></trkpt><trkpt lat="45.942754463613774" lon="10.19263062355422"><ele>910.3333333333333</ele><time>2026-03-28T16:13:33Z</time></trkpt><trkpt lat="45.94276610882097" lon="10.192743184970784"><ele>911.0</ele><time>2026-03-28T16:13:49Z</time></trkpt><trkpt lat="45.94276854976915" lon="10.192861414901717"><ele>911.6666666666666</ele><time>2026-03-28T16:13:51Z</time></trkpt><trkpt lat="45.942783551918886" lon="10.192980910556457"><ele>912.3333333333333</ele><time>2026-03-28T16:13:53Z</time></trkpt><trkpt lat="45.94279917683216" lon="10.19310721312252"><ele>913.0</ele><time>2026-03-28T16:13:55Z</time></trkpt><trkpt lat="45.942847313286876" lon="10.193243739565087"><ele>911.2</ele><time>2026-03-28T16:13:57Z</time></trkpt><trkpt lat="45.94293626582164" lon="10.193373783539915"><ele>909.4</ele><time>2026-03-28T16:13:59Z</time></trkpt><trkpt lat="45.942953906427135" lon="10.193495562624316"><ele>907.6000000000001</ele><time>2026-03-28T16:14:00Z</time></trkpt><trkpt lat="45.94301214186451" lon="10.193602051737173"><ele>905.8000000000001</ele><time>2026-03-28T16:14:01Z</time></trkpt><trkpt lat="45.943074377559874" lon="10.193733248223099"><ele>904.0</ele><time>2026-03-28T16:14:02Z</time></trkpt><trkpt lat="45.94313097850533" lon="10.193877764478724"><ele>902.5</ele><time>2026-03-28T16:14:03Z</time></trkpt><trkpt lat="45.94315681097784" lon="10.194047412268711"><ele>901.0</ele><time>2026-03-28T16:14:04Z</time></trkpt><trkpt lat="45.94317887560717" lon="10.194230570924347"><ele>899.5</ele><time>2026-03-28T16:14:05Z</time></trkpt><trkpt lat="45.94320291671889" lon="10.194398200241167"><ele>898.0</ele><time>2026-03-28T16:14:06Z</time></trkpt><trkpt lat="45.94324829588077" lon="10.194568405960078"><ele>898.0</ele><time>2026-03-28T16:14:07Z</time></trkpt><trkpt lat="45.94329949490758" lon="10.194671519576875"><ele>898.0</ele><time>2026-03-28T16:14:08Z</time></trkpt><trkpt lat="45.9434015761471" lon="10.19473356954836"><ele>898.0</ele><time>2026-03-28T16:14:09Z</time></trkpt><trkpt lat="45.94347054033424" lon="10.194803238419366"><ele>898.0</ele><time>2026-03-28T16:14:10Z</time></trkpt><trkpt lat="45.94353125158157" lon="10.194872297748969"><ele>898.0</ele><time>2026-03-28T16:14:11Z</time></trkpt><trkpt lat="45.9436246788539" lon="10.1949527822048"><ele>898.5999999999999</ele><time>2026-03-28T16:14:13Z</time></trkpt><trkpt lat="45.94370118717334" lon="10.194833668611942"><ele>899.1999999999999</ele><time>2026-03-28T16:14:16Z</time></trkpt><trkpt lat="45.943722178293825" lon="10.194720815804068"><ele>899.8</ele><time>2026-03-28T16:14:17Z</time></trkpt><trkpt lat="45.943736103626556" lon="10.194605383830252"><ele>900.4</ele><time>2026-03-28T16:14:18Z</time></trkpt><trkpt lat="45.94375287826745" lon="10.19447924209543"><ele>901.0</ele><time>2026-03-28T16:14:19Z</time></trkpt><trkpt lat="45.94376943572327" lon="10.194341033487923"><ele>901.0</ele><time>2026-03-28T16:14:20Z</time></trkpt><trkpt lat="45.943791179819556" lon="10.194190347659422"><ele>901.0</ele><time>2026-03-28T16:14:21Z</time></trkpt><trkpt lat="45.94382152167833" lon="10.194045501388588"><ele>901.0</ele><time>2026-03-28T16:14:22Z</time></trkpt><trkpt lat="45.94385340186385" lon="10.193886542239323"><ele>901.0</ele><time>2026-03-28T16:14:23Z</time></trkpt><trkpt lat="45.9438750487756" lon="10.19370467776379"><ele>903.5</ele><time>2026-03-28T16:14:24Z</time></trkpt><trkpt lat="45.943905769969525" lon="10.19352133210779"><ele>906.0</ele><time>2026-03-28T16:14:25Z</time></trkpt><trkpt lat="45.9439304654413" lon="10.193322906294666"><ele>908.5</ele><time>2026-03-28T16:14:26Z</time></trkpt><trkpt lat="45.94396203290701" lon="10.193116792161238"><ele>911.0</ele><time>2026-03-28T16:14:27Z</time></trkpt><trkpt lat="45.944002587707416" lon="10.19290922091867"><ele>913.4</ele><time>2026-03-28T16:14:28Z</time></trkpt><trkpt lat="45.94403572812823" lon="10.192744221516328"><ele>915.8</ele><time>2026-03-28T16:14:29Z</time></trkpt><trkpt lat="45.94407418827855" lon="10.19264195752243"><ele>918.1999999999999</ele><time>2026-03-28T16:14:30Z</time></trkpt><trkpt lat="45.944131854742515" lon="10.19253349114103"><ele>920.5999999999999</ele><time>2026-03-28T16:14:32Z</time></trkpt><trkpt lat="45.94425051750411" lon="10.192605723708866"><ele>923.0</ele><time>2026-03-28T16:14:33Z</time></trkpt><trkpt lat="45.94435669706061" lon="10.192669683115827"><ele>924.0</ele><time>2026-03-28T16:14:34Z</time></trkpt><trkpt lat="45.944484398986255" lon="10.19273151398328"><ele>925.0</ele><time>2026-03-28T16:14:35Z</time></trkpt><trkpt lat="45.94463551975222" lon="10.192777006805366"><ele>926.0</ele><time>2026-03-28T16:14:36Z</time></trkpt><trkpt lat="45.944795332115866" lon="10.192834185451964"><ele>926.0</ele><time>2026-03-28T16:14:37Z</time></trkpt><trkpt lat="45.94493812727427" lon="10.192907543645719"><ele>926.0</ele><time>2026-03-28T16:14:38Z</time></trkpt><trkpt lat="45.945064392572405" lon="10.192980678089302"><ele>926.0</ele><time>2026-03-28T16:14:39Z</time></trkpt><trkpt lat="45.945157241232685" lon="10.193035171504352"><ele>926.0</ele><time>2026-03-28T16:14:40Z</time></trkpt><trkpt lat="45.94524476847795" lon="10.193081794742865"><ele>927.8</ele><time>2026-03-28T16:14:41Z</time></trkpt><trkpt lat="45.94536345604359" lon="10.193116341211283"><ele>929.5999999999999</ele><time>2026-03-28T16:14:42Z</time></trkpt><trkpt lat="45.94548067905277" lon="10.193170370827417"><ele>931.4</ele><time>2026-03-28T16:14:43Z</time></trkpt><trkpt lat="45.94558006237835" lon="10.193218911069714"><ele>933.2</ele><time>2026-03-28T16:14:44Z</time></trkpt><trkpt lat="45.94565540179834" lon="10.193259635066122"><ele>935.0</ele><time>2026-03-28T16:14:45Z</time></trkpt><trkpt lat="45.94571466528165" lon="10.193304771333628"><ele>935.0</ele><time>2026-03-28T16:14:46Z</time></trkpt><trkpt lat="45.94574894696395" lon="10.193417897934927"><ele>935.0</ele><time>2026-03-28T16:14:47Z</time></trkpt><trkpt lat="45.94579208078438" lon="10.19355313104379"><ele>935.0</ele><time>2026-03-28T16:14:48Z</time></trkpt><trkpt lat="45.945836106551326" lon="10.193717008189836"><ele>935.0</ele><time>2026-03-28T16:14:49Z</time></trkpt><trkpt lat="45.94587865478007" lon="10.19390132447838"><ele>935.0</ele><time>2026-03-28T16:14:50Z</time></trkpt><trkpt lat="45.94592457932689" lon="10.194096155660715"><ele>940.0</ele><time>2026-03-28T16:14:51Z</time></trkpt><trkpt lat="45.9459591988105" lon="10.194265958477365"><ele>945.0</ele><time>2026-03-28T16:14:52Z</time></trkpt><trkpt lat="45.94597459635419" lon="10.194428962217614"><ele>950.0</ele><time>2026-03-28T16:14:53Z</time></trkpt><trkpt lat="45.94599735207326" lon="10.194571285902692"><ele>955.0</ele><time>2026-03-28T16:14:54Z</time></trkpt><trkpt lat="45.946059058396926" lon="10.19470128833525"><ele>960.0</ele><time>2026-03-28T16:14:55Z</time></trkpt><trkpt lat="45.94608354058089" lon="10.194856776589635"><ele>960.0</ele><time>2026-03-28T16:14:56Z</time></trkpt><trkpt lat="45.946093378583974" lon="10.195054633126208"><ele>960.0</ele><time>2026-03-28T16:14:57Z</time></trkpt><trkpt lat="45.94610706676305" lon="10.195243505375046"><ele>960.0</ele><time>2026-03-28T16:14:58Z</time></trkpt><trkpt lat="45.94611706416229" lon="10.195414974527669"><ele>960.0</ele><time>2026-03-28T16:14:59Z</time></trkpt><trkpt lat="45.946138644805885" lon="10.195586425158886"><ele>957.8</ele><time>2026-03-28T16:15:00Z</time></trkpt><trkpt lat="45.946143064924776" lon="10.195754124118038"><ele>955.6</ele><time>2026-03-28T16:15:01Z</time></trkpt><trkpt lat="45.946148933217984" lon="10.195919129243514"><ele>953.4000000000001</ele><time>2026-03-28T16:15:02Z</time></trkpt><trkpt lat="45.94615946603176" lon="10.19607751871336"><ele>951.2</ele><time>2026-03-28T16:15:03Z</time></trkpt><trkpt lat="45.94616117697019" lon="10.196224043880887"><ele>949.0</ele><time>2026-03-28T16:15:04Z</time></trkpt><trkpt lat="45.94615693231175" lon="10.196348925822324"><ele>948.9999999999999</ele><time>2026-03-28T16:15:05Z</time></trkpt><trkpt lat="45.946153726729406" lon="10.196454132791965"><ele>949.0</ele><time>2026-03-28T16:15:06Z</time></trkpt><trkpt lat="45.94616048875445" lon="10.196575546635865"><ele>949.0</ele><time>2026-03-28T16:15:08Z</time></trkpt><trkpt lat="45.94616482621318" lon="10.196695318039644"><ele>949.0</ele><time>2026-03-28T16:15:14Z</time></trkpt><trkpt lat="45.94623979818653" lon="10.19664514187469"><ele>948.9999999999999</ele><time>2026-03-28T16:17:49Z</time></trkpt><trkpt lat="45.946171007435055" lon="10.196765207951337"><ele>949.0</ele><time>2026-03-28T16:18:46Z</time></trkpt><trkpt lat="45.946172267013914" lon="10.19690562413558"><ele>947.4999999999999</ele><time>2026-03-28T16:18:47Z</time></trkpt><trkpt lat="45.946190342253615" lon="10.19705849336042"><ele>946.0</ele><time>2026-03-28T16:18:48Z</time></trkpt><trkpt lat="45.946206944386795" lon="10.197191001366543"><ele>944.5</ele><time>2026-03-28T16:18:49Z</time></trkpt><trkpt lat="45.94622294974293" lon="10.197318665178976"><ele>943.0</ele><time>2026-03-28T16:18:50Z</time></trkpt><trkpt lat="45.94624164620542" lon="10.197430622377993"><ele>941.4999999999999</ele><time>2026-03-28T16:18:51Z</time></trkpt><trkpt lat="45.946272295756586" lon="10.197532417401135"><ele>940.0</ele><time>2026-03-28T16:18:52Z</time></trkpt><trkpt lat="45.946305518575414" lon="10.197630559805859"><ele>937.4</ele><time>2026-03-28T16:18:53Z</time></trkpt><trkpt lat="45.9463370909153" lon="10.197726616918764"><ele>934.8</ele><time>2026-03-28T16:18:54Z</time></trkpt><trkpt lat="45.94637017177703" lon="10.197851257355431"><ele>932.2</ele><time>2026-03-28T16:18:55Z</time></trkpt><trkpt lat="45.94641616680005" lon="10.197996347181276"><ele>929.6</ele><time>2026-03-28T16:18:56Z</time></trkpt><trkpt lat="45.94646266341859" lon="10.198151946663632"><ele>927.0</ele><time>2026-03-28T16:18:57Z</time></trkpt><trkpt lat="45.946501567584896" lon="10.198310203005141"><ele>924.2</ele><time>2026-03-28T16:18:58Z</time></trkpt><trkpt lat="45.94654888399999" lon="10.198453106190259"><ele>921.4000000000001</ele><time>2026-03-28T16:18:59Z</time></trkpt><trkpt lat="45.94659162848782" lon="10.19858942407618"><ele>918.5999999999999</ele><time>2026-03-28T16:19:00Z</time></trkpt><trkpt lat="45.94662337873458" lon="10.198727861173321"><ele>915.8</ele><time>2026-03-28T16:19:01Z</time></trkpt><trkpt lat="45.94662137712916" lon="10.198873772165815"><ele>913.0</ele><time>2026-03-28T16:19:02Z</time></trkpt><trkpt lat="45.94660832665324" lon="10.19899758100386"><ele>911.2</ele><time>2026-03-28T16:19:03Z</time></trkpt><trkpt lat="45.94658037286986" lon="10.199101031404464"><ele>909.4</ele><time>2026-03-28T16:19:04Z</time></trkpt><trkpt lat="45.94653925972196" lon="10.19923021300343"><ele>907.6000000000001</ele><time>2026-03-28T16:19:06Z</time></trkpt><trkpt lat="45.94644255214026" lon="10.199255818893022"><ele>905.8000000000001</ele><time>2026-03-28T16:19:08Z</time></trkpt><trkpt lat="45.946360048748176" lon="10.199278305617808"><ele>904.0</ele><time>2026-03-28T16:19:10Z</time></trkpt><trkpt lat="45.94626716798604" lon="10.199368449447684"><ele>903.9999999999999</ele><time>2026-03-28T16:19:12Z</time></trkpt><trkpt lat="45.94634380325283" lon="10.199506529488628"><ele>904.0</ele><time>2026-03-28T16:19:13Z</time></trkpt><trkpt lat="45.946370000187514" lon="10.19960152940562"><ele>904.0</ele><time>2026-03-28T16:19:14Z</time></trkpt><trkpt lat="45.94643564775347" lon="10.199602686088673"><ele>904.0</ele><time>2026-03-28T16:19:15Z</time></trkpt><trkpt lat="45.946383385156956" lon="10.199722514545948"><ele>903.9999999999999</ele><time>2026-03-28T16:19:16Z</time></trkpt><trkpt lat="45.94634423099925" lon="10.199840090210449"><ele>904.0</ele><time>2026-03-28T16:19:18Z</time></trkpt><trkpt lat="45.94629180979074" lon="10.19993372487184"><ele>903.4999999999999</ele><time>2026-03-28T16:19:20Z</time></trkpt><trkpt lat="45.94622657542348" lon="10.20004672015991"><ele>903.0</ele><time>2026-03-28T16:19:22Z</time></trkpt><trkpt lat="45.946167048308475" lon="10.200186791314314"><ele>902.5</ele><time>2026-03-28T16:19:24Z</time></trkpt><trkpt lat="45.94616994288277" lon="10.200294239613422"><ele>902.0</ele><time>2026-03-28T16:19:25Z</time></trkpt><trkpt lat="45.94614135939232" lon="10.200376472286948"><ele>901.4999999999999</ele><time>2026-03-28T16:19:26Z</time></trkpt><trkpt lat="45.946106383219714" lon="10.2004671676364"><ele>901.0</ele><time>2026-03-28T16:19:27Z</time></trkpt><trkpt lat="45.94607679105575" lon="10.200583517831307"><ele>901.5999999999999</ele><time>2026-03-28T16:19:28Z</time></trkpt><trkpt lat="45.946057280492845" lon="10.200712643243074"><ele>902.1999999999999</ele><time>2026-03-28T16:19:29Z</time></trkpt><trkpt lat="45.94602329457027" lon="10.2008459741414"><ele>902.8000000000001</ele><time>2026-03-28T16:19:30Z</time></trkpt><trkpt lat="45.9460182287188" lon="10.2009883328439"><ele>903.4000000000001</ele><time>2026-03-28T16:19:31Z</time></trkpt><trkpt lat="45.946013967126504" lon="10.201122690472163"><ele>904.0</ele><time>2026-03-28T16:19:32Z</time></trkpt><trkpt lat="45.94600968150374" lon="10.201250468588972"><ele>903.9999999999999</ele><time>2026-03-28T16:19:33Z</time></trkpt><trkpt lat="45.94600563253507" lon="10.201371419555555"><ele>904.0</ele><time>2026-03-28T16:19:34Z</time></trkpt><trkpt lat="45.946002327294195" lon="10.20148803692501"><ele>904.0</ele><time>2026-03-28T16:19:35Z</time></trkpt><trkpt lat="45.94600443259174" lon="10.201607968259742"><ele>904.0</ele><time>2026-03-28T16:19:36Z</time></trkpt><trkpt lat="45.94603442414573" lon="10.201728155845815"><ele>903.9999999999999</ele><time>2026-03-28T16:19:37Z</time></trkpt><trkpt lat="45.94609439116732" lon="10.201836929812844"><ele>904.0</ele><time>2026-03-28T16:19:38Z</time></trkpt><trkpt lat="45.94614094281467" lon="10.20197753568206"><ele>904.0</ele><time>2026-03-28T16:19:39Z</time></trkpt><trkpt lat="45.946199046025136" lon="10.202115450218548"><ele>904.0</ele><time>2026-03-28T16:19:40Z</time></trkpt><trkpt lat="45.94627991328985" lon="10.20223774092515"><ele>904.0</ele><time>2026-03-28T16:19:41Z</time></trkpt><trkpt lat="45.94638336822357" lon="10.202354431567624"><ele>904.0</ele><time>2026-03-28T16:19:42Z</time></trkpt><trkpt lat="45.94647675067471" lon="10.202468569750799"><ele>903.2</ele><time>2026-03-28T16:19:43Z</time></trkpt><trkpt lat="45.94656069326424" lon="10.20256064395181"><ele>902.4000000000001</ele><time>2026-03-28T16:19:44Z</time></trkpt><trkpt lat="45.94664017827563" lon="10.202654995476907"><ele>901.6</ele><time>2026-03-28T16:19:45Z</time></trkpt><trkpt lat="45.94671908254639" lon="10.202753184473632"><ele>900.8</ele><time>2026-03-28T16:19:46Z</time></trkpt><trkpt lat="45.94679090235065" lon="10.202858944899287"><ele>900.0</ele><time>2026-03-28T16:19:47Z</time></trkpt><trkpt lat="45.946868795567035" lon="10.20297108026541"><ele>900.8</ele><time>2026-03-28T16:19:48Z</time></trkpt><trkpt lat="45.946947120417974" lon="10.203085228090066"><ele>901.6</ele><time>2026-03-28T16:19:49Z</time></trkpt><trkpt lat="45.947011442174556" lon="10.203208790763739"><ele>902.4000000000001</ele><time>2026-03-28T16:19:50Z</time></trkpt><trkpt lat="45.94707820805553" lon="10.203296938503678"><ele>903.2</ele><time>2026-03-28T16:19:51Z</time></trkpt><trkpt lat="45.9471324415964" lon="10.203372409844857"><ele>904.0</ele><time>2026-03-28T16:19:52Z</time></trkpt><trkpt lat="45.94716535765446" lon="10.203466504260561"><ele>903.9999999999999</ele><time>2026-03-28T16:19:53Z</time></trkpt><trkpt lat="45.94720346707258" lon="10.20358689953942"><ele>904.0</ele><time>2026-03-28T16:19:54Z</time></trkpt><trkpt lat="45.94724898984244" lon="10.203692268167066"><ele>904.0</ele><time>2026-03-28T16:19:55Z</time></trkpt><trkpt lat="45.94729289810187" lon="10.203790551688842"><ele>904.0</ele><time>2026-03-28T16:19:56Z</time></trkpt><trkpt lat="45.94733911533124" lon="10.203887267580967"><ele>903.9999999999999</ele><time>2026-03-28T16:19:57Z</time></trkpt><trkpt lat="45.94738203280811" lon="10.203974421767878"><ele>904.0</ele><time>2026-03-28T16:19:58Z</time></trkpt><trkpt lat="45.94743250544382" lon="10.204076921775007"><ele>903.4999999999999</ele><time>2026-03-28T16:19:59Z</time></trkpt><trkpt lat="45.94748013545356" lon="10.204150533705928"><ele>903.0</ele><time>2026-03-28T16:20:00Z</time></trkpt><trkpt lat="45.94752113274536" lon="10.204226331053114"><ele>902.5</ele><time>2026-03-28T16:20:01Z</time></trkpt><trkpt lat="45.947595727555694" lon="10.204349200589894"><ele>902.0</ele><time>2026-03-28T16:20:03Z</time></trkpt><trkpt lat="45.94763987767551" lon="10.204424382469147"><ele>901.4999999999999</ele><time>2026-03-28T16:20:05Z</time></trkpt><trkpt lat="45.947747135657586" lon="10.204475764559074"><ele>901.0</ele><time>2026-03-28T16:20:10Z</time></trkpt><trkpt lat="45.94784648090022" lon="10.204557590249113"><ele>900.9999999999999</ele><time>2026-03-28T16:20:12Z</time></trkpt><trkpt lat="45.9479062401215" lon="10.204611771149068"><ele>901.0</ele><time>2026-03-28T16:20:13Z</time></trkpt><trkpt lat="45.94797729806264" lon="10.20462406691354"><ele>901.0</ele><time>2026-03-28T16:20:14Z</time></trkpt><trkpt lat="45.94810075280085" lon="10.204646013098571"><ele>901.0</ele><time>2026-03-28T16:20:16Z</time></trkpt><trkpt lat="45.94817403452867" lon="10.204669114130608"><ele>900.9999999999999</ele><time>2026-03-28T16:20:17Z</time></trkpt><trkpt lat="45.94824150576343" lon="10.204660512847083"><ele>901.0</ele><time>2026-03-28T16:20:18Z</time></trkpt><trkpt lat="45.948310923193425" lon="10.204658073349945"><ele>900.8</ele><time>2026-03-28T16:20:19Z</time></trkpt><trkpt lat="45.94838115518913" lon="10.204652501717794"><ele>900.5999999999999</ele><time>2026-03-28T16:20:20Z</time></trkpt><trkpt lat="45.948447942671116" lon="10.20464437493767"><ele>900.4</ele><time>2026-03-28T16:20:21Z</time></trkpt><trkpt lat="45.94853416502301" lon="10.204631660660748"><ele>900.2</ele><time>2026-03-28T16:20:23Z</time></trkpt><trkpt lat="45.94861890376474" lon="10.204618233951631"><ele>900.0</ele><time>2026-03-28T16:20:27Z</time></trkpt><trkpt lat="45.94868291409554" lon="10.204824137251133"><ele>898.5714285714287</ele><time>2026-03-28T16:20:28Z</time></trkpt><trkpt lat="45.948717286631414" lon="10.204904395524364"><ele>897.1428571428571</ele><time>2026-03-28T16:20:29Z</time></trkpt><trkpt lat="45.94873696906138" lon="10.205000652021095"><ele>895.7142857142858</ele><time>2026-03-28T16:20:30Z</time></trkpt><trkpt lat="45.94874819694033" lon="10.205099774208854"><ele>894.2857142857143</ele><time>2026-03-28T16:20:31Z</time></trkpt><trkpt lat="45.948745663821654" lon="10.20520027296772"><ele>892.8571428571429</ele><time>2026-03-28T16:20:32Z</time></trkpt><trkpt lat="45.94877709432592" lon="10.20528832159604"><ele>891.4285714285714</ele><time>2026-03-28T16:20:33Z</time></trkpt><trkpt lat="45.94879443138256" lon="10.205404410861174"><ele>890.0</ele><time>2026-03-28T16:20:34Z</time></trkpt><trkpt lat="45.9487814919044" lon="10.205525170357033"><ele>890.0000000000001</ele><time>2026-03-28T16:20:35Z</time></trkpt><trkpt lat="45.94879228439254" lon="10.205641342393049"><ele>890.0</ele><time>2026-03-28T16:20:36Z</time></trkpt><trkpt lat="45.948786822018405" lon="10.205753858134099"><ele>890.0</ele><time>2026-03-28T16:20:37Z</time></trkpt><trkpt lat="45.9487453154974" lon="10.205850164772041"><ele>890.0</ele><time>2026-03-28T16:20:38Z</time></trkpt><trkpt lat="45.94870164463576" lon="10.205927066952807"><ele>890.0000000000001</ele><time>2026-03-28T16:20:39Z</time></trkpt><trkpt lat="45.948679320081965" lon="10.206051696553436"><ele>890.0</ele><time>2026-03-28T16:20:40Z</time></trkpt><trkpt lat="45.94866525605941" lon="10.206177053296246"><ele>889.1428571428572</ele><time>2026-03-28T16:20:41Z</time></trkpt><trkpt lat="45.94866083005949" lon="10.206276644675865"><ele>888.2857142857142</ele><time>2026-03-28T16:20:42Z</time></trkpt><trkpt lat="45.94865428278352" lon="10.206373778672788"><ele>887.4285714285714</ele><time>2026-03-28T16:20:43Z</time></trkpt><trkpt lat="45.948635399649575" lon="10.206471539985241"><ele>886.5714285714287</ele><time>2026-03-28T16:20:44Z</time></trkpt><trkpt lat="45.94862896413247" lon="10.206566583089604"><ele>885.7142857142858</ele><time>2026-03-28T16:20:45Z</time></trkpt><trkpt lat="45.948629041252175" lon="10.206667057558175"><ele>884.8571428571429</ele><time>2026-03-28T16:20:46Z</time></trkpt><trkpt lat="45.94860427149255" lon="10.206799362171623"><ele>884.0</ele><time>2026-03-28T16:20:48Z</time></trkpt><trkpt lat="45.948564811614524" lon="10.206937085916143"><ele>882.25</ele><time>2026-03-28T16:20:51Z</time></trkpt><trkpt lat="45.948650623076894" lon="10.2070054394177"><ele>880.5</ele><time>2026-03-28T16:20:52Z</time></trkpt><trkpt lat="45.948709893700304" lon="10.207127156858569"><ele>878.75</ele><time>2026-03-28T16:20:53Z</time></trkpt><trkpt lat="45.948799429507694" lon="10.20725271736371"><ele>877.0</ele><time>2026-03-28T16:20:54Z</time></trkpt><trkpt lat="45.94890129925683" lon="10.207414408808411"><ele>874.5</ele><time>2026-03-28T16:20:55Z</time></trkpt><trkpt lat="45.94900753070686" lon="10.207588749534983"><ele>872.0</ele><time>2026-03-28T16:20:56Z</time></trkpt><trkpt lat="45.94908423181973" lon="10.207757271537771"><ele>869.5</ele><time>2026-03-28T16:20:57Z</time></trkpt><trkpt lat="45.94913424644931" lon="10.207936744447437"><ele>867.0</ele><time>2026-03-28T16:20:58Z</time></trkpt><trkpt lat="45.94916814363715" lon="10.208127521081101"><ele>869.0</ele><time>2026-03-28T16:20:59Z</time></trkpt><trkpt lat="45.94920348084819" lon="10.20832502745676"><ele>871.0</ele><time>2026-03-28T16:21:00Z</time></trkpt><trkpt lat="45.94924077813399" lon="10.208523456633811"><ele>873.0</ele><time>2026-03-28T16:21:01Z</time></trkpt><trkpt lat="45.9492727987975" lon="10.208708414190243"><ele>875.0</ele><time>2026-03-28T16:21:02Z</time></trkpt><trkpt lat="45.94926980150151" lon="10.208900986727985"><ele>876.0</ele><time>2026-03-28T16:21:03Z</time></trkpt><trkpt lat="45.94921133633452" lon="10.209087717536812"><ele>877.0</ele><time>2026-03-28T16:21:04Z</time></trkpt><trkpt lat="45.949178009188586" lon="10.20929907559698"><ele>878.0</ele><time>2026-03-28T16:21:05Z</time></trkpt><trkpt lat="45.94911775138905" lon="10.209481609062841"><ele>879.0</ele><time>2026-03-28T16:21:06Z</time></trkpt><trkpt lat="45.949075375844565" lon="10.209660073606113"><ele>876.2</ele><time>2026-03-28T16:21:07Z</time></trkpt><trkpt lat="45.94903784693396" lon="10.209818235093106"><ele>873.4000000000001</ele><time>2026-03-28T16:21:08Z</time></trkpt><trkpt lat="45.949038614915814" lon="10.209982673164"><ele>870.6</ele><time>2026-03-28T16:21:09Z</time></trkpt><trkpt lat="45.94903269608959" lon="10.210135260598708"><ele>867.8</ele><time>2026-03-28T16:21:10Z</time></trkpt><trkpt lat="45.94903575319034" lon="10.210282264356584"><ele>865.0</ele><time>2026-03-28T16:21:11Z</time></trkpt><trkpt lat="45.94902908416498" lon="10.21041294464832"><ele>865.0</ele><time>2026-03-28T16:21:12Z</time></trkpt><trkpt lat="45.94902944844635" lon="10.210550354807975"><ele>865.0</ele><time>2026-03-28T16:21:13Z</time></trkpt><trkpt lat="45.94903833468237" lon="10.210692161334375"><ele>865.0</ele><time>2026-03-28T16:21:14Z</time></trkpt><trkpt lat="45.949044984515645" lon="10.21082519577589"><ele>865.0</ele><time>2026-03-28T16:21:15Z</time></trkpt><trkpt lat="45.94903598051819" lon="10.210954452005435"><ele>865.0</ele><time>2026-03-28T16:21:16Z</time></trkpt><trkpt lat="45.94901820466816" lon="10.211077368328944"><ele>865.5</ele><time>2026-03-28T16:21:17Z</time></trkpt><trkpt lat="45.94899867086299" lon="10.211212519627532"><ele>866.0</ele><time>2026-03-28T16:21:18Z</time></trkpt><trkpt lat="45.948957892332935" lon="10.211362391190436"><ele>866.5</ele><time>2026-03-28T16:21:19Z</time></trkpt><trkpt lat="45.94889850536401" lon="10.211515980925254"><ele>867.0</ele><time>2026-03-28T16:21:20Z</time></trkpt><trkpt lat="45.94882947952835" lon="10.211691739273252"><ele>867.25</ele><time>2026-03-28T16:21:21Z</time></trkpt><trkpt lat="45.94876631978537" lon="10.211864056814859"><ele>867.5</ele><time>2026-03-28T16:21:22Z</time></trkpt><trkpt lat="45.94870559701833" lon="10.212026780565303"><ele>867.75</ele><time>2026-03-28T16:21:23Z</time></trkpt><trkpt lat="45.94861649122632" lon="10.212152909981594"><ele>868.0</ele><time>2026-03-28T16:21:24Z</time></trkpt><trkpt lat="45.94856593042236" lon="10.212307617270927"><ele>868.5</ele><time>2026-03-28T16:21:25Z</time></trkpt><trkpt lat="45.94851545867129" lon="10.21246004267377"><ele>869.0</ele><time>2026-03-28T16:21:26Z</time></trkpt><trkpt lat="45.948462707438516" lon="10.212607640595639"><ele>869.5</ele><time>2026-03-28T16:21:27Z</time></trkpt><trkpt lat="45.94840462396318" lon="10.212747785243016"><ele>870.0</ele><time>2026-03-28T16:21:28Z</time></trkpt><trkpt lat="45.94834687090879" lon="10.21289239703178"><ele>866.5</ele><time>2026-03-28T16:21:29Z</time></trkpt><trkpt lat="45.94830516117057" lon="10.213048492040674"><ele>863.0</ele><time>2026-03-28T16:21:30Z</time></trkpt><trkpt lat="45.94827903891437" lon="10.21321274684099"><ele>859.5</ele><time>2026-03-28T16:21:31Z</time></trkpt><trkpt lat="45.94826891870882" lon="10.213385322983452"><ele>856.0</ele><time>2026-03-28T16:21:32Z</time></trkpt><trkpt lat="45.948253067916085" lon="10.213544622303367"><ele>856.0</ele><time>2026-03-28T16:21:33Z</time></trkpt><trkpt lat="45.94822963444482" lon="10.21370183532996"><ele>856.0</ele><time>2026-03-28T16:21:34Z</time></trkpt><trkpt lat="45.94822450625514" lon="10.213868848071558"><ele>856.0</ele><time>2026-03-28T16:21:35Z</time></trkpt><trkpt lat="45.94825284878361" lon="10.21403428717184"><ele>856.0</ele><time>2026-03-28T16:21:36Z</time></trkpt><trkpt lat="45.94825593356841" lon="10.214186135336305"><ele>856.5999999999999</ele><time>2026-03-28T16:21:37Z</time></trkpt><trkpt lat="45.94826855154193" lon="10.214325198241069"><ele>857.1999999999999</ele><time>2026-03-28T16:21:38Z</time></trkpt><trkpt lat="45.948295872466915" lon="10.214453192035435"><ele>857.8000000000001</ele><time>2026-03-28T16:21:39Z</time></trkpt><trkpt lat="45.948332904178294" lon="10.214571073760078"><ele>858.4000000000001</ele><time>2026-03-28T16:21:40Z</time></trkpt><trkpt lat="45.94838729069509" lon="10.214676818075732"><ele>859.0</ele><time>2026-03-28T16:21:41Z</time></trkpt><trkpt lat="45.94842810368578" lon="10.214779013898738"><ele>862.6</ele><time>2026-03-28T16:21:42Z</time></trkpt><trkpt lat="45.94849580933414" lon="10.214874553121858"><ele>866.2</ele><time>2026-03-28T16:21:43Z</time></trkpt><trkpt lat="45.94856981851675" lon="10.214982006890985"><ele>869.8000000000001</ele><time>2026-03-28T16:21:44Z</time></trkpt><trkpt lat="45.94863039474837" lon="10.215119648574817"><ele>873.4000000000001</ele><time>2026-03-28T16:21:45Z</time></trkpt><trkpt lat="45.94869181469913" lon="10.215260847744071"><ele>877.0</ele><time>2026-03-28T16:21:46Z</time></trkpt><trkpt lat="45.948770173748834" lon="10.21539354124786"><ele>877.0</ele><time>2026-03-28T16:21:47Z</time></trkpt><trkpt lat="45.94883556641445" lon="10.215536808291459"><ele>877.0</ele><time>2026-03-28T16:21:48Z</time></trkpt><trkpt lat="45.94889158055041" lon="10.215644546411069"><ele>877.0</ele><time>2026-03-28T16:21:49Z</time></trkpt><trkpt lat="45.94893699632529" lon="10.21571484382965"><ele>877.0</ele><time>2026-03-28T16:21:50Z</time></trkpt><trkpt lat="45.94901984634957" lon="10.215778788815733"><ele>877.0</ele><time>2026-03-28T16:21:52Z</time></trkpt><trkpt lat="45.94908605085367" lon="10.215849265792682"><ele>877.8333333333333</ele><time>2026-03-28T16:21:54Z</time></trkpt><trkpt lat="45.94916692563707" lon="10.215933574785588"><ele>878.6666666666666</ele><time>2026-03-28T16:21:56Z</time></trkpt><trkpt lat="45.94925055104473" lon="10.216015769584354"><ele>879.5</ele><time>2026-03-28T16:21:58Z</time></trkpt><trkpt lat="45.94934695313148" lon="10.2161041982672"><ele>880.3333333333333</ele><time>2026-03-28T16:22:00Z</time></trkpt><trkpt lat="45.94939981839158" lon="10.2161547870402"><ele>881.1666666666666</ele><time>2026-03-28T16:22:01Z</time></trkpt><trkpt lat="45.949453284715375" lon="10.216206462044768"><ele>882.0</ele><time>2026-03-28T16:22:02Z</time></trkpt><trkpt lat="45.949507723575046" lon="10.216269885417475"><ele>882.0</ele><time>2026-03-28T16:22:03Z</time></trkpt><trkpt lat="45.949570749837484" lon="10.216335028228897"><ele>882.0</ele><time>2026-03-28T16:22:04Z</time></trkpt><trkpt lat="45.949642067243616" lon="10.216383735600424"><ele>882.0</ele><time>2026-03-28T16:22:05Z</time></trkpt><trkpt lat="45.94972007533404" lon="10.216425705264957"><ele>882.0</ele><time>2026-03-28T16:22:06Z</time></trkpt><trkpt lat="45.94979068160485" lon="10.216452596345217"><ele>882.0</ele><time>2026-03-28T16:22:07Z</time></trkpt><trkpt lat="45.94986710197489" lon="10.216470244422057"><ele>882.0</ele><time>2026-03-28T16:22:08Z</time></trkpt><trkpt lat="45.949945098024585" lon="10.216504096837964"><ele>881.3333333333334</ele><time>2026-03-28T16:22:09Z</time></trkpt><trkpt lat="45.950007286725665" lon="10.216547191024297"><ele>880.6666666666667</ele><time>2026-03-28T16:22:10Z</time></trkpt><trkpt lat="45.95007505425214" lon="10.216577827638003"><ele>880.0</ele><time>2026-03-28T16:22:11Z</time></trkpt><trkpt lat="45.95014401192151" lon="10.216595272445359"><ele>879.3333333333334</ele><time>2026-03-28T16:22:12Z</time></trkpt><trkpt lat="45.95022413512584" lon="10.216601006082344"><ele>878.6666666666667</ele><time>2026-03-28T16:22:13Z</time></trkpt><trkpt lat="45.95031447065072" lon="10.216614327153893"><ele>878.0</ele><time>2026-03-28T16:22:14Z</time></trkpt><trkpt lat="45.95040496716358" lon="10.216638076494815"><ele>878.0000000000001</ele><time>2026-03-28T16:22:15Z</time></trkpt><trkpt lat="45.95050231573901" lon="10.216652199408246"><ele>878.0</ele><time>2026-03-28T16:22:16Z</time></trkpt><trkpt lat="45.95057187846434" lon="10.216687958637813"><ele>878.0</ele><time>2026-03-28T16:22:17Z</time></trkpt><trkpt lat="45.950637894603744" lon="10.216751589836761"><ele>878.0</ele><time>2026-03-28T16:22:19Z</time></trkpt><trkpt lat="45.95058477733182" lon="10.216836623285674"><ele>878.0000000000001</ele><time>2026-03-28T16:22:21Z</time></trkpt><trkpt lat="45.95052008533062" lon="10.216744735552313"><ele>878.0</ele><time>2026-03-28T16:22:22Z</time></trkpt><trkpt lat="45.95042469429593" lon="10.216805117384164"><ele>878.0</ele><time>2026-03-28T16:22:24Z</time></trkpt><trkpt lat="45.95033394454118" lon="10.216857833128905"><ele>878.0</ele><time>2026-03-28T16:22:26Z</time></trkpt><trkpt lat="45.950208297477715" lon="10.216954290554186"><ele>878.0</ele><time>2026-03-28T16:22:28Z</time></trkpt><trkpt lat="45.95012352706407" lon="10.216999249361448"><ele>878.0</ele><time>2026-03-28T16:22:29Z</time></trkpt><trkpt lat="45.95002813243984" lon="10.217046652224447"><ele>878.0</ele><time>2026-03-28T16:22:30Z</time></trkpt><trkpt lat="45.94991348054323" lon="10.217105121116422"><ele>877.25</ele><time>2026-03-28T16:22:31Z</time></trkpt><trkpt lat="45.94979198439008" lon="10.217161194632723"><ele>876.5</ele><time>2026-03-28T16:22:32Z</time></trkpt><trkpt lat="45.94967626844246" lon="10.217205592061644"><ele>875.75</ele><time>2026-03-28T16:22:33Z</time></trkpt><trkpt lat="45.94956543166586" lon="10.217267132485977"><ele>875.0</ele><time>2026-03-28T16:22:34Z</time></trkpt><trkpt lat="45.949461026837945" lon="10.217330172716597"><ele>875.0</ele><time>2026-03-28T16:22:35Z</time></trkpt><trkpt lat="45.949348003508184" lon="10.217388730801996"><ele>875.0</ele><time>2026-03-28T16:22:36Z</time></trkpt><trkpt lat="45.949237476694286" lon="10.217437936165425"><ele>875.0</ele><time>2026-03-28T16:22:37Z</time></trkpt><trkpt lat="45.949141339636434" lon="10.217482869557502"><ele>875.0</ele><time>2026-03-28T16:22:38Z</time></trkpt><trkpt lat="45.94904841670183" lon="10.217526739044565"><ele>875.0</ele><time>2026-03-28T16:22:39Z</time></trkpt><trkpt lat="45.94894211647643" lon="10.217562482772735"><ele>874.1666666666667</ele><time>2026-03-28T16:22:40Z</time></trkpt><trkpt lat="45.94884243827421" lon="10.217576024902865"><ele>873.3333333333334</ele><time>2026-03-28T16:22:41Z</time></trkpt><trkpt lat="45.94876222854596" lon="10.21760025304221"><ele>872.5</ele><time>2026-03-28T16:22:42Z</time></trkpt><trkpt lat="45.948697268625715" lon="10.217629154825236"><ele>871.6666666666667</ele><time>2026-03-28T16:22:43Z</time></trkpt><trkpt lat="45.94861836872564" lon="10.217692303381437"><ele>870.8333333333334</ele><time>2026-03-28T16:22:44Z</time></trkpt><trkpt lat="45.948563835156676" lon="10.217771367444692"><ele>870.0</ele><time>2026-03-28T16:22:45Z</time></trkpt><trkpt lat="45.94849636651472" lon="10.217837953612955"><ele>870.0</ele><time>2026-03-28T16:22:46Z</time></trkpt><trkpt lat="45.94844095997475" lon="10.217919584877597"><ele>870.0</ele><time>2026-03-28T16:22:47Z</time></trkpt><trkpt lat="45.94840293440904" lon="10.218015428480506"><ele>870.0</ele><time>2026-03-28T16:22:48Z</time></trkpt><trkpt lat="45.94836392315684" lon="10.218095905571722"><ele>870.0</ele><time>2026-03-28T16:22:49Z</time></trkpt><trkpt lat="45.94833468298379" lon="10.21819479887821"><ele>870.0</ele><time>2026-03-28T16:22:50Z</time></trkpt><trkpt lat="45.94828677301218" lon="10.218284065201914"><ele>870.0</ele><time>2026-03-28T16:22:51Z</time></trkpt><trkpt lat="45.94821632123688" lon="10.218349796350735"><ele>869.1666666666666</ele><time>2026-03-28T16:22:52Z</time></trkpt><trkpt lat="45.94813786586741" lon="10.218380011900164"><ele>868.3333333333333</ele><time>2026-03-28T16:22:53Z</time></trkpt><trkpt lat="45.94807661912831" lon="10.21833597385461"><ele>867.5</ele><time>2026-03-28T16:22:54Z</time></trkpt><trkpt lat="45.94807334373831" lon="10.218197054860967"><ele>866.6666666666666</ele><time>2026-03-28T16:22:55Z</time></trkpt><trkpt lat="45.94801147885464" lon="10.218066838799384"><ele>865.8333333333333</ele><time>2026-03-28T16:22:57Z</time></trkpt><trkpt lat="45.94792845800103" lon="10.218072028899693"><ele>865.0</ele><time>2026-03-28T16:22:59Z</time></trkpt><trkpt lat="45.94787922779037" lon="10.218168364179055"><ele>868.4</ele><time>2026-03-28T16:23:00Z</time></trkpt><trkpt lat="45.947854527625026" lon="10.218270245747751"><ele>871.8</ele><time>2026-03-28T16:23:00.999Z</time></trkpt><trkpt lat="45.94784226467736" lon="10.218387643195888"><ele>875.2</ele><time>2026-03-28T16:23:01.999Z</time></trkpt><trkpt lat="45.94782832317985" lon="10.218574671407444"><ele>878.6</ele><time>2026-03-28T16:23:03.999Z</time></trkpt><trkpt lat="45.947780463823115" lon="10.218659315366697"><ele>882.0</ele><time>2026-03-28T16:23:04.999Z</time></trkpt><trkpt lat="45.947753921596416" lon="10.21878394655035"><ele>882.0</ele><time>2026-03-28T16:23:05.999Z</time></trkpt><trkpt lat="45.94772946711484" lon="10.218927311492154"><ele>882.0</ele><time>2026-03-28T16:23:06.999Z</time></trkpt><trkpt lat="45.94771147990394" lon="10.219069961442623"><ele>882.0</ele><time>2026-03-28T16:23:07.999Z</time></trkpt><trkpt lat="45.947696365549994" lon="10.219209499349457"><ele>882.0</ele><time>2026-03-28T16:23:08.999Z</time></trkpt><trkpt lat="45.94768648864217" lon="10.219335127511009"><ele>882.0</ele><time>2026-03-28T16:23:09.999Z</time></trkpt><trkpt lat="45.947678680085865" lon="10.219444980604502"><ele>884.1666666666666</ele><time>2026-03-28T16:23:10.999Z</time></trkpt><trkpt lat="45.94767133010039" lon="10.219548164791645"><ele>886.3333333333333</ele><time>2026-03-28T16:23:11.999Z</time></trkpt><trkpt lat="45.9476637314924" lon="10.219641914827394"><ele>888.5</ele><time>2026-03-28T16:23:12.999Z</time></trkpt><trkpt lat="45.94765036941259" lon="10.219806773380727"><ele>890.6666666666666</ele><time>2026-03-28T16:23:14.999Z</time></trkpt><trkpt lat="45.94763552921353" lon="10.219982840842995"><ele>892.8333333333333</ele><time>2026-03-28T16:23:16.999Z</time></trkpt><trkpt lat="45.94762533583146" lon="10.220086191951227"><ele>895.0</ele><time>2026-03-28T16:23:17.999Z</time></trkpt><trkpt lat="45.94761394242886" lon="10.220193720225636"><ele>896.1666666666666</ele><time>2026-03-28T16:23:18.999Z</time></trkpt><trkpt lat="45.9476031043139" lon="10.220312312021427"><ele>897.3333333333333</ele><time>2026-03-28T16:23:19.999Z</time></trkpt><trkpt lat="45.94759543755369" lon="10.220430425921611"><ele>898.5</ele><time>2026-03-28T16:23:20.999Z</time></trkpt><trkpt lat="45.94758933412766" lon="10.220551011695155"><ele>899.6666666666667</ele><time>2026-03-28T16:23:21.999Z</time></trkpt><trkpt lat="45.94758337677186" lon="10.22067525366473"><ele>900.8333333333334</ele><time>2026-03-28T16:23:22.999Z</time></trkpt><trkpt lat="45.947579022138754" lon="10.220799854200687"><ele>902.0</ele><time>2026-03-28T16:23:23.999Z</time></trkpt><trkpt lat="45.94757543826471" lon="10.220922327177842"><ele>902.1666666666667</ele><time>2026-03-28T16:23:24.999Z</time></trkpt><trkpt lat="45.94757068167931" lon="10.221043020802474"><ele>902.3333333333334</ele><time>2026-03-28T16:23:25.999Z</time></trkpt><trkpt lat="45.94755445233104" lon="10.221153415164082"><ele>902.5</ele><time>2026-03-28T16:23:26.999Z</time></trkpt><trkpt lat="45.94753111997641" lon="10.221268449406965"><ele>902.6666666666667</ele><time>2026-03-28T16:23:27.999Z</time></trkpt><trkpt lat="45.94750473433758" lon="10.221377482071551"><ele>902.8333333333334</ele><time>2026-03-28T16:23:28.999Z</time></trkpt><trkpt lat="45.9474672531179" lon="10.221474013395579"><ele>903.0</ele><time>2026-03-28T16:23:29.999Z</time></trkpt><trkpt lat="45.947426853801296" lon="10.221600098910873"><ele>898.4</ele><time>2026-03-28T16:23:30.999Z</time></trkpt><trkpt lat="45.94739165666579" lon="10.22172575513127"><ele>893.8</ele><time>2026-03-28T16:23:31.999Z</time></trkpt><trkpt lat="45.94734605691893" lon="10.221835685171069"><ele>889.2</ele><time>2026-03-28T16:23:32.999Z</time></trkpt><trkpt lat="45.9472884250984" lon="10.221941496408261"><ele>884.6</ele><time>2026-03-28T16:23:34Z</time></trkpt><trkpt lat="45.947222000094456" lon="10.222046673165105"><ele>880.0</ele><time>2026-03-28T16:23:35Z</time></trkpt><trkpt lat="45.94716740588003" lon="10.222158117867986"><ele>879.9999999999999</ele><time>2026-03-28T16:23:36Z</time></trkpt><trkpt lat="45.94713641344517" lon="10.222264658392687"><ele>880.0</ele><time>2026-03-28T16:23:37Z</time></trkpt><trkpt lat="45.94713487603985" lon="10.222386976215699"><ele>880.0</ele><time>2026-03-28T16:23:38Z</time></trkpt><trkpt lat="45.947102889995996" lon="10.222502067674892"><ele>880.0</ele><time>2026-03-28T16:23:39Z</time></trkpt><trkpt lat="45.94702058554768" lon="10.222559879413891"><ele>879.9999999999999</ele><time>2026-03-28T16:23:40Z</time></trkpt><trkpt lat="45.94695689048635" lon="10.22267242020501"><ele>880.0</ele><time>2026-03-28T16:23:41Z</time></trkpt><trkpt lat="45.94689312915839" lon="10.222798921157008"><ele>881.25</ele><time>2026-03-28T16:23:42Z</time></trkpt><trkpt lat="45.94681381833973" lon="10.222958453750909"><ele>882.5</ele><time>2026-03-28T16:23:43Z</time></trkpt><trkpt lat="45.94672701285243" lon="10.223132870047815"><ele>883.75</ele><time>2026-03-28T16:23:44Z</time></trkpt><trkpt lat="45.94664154273055" lon="10.223293349819789"><ele>885.0</ele><time>2026-03-28T16:23:45Z</time></trkpt><trkpt lat="45.94658529017384" lon="10.223432755132063"><ele>883.5</ele><time>2026-03-28T16:23:46Z</time></trkpt><trkpt lat="45.94650889635171" lon="10.223559171164194"><ele>882.0</ele><time>2026-03-28T16:23:47Z</time></trkpt><trkpt lat="45.9464595316162" lon="10.223697365281144"><ele>880.5</ele><time>2026-03-28T16:23:48Z</time></trkpt><trkpt lat="45.94640747246171" lon="10.2238534355343"><ele>879.0</ele><time>2026-03-28T16:23:49Z</time></trkpt><trkpt lat="45.9463490282888" lon="10.224031274162332"><ele>879.0</ele><time>2026-03-28T16:23:50Z</time></trkpt><trkpt lat="45.946308306290064" lon="10.224227245404007"><ele>879.0</ele><time>2026-03-28T16:23:51Z</time></trkpt><trkpt lat="45.94626725791342" lon="10.22441658100076"><ele>879.0</ele><time>2026-03-28T16:23:52Z</time></trkpt><trkpt lat="45.94624304545673" lon="10.224599378611316"><ele>879.0</ele><time>2026-03-28T16:23:53Z</time></trkpt><trkpt lat="45.946216391718856" lon="10.224791020086384"><ele>880.25</ele><time>2026-03-28T16:23:54Z</time></trkpt><trkpt lat="45.94618512398916" lon="10.224985161224266"><ele>881.5</ele><time>2026-03-28T16:23:55Z</time></trkpt><trkpt lat="45.946152663572896" lon="10.225187534577126"><ele>882.75</ele><time>2026-03-28T16:23:56Z</time></trkpt><trkpt lat="45.94611998250371" lon="10.225404046473821"><ele>884.0</ele><time>2026-03-28T16:23:57Z</time></trkpt><trkpt lat="45.946092028766614" lon="10.225627134484496"><ele>885.5</ele><time>2026-03-28T16:23:58Z</time></trkpt><trkpt lat="45.94607208870522" lon="10.225816061921108"><ele>887.0</ele><time>2026-03-28T16:23:59Z</time></trkpt><trkpt lat="45.94605314066063" lon="10.22599808965519"><ele>888.5</ele><time>2026-03-28T16:24:00Z</time></trkpt><trkpt lat="45.946051358141276" lon="10.226159344611586"><ele>890.0</ele><time>2026-03-28T16:24:01Z</time></trkpt><trkpt lat="45.94611052502791" lon="10.226328301664562"><ele>889.25</ele><time>2026-03-28T16:24:02Z</time></trkpt><trkpt lat="45.9461584175322" lon="10.226501601134"><ele>888.5</ele><time>2026-03-28T16:24:03Z</time></trkpt><trkpt lat="45.946216032367836" lon="10.226712495793931"><ele>887.75</ele><time>2026-03-28T16:24:04Z</time></trkpt><trkpt lat="45.94627097808027" lon="10.22692761479964"><ele>887.0</ele><time>2026-03-28T16:24:05Z</time></trkpt><trkpt lat="45.94631250760762" lon="10.227121800663904"><ele>887.0</ele><time>2026-03-28T16:24:06Z</time></trkpt><trkpt lat="45.94634451112694" lon="10.227293977607054"><ele>887.0</ele><time>2026-03-28T16:24:07Z</time></trkpt><trkpt lat="45.946393265278545" lon="10.2274509943673"><ele>887.0</ele><time>2026-03-28T16:24:08Z</time></trkpt><trkpt lat="45.94643010007828" lon="10.227594410451045"><ele>887.0</ele><time>2026-03-28T16:24:09Z</time></trkpt><trkpt lat="45.946472936348215" lon="10.227737133010164"><ele>886.4000000000001</ele><time>2026-03-28T16:24:10Z</time></trkpt><trkpt lat="45.94654354110251" lon="10.22785033508877"><ele>885.8000000000001</ele><time>2026-03-28T16:24:11Z</time></trkpt><trkpt lat="45.94655048915662" lon="10.228000537933308"><ele>885.2</ele><time>2026-03-28T16:24:12Z</time></trkpt><trkpt lat="45.94655402791755" lon="10.228111731722047"><ele>884.6</ele><time>2026-03-28T16:24:13Z</time></trkpt><trkpt lat="45.94655704822741" lon="10.228247167861761"><ele>884.0</ele><time>2026-03-28T16:24:14.999Z</time></trkpt><trkpt lat="45.94655930348007" lon="10.228423282571244"><ele>883.25</ele><time>2026-03-28T16:24:16.999Z</time></trkpt><trkpt lat="45.94656069245476" lon="10.228559547313765"><ele>882.5</ele><time>2026-03-28T16:24:17.999Z</time></trkpt><trkpt lat="45.94664872400577" lon="10.22875316074582"><ele>881.75</ele><time>2026-03-28T16:24:18.999Z</time></trkpt><trkpt lat="45.94668118956193" lon="10.228927858925058"><ele>881.0</ele><time>2026-03-28T16:24:19.999Z</time></trkpt><trkpt lat="45.94668615931996" lon="10.22907416884502"><ele>880.6666666666667</ele><time>2026-03-28T16:24:20.999Z</time></trkpt><trkpt lat="45.94667487302789" lon="10.229188746609676"><ele>880.3333333333334</ele><time>2026-03-28T16:24:21.999Z</time></trkpt><trkpt lat="45.94666828423997" lon="10.22928063790771"><ele>880.0</ele><time>2026-03-28T16:24:23.999Z</time></trkpt><trkpt lat="45.94665919868287" lon="10.229407349422065"><ele>879.6666666666667</ele><time>2026-03-28T16:24:26Z</time></trkpt><trkpt lat="45.94665745114681" lon="10.229534167965292"><ele>879.3333333333334</ele><time>2026-03-28T16:24:27Z</time></trkpt><trkpt lat="45.94664894445638" lon="10.229641056300085"><ele>879.0</ele><time>2026-03-28T16:24:28Z</time></trkpt><trkpt lat="45.94662251447526" lon="10.22980070489041"><ele>879.25</ele><time>2026-03-28T16:24:29Z</time></trkpt><trkpt lat="45.946589279706835" lon="10.229933991645913"><ele>879.5</ele><time>2026-03-28T16:24:30Z</time></trkpt><trkpt lat="45.946549855201816" lon="10.2301073668134"><ele>879.75</ele><time>2026-03-28T16:24:31Z</time></trkpt><trkpt lat="45.94653683554752" lon="10.230262464113146"><ele>880.0</ele><time>2026-03-28T16:24:32Z</time></trkpt><trkpt lat="45.946527432362515" lon="10.230448194073277"><ele>881.25</ele><time>2026-03-28T16:24:33Z</time></trkpt><trkpt lat="45.94651974688484" lon="10.230645133063275"><ele>882.5</ele><time>2026-03-28T16:24:34Z</time></trkpt><trkpt lat="45.94652283911474" lon="10.230819686033753"><ele>883.75</ele><time>2026-03-28T16:24:35Z</time></trkpt><trkpt lat="45.9464953744778" lon="10.230940570323416"><ele>885.0</ele><time>2026-03-28T16:24:36Z</time></trkpt><trkpt lat="45.94633396596935" lon="10.23097164636887"><ele>885.0</ele><time>2026-03-28T16:24:38Z</time></trkpt><trkpt lat="45.946220706421535" lon="10.231029615271682"><ele>885.0</ele><time>2026-03-28T16:24:40Z</time></trkpt><trkpt lat="45.9460940431762" lon="10.2310659484035"><ele>885.0</ele><time>2026-03-28T16:24:41Z</time></trkpt><trkpt lat="45.94602298796119" lon="10.231061848740124"><ele>885.0</ele><time>2026-03-28T16:24:42Z</time></trkpt><trkpt lat="45.945936937175425" lon="10.231058447759825"><ele>885.0</ele><time>2026-03-28T16:24:44Z</time></trkpt><trkpt lat="45.945867637541525" lon="10.23110895931272"><ele>884.1666666666666</ele><time>2026-03-28T16:24:47Z</time></trkpt><trkpt lat="45.945789329171085" lon="10.231127731391885"><ele>883.3333333333333</ele><time>2026-03-28T16:24:48Z</time></trkpt><trkpt lat="45.94571420215983" lon="10.23121899531584"><ele>882.5</ele><time>2026-03-28T16:24:49Z</time></trkpt><trkpt lat="45.945643943729536" lon="10.231289790394689"><ele>881.6666666666666</ele><time>2026-03-28T16:24:50Z</time></trkpt><trkpt lat="45.945589940704146" lon="10.231372088029895"><ele>880.8333333333333</ele><time>2026-03-28T16:24:51Z</time></trkpt><trkpt lat="45.94553657472503" lon="10.231456841917776"><ele>880.0</ele><time>2026-03-28T16:24:52Z</time></trkpt><trkpt lat="45.945479250377225" lon="10.23155129866934"><ele>879.9999999999999</ele><time>2026-03-28T16:24:53Z</time></trkpt><trkpt lat="45.94542339375811" lon="10.231642105704426"><ele>880.0</ele><time>2026-03-28T16:24:54Z</time></trkpt><trkpt lat="45.945367270928784" lon="10.231709902006074"><ele>880.0</ele><time>2026-03-28T16:24:55Z</time></trkpt><trkpt lat="45.945301628908176" lon="10.23181112919559"><ele>880.0</ele><time>2026-03-28T16:24:56Z</time></trkpt><trkpt lat="45.945216426492024" lon="10.231838570303204"><ele>879.9999999999999</ele><time>2026-03-28T16:24:57Z</time></trkpt><trkpt lat="45.94514092612055" lon="10.231889353057301"><ele>880.0</ele><time>2026-03-28T16:24:58Z</time></trkpt><trkpt lat="45.94506926882248" lon="10.231937551049574"><ele>878.8333333333333</ele><time>2026-03-28T16:24:59Z</time></trkpt><trkpt lat="45.944998885084956" lon="10.231988449171851"><ele>877.6666666666666</ele><time>2026-03-28T16:25:00Z</time></trkpt><trkpt lat="45.94493050656121" lon="10.232050919461829"><ele>876.5</ele><time>2026-03-28T16:25:01Z</time></trkpt><trkpt lat="45.944861813310105" lon="10.232127752911012"><ele>875.3333333333333</ele><time>2026-03-28T16:25:02Z</time></trkpt><trkpt lat="45.94480540510741" lon="10.232216504927678"><ele>874.1666666666666</ele><time>2026-03-28T16:25:03Z</time></trkpt><trkpt lat="45.94475713364234" lon="10.232322469970043"><ele>873.0</ele><time>2026-03-28T16:25:04Z</time></trkpt><trkpt lat="45.9447200813574" lon="10.232458914690449"><ele>873.0</ele><time>2026-03-28T16:25:05Z</time></trkpt><trkpt lat="45.94468225688001" lon="10.232614984775426"><ele>873.0</ele><time>2026-03-28T16:25:06Z</time></trkpt><trkpt lat="45.944650970423325" lon="10.232759158294959"><ele>873.0</ele><time>2026-03-28T16:25:07Z</time></trkpt><trkpt lat="45.944621303353834" lon="10.232900227930699"><ele>873.0</ele><time>2026-03-28T16:25:08Z</time></trkpt><trkpt lat="45.94459300151378" lon="10.233049354742109"><ele>873.0</ele><time>2026-03-28T16:25:09Z</time></trkpt><trkpt lat="45.944571322550445" lon="10.233200676790874"><ele>872.0</ele><time>2026-03-28T16:25:10Z</time></trkpt><trkpt lat="45.944577569227256" lon="10.233357012459944"><ele>871.0</ele><time>2026-03-28T16:25:11Z</time></trkpt><trkpt lat="45.94457509408986" lon="10.233511251518994"><ele>870.0</ele><time>2026-03-28T16:25:12Z</time></trkpt><trkpt lat="45.944593116592664" lon="10.233675210771318"><ele>869.0</ele><time>2026-03-28T16:25:13Z</time></trkpt><trkpt lat="45.94463469091101" lon="10.233843328417928"><ele>866.0</ele><time>2026-03-28T16:25:14Z</time></trkpt><trkpt lat="45.9446992257383" lon="10.23400572100907"><ele>863.0</ele><time>2026-03-28T16:25:15Z</time></trkpt><trkpt lat="45.94478036715788" lon="10.234142469517975"><ele>860.0</ele><time>2026-03-28T16:25:16Z</time></trkpt><trkpt lat="45.94485726299876" lon="10.234296324176244"><ele>857.0</ele><time>2026-03-28T16:25:17Z</time></trkpt><trkpt lat="45.94495387955129" lon="10.2344034464662"><ele>856.6666666666667</ele><time>2026-03-28T16:25:18Z</time></trkpt><trkpt lat="45.94506184958674" lon="10.234462964035904"><ele>856.3333333333333</ele><time>2026-03-28T16:25:19Z</time></trkpt><trkpt lat="45.945179492826526" lon="10.234581052760525"><ele>856.0</ele><time>2026-03-28T16:25:20Z</time></trkpt><trkpt lat="45.945096908286935" lon="10.235057071049512"><ele>856.0</ele><time>2026-03-28T16:25:21Z</time></trkpt><trkpt lat="45.945113455206915" lon="10.235213101283959"><ele>856.0</ele><time>2026-03-28T16:25:22Z</time></trkpt><trkpt lat="45.945126236582645" lon="10.235365879374923"><ele>856.0</ele><time>2026-03-28T16:25:23Z</time></trkpt><trkpt lat="45.94514666161301" lon="10.23555210395023"><ele>856.0</ele><time>2026-03-28T16:25:24Z</time></trkpt><trkpt lat="45.9451541826645" lon="10.235729080462974"><ele>852.1999999999999</ele><time>2026-03-28T16:25:25Z</time></trkpt><trkpt lat="45.94516359511028" lon="10.235885571748252"><ele>848.3999999999999</ele><time>2026-03-28T16:25:26Z</time></trkpt><trkpt lat="45.94518394801483" lon="10.236026683102164"><ele>844.6</ele><time>2026-03-28T16:25:27Z</time></trkpt><trkpt lat="45.94521223577631" lon="10.23617152427853"><ele>840.8</ele><time>2026-03-28T16:25:28Z</time></trkpt><trkpt lat="45.94525810612537" lon="10.236305509505781"><ele>837.0</ele><time>2026-03-28T16:25:29Z</time></trkpt><trkpt lat="45.94528989116842" lon="10.236443332357766"><ele>834.2</ele><time>2026-03-28T16:25:30Z</time></trkpt><trkpt lat="45.94532222354162" lon="10.23657036734734"><ele>831.4000000000001</ele><time>2026-03-28T16:25:31Z</time></trkpt><trkpt lat="45.94537939805838" lon="10.236686638285866"><ele>828.5999999999999</ele><time>2026-03-28T16:25:32Z</time></trkpt><trkpt lat="45.94544126455103" lon="10.23678967082926"><ele>825.8</ele><time>2026-03-28T16:25:33Z</time></trkpt><trkpt lat="45.94549395442425" lon="10.236905639620485"><ele>823.0</ele><time>2026-03-28T16:25:34Z</time></trkpt><trkpt lat="45.94556136810973" lon="10.236975280231347"><ele>822.9999999999999</ele><time>2026-03-28T16:25:35Z</time></trkpt><trkpt lat="45.94563642851199" lon="10.237015627031615"><ele>823.0</ele><time>2026-03-28T16:25:36Z</time></trkpt><trkpt lat="45.945710996586776" lon="10.237039951112672"><ele>823.0</ele><time>2026-03-28T16:25:37Z</time></trkpt><trkpt lat="45.94577585907856" lon="10.237021946815297"><ele>823.0</ele><time>2026-03-28T16:25:38Z</time></trkpt><trkpt lat="45.945868909137296" lon="10.236974150313111"><ele>822.9999999999999</ele><time>2026-03-28T16:25:39Z</time></trkpt><trkpt lat="45.9459588208162" lon="10.236932203637217"><ele>823.0</ele><time>2026-03-28T16:25:40Z</time></trkpt><trkpt lat="45.945980400679595" lon="10.237042438139872"><ele>825.75</ele><time>2026-03-28T16:25:41Z</time></trkpt><trkpt lat="45.94611053011917" lon="10.237019816588994"><ele>828.5</ele><time>2026-03-28T16:25:42Z</time></trkpt><trkpt lat="45.946215956436156" lon="10.237036315210156"><ele>831.25</ele><time>2026-03-28T16:25:43Z</time></trkpt><trkpt lat="45.946344543523104" lon="10.237083268879859"><ele>834.0</ele><time>2026-03-28T16:25:44Z</time></trkpt><trkpt lat="45.946448646388774" lon="10.237114396316517"><ele>834.0</ele><time>2026-03-28T16:25:45Z</time></trkpt><trkpt lat="45.946585311279094" lon="10.237123111053831"><ele>834.0</ele><time>2026-03-28T16:25:46Z</time></trkpt><trkpt lat="45.9467204413722" lon="10.23718093853287"><ele>834.0</ele><time>2026-03-28T16:25:47Z</time></trkpt><trkpt lat="45.94681670764532" lon="10.237240885752817"><ele>834.0</ele><time>2026-03-28T16:25:48Z</time></trkpt><trkpt lat="45.94690297470575" lon="10.237289107208671"><ele>831.8000000000001</ele><time>2026-03-28T16:25:49Z</time></trkpt><trkpt lat="45.94699522663337" lon="10.237332391970751"><ele>829.6</ele><time>2026-03-28T16:25:50Z</time></trkpt><trkpt lat="45.94709301496691" lon="10.237407925568531"><ele>827.4</ele><time>2026-03-28T16:25:51Z</time></trkpt><trkpt lat="45.94718761508442" lon="10.237487185413716"><ele>825.2</ele><time>2026-03-28T16:25:52Z</time></trkpt><trkpt lat="45.947279306218796" lon="10.237591085659576"><ele>823.0</ele><time>2026-03-28T16:25:53Z</time></trkpt><trkpt lat="45.94738975039197" lon="10.237712226315713"><ele>823.0</ele><time>2026-03-28T16:25:54Z</time></trkpt><trkpt lat="45.94751318966834" lon="10.237836258758355"><ele>823.0</ele><time>2026-03-28T16:25:55Z</time></trkpt><trkpt lat="45.94759896263593" lon="10.237928434099512"><ele>823.0</ele><time>2026-03-28T16:25:56Z</time></trkpt><trkpt lat="45.9476855167978" lon="10.238008285372134"><ele>823.0</ele><time>2026-03-28T16:25:57Z</time></trkpt><trkpt lat="45.94775783871015" lon="10.238121150890818"><ele>823.8</ele><time>2026-03-28T16:25:58Z</time></trkpt><trkpt lat="45.94785470557132" lon="10.238218814278758"><ele>824.5999999999999</ele><time>2026-03-28T16:25:59Z</time></trkpt><trkpt lat="45.94793718171045" lon="10.238326094265501"><ele>825.4000000000001</ele><time>2026-03-28T16:26:00Z</time></trkpt><trkpt lat="45.94800370477309" lon="10.238432095671325"><ele>826.2</ele><time>2026-03-28T16:26:01Z</time></trkpt><trkpt lat="45.94807640863973" lon="10.238562581793046"><ele>827.0</ele><time>2026-03-28T16:26:02Z</time></trkpt><trkpt lat="45.94815489990698" lon="10.238691773813716"><ele>827.0</ele><time>2026-03-28T16:26:03Z</time></trkpt><trkpt lat="45.94822623185128" lon="10.238835833310091"><ele>827.0</ele><time>2026-03-28T16:26:04Z</time></trkpt><trkpt lat="45.94828254274886" lon="10.238981545300264"><ele>827.0</ele><time>2026-03-28T16:26:05Z</time></trkpt><trkpt lat="45.94833836606632" lon="10.239116014628626"><ele>827.0</ele><time>2026-03-28T16:26:06Z</time></trkpt><trkpt lat="45.94839720466169" lon="10.239266375319199"><ele>829.2</ele><time>2026-03-28T16:26:07Z</time></trkpt><trkpt lat="45.94846793088851" lon="10.239370225761478"><ele>831.4000000000001</ele><time>2026-03-28T16:26:08Z</time></trkpt><trkpt lat="45.94852235898459" lon="10.239491588396811"><ele>833.5999999999999</ele><time>2026-03-28T16:26:09Z</time></trkpt><trkpt lat="45.94857723130499" lon="10.239615867564082"><ele>835.8</ele><time>2026-03-28T16:26:10Z</time></trkpt><trkpt lat="45.948610801081294" lon="10.239771207024802"><ele>838.0</ele><time>2026-03-28T16:26:12Z</time></trkpt><trkpt lat="45.94865294553967" lon="10.239842155957529"><ele>829.8</ele><time>2026-03-28T16:26:14Z</time></trkpt><trkpt lat="45.94869112986209" lon="10.239955656834175"><ele>821.5999999999999</ele><time>2026-03-28T16:26:17Z</time></trkpt><trkpt lat="45.948725791093295" lon="10.240079256928015"><ele>813.4000000000001</ele><time>2026-03-28T16:26:19Z</time></trkpt><trkpt lat="45.94879931400314" lon="10.240124168639978"><ele>805.2</ele><time>2026-03-28T16:26:20Z</time></trkpt><trkpt lat="45.94888068199757" lon="10.240207812695738"><ele>797.0</ele><time>2026-03-28T16:26:21Z</time></trkpt><trkpt lat="45.948975028518696" lon="10.240274441908241"><ele>797.0</ele><time>2026-03-28T16:26:22Z</time></trkpt><trkpt lat="45.94906393719178" lon="10.240352137985615"><ele>797.0</ele><time>2026-03-28T16:26:23Z</time></trkpt><trkpt lat="45.94916100954128" lon="10.240462741580407"><ele>797.0</ele><time>2026-03-28T16:26:24Z</time></trkpt><trkpt lat="45.949252924534704" lon="10.240522541420681"><ele>797.0</ele><time>2026-03-28T16:26:25Z</time></trkpt><trkpt lat="45.949322943405946" lon="10.240591536649392"><ele>797.0</ele><time>2026-03-28T16:26:27Z</time></trkpt><trkpt lat="45.94937668819828" lon="10.240651447004467"><ele>798.6</ele><time>2026-03-28T16:26:33Z</time></trkpt><trkpt lat="45.949438520551375" lon="10.240714085116943"><ele>800.2</ele><time>2026-03-28T16:26:36Z</time></trkpt><trkpt lat="45.94952546882481" lon="10.24078997795434"><ele>801.8</ele><time>2026-03-28T16:26:39Z</time></trkpt><trkpt lat="45.94959018457557" lon="10.24084096071966"><ele>803.4</ele><time>2026-03-28T16:26:40Z</time></trkpt><trkpt lat="45.94968901646651" lon="10.240891912680638"><ele>805.0</ele><time>2026-03-28T16:26:41Z</time></trkpt><trkpt lat="45.949803132378065" lon="10.240993973290594"><ele>805.0</ele><time>2026-03-28T16:26:42Z</time></trkpt><trkpt lat="45.949932337578005" lon="10.241158550747851"><ele>805.0</ele><time>2026-03-28T16:26:43Z</time></trkpt><trkpt lat="45.950097762648895" lon="10.241347186141928"><ele>805.0</ele><time>2026-03-28T16:26:44Z</time></trkpt><trkpt lat="45.950247978353744" lon="10.241546345565299"><ele>809.0</ele><time>2026-03-28T16:26:45Z</time></trkpt><trkpt lat="45.950357135352675" lon="10.241739203465832"><ele>813.0</ele><time>2026-03-28T16:26:46Z</time></trkpt><trkpt lat="45.95048270404637" lon="10.241959818306764"><ele>817.0</ele><time>2026-03-28T16:26:47Z</time></trkpt><trkpt lat="45.95058683209904" lon="10.242141401129215"><ele>806.3333333333333</ele><time>2026-03-28T16:26:48Z</time></trkpt><trkpt lat="45.95066930116708" lon="10.242319727509598"><ele>795.6666666666667</ele><time>2026-03-28T16:26:49Z</time></trkpt><trkpt lat="45.950756380187926" lon="10.242573317052006"><ele>785.0</ele><time>2026-03-28T16:26:50Z</time></trkpt><trkpt lat="45.95083962356303" lon="10.242810210336291"><ele>791.75</ele><time>2026-03-28T16:26:51Z</time></trkpt><trkpt lat="45.95089092263744" lon="10.242990485697062"><ele>798.5</ele><time>2026-03-28T16:26:52Z</time></trkpt><trkpt lat="45.950928212955766" lon="10.24315621073383"><ele>805.25</ele><time>2026-03-28T16:26:53Z</time></trkpt><trkpt lat="45.95096253082445" lon="10.243322629793438"><ele>812.0</ele><time>2026-03-28T16:26:54Z</time></trkpt><trkpt lat="45.950987326726505" lon="10.2434665680707"><ele>812.0</ele><time>2026-03-28T16:26:55Z</time></trkpt><trkpt lat="45.95101836491669" lon="10.243598628058441"><ele>812.0</ele><time>2026-03-28T16:26:56Z</time></trkpt><trkpt lat="45.95106127618733" lon="10.243760424109091"><ele>812.0</ele><time>2026-03-28T16:26:57Z</time></trkpt><trkpt lat="45.95112747512909" lon="10.243925079474204"><ele>812.0</ele><time>2026-03-28T16:26:58Z</time></trkpt><trkpt lat="45.95118223518879" lon="10.244078690325843"><ele>808.0</ele><time>2026-03-28T16:26:59Z</time></trkpt><trkpt lat="45.95124623872875" lon="10.244201928152801"><ele>804.0</ele><time>2026-03-28T16:27:00Z</time></trkpt><trkpt lat="45.95133514001826" lon="10.244316081388414"><ele>800.0</ele><time>2026-03-28T16:27:01Z</time></trkpt><trkpt lat="45.95146914255247" lon="10.244448365231728"><ele>796.0</ele><time>2026-03-28T16:27:02Z</time></trkpt><trkpt lat="45.95158648141706" lon="10.244590501274317"><ele>796.0</ele><time>2026-03-28T16:27:03Z</time></trkpt><trkpt lat="45.95168160334667" lon="10.24469937917773"><ele>796.0</ele><time>2026-03-28T16:27:04Z</time></trkpt><trkpt lat="45.95177759552777" lon="10.244778367944026"><ele>796.0</ele><time>2026-03-28T16:27:05Z</time></trkpt><trkpt lat="45.951876162790924" lon="10.244841947317163"><ele>796.0</ele><time>2026-03-28T16:27:06Z</time></trkpt><trkpt lat="45.951980652507" lon="10.244908607507803"><ele>800.0</ele><time>2026-03-28T16:27:07Z</time></trkpt><trkpt lat="45.952088605879425" lon="10.244994058277669"><ele>804.0</ele><time>2026-03-28T16:27:08Z</time></trkpt><trkpt lat="45.95217313629299" lon="10.245093332891367"><ele>808.0</ele><time>2026-03-28T16:27:09Z</time></trkpt><trkpt lat="45.952228557669905" lon="10.245223446500178"><ele>812.0</ele><time>2026-03-28T16:27:10Z</time></trkpt><trkpt lat="45.95229694347362" lon="10.245400953305777"><ele>812.0</ele><time>2026-03-28T16:27:11Z</time></trkpt><trkpt lat="45.952361340239115" lon="10.245612743595979"><ele>812.0</ele><time>2026-03-28T16:27:12Z</time></trkpt><trkpt lat="45.952418685737456" lon="10.245768737337837"><ele>812.0</ele><time>2026-03-28T16:27:13Z</time></trkpt><trkpt lat="45.95247365220219" lon="10.245874608075335"><ele>812.0</ele><time>2026-03-28T16:27:14Z</time></trkpt><trkpt lat="45.95255452914181" lon="10.245990423762635"><ele>816.75</ele><time>2026-03-28T16:27:15Z</time></trkpt><trkpt lat="45.952614522323124" lon="10.24613240644433"><ele>821.5</ele><time>2026-03-28T16:27:16Z</time></trkpt><trkpt lat="45.95265453535628" lon="10.246287349060973"><ele>826.25</ele><time>2026-03-28T16:27:17Z</time></trkpt><trkpt lat="45.952701197184375" lon="10.246456047902669"><ele>831.0</ele><time>2026-03-28T16:27:18Z</time></trkpt><trkpt lat="45.95277694766635" lon="10.246674349217173"><ele>831.0</ele><time>2026-03-28T16:27:19Z</time></trkpt><trkpt lat="45.95284203200477" lon="10.246842393461394"><ele>831.0</ele><time>2026-03-28T16:27:20Z</time></trkpt><trkpt lat="45.95290188527555" lon="10.246952991163067"><ele>831.0</ele><time>2026-03-28T16:27:21Z</time></trkpt><trkpt lat="45.95294276532825" lon="10.247033092799672"><ele>831.0</ele><time>2026-03-28T16:27:22Z</time></trkpt><trkpt lat="45.952984383884726" lon="10.247140947228324"><ele>831.0</ele><time>2026-03-28T16:27:24Z</time></trkpt><trkpt lat="45.953057919276695" lon="10.247270560883875"><ele>827.8</ele><time>2026-03-28T16:27:26Z</time></trkpt><trkpt lat="45.95310460053" lon="10.247364072086485"><ele>824.5999999999999</ele><time>2026-03-28T16:27:27Z</time></trkpt><trkpt lat="45.953175930492534" lon="10.247477966431095"><ele>821.4</ele><time>2026-03-28T16:27:28Z</time></trkpt><trkpt lat="45.95323482329428" lon="10.247612994173576"><ele>818.2</ele><time>2026-03-28T16:27:29Z</time></trkpt><trkpt lat="45.95328259847457" lon="10.247765423298178"><ele>815.0</ele><time>2026-03-28T16:27:30Z</time></trkpt><trkpt lat="45.95332795697331" lon="10.247924649549208"><ele>815.0</ele><time>2026-03-28T16:27:31Z</time></trkpt><trkpt lat="45.95336326706881" lon="10.248100884886874"><ele>815.0</ele><time>2026-03-28T16:27:32Z</time></trkpt><trkpt lat="45.95339084064966" lon="10.248279832552402"><ele>815.0</ele><time>2026-03-28T16:27:33Z</time></trkpt><trkpt lat="45.95341267239019" lon="10.248451175387668"><ele>815.0</ele><time>2026-03-28T16:27:34Z</time></trkpt><trkpt lat="45.95345579495415" lon="10.248580473986285"><ele>824.25</ele><time>2026-03-28T16:27:35Z</time></trkpt><trkpt lat="45.95349635633139" lon="10.24869155438464"><ele>833.5</ele><time>2026-03-28T16:27:36Z</time></trkpt><trkpt lat="45.953562909851534" lon="10.248824140494921"><ele>842.75</ele><time>2026-03-28T16:27:37Z</time></trkpt><trkpt lat="45.95365045460131" lon="10.248994089366379"><ele>852.0</ele><time>2026-03-28T16:27:38Z</time></trkpt><trkpt lat="45.953700192330096" lon="10.24916413203252"><ele>852.0</ele><time>2026-03-28T16:27:39Z</time></trkpt><trkpt lat="45.95375191534719" lon="10.2493152822584"><ele>852.0</ele><time>2026-03-28T16:27:40Z</time></trkpt><trkpt lat="45.953813144996595" lon="10.249454600492339"><ele>852.0</ele><time>2026-03-28T16:27:41Z</time></trkpt><trkpt lat="45.95387748917776" lon="10.249597663623138"><ele>852.0</ele><time>2026-03-28T16:27:42Z</time></trkpt><trkpt lat="45.95393208331347" lon="10.24971904722756"><ele>848.0</ele><time>2026-03-28T16:27:43Z</time></trkpt><trkpt lat="45.95397505348675" lon="10.24981325052166"><ele>844.0</ele><time>2026-03-28T16:27:44Z</time></trkpt><trkpt lat="45.95401014792826" lon="10.249889155520943"><ele>840.0</ele><time>2026-03-28T16:27:45Z</time></trkpt><trkpt lat="45.95396937871255" lon="10.250041612201997"><ele>836.0</ele><time>2026-03-28T16:27:46Z</time></trkpt><trkpt lat="45.954001734275955" lon="10.250173750447438"><ele>832.0</ele><time>2026-03-28T16:27:47Z</time></trkpt><trkpt lat="45.95401285153036" lon="10.25031981453864"><ele>832.0</ele><time>2026-03-28T16:27:48Z</time></trkpt><trkpt lat="45.954040270871076" lon="10.25047151108863"><ele>832.0</ele><time>2026-03-28T16:27:49Z</time></trkpt><trkpt lat="45.954066031683766" lon="10.250622917296882"><ele>832.0</ele><time>2026-03-28T16:27:50Z</time></trkpt><trkpt lat="45.954104704218494" lon="10.250760198772447"><ele>832.0</ele><time>2026-03-28T16:27:51Z</time></trkpt><trkpt lat="45.95413336458604" lon="10.250913344449316"><ele>832.0</ele><time>2026-03-28T16:27:52Z</time></trkpt><trkpt lat="45.954180335638156" lon="10.251056436586175"><ele>831.0</ele><time>2026-03-28T16:27:53Z</time></trkpt><trkpt lat="45.95422949874864" lon="10.25120038307628"><ele>830.0</ele><time>2026-03-28T16:27:54Z</time></trkpt><trkpt lat="45.95429642976383" lon="10.251324103068065"><ele>829.0</ele><time>2026-03-28T16:27:55Z</time></trkpt><trkpt lat="45.954363062304296" lon="10.251434686445789"><ele>828.0</ele><time>2026-03-28T16:27:56Z</time></trkpt><trkpt lat="45.95443392612118" lon="10.251537779644154"><ele>827.0</ele><time>2026-03-28T16:27:57Z</time></trkpt><trkpt lat="45.95450349894908" lon="10.251656756518896"><ele>827.0</ele><time>2026-03-28T16:27:58Z</time></trkpt><trkpt lat="45.954572593468264" lon="10.251781790812354"><ele>827.0</ele><time>2026-03-28T16:27:59Z</time></trkpt><trkpt lat="45.954643391233496" lon="10.251910652078559"><ele>827.0</ele><time>2026-03-28T16:28:00Z</time></trkpt><trkpt lat="45.95471509731262" lon="10.25204015814021"><ele>827.0</ele><time>2026-03-28T16:28:01Z</time></trkpt><trkpt lat="45.95478211445236" lon="10.252177687159428"><ele>827.0</ele><time>2026-03-28T16:28:02Z</time></trkpt><trkpt lat="45.95487903806782" lon="10.252273808170607"><ele>827.0</ele><time>2026-03-28T16:28:03Z</time></trkpt><trkpt lat="45.954960640767446" lon="10.252384737747015"><ele>827.0</ele><time>2026-03-28T16:28:04Z</time></trkpt><trkpt lat="45.95500411380341" lon="10.252505218683584"><ele>827.0</ele><time>2026-03-28T16:28:05Z</time></trkpt><trkpt lat="45.95506763075016" lon="10.252563373942802"><ele>827.0</ele><time>2026-03-28T16:28:06Z</time></trkpt><trkpt lat="45.955133920101396" lon="10.252600310101508"><ele>826.8</ele><time>2026-03-28T16:28:07Z</time></trkpt><trkpt lat="45.95520566944542" lon="10.252624007300039"><ele>826.6</ele><time>2026-03-28T16:28:08Z</time></trkpt><trkpt lat="45.95530209225035" lon="10.252670066068506"><ele>826.4</ele><time>2026-03-28T16:28:09Z</time></trkpt><trkpt lat="45.955409193560946" lon="10.252778542400634"><ele>826.1999999999999</ele><time>2026-03-28T16:28:10Z</time></trkpt><trkpt lat="45.95550781313292" lon="10.252921697008599"><ele>826.0</ele><time>2026-03-28T16:28:11Z</time></trkpt><trkpt lat="45.95558133870587" lon="10.253046658279736"><ele>820.0</ele><time>2026-03-28T16:28:12Z</time></trkpt><trkpt lat="45.95563827349131" lon="10.253165099496414"><ele>814.0</ele><time>2026-03-28T16:28:13Z</time></trkpt><trkpt lat="45.955701659614896" lon="10.253320101589008"><ele>808.0</ele><time>2026-03-28T16:28:14Z</time></trkpt><trkpt lat="45.95576761402291" lon="10.253476653762068"><ele>802.0</ele><time>2026-03-28T16:28:15Z</time></trkpt><trkpt lat="45.95583976556468" lon="10.253625594638036"><ele>802.0</ele><time>2026-03-28T16:28:16Z</time></trkpt><trkpt lat="45.95591227666261" lon="10.253758648460021"><ele>802.0</ele><time>2026-03-28T16:28:17Z</time></trkpt><trkpt lat="45.95597448283124" lon="10.25385392286134"><ele>802.0</ele><time>2026-03-28T16:28:18Z</time></trkpt><trkpt lat="45.956044270344776" lon="10.253925494242111"><ele>802.0</ele><time>2026-03-28T16:28:19Z</time></trkpt><trkpt lat="45.956107778614424" lon="10.25400299693388"><ele>802.0</ele><time>2026-03-28T16:28:20Z</time></trkpt><trkpt lat="45.956194966700075" lon="10.254061809784243"><ele>802.0</ele><time>2026-03-28T16:28:21Z</time></trkpt><trkpt lat="45.95629656339895" lon="10.254086776302694"><ele>802.0</ele><time>2026-03-28T16:28:22Z</time></trkpt><trkpt lat="45.95638658769963" lon="10.254112814652448"><ele>802.0</ele><time>2026-03-28T16:28:23Z</time></trkpt><trkpt lat="45.95647010027706" lon="10.254098658810156"><ele>802.0</ele><time>2026-03-28T16:28:24Z</time></trkpt><trkpt lat="45.9565310046063" lon="10.253995885635728"><ele>802.0</ele><time>2026-03-28T16:28:26Z</time></trkpt><trkpt lat="45.9566205656163" lon="10.253801568255296"><ele>802.0</ele><time>2026-03-28T16:28:28Z</time></trkpt><trkpt lat="45.956677973734365" lon="10.253677929594136"><ele>802.0</ele><time>2026-03-28T16:28:29Z</time></trkpt><trkpt lat="45.95673813233727" lon="10.25352578038025"><ele>802.0</ele><time>2026-03-28T16:28:30Z</time></trkpt><trkpt lat="45.95677705859808" lon="10.253401730529209"><ele>802.0</ele><time>2026-03-28T16:28:31Z</time></trkpt><trkpt lat="45.95681754803796" lon="10.253281976225919"><ele>802.0</ele><time>2026-03-28T16:28:32Z</time></trkpt><trkpt lat="45.95685153383565" lon="10.253155733255793"><ele>805.0</ele><time>2026-03-28T16:28:33Z</time></trkpt><trkpt lat="45.956916941643634" lon="10.253058890986278"><ele>808.0</ele><time>2026-03-28T16:28:34Z</time></trkpt><trkpt lat="45.957003838646976" lon="10.25298310212089"><ele>811.0</ele><time>2026-03-28T16:28:36Z</time></trkpt><trkpt lat="45.95707479503429" lon="10.252879546065081"><ele>814.0</ele><time>2026-03-28T16:28:38Z</time></trkpt><trkpt lat="45.95711126714327" lon="10.252977611603278"><ele>817.0</ele><time>2026-03-28T16:28:39Z</time></trkpt><trkpt lat="45.956971135009844" lon="10.253209714452888"><ele>817.0</ele><time>2026-03-28T16:28:40Z</time></trkpt><trkpt lat="45.95683786083074" lon="10.253104452404108"><ele>817.0</ele><time>2026-03-28T16:28:41Z</time></trkpt><trkpt lat="45.95718293040098" lon="10.2529172026239"><ele>817.0</ele><time>2026-03-28T16:28:45Z</time></trkpt><trkpt lat="45.95717037506788" lon="10.252740026915154"><ele>817.0</ele><time>2026-03-28T16:28:46Z</time></trkpt><trkpt lat="45.957482173559995" lon="10.253564564256699"><ele>810.0</ele><time>2026-03-28T16:28:49Z</time></trkpt><trkpt lat="45.95780391149389" lon="10.252960636134274"><ele>810.0</ele><time>2026-03-28T16:28:50Z</time></trkpt><trkpt lat="45.95788271865321" lon="10.252935761431958"><ele>810.0</ele><time>2026-03-28T16:28:51Z</time></trkpt><trkpt lat="45.957966879820695" lon="10.25288607091083"><ele>810.0</ele><time>2026-03-28T16:28:52Z</time></trkpt><trkpt lat="45.95804413737922" lon="10.252849638587266"><ele>810.0</ele><time>2026-03-28T16:28:53Z</time></trkpt><trkpt lat="45.95813593595934" lon="10.252800184575992"><ele>810.0</ele><time>2026-03-28T16:28:54Z</time></trkpt><trkpt lat="45.95822988182546" lon="10.252692291681962"><ele>810.0</ele><time>2026-03-28T16:28:55Z</time></trkpt><trkpt lat="45.95831344881003" lon="10.252590933999661"><ele>810.0</ele><time>2026-03-28T16:28:56Z</time></trkpt><trkpt lat="45.95839880396836" lon="10.252502319525878"><ele>810.0</ele><time>2026-03-28T16:28:57Z</time></trkpt><trkpt lat="45.958492301282206" lon="10.252410226211305"><ele>810.0</ele><time>2026-03-28T16:28:58Z</time></trkpt><trkpt lat="45.95857392406572" lon="10.25229638866283"><ele>810.0</ele><time>2026-03-28T16:28:59Z</time></trkpt><trkpt lat="45.958651185000384" lon="10.252197367673674"><ele>813.2</ele><time>2026-03-28T16:29:00Z</time></trkpt><trkpt lat="45.958722265548424" lon="10.252116049906046"><ele>816.4</ele><time>2026-03-28T16:29:01Z</time></trkpt><trkpt lat="45.95878948772048" lon="10.252036908188945"><ele>819.5999999999999</ele><time>2026-03-28T16:29:02Z</time></trkpt><trkpt lat="45.95885671074145" lon="10.251946211803936"><ele>822.8</ele><time>2026-03-28T16:29:03Z</time></trkpt><trkpt lat="45.95893071623764" lon="10.251922931120738"><ele>826.0</ele><time>2026-03-28T16:29:05Z</time></trkpt><trkpt lat="45.95903284226488" lon="10.251838548190156"><ele>826.0</ele><time>2026-03-28T16:29:06Z</time></trkpt><trkpt lat="45.959128511137585" lon="10.25179902391903"><ele>826.0</ele><time>2026-03-28T16:29:07Z</time></trkpt><trkpt lat="45.95923261940975" lon="10.25171265307505"><ele>826.0</ele><time>2026-03-28T16:29:08Z</time></trkpt><trkpt lat="45.95931628481049" lon="10.25162116036887"><ele>826.0</ele><time>2026-03-28T16:29:09Z</time></trkpt><trkpt lat="45.95941451637281" lon="10.251569673497865"><ele>826.0</ele><time>2026-03-28T16:29:10Z</time></trkpt><trkpt lat="45.959495100438154" lon="10.25151887924293"><ele>828.5999999999999</ele><time>2026-03-28T16:29:12Z</time></trkpt><trkpt lat="45.959485599912306" lon="10.251673665135433"><ele>831.2</ele><time>2026-03-28T16:29:14Z</time></trkpt><trkpt lat="45.95946404535249" lon="10.251764136761686"><ele>833.8</ele><time>2026-03-28T16:29:15Z</time></trkpt><trkpt lat="45.95947623460743" lon="10.251882426778192"><ele>836.4000000000001</ele><time>2026-03-28T16:29:16Z</time></trkpt><trkpt lat="45.959505306836334" lon="10.252121075103625"><ele>839.0</ele><time>2026-03-28T16:29:17Z</time></trkpt><trkpt lat="45.959545180777354" lon="10.252381065326372"><ele>839.0</ele><time>2026-03-28T16:29:18Z</time></trkpt><trkpt lat="45.95957504891612" lon="10.252615057801377"><ele>839.0</ele><time>2026-03-28T16:29:19Z</time></trkpt><trkpt lat="45.95959588432701" lon="10.252753812598968"><ele>839.0</ele><time>2026-03-28T16:29:20Z</time></trkpt><trkpt lat="45.959619216388006" lon="10.252848572846082"><ele>839.0</ele><time>2026-03-28T16:29:21Z</time></trkpt><trkpt lat="45.9596417052248" lon="10.252946279621773"><ele>839.0</ele><time>2026-03-28T16:29:24Z</time></trkpt><trkpt lat="45.9596443746008" lon="10.25306287835873"><ele>839.0</ele><time>2026-03-28T16:29:27Z</time></trkpt><trkpt lat="45.95965014775303" lon="10.253171163567501"><ele>839.0</ele><time>2026-03-28T16:29:28Z</time></trkpt><trkpt lat="45.95965594627012" lon="10.253279927824996"><ele>839.0</ele><time>2026-03-28T16:29:29Z</time></trkpt><trkpt lat="45.95940427872133" lon="10.253144785638318"><ele>839.0</ele><time>2026-03-28T16:29:34Z</time></trkpt><trkpt lat="45.95936171623648" lon="10.252967180846575"><ele>839.0000000000001</ele><time>2026-03-28T16:29:35Z</time></trkpt><trkpt lat="45.959320766951976" lon="10.252821988663849"><ele>839.0</ele><time>2026-03-28T16:29:36Z</time></trkpt><trkpt lat="45.95930970149748" lon="10.252719380859448"><ele>839.0</ele><time>2026-03-28T16:29:37Z</time></trkpt><trkpt lat="45.95931283238477" lon="10.252620286450783"><ele>839.0</ele><time>2026-03-28T16:29:38Z</time></trkpt><trkpt lat="45.95926773726548" lon="10.252545449393676"><ele>839.0000000000001</ele><time>2026-03-28T16:29:40Z</time></trkpt><trkpt lat="45.959208871113894" lon="10.252624592661771"><ele>839.0</ele><time>2026-03-28T16:29:41Z</time></trkpt><trkpt lat="45.95915093158249" lon="10.252769724209184"><ele>831.5</ele><time>2026-03-28T16:29:42Z</time></trkpt><trkpt lat="45.959122170812336" lon="10.252922334417976"><ele>824.0</ele><time>2026-03-28T16:29:43Z</time></trkpt><trkpt lat="45.95909794112167" lon="10.253095157789852"><ele>816.5</ele><time>2026-03-28T16:29:44Z</time></trkpt><trkpt lat="45.959057992193586" lon="10.253253207973005"><ele>809.0</ele><time>2026-03-28T16:29:45Z</time></trkpt><trkpt lat="45.95902846795989" lon="10.253396275735811"><ele>808.75</ele><time>2026-03-28T16:29:46Z</time></trkpt><trkpt lat="45.95898889638572" lon="10.253557132873201"><ele>808.5</ele><time>2026-03-28T16:29:47Z</time></trkpt><trkpt lat="45.958951950576434" lon="10.253731484059237"><ele>808.25</ele><time>2026-03-28T16:29:48Z</time></trkpt><trkpt lat="45.958893622600776" lon="10.25392190052677"><ele>808.0</ele><time>2026-03-28T16:29:49Z</time></trkpt><trkpt lat="45.958857191635204" lon="10.254078219516169"><ele>808.0</ele><time>2026-03-28T16:29:50Z</time></trkpt><trkpt lat="45.95879773630531" lon="10.254197695305303"><ele>808.0</ele><time>2026-03-28T16:29:51Z</time></trkpt><trkpt lat="45.958749276574785" lon="10.254336357252313"><ele>808.0</ele><time>2026-03-28T16:29:52Z</time></trkpt><trkpt lat="45.95872600285767" lon="10.254485119006063"><ele>808.0</ele><time>2026-03-28T16:29:53Z</time></trkpt><trkpt lat="45.95872109359497" lon="10.254626901185297"><ele>808.0</ele><time>2026-03-28T16:29:54Z</time></trkpt><trkpt lat="45.958730388895695" lon="10.254798018698432"><ele>809.25</ele><time>2026-03-28T16:29:55Z</time></trkpt><trkpt lat="45.95870866786274" lon="10.254959117466814"><ele>810.5</ele><time>2026-03-28T16:29:56Z</time></trkpt><trkpt lat="45.958671340938814" lon="10.255168206125138"><ele>811.75</ele><time>2026-03-28T16:29:57Z</time></trkpt><trkpt lat="45.95864505164567" lon="10.255355589057277"><ele>813.0</ele><time>2026-03-28T16:29:58Z</time></trkpt><trkpt lat="45.958625209717795" lon="10.25552272076226"><ele>812.8333333333334</ele><time>2026-03-28T16:29:59Z</time></trkpt><trkpt lat="45.9585984241422" lon="10.255656482207081"><ele>812.6666666666667</ele><time>2026-03-28T16:30:00Z</time></trkpt><trkpt lat="45.95858613121015" lon="10.255787049564352"><ele>812.5</ele><time>2026-03-28T16:30:01Z</time></trkpt><trkpt lat="45.95859988727301" lon="10.255902338509761"><ele>812.3333333333334</ele><time>2026-03-28T16:30:04Z</time></trkpt><trkpt lat="45.95856224752155" lon="10.255978097068434"><ele>812.1666666666667</ele><time>2026-03-28T16:30:07Z</time></trkpt><trkpt lat="45.95851712137676" lon="10.256065096084006"><ele>812.0</ele><time>2026-03-28T16:30:10Z</time></trkpt><trkpt lat="45.95847715273157" lon="10.256135702150555"><ele>812.0000000000001</ele><time>2026-03-28T16:30:12Z</time></trkpt><trkpt lat="45.958430521277236" lon="10.256229148196141"><ele>812.0</ele><time>2026-03-28T16:30:14Z</time></trkpt><trkpt lat="45.95837950311946" lon="10.256298299262395"><ele>812.0</ele><time>2026-03-28T16:30:16Z</time></trkpt><trkpt lat="45.95829970474433" lon="10.256399736823552"><ele>812.0</ele><time>2026-03-28T16:30:18Z</time></trkpt><trkpt lat="45.958236283703975" lon="10.256515463432981"><ele>812.0000000000001</ele><time>2026-03-28T16:30:20Z</time></trkpt><trkpt lat="45.95816625909242" lon="10.256590551381425"><ele>812.0</ele><time>2026-03-28T16:30:22Z</time></trkpt><trkpt lat="45.95813354414154" lon="10.25671001859935"><ele>803.4000000000001</ele><time>2026-03-28T16:30:24Z</time></trkpt><trkpt lat="45.95810969479706" lon="10.256842150495952"><ele>794.8000000000001</ele><time>2026-03-28T16:30:26Z</time></trkpt><trkpt lat="45.95806918003996" lon="10.256946925613542"><ele>786.2</ele><time>2026-03-28T16:30:28Z</time></trkpt><trkpt lat="45.95804304998851" lon="10.25707956660142"><ele>777.6</ele><time>2026-03-28T16:30:31Z</time></trkpt><trkpt lat="45.9579765806238" lon="10.257269593261329"><ele>769.0</ele><time>2026-03-28T16:30:32Z</time></trkpt><trkpt lat="45.95794019323781" lon="10.257355740857237"><ele>769.0</ele><time>2026-03-28T16:30:33Z</time></trkpt><trkpt lat="45.957901292107195" lon="10.257429682656294"><ele>769.0</ele><time>2026-03-28T16:30:34Z</time></trkpt><trkpt lat="45.95786280584805" lon="10.257576240276604"><ele>769.0</ele><time>2026-03-28T16:30:36Z</time></trkpt><trkpt lat="45.95779866194572" lon="10.257512802202237"><ele>769.0</ele><time>2026-03-28T16:30:39Z</time></trkpt><trkpt lat="45.9577672010452" lon="10.257357671689286"><ele>769.0</ele><time>2026-03-28T16:30:41Z</time></trkpt><trkpt lat="45.95774802118116" lon="10.257131921386721"><ele>768.9999999999999</ele><time>2026-03-28T16:30:43Z</time></trkpt><trkpt lat="45.95774495384336" lon="10.256998469495095"><ele>769.0</ele><time>2026-03-28T16:30:44Z</time></trkpt><trkpt lat="45.95775173211471" lon="10.256873243587366"><ele>769.0</ele><time>2026-03-28T16:30:45Z</time></trkpt><trkpt lat="45.95776661815609" lon="10.256761542557964"><ele>769.0</ele><time>2026-03-28T16:30:46Z</time></trkpt><trkpt lat="45.9577880045138" lon="10.256657483558772"><ele>768.9999999999999</ele><time>2026-03-28T16:30:49Z</time></trkpt><trkpt lat="45.957771378338094" lon="10.256546360485812"><ele>769.0</ele><time>2026-03-28T16:30:52Z</time></trkpt><trkpt lat="45.95771793576166" lon="10.256466435717373"><ele>769.0</ele><time>2026-03-28T16:30:56Z</time></trkpt><trkpt lat="45.957650594034064" lon="10.256491766818515"><ele>769.0</ele><time>2026-03-28T16:30:59Z</time></trkpt><trkpt lat="45.95758352200092" lon="10.256550351602908"><ele>769.0</ele><time>2026-03-28T16:31:02Z</time></trkpt><trkpt lat="45.95746273853492" lon="10.256650553965244"><ele>769.0</ele><time>2026-03-28T16:31:04Z</time></trkpt><trkpt lat="45.957380520008506" lon="10.256726877702967"><ele>769.0</ele><time>2026-03-28T16:31:05Z</time></trkpt><trkpt lat="45.95731010421852" lon="10.256812527933349"><ele>762.9999999999999</ele><time>2026-03-28T16:31:06Z</time></trkpt><trkpt lat="45.95723607903142" lon="10.256896574233021"><ele>757.0</ele><time>2026-03-28T16:31:07Z</time></trkpt><trkpt lat="45.95717419341399" lon="10.256955630755217"><ele>751.0</ele><time>2026-03-28T16:31:08Z</time></trkpt><trkpt lat="45.95709351032576" lon="10.257035706261144"><ele>745.0</ele><time>2026-03-28T16:31:10Z</time></trkpt><trkpt lat="45.957073481041974" lon="10.257159298521142"><ele>739.0</ele><time>2026-03-28T16:31:12Z</time></trkpt><trkpt lat="45.95705739717494" lon="10.257260525643732"><ele>733.0</ele><time>2026-03-28T16:31:13Z</time></trkpt><trkpt lat="45.95703807907552" lon="10.25735389124888"><ele>733.0</ele><time>2026-03-28T16:31:14Z</time></trkpt><trkpt lat="45.95700889037103" lon="10.257497044184122"><ele>733.0</ele><time>2026-03-28T16:31:16Z</time></trkpt><trkpt lat="45.95694315118017" lon="10.257503578869756"><ele>733.0</ele><time>2026-03-28T16:31:19Z</time></trkpt><trkpt lat="45.95689205790708" lon="10.257422214318847"><ele>733.0</ele><time>2026-03-28T16:31:22Z</time></trkpt><trkpt lat="45.95680376666486" lon="10.25737567450237"><ele>733.0</ele><time>2026-03-28T16:32:42Z</time></trkpt><trkpt lat="45.956781474152656" lon="10.257274341377684"><ele>733.0</ele><time>2026-03-28T16:33:16Z</time></trkpt><trkpt lat="45.956752344852895" lon="10.257159621622652"><ele>732.6666666666667</ele><time>2026-03-28T16:33:20Z</time></trkpt><trkpt lat="45.956743930129086" lon="10.257055045468094"><ele>732.3333333333334</ele><time>2026-03-28T16:33:22Z</time></trkpt><trkpt lat="45.95676254763488" lon="10.256954107961848"><ele>732.0</ele><time>2026-03-28T16:33:24Z</time></trkpt><trkpt lat="45.956729037502136" lon="10.256864597224732"><ele>731.6666666666666</ele><time>2026-03-28T16:33:27Z</time></trkpt><trkpt lat="45.95662895860146" lon="10.256919737270572"><ele>731.3333333333333</ele><time>2026-03-28T16:33:30Z</time></trkpt><trkpt lat="45.9565360529543" lon="10.257022131415862"><ele>731.0</ele><time>2026-03-28T16:33:32Z</time></trkpt><trkpt lat="45.956507725851736" lon="10.257116241448234"><ele>724.1999999999999</ele><time>2026-03-28T16:33:33Z</time></trkpt><trkpt lat="45.956494309797996" lon="10.257234396441818"><ele>717.4</ele><time>2026-03-28T16:33:34Z</time></trkpt><trkpt lat="45.956485493867106" lon="10.257374844336805"><ele>710.6</ele><time>2026-03-28T16:33:35Z</time></trkpt><trkpt lat="45.95645479686433" lon="10.257497713640674"><ele>703.8</ele><time>2026-03-28T16:33:36Z</time></trkpt><trkpt lat="45.95642449002496" lon="10.2576652843822"><ele>697.0</ele><time>2026-03-28T16:33:37Z</time></trkpt><trkpt lat="45.956408247815865" lon="10.257807214254214"><ele>697.0</ele><time>2026-03-28T16:33:38Z</time></trkpt><trkpt lat="45.956375796136555" lon="10.257900010806749"><ele>697.0</ele><time>2026-03-28T16:33:39Z</time></trkpt><trkpt lat="45.956321571999595" lon="10.257967969706483"><ele>697.0</ele><time>2026-03-28T16:33:40Z</time></trkpt><trkpt lat="45.956276964860386" lon="10.25804628936446"><ele>697.0</ele><time>2026-03-28T16:33:41Z</time></trkpt><trkpt lat="45.95624243863891" lon="10.25816340754383"><ele>697.0</ele><time>2026-03-28T16:33:42Z</time></trkpt><trkpt lat="45.9562410493348" lon="10.258314998073548"><ele>697.0</ele><time>2026-03-28T16:33:43Z</time></trkpt><trkpt lat="45.95621436147597" lon="10.258456264718248"><ele>696.6</ele><time>2026-03-28T16:33:44Z</time></trkpt><trkpt lat="45.956197483156416" lon="10.258578349247836"><ele>696.2</ele><time>2026-03-28T16:33:45Z</time></trkpt><trkpt lat="45.95619379765848" lon="10.258725276884936"><ele>695.8</ele><time>2026-03-28T16:33:46Z</time></trkpt><trkpt lat="45.95620948895131" lon="10.258864194787222"><ele>695.4</ele><time>2026-03-28T16:33:47Z</time></trkpt><trkpt lat="45.95622843957308" lon="10.259005319884226"><ele>695.0</ele><time>2026-03-28T16:33:48Z</time></trkpt><trkpt lat="45.95621860980116" lon="10.259142514087472"><ele>693.8333333333333</ele><time>2026-03-28T16:33:49Z</time></trkpt><trkpt lat="45.956199085185276" lon="10.259270375735882"><ele>692.6666666666666</ele><time>2026-03-28T16:33:50Z</time></trkpt><trkpt lat="45.95617904119212" lon="10.259401627343005"><ele>691.5</ele><time>2026-03-28T16:33:51Z</time></trkpt><trkpt lat="45.95616451189489" lon="10.259515884198882"><ele>690.3333333333334</ele><time>2026-03-28T16:33:52Z</time></trkpt><trkpt lat="45.95618019387392" lon="10.25963426360596"><ele>689.1666666666667</ele><time>2026-03-28T16:33:53Z</time></trkpt><trkpt lat="45.95620441700095" lon="10.25974934190447"><ele>688.0</ele><time>2026-03-28T16:33:54Z</time></trkpt><trkpt lat="45.956227665755335" lon="10.259842131387428"><ele>684.2</ele><time>2026-03-28T16:33:55Z</time></trkpt><trkpt lat="45.956251142709135" lon="10.259932167210534"><ele>680.4</ele><time>2026-03-28T16:33:56Z</time></trkpt><trkpt lat="45.956218836654955" lon="10.260029899842994"><ele>676.6</ele><time>2026-03-28T16:33:58Z</time></trkpt><trkpt lat="45.95613251833234" lon="10.259986830482411"><ele>672.8000000000001</ele><time>2026-03-28T16:34:00Z</time></trkpt><trkpt lat="45.95603971584024" lon="10.259936664241065"><ele>669.0</ele><time>2026-03-28T16:34:02Z</time></trkpt><trkpt lat="45.95589648907603" lon="10.259843787323753"><ele>664.8333333333334</ele><time>2026-03-28T16:34:06Z</time></trkpt><trkpt lat="45.955839867249885" lon="10.25980373544218"><ele>660.6666666666666</ele><time>2026-03-28T16:34:07Z</time></trkpt><trkpt lat="45.95576150573822" lon="10.259737482109129"><ele>656.5</ele><time>2026-03-28T16:34:09Z</time></trkpt><trkpt lat="45.95570099063279" lon="10.259685132630375"><ele>652.3333333333333</ele><time>2026-03-28T16:34:12Z</time></trkpt><trkpt lat="45.95564046001299" lon="10.259652033503112"><ele>648.1666666666666</ele><time>2026-03-28T16:34:14Z</time></trkpt><trkpt lat="45.95558022779334" lon="10.259554402138887"><ele>644.0</ele><time>2026-03-28T16:34:17Z</time></trkpt><trkpt lat="45.95552285927358" lon="10.259487930724424"><ele>644.0</ele><time>2026-03-28T16:34:19Z</time></trkpt><trkpt lat="45.9554788382202" lon="10.259338181303901"><ele>644.0</ele><time>2026-03-28T16:34:21Z</time></trkpt><trkpt lat="45.95545907464307" lon="10.259215578681664"><ele>644.0</ele><time>2026-03-28T16:34:22Z</time></trkpt><trkpt lat="45.95546023214079" lon="10.259081144751914"><ele>644.0</ele><time>2026-03-28T16:34:23Z</time></trkpt><trkpt lat="45.95541010000867" lon="10.259021802853315"><ele>644.0</ele><time>2026-03-28T16:34:26Z</time></trkpt><trkpt lat="45.95534974388036" lon="10.259085536211433"><ele>644.0</ele><time>2026-03-28T16:34:29Z</time></trkpt><trkpt lat="45.95528173546108" lon="10.259205277218468"><ele>644.0</ele><time>2026-03-28T16:34:31Z</time></trkpt><trkpt lat="45.95525657720684" lon="10.25936920078048"><ele>644.0</ele><time>2026-03-28T16:34:33Z</time></trkpt><trkpt lat="45.95524435861454" lon="10.259460830517776"><ele>644.0</ele><time>2026-03-28T16:34:34Z</time></trkpt><trkpt lat="45.95525282102993" lon="10.259580189113425"><ele>644.0</ele><time>2026-03-28T16:34:35Z</time></trkpt><trkpt lat="45.95523473711764" lon="10.259672280180274"><ele>644.0</ele><time>2026-03-28T16:34:36Z</time></trkpt><trkpt lat="45.95522773659823" lon="10.2597758635818"><ele>644.0</ele><time>2026-03-28T16:34:37Z</time></trkpt><trkpt lat="45.95521654603323" lon="10.25988236947254"><ele>642.0</ele><time>2026-03-28T16:34:38Z</time></trkpt><trkpt lat="45.955163639718386" lon="10.260011757319774"><ele>640.0</ele><time>2026-03-28T16:34:39Z</time></trkpt><trkpt lat="45.95515817218412" lon="10.260107651597325"><ele>638.0</ele><time>2026-03-28T16:34:41Z</time></trkpt><trkpt lat="45.95522008485672" lon="10.260124677261077"><ele>636.0</ele><time>2026-03-28T16:34:52Z</time></trkpt><trkpt lat="45.95531184873371" lon="10.260165557609124"><ele>634.0</ele><time>2026-03-28T16:34:55Z</time></trkpt><trkpt lat="45.95541900974197" lon="10.260235273901808"><ele>632.0</ele><time>2026-03-28T16:34:56Z</time></trkpt><trkpt lat="45.955525203943374" lon="10.260287354331423"><ele>632.0</ele><time>2026-03-28T16:34:57Z</time></trkpt><trkpt lat="45.95561164420139" lon="10.260336811957158"><ele>632.0</ele><time>2026-03-28T16:34:58Z</time></trkpt><trkpt lat="45.95570014346236" lon="10.260443298413572"><ele>632.0</ele><time>2026-03-28T16:35:00Z</time></trkpt><trkpt lat="45.95557778284009" lon="10.260316098765584"><ele>632.0</ele><time>2026-03-28T16:35:06Z</time></trkpt><trkpt lat="45.95551653489546" lon="10.260206217163823"><ele>632.0</ele><time>2026-03-28T16:35:07Z</time></trkpt><trkpt lat="45.9554092626028" lon="10.260120757630569"><ele>632.0</ele><time>2026-03-28T16:35:09Z</time></trkpt><trkpt lat="45.9552994895306" lon="10.260038311459382"><ele>632.0</ele><time>2026-03-28T16:35:11Z</time></trkpt><trkpt lat="45.955225504374454" lon="10.260020294803903"><ele>632.0</ele><time>2026-03-28T16:35:13Z</time></trkpt><trkpt lat="45.955136079033934" lon="10.259941387544155"><ele>632.0</ele><time>2026-03-28T16:35:18Z</time></trkpt><trkpt lat="45.955215567059845" lon="10.259575850027222"><ele>634.0</ele><time>2026-03-28T16:35:20Z</time></trkpt><trkpt lat="45.955250031472374" lon="10.259479104355254"><ele>636.0</ele><time>2026-03-28T16:35:21Z</time></trkpt><trkpt lat="45.95525155662919" lon="10.25938466877648"><ele>638.0</ele><time>2026-03-28T16:35:22Z</time></trkpt><trkpt lat="45.95529216827045" lon="10.259249870573472"><ele>640.0</ele><time>2026-03-28T16:35:24Z</time></trkpt><trkpt lat="45.955343538378514" lon="10.259191062071045"><ele>642.0</ele><time>2026-03-28T16:35:25Z</time></trkpt><trkpt lat="45.955402841174966" lon="10.259072275742298"><ele>644.0</ele><time>2026-03-28T16:35:27Z</time></trkpt><trkpt lat="45.955448526760286" lon="10.259171792826356"><ele>644.0</ele><time>2026-03-28T16:35:32Z</time></trkpt><trkpt lat="45.955452295199166" lon="10.259278885474634"><ele>644.0</ele><time>2026-03-28T16:35:33Z</time></trkpt><trkpt lat="45.95545583519484" lon="10.259428847262239"><ele>644.0</ele><time>2026-03-28T16:35:35Z</time></trkpt><trkpt lat="45.955513351267676" lon="10.25953642281397"><ele>644.0</ele><time>2026-03-28T16:35:37Z</time></trkpt><trkpt lat="45.95558414705219" lon="10.259657009303849"><ele>644.0</ele><time>2026-03-28T16:35:39Z</time></trkpt><trkpt lat="45.955640074711994" lon="10.259721396762279"><ele>642.0</ele><time>2026-03-28T16:35:41Z</time></trkpt><trkpt lat="45.95568160902295" lon="10.259808598140795"><ele>640.0</ele><time>2026-03-28T16:35:51Z</time></trkpt><trkpt lat="45.955734677274855" lon="10.259881581531626"><ele>638.0</ele><time>2026-03-28T16:35:53Z</time></trkpt><trkpt lat="45.955794478752956" lon="10.259946862911084"><ele>636.0</ele><time>2026-03-28T16:35:55Z</time></trkpt><trkpt lat="45.95589533682279" lon="10.259997295353376"><ele>634.0</ele><time>2026-03-28T16:35:58Z</time></trkpt><trkpt lat="45.95598971757859" lon="10.260044519001871"><ele>632.0</ele><time>2026-03-28T16:36:00Z</time></trkpt><trkpt lat="45.95606895651392" lon="10.260123386701816"><ele>634.6666666666666</ele><time>2026-03-28T16:36:03Z</time></trkpt><trkpt lat="45.956122809503974" lon="10.260172318828712"><ele>637.3333333333333</ele><time>2026-03-28T16:36:04Z</time></trkpt><trkpt lat="45.95615845692321" lon="10.260257186482248"><ele>640.0</ele><time>2026-03-28T16:36:07Z</time></trkpt><trkpt lat="45.95619810625557" lon="10.260407867597168"><ele>642.6666666666666</ele><time>2026-03-28T16:36:09Z</time></trkpt><trkpt lat="45.956218535908114" lon="10.260531619680956"><ele>645.3333333333334</ele><time>2026-03-28T16:36:10Z</time></trkpt><trkpt lat="45.956217739537294" lon="10.260686542838176"><ele>648.0</ele><time>2026-03-28T16:36:11Z</time></trkpt><trkpt lat="45.956241006567836" lon="10.260832542682541"><ele>648.0</ele><time>2026-03-28T16:36:12Z</time></trkpt><trkpt lat="45.956283774065156" lon="10.260993275489298"><ele>648.0</ele><time>2026-03-28T16:36:13Z</time></trkpt><trkpt lat="45.95635784804926" lon="10.261188543398214"><ele>648.0</ele><time>2026-03-28T16:36:14Z</time></trkpt><trkpt lat="45.956423662589124" lon="10.2613912810087"><ele>648.0</ele><time>2026-03-28T16:36:15Z</time></trkpt><trkpt lat="45.95648245291682" lon="10.261532721983299"><ele>644.5</ele><time>2026-03-28T16:36:16Z</time></trkpt><trkpt lat="45.956538907690856" lon="10.261642990879551"><ele>641.0</ele><time>2026-03-28T16:36:17Z</time></trkpt><trkpt lat="45.95660151048263" lon="10.261732923445798"><ele>637.5</ele><time>2026-03-28T16:36:18Z</time></trkpt><trkpt lat="45.95664859608279" lon="10.261822955876616"><ele>634.0</ele><time>2026-03-28T16:36:19Z</time></trkpt><trkpt lat="45.95663381871807" lon="10.261966556406323"><ele>630.5</ele><time>2026-03-28T16:36:21Z</time></trkpt><trkpt lat="45.95660218470398" lon="10.262079025376718"><ele>627.0</ele><time>2026-03-28T16:36:22Z</time></trkpt><trkpt lat="45.95661090292118" lon="10.262183866471926"><ele>628.3333333333334</ele><time>2026-03-28T16:36:23Z</time></trkpt><trkpt lat="45.95663262046526" lon="10.262285395882289"><ele>629.6666666666666</ele><time>2026-03-28T16:36:24Z</time></trkpt><trkpt lat="45.95669104777027" lon="10.26238588067568"><ele>631.0</ele><time>2026-03-28T16:36:25Z</time></trkpt><trkpt lat="45.95672341206614" lon="10.262487404757401"><ele>632.3333333333333</ele><time>2026-03-28T16:36:26Z</time></trkpt><trkpt lat="45.95674268173033" lon="10.262618741755487"><ele>633.6666666666666</ele><time>2026-03-28T16:36:27Z</time></trkpt><trkpt lat="45.956754477063875" lon="10.26270916621304"><ele>635.0</ele><time>2026-03-28T16:36:28Z</time></trkpt><trkpt lat="45.95673548919515" lon="10.262882890457517"><ele>635.0</ele><time>2026-03-28T16:36:30Z</time></trkpt><trkpt lat="45.956743923376656" lon="10.262977623128446"><ele>635.0</ele><time>2026-03-28T16:36:31Z</time></trkpt><trkpt lat="45.95679805907521" lon="10.263066101804483"><ele>635.0</ele><time>2026-03-28T16:36:32Z</time></trkpt><trkpt lat="45.95684689214471" lon="10.263194476830847"><ele>635.0</ele><time>2026-03-28T16:36:33Z</time></trkpt><trkpt lat="45.956871247904196" lon="10.263302469805836"><ele>635.0</ele><time>2026-03-28T16:36:34Z</time></trkpt><trkpt lat="45.95689979387098" lon="10.26344001708855"><ele>635.0</ele><time>2026-03-28T16:36:35Z</time></trkpt><trkpt lat="45.95688560244798" lon="10.263606567005876"><ele>631.6666666666666</ele><time>2026-03-28T16:36:36Z</time></trkpt><trkpt lat="45.95690326376806" lon="10.263749086464113"><ele>628.3333333333333</ele><time>2026-03-28T16:36:37Z</time></trkpt><trkpt lat="45.95691869553543" lon="10.263879112899076"><ele>625.0</ele><time>2026-03-28T16:36:38Z</time></trkpt><trkpt lat="45.95696763432632" lon="10.263965577613112"><ele>621.6666666666666</ele><time>2026-03-28T16:36:39Z</time></trkpt><trkpt lat="45.95703080161571" lon="10.264035120268014"><ele>618.3333333333334</ele><time>2026-03-28T16:36:40Z</time></trkpt><trkpt lat="45.95710859612405" lon="10.264087733970246"><ele>615.0</ele><time>2026-03-28T16:36:41Z</time></trkpt><trkpt lat="45.95716670867069" lon="10.26414920225272"><ele>611.5</ele><time>2026-03-28T16:36:43Z</time></trkpt><trkpt lat="45.957256587308336" lon="10.264245517548604"><ele>608.0</ele><time>2026-03-28T16:36:44Z</time></trkpt><trkpt lat="45.95734669293692" lon="10.264364859184415"><ele>604.5</ele><time>2026-03-28T16:36:45Z</time></trkpt><trkpt lat="45.95743167444525" lon="10.264531698423328"><ele>601.0</ele><time>2026-03-28T16:36:46Z</time></trkpt><trkpt lat="45.95749410263809" lon="10.264643164992515"><ele>603.0</ele><time>2026-03-28T16:36:47Z</time></trkpt><trkpt lat="45.95755027561595" lon="10.264775060422513"><ele>605.0</ele><time>2026-03-28T16:36:49Z</time></trkpt><trkpt lat="45.95764142700426" lon="10.264842110758183"><ele>607.0</ele><time>2026-03-28T16:36:50Z</time></trkpt><trkpt lat="45.95775629566617" lon="10.264971706183617"><ele>609.0</ele><time>2026-03-28T16:36:51Z</time></trkpt><trkpt lat="45.9578257965035" lon="10.265074376524346"><ele>604.0</ele><time>2026-03-28T16:36:52Z</time></trkpt><trkpt lat="45.95787847119354" lon="10.265155910922923"><ele>599.0</ele><time>2026-03-28T16:36:53Z</time></trkpt><trkpt lat="45.9579467528848" lon="10.26521276815182"><ele>594.0</ele><time>2026-03-28T16:36:54Z</time></trkpt><trkpt lat="45.95801889227623" lon="10.265282193109714"><ele>589.0</ele><time>2026-03-28T16:36:55Z</time></trkpt><trkpt lat="45.95809785123534" lon="10.265303531704635"><ele>584.0</ele><time>2026-03-28T16:36:56Z</time></trkpt><trkpt lat="45.95817237648266" lon="10.265278614741037"><ele>579.0</ele><time>2026-03-28T16:36:57Z</time></trkpt><trkpt lat="45.95824102019379" lon="10.265203942333779"><ele>579.0</ele><time>2026-03-28T16:36:58Z</time></trkpt><trkpt lat="45.95833040294317" lon="10.265110125541044"><ele>579.0</ele><time>2026-03-28T16:36:59Z</time></trkpt><trkpt lat="45.95846117021517" lon="10.265037707562445"><ele>579.0</ele><time>2026-03-28T16:37:00Z</time></trkpt><trkpt lat="45.95856991940232" lon="10.26496515537274"><ele>579.0</ele><time>2026-03-28T16:37:01Z</time></trkpt><trkpt lat="45.9586487209258" lon="10.264859706308581"><ele>581.0</ele><time>2026-03-28T16:37:02Z</time></trkpt><trkpt lat="45.958737786418425" lon="10.264844436139898"><ele>583.0</ele><time>2026-03-28T16:37:03Z</time></trkpt><trkpt lat="45.958839175733594" lon="10.264810420819602"><ele>585.0</ele><time>2026-03-28T16:37:04Z</time></trkpt><trkpt lat="45.958955930749376" lon="10.264774584204684"><ele>587.0</ele><time>2026-03-28T16:37:05Z</time></trkpt><trkpt lat="45.959028442651615" lon="10.264833408935488"><ele>589.0</ele><time>2026-03-28T16:37:06Z</time></trkpt><trkpt lat="45.9591193932661" lon="10.264920144150393"><ele>583.4</ele><time>2026-03-28T16:37:08Z</time></trkpt><trkpt lat="45.95924419714483" lon="10.264857915579139"><ele>577.8</ele><time>2026-03-28T16:37:10Z</time></trkpt><trkpt lat="45.95931129374687" lon="10.264869280457352"><ele>572.2</ele><time>2026-03-28T16:37:12Z</time></trkpt><trkpt lat="45.95924363957325" lon="10.264834985792021"><ele>566.6</ele><time>2026-03-28T16:37:16Z</time></trkpt><trkpt lat="45.95907877693466" lon="10.264913327913765"><ele>561.0</ele><time>2026-03-28T16:37:18Z</time></trkpt><trkpt lat="45.958997378187675" lon="10.26490875112585"><ele>561.0</ele><time>2026-03-28T16:37:19Z</time></trkpt><trkpt lat="45.95893093947443" lon="10.264871584442593"><ele>561.0</ele><time>2026-03-28T16:37:20Z</time></trkpt><trkpt lat="45.95882317858692" lon="10.264856343298776"><ele>561.0</ele><time>2026-03-28T16:37:21Z</time></trkpt><trkpt lat="45.958692637446674" lon="10.26484673279481"><ele>561.0</ele><time>2026-03-28T16:37:22Z</time></trkpt><trkpt lat="45.9585783165896" lon="10.264872708598759"><ele>561.0</ele><time>2026-03-28T16:37:23Z</time></trkpt><trkpt lat="45.9584985260906" lon="10.264933282676276"><ele>561.0</ele><time>2026-03-28T16:37:24Z</time></trkpt><trkpt lat="45.95840315933573" lon="10.265024101825286"><ele>561.0</ele><time>2026-03-28T16:37:25Z</time></trkpt><trkpt lat="45.95828877064166" lon="10.265120234560252"><ele>561.0</ele><time>2026-03-28T16:37:26Z</time></trkpt><trkpt lat="45.95818554361443" lon="10.265218283090615"><ele>561.0</ele><time>2026-03-28T16:37:27Z</time></trkpt><trkpt lat="45.95811739421463" lon="10.265303458239636"><ele>564.6</ele><time>2026-03-28T16:37:28Z</time></trkpt><trkpt lat="45.95802795753866" lon="10.26532509041232"><ele>568.2</ele><time>2026-03-28T16:37:29Z</time></trkpt><trkpt lat="45.957951160574474" lon="10.265321039429452"><ele>571.8</ele><time>2026-03-28T16:37:30Z</time></trkpt><trkpt lat="45.95785971761743" lon="10.265245284261338"><ele>575.4</ele><time>2026-03-28T16:37:31Z</time></trkpt><trkpt lat="45.9577951057303" lon="10.265112311862977"><ele>579.0</ele><time>2026-03-28T16:37:32Z</time></trkpt><trkpt lat="45.95772105344371" lon="10.264915475690698"><ele>584.5</ele><time>2026-03-28T16:37:33Z</time></trkpt><trkpt lat="45.957591048876324" lon="10.264757039803008"><ele>590.0</ele><time>2026-03-28T16:37:34Z</time></trkpt><trkpt lat="45.957485896152825" lon="10.264681893734705"><ele>595.5</ele><time>2026-03-28T16:37:35Z</time></trkpt><trkpt lat="45.957407288824285" lon="10.264552525253405"><ele>601.0</ele><time>2026-03-28T16:37:36Z</time></trkpt><trkpt lat="45.957354823240514" lon="10.264376185154491"><ele>601.0</ele><time>2026-03-28T16:37:37Z</time></trkpt><trkpt lat="45.957297378428855" lon="10.264222991936242"><ele>601.0</ele><time>2026-03-28T16:37:38Z</time></trkpt><trkpt lat="45.957218454150926" lon="10.264108012888936"><ele>601.0</ele><time>2026-03-28T16:37:39Z</time></trkpt><trkpt lat="45.95716159767093" lon="10.264041129891831"><ele>601.0</ele><time>2026-03-28T16:37:40Z</time></trkpt><trkpt lat="45.95710186872972" lon="10.263909095859745"><ele>601.0</ele><time>2026-03-28T16:37:42Z</time></trkpt><trkpt lat="45.957038593782336" lon="10.263964877300122"><ele>601.0</ele><time>2026-03-28T16:37:44Z</time></trkpt><trkpt lat="45.957011287442306" lon="10.264084155625198"><ele>601.0</ele><time>2026-03-28T16:37:46Z</time></trkpt><trkpt lat="45.956994210744206" lon="10.264190137601783"><ele>601.0</ele><time>2026-03-28T16:37:47Z</time></trkpt><trkpt lat="45.9569655418461" lon="10.264315222777402"><ele>601.0</ele><time>2026-03-28T16:37:48Z</time></trkpt><trkpt lat="45.95694806605003" lon="10.26442562642181"><ele>601.0</ele><time>2026-03-28T16:37:49Z</time></trkpt><trkpt lat="45.956926630155294" lon="10.264512826091087"><ele>601.0</ele><time>2026-03-28T16:37:50Z</time></trkpt><trkpt lat="45.95687405524227" lon="10.264586687930292"><ele>601.0</ele><time>2026-03-28T16:37:51Z</time></trkpt><trkpt lat="45.95683681909533" lon="10.264668719536578"><ele>601.0</ele><time>2026-03-28T16:37:52Z</time></trkpt><trkpt lat="45.956821911685765" lon="10.264768713488873"><ele>601.0</ele><time>2026-03-28T16:37:53Z</time></trkpt><trkpt lat="45.95681102173482" lon="10.264865093860084"><ele>601.0</ele><time>2026-03-28T16:37:54Z</time></trkpt><trkpt lat="45.95685575895187" lon="10.265022122128762"><ele>601.0</ele><time>2026-03-28T16:37:56Z</time></trkpt><trkpt lat="45.95685207317152" lon="10.265175580467503"><ele>601.0</ele><time>2026-03-28T16:37:58Z</time></trkpt><trkpt lat="45.95682796914223" lon="10.265348123532323"><ele>597.3333333333334</ele><time>2026-03-28T16:38:00Z</time></trkpt><trkpt lat="45.95681936003694" lon="10.265440063482544"><ele>593.6666666666667</ele><time>2026-03-28T16:38:01Z</time></trkpt><trkpt lat="45.956803544918536" lon="10.265567981122048"><ele>590.0</ele><time>2026-03-28T16:38:03Z</time></trkpt><trkpt lat="45.95676457159558" lon="10.265663008169955"><ele>586.3333333333334</ele><time>2026-03-28T16:38:13Z</time></trkpt><trkpt lat="45.95670359718398" lon="10.265589216501525"><ele>582.6666666666666</ele><time>2026-03-28T16:38:19Z</time></trkpt><trkpt lat="45.95665602120981" lon="10.26551840104687"><ele>579.0</ele><time>2026-03-28T16:38:20Z</time></trkpt><trkpt lat="45.95658771757881" lon="10.265452676179029"><ele>572.0</ele><time>2026-03-28T16:38:21Z</time></trkpt><trkpt lat="45.95646382014396" lon="10.26538965214085"><ele>565.0</ele><time>2026-03-28T16:38:22Z</time></trkpt><trkpt lat="45.95629591666549" lon="10.265262967972722"><ele>558.0</ele><time>2026-03-28T16:38:23Z</time></trkpt><trkpt lat="45.956159239463105" lon="10.26515821699996"><ele>558.0</ele><time>2026-03-28T16:38:24Z</time></trkpt><trkpt lat="45.9560627417092" lon="10.265068378637977"><ele>558.0</ele><time>2026-03-28T16:38:25Z</time></trkpt><trkpt lat="45.95597722675534" lon="10.2649993907628"><ele>558.0</ele><time>2026-03-28T16:38:26Z</time></trkpt><trkpt lat="45.955892659725755" lon="10.264933629918874"><ele>558.0</ele><time>2026-03-28T16:38:27Z</time></trkpt><trkpt lat="45.95581149712634" lon="10.26490782019605"><ele>558.0</ele><time>2026-03-28T16:38:28Z</time></trkpt><trkpt lat="45.9557367877234" lon="10.2648795164687"><ele>554.1999999999999</ele><time>2026-03-28T16:38:29Z</time></trkpt><trkpt lat="45.95564243933827" lon="10.264867000856128"><ele>550.4</ele><time>2026-03-28T16:38:32Z</time></trkpt><trkpt lat="45.955576236679946" lon="10.264888587197664"><ele>546.5999999999999</ele><time>2026-03-28T16:38:33Z</time></trkpt><trkpt lat="45.95551354660531" lon="10.264903623626648"><ele>542.8</ele><time>2026-03-28T16:38:34Z</time></trkpt><trkpt lat="45.955430732127795" lon="10.264960621763851"><ele>539.0</ele><time>2026-03-28T16:38:36Z</time></trkpt><trkpt lat="45.9556861760713" lon="10.265335168919059"><ele>539.0</ele><time>2026-03-28T16:38:37Z</time></trkpt><trkpt lat="45.95569773639175" lon="10.265538813226474"><ele>539.0</ele><time>2026-03-28T16:38:38Z</time></trkpt><trkpt lat="45.9557293988381" lon="10.265691045690085"><ele>539.0</ele><time>2026-03-28T16:38:39Z</time></trkpt><trkpt lat="45.95576483502077" lon="10.265842987733205"><ele>539.0</ele><time>2026-03-28T16:38:40Z</time></trkpt><trkpt lat="45.95580123124708" lon="10.265974257434413"><ele>535.8</ele><time>2026-03-28T16:38:41Z</time></trkpt><trkpt lat="45.95583688258021" lon="10.266079767838022"><ele>532.5999999999999</ele><time>2026-03-28T16:38:42Z</time></trkpt><trkpt lat="45.95585550242781" lon="10.266171263606049"><ele>529.4</ele><time>2026-03-28T16:38:44Z</time></trkpt><trkpt lat="45.9557909338987" lon="10.2661911014368"><ele>526.1999999999999</ele><time>2026-03-28T16:38:45Z</time></trkpt><trkpt lat="45.955669162485016" lon="10.26622701774617"><ele>523.0</ele><time>2026-03-28T16:38:46Z</time></trkpt><trkpt lat="45.95553674812547" lon="10.266263985998904"><ele>523.0</ele><time>2026-03-28T16:38:47Z</time></trkpt><trkpt lat="45.955432232968604" lon="10.266283643228217"><ele>523.0</ele><time>2026-03-28T16:38:48Z</time></trkpt><trkpt lat="45.9553470561969" lon="10.266281154359346"><ele>523.0</ele><time>2026-03-28T16:38:49Z</time></trkpt><trkpt lat="45.95527178773215" lon="10.26628841245298"><ele>523.0</ele><time>2026-03-28T16:38:50Z</time></trkpt><trkpt lat="45.95526067985944" lon="10.26637805745741"><ele>523.0</ele><time>2026-03-28T16:38:51Z</time></trkpt><trkpt lat="45.95539492262836" lon="10.266399564715238"><ele>523.0</ele><time>2026-03-28T16:38:54Z</time></trkpt><trkpt lat="45.955531403756304" lon="10.266390244210855"><ele>523.0</ele><time>2026-03-28T16:38:55Z</time></trkpt><trkpt lat="45.955675570886854" lon="10.266422185672374"><ele>523.0</ele><time>2026-03-28T16:38:56Z</time></trkpt><trkpt lat="45.95581808327021" lon="10.266419237340592"><ele>523.0</ele><time>2026-03-28T16:38:57Z</time></trkpt><trkpt lat="45.95589119035853" lon="10.266428795899348"><ele>515.75</ele><time>2026-03-28T16:38:58Z</time></trkpt><trkpt lat="45.955795908868986" lon="10.26648269301733"><ele>508.5</ele><time>2026-03-28T16:39:01Z</time></trkpt><trkpt lat="45.95565543511866" lon="10.266483686236526"><ele>501.25</ele><time>2026-03-28T16:39:02Z</time></trkpt><trkpt lat="45.955513002510365" lon="10.2664956177078"><ele>494.0</ele><time>2026-03-28T16:39:03Z</time></trkpt><trkpt lat="45.95541072958319" lon="10.266485126319091"><ele>494.0</ele><time>2026-03-28T16:39:04Z</time></trkpt><trkpt lat="45.95529913210382" lon="10.266462403211518"><ele>494.0</ele><time>2026-03-28T16:39:05Z</time></trkpt><trkpt lat="45.95519530269214" lon="10.266436225984798"><ele>494.0</ele><time>2026-03-28T16:39:06Z</time></trkpt><trkpt lat="45.95508919459173" lon="10.266363948216503"><ele>494.0</ele><time>2026-03-28T16:39:07Z</time></trkpt><trkpt lat="45.955009366228104" lon="10.26631659201421"><ele>494.0</ele><time>2026-03-28T16:39:08Z</time></trkpt><trkpt lat="45.95494988458195" lon="10.266280710500272"><ele>495.0</ele><time>2026-03-28T16:39:09Z</time></trkpt><trkpt lat="45.95488823586378" lon="10.266236358693792"><ele>496.0</ele><time>2026-03-28T16:39:10Z</time></trkpt><trkpt lat="45.95484061558714" lon="10.265989885304455"><ele>497.0</ele><time>2026-03-28T16:39:12Z</time></trkpt><trkpt lat="45.954744002973996" lon="10.265796091716808"><ele>498.0</ele><time>2026-03-28T16:39:13Z</time></trkpt><trkpt lat="45.95466143007435" lon="10.26563727593731"><ele>501.5</ele><time>2026-03-28T16:39:14Z</time></trkpt><trkpt lat="45.95456707651595" lon="10.265476975329662"><ele>505.0</ele><time>2026-03-28T16:39:15Z</time></trkpt><trkpt lat="45.95446858996629" lon="10.265326270144516"><ele>508.5</ele><time>2026-03-28T16:39:16Z</time></trkpt><trkpt lat="45.954414986202686" lon="10.265224071431991"><ele>512.0</ele><time>2026-03-28T16:39:17Z</time></trkpt><trkpt lat="45.95437783992553" lon="10.265115987171447"><ele>512.0</ele><time>2026-03-28T16:39:18Z</time></trkpt><trkpt lat="45.954329526729154" lon="10.26497766028111"><ele>512.0</ele><time>2026-03-28T16:39:19Z</time></trkpt><trkpt lat="45.95425152604422" lon="10.264802947378183"><ele>512.0</ele><time>2026-03-28T16:39:20Z</time></trkpt><trkpt lat="45.9542268656544" lon="10.264660153778134"><ele>512.0</ele><time>2026-03-28T16:39:21Z</time></trkpt><trkpt lat="45.95418605525968" lon="10.26454354784324"><ele>512.0</ele><time>2026-03-28T16:39:22Z</time></trkpt><trkpt lat="45.954101282507565" lon="10.264425940290687"><ele>506.25</ele><time>2026-03-28T16:39:23Z</time></trkpt><trkpt lat="45.95400102046881" lon="10.264305978603296"><ele>500.5</ele><time>2026-03-28T16:39:25Z</time></trkpt><trkpt lat="45.95386104106712" lon="10.264243608820303"><ele>494.75</ele><time>2026-03-28T16:39:27Z</time></trkpt><trkpt lat="45.953737078848505" lon="10.264195219054825"><ele>489.0</ele><time>2026-03-28T16:39:28Z</time></trkpt><trkpt lat="45.95364606199375" lon="10.264163528200722"><ele>489.0</ele><time>2026-03-28T16:39:29Z</time></trkpt><trkpt lat="45.9535493331389" lon="10.264138748564845"><ele>489.0</ele><time>2026-03-28T16:39:30Z</time></trkpt><trkpt lat="45.953432224074604" lon="10.264143719378968"><ele>489.0</ele><time>2026-03-28T16:39:32Z</time></trkpt><trkpt lat="45.95333965201904" lon="10.264186799863639"><ele>489.0</ele><time>2026-03-28T16:39:33Z</time></trkpt><trkpt lat="45.95325510790285" lon="10.264286411124763"><ele>489.0</ele><time>2026-03-28T16:39:34Z</time></trkpt><trkpt lat="45.95317088736462" lon="10.264374286533535"><ele>484.2</ele><time>2026-03-28T16:39:35Z</time></trkpt><trkpt lat="45.95307210386132" lon="10.264492334548272"><ele>479.4</ele><time>2026-03-28T16:39:36Z</time></trkpt><trkpt lat="45.95300646156157" lon="10.264593479255367"><ele>474.6</ele><time>2026-03-28T16:39:37Z</time></trkpt><trkpt lat="45.95296099307779" lon="10.264697847919717"><ele>469.8</ele><time>2026-03-28T16:39:38Z</time></trkpt><trkpt lat="45.9529101638776" lon="10.264765749371229"><ele>465.0</ele><time>2026-03-28T16:39:39Z</time></trkpt><trkpt lat="45.95288132578957" lon="10.264922563614444"><ele>461.8</ele><time>2026-03-28T16:39:41Z</time></trkpt><trkpt lat="45.95290472880663" lon="10.265083131806714"><ele>458.6</ele><time>2026-03-28T16:39:42Z</time></trkpt><trkpt lat="45.95290205696521" lon="10.265214663066265"><ele>455.4</ele><time>2026-03-28T16:39:43Z</time></trkpt><trkpt lat="45.952902056964696" lon="10.265306901044458"><ele>452.2</ele><time>2026-03-28T16:39:44Z</time></trkpt><trkpt lat="45.95281953584023" lon="10.265449870277795"><ele>449.0</ele><time>2026-03-28T16:39:46Z</time></trkpt><trkpt lat="45.95276863843596" lon="10.265228852142242"><ele>449.0</ele><time>2026-03-28T16:39:47Z</time></trkpt><trkpt lat="45.95269959773457" lon="10.26530893872546"><ele>449.0</ele><time>2026-03-28T16:39:48Z</time></trkpt><trkpt lat="45.95264576755468" lon="10.265381902598767"><ele>449.0</ele><time>2026-03-28T16:39:49Z</time></trkpt><trkpt lat="45.952970106815705" lon="10.266062545766246"><ele>446.66666666666663</ele><time>2026-03-28T16:39:50Z</time></trkpt><trkpt lat="45.95304291465962" lon="10.266136100425628"><ele>444.3333333333333</ele><time>2026-03-28T16:39:51Z</time></trkpt><trkpt lat="45.953097100082815" lon="10.266205170976942"><ele>442.0</ele><time>2026-03-28T16:39:52Z</time></trkpt><trkpt lat="45.95309900078306" lon="10.266314786369065"><ele>439.66666666666663</ele><time>2026-03-28T16:39:53Z</time></trkpt><trkpt lat="45.95314337243485" lon="10.266437117678853"><ele>437.3333333333333</ele><time>2026-03-28T16:39:54Z</time></trkpt><trkpt lat="45.95319164703984" lon="10.26656934710682"><ele>435.0</ele><time>2026-03-28T16:39:55Z</time></trkpt><trkpt lat="45.953172920736975" lon="10.266680402614751"><ele>430.75</ele><time>2026-03-28T16:39:56Z</time></trkpt><trkpt lat="45.953168399191185" lon="10.266846018352382"><ele>426.5</ele><time>2026-03-28T16:39:57Z</time></trkpt><trkpt lat="45.953126670975514" lon="10.267038850900338"><ele>422.25</ele><time>2026-03-28T16:39:58Z</time></trkpt><trkpt lat="45.953133711392404" lon="10.267228112720737"><ele>418.0</ele><time>2026-03-28T16:39:59Z</time></trkpt><trkpt lat="45.95307738808946" lon="10.267452839920844"><ele>412.79999999999995</ele><time>2026-03-28T16:40:00Z</time></trkpt><trkpt lat="45.953033710853866" lon="10.267625467462812"><ele>407.6</ele><time>2026-03-28T16:40:01Z</time></trkpt><trkpt lat="45.95298376872443" lon="10.267803922451563"><ele>402.4</ele><time>2026-03-28T16:40:02Z</time></trkpt><trkpt lat="45.95294893301332" lon="10.267918086041313"><ele>397.20000000000005</ele><time>2026-03-28T16:40:03Z</time></trkpt><trkpt lat="45.95291933754631" lon="10.268032673323361"><ele>392.0</ele><time>2026-03-28T16:40:04Z</time></trkpt><trkpt lat="45.952880538877984" lon="10.268147273915568"><ele>388.5</ele><time>2026-03-28T16:40:05Z</time></trkpt><trkpt lat="45.952810641731645" lon="10.268224655247089"><ele>385.0</ele><time>2026-03-28T16:40:06Z</time></trkpt><trkpt lat="45.95272382836562" lon="10.268297295211239"><ele>381.5</ele><time>2026-03-28T16:40:07Z</time></trkpt><trkpt lat="45.95259160117678" lon="10.2683815883524"><ele>378.0</ele><time>2026-03-28T16:40:08Z</time></trkpt><trkpt lat="45.95248831476448" lon="10.26854049300587"><ele>378.0</ele><time>2026-03-28T16:40:09Z</time></trkpt><trkpt lat="45.95238852468504" lon="10.26862077218474"><ele>378.0</ele><time>2026-03-28T16:40:10Z</time></trkpt><trkpt lat="45.952259159793265" lon="10.268729897809317"><ele>378.0</ele><time>2026-03-28T16:40:11Z</time></trkpt><trkpt lat="45.95211057827259" lon="10.268523710359135"><ele>378.0</ele><time>2026-03-28T16:40:12Z</time></trkpt><trkpt lat="45.95201014134513" lon="10.268507509797576"><ele>378.0</ele><time>2026-03-28T16:40:14Z</time></trkpt><trkpt lat="45.951950103026704" lon="10.268441292369198"><ele>378.0</ele><time>2026-03-28T16:40:16Z</time></trkpt><trkpt lat="45.95183914279181" lon="10.268808466661145"><ele>378.0</ele><time>2026-03-28T16:40:18Z</time></trkpt><trkpt lat="45.95177510172002" lon="10.268871688284966"><ele>378.0</ele><time>2026-03-28T16:40:19Z</time></trkpt><trkpt lat="45.95168213670626" lon="10.268923103027552"><ele>378.0</ele><time>2026-03-28T16:40:20Z</time></trkpt><trkpt lat="45.9515786857097" lon="10.268911051653411"><ele>378.0</ele><time>2026-03-28T16:40:22Z</time></trkpt><trkpt lat="45.95155652311174" lon="10.268804761548106"><ele>378.0</ele><time>2026-03-28T16:40:23Z</time></trkpt><trkpt lat="45.95144801834836" lon="10.268624873179178"><ele>377.75</ele><time>2026-03-28T16:40:24Z</time></trkpt><trkpt lat="45.95138612392343" lon="10.268532914372264"><ele>377.5</ele><time>2026-03-28T16:40:25Z</time></trkpt><trkpt lat="45.951275881196196" lon="10.268536272518123"><ele>377.25</ele><time>2026-03-28T16:40:26Z</time></trkpt><trkpt lat="45.95114157266089" lon="10.26849875894635"><ele>377.0</ele><time>2026-03-28T16:40:29Z</time></trkpt><trkpt lat="45.95099080098684" lon="10.268803307256551"><ele>371.0</ele><time>2026-03-28T16:40:31Z</time></trkpt><trkpt lat="45.950942879185746" lon="10.26904180494776"><ele>365.0</ele><time>2026-03-28T16:40:32Z</time></trkpt><trkpt lat="45.95084766761202" lon="10.269344487661183"><ele>359.0</ele><time>2026-03-28T16:40:33Z</time></trkpt><trkpt lat="45.95079658090645" lon="10.269618408548666"><ele>355.75</ele><time>2026-03-28T16:40:34Z</time></trkpt><trkpt lat="45.95072190717323" lon="10.269797914786631"><ele>352.5</ele><time>2026-03-28T16:40:35Z</time></trkpt><trkpt lat="45.95064724258978" lon="10.269959669203066"><ele>349.25</ele><time>2026-03-28T16:40:36Z</time></trkpt><trkpt lat="45.950571945656385" lon="10.270037489214497"><ele>346.0</ele><time>2026-03-28T16:40:37Z</time></trkpt><trkpt lat="45.95050290164439" lon="10.270119037811465"><ele>346.0</ele><time>2026-03-28T16:40:38Z</time></trkpt><trkpt lat="45.95038952549485" lon="10.270119772204202"><ele>346.0</ele><time>2026-03-28T16:40:40Z</time></trkpt><trkpt lat="45.95030008786449" lon="10.270169029316111"><ele>346.0</ele><time>2026-03-28T16:40:41Z</time></trkpt><trkpt lat="45.9502313547508" lon="10.270206884156671"><ele>346.0</ele><time>2026-03-28T16:40:42Z</time></trkpt><trkpt lat="45.95047438618506" lon="10.27057223369787"><ele>343.5</ele><time>2026-03-28T16:40:45Z</time></trkpt><trkpt lat="45.950619741278246" lon="10.27075098487972"><ele>341.0</ele><time>2026-03-28T16:40:46Z</time></trkpt><trkpt lat="45.9507021112699" lon="10.270812808165115"><ele>338.5</ele><time>2026-03-28T16:40:47Z</time></trkpt><trkpt lat="45.95078990420918" lon="10.270904956220358"><ele>336.0</ele><time>2026-03-28T16:40:48Z</time></trkpt><trkpt lat="45.950891978068974" lon="10.271021505499524"><ele>335.75</ele><time>2026-03-28T16:40:49Z</time></trkpt><trkpt lat="45.95100002825432" lon="10.271104114482696"><ele>335.5</ele><time>2026-03-28T16:40:51Z</time></trkpt><trkpt lat="45.95117623044453" lon="10.27112997172732"><ele>335.25</ele><time>2026-03-28T16:40:52Z</time></trkpt><trkpt lat="45.95110475651344" lon="10.27111638009238"><ele>335.0</ele><time>2026-03-28T16:40:55Z</time></trkpt><trkpt lat="45.95106778243632" lon="10.271233578657887"><ele>332.5</ele><time>2026-03-28T16:40:57Z</time></trkpt><trkpt lat="45.95129062227413" lon="10.271496041650622"><ele>330.0</ele><time>2026-03-28T16:40:58Z</time></trkpt><trkpt lat="45.951359805725275" lon="10.271552459143656"><ele>327.5</ele><time>2026-03-28T16:41:00Z</time></trkpt><trkpt lat="45.95143036158723" lon="10.271600409340436"><ele>325.0</ele><time>2026-03-28T16:41:01Z</time></trkpt><trkpt lat="45.95152631551633" lon="10.271651708023771"><ele>325.0</ele><time>2026-03-28T16:41:02Z</time></trkpt><trkpt lat="45.95162170107044" lon="10.271709480123905"><ele>325.0</ele><time>2026-03-28T16:41:03Z</time></trkpt><trkpt lat="45.95172040264825" lon="10.271797413317291"><ele>325.0</ele><time>2026-03-28T16:41:04Z</time></trkpt><trkpt lat="45.95179477824347" lon="10.271648260116132"><ele>325.0</ele><time>2026-03-28T16:41:05Z</time></trkpt><trkpt lat="45.95189998825537" lon="10.271612126211519"><ele>322.0</ele><time>2026-03-28T16:41:06Z</time></trkpt><trkpt lat="45.95201717805172" lon="10.271585808694725"><ele>319.0</ele><time>2026-03-28T16:41:07Z</time></trkpt><trkpt lat="45.952145382351915" lon="10.27156553049392"><ele>316.0</ele><time>2026-03-28T16:41:08Z</time></trkpt><trkpt lat="45.9522751584741" lon="10.27154516149084"><ele>313.0</ele><time>2026-03-28T16:41:09Z</time></trkpt><trkpt lat="45.952403229947414" lon="10.271564220096218"><ele>313.0</ele><time>2026-03-28T16:41:10Z</time></trkpt><trkpt lat="45.95249965405616" lon="10.271585460546003"><ele>313.0</ele><time>2026-03-28T16:41:11Z</time></trkpt><trkpt lat="45.952632440356744" lon="10.271753267244895"><ele>313.0</ele><time>2026-03-28T16:41:12Z</time></trkpt><trkpt lat="45.95297871437423" lon="10.27178358805261"><ele>381.0</ele><time>2026-03-28T16:41:15Z</time></trkpt><trkpt lat="45.95388161337525" lon="10.27232251204579"><ele>381.0</ele><time>2026-03-28T16:41:23Z</time></trkpt><trkpt lat="45.953896667754286" lon="10.272470341857622"><ele>381.0</ele><time>2026-03-28T16:41:24.069Z</time></trkpt><trkpt lat="45.95386632990809" lon="10.272628107987517"><ele>381.0</ele><time>2026-03-28T16:41:25Z</time></trkpt><trkpt lat="45.9536179809913" lon="10.271996209483047"><ele>381.0</ele><time>2026-03-28T16:41:26Z</time></trkpt><trkpt lat="45.95370300499438" lon="10.272217191322943"><ele>381.0</ele><time>2026-03-28T16:41:27Z</time></trkpt><trkpt lat="45.953768599823356" lon="10.272385648424594"><ele>381.0</ele><time>2026-03-28T16:41:28Z</time></trkpt><trkpt lat="45.95377908657052" lon="10.272507756752457"><ele>381.0</ele><time>2026-03-28T16:41:29Z</time></trkpt><trkpt lat="45.95381773910271" lon="10.272725521855833"><ele>381.0</ele><time>2026-03-28T16:41:30Z</time></trkpt><trkpt lat="45.95379008824082" lon="10.272852378792258"><ele>381.0</ele><time>2026-03-28T16:41:31Z</time></trkpt><trkpt lat="45.95365195655418" lon="10.272974034515515"><ele>381.0</ele><time>2026-03-28T16:41:32Z</time></trkpt><trkpt lat="45.953616997663765" lon="10.273139414698258"><ele>381.0</ele><time>2026-03-28T16:41:33Z</time></trkpt><trkpt lat="45.953589736057424" lon="10.273251071839775"><ele>383.0</ele><time>2026-03-28T16:41:34Z</time></trkpt><trkpt lat="45.953575926786996" lon="10.273358613472237"><ele>385.0</ele><time>2026-03-28T16:41:35Z</time></trkpt><trkpt lat="45.953723938327016" lon="10.273443148659819"><ele>387.0</ele><time>2026-03-28T16:41:37Z</time></trkpt><trkpt lat="45.95374901194498" lon="10.273536976089295"><ele>389.0</ele><time>2026-03-28T16:41:38Z</time></trkpt><trkpt lat="45.95377995115795" lon="10.273652235949347"><ele>391.0</ele><time>2026-03-28T16:41:41Z</time></trkpt><trkpt lat="45.95383266119758" lon="10.273847746804307"><ele>388.20000000000005</ele><time>2026-03-28T16:41:42Z</time></trkpt><trkpt lat="45.95387074417329" lon="10.273989152328175"><ele>385.40000000000003</ele><time>2026-03-28T16:41:43Z</time></trkpt><trkpt lat="45.95389022641291" lon="10.274083346689897"><ele>382.6</ele><time>2026-03-28T16:41:44Z</time></trkpt><trkpt lat="45.953917622492305" lon="10.274173631800984"><ele>379.8</ele><time>2026-03-28T16:41:45Z</time></trkpt><trkpt lat="45.95397103852933" lon="10.274368270973762"><ele>377.0</ele><time>2026-03-28T16:41:46Z</time></trkpt><trkpt lat="45.954004167250794" lon="10.27447380288292"><ele>377.0</ele><time>2026-03-28T16:41:47Z</time></trkpt><trkpt lat="45.95405302451128" lon="10.27462492365555"><ele>377.0</ele><time>2026-03-28T16:41:48Z</time></trkpt><trkpt lat="45.95408890056681" lon="10.274737004319983"><ele>377.0</ele><time>2026-03-28T16:41:49Z</time></trkpt><trkpt lat="45.95411758778344" lon="10.274961023164336"><ele>377.0</ele><time>2026-03-28T16:41:50Z</time></trkpt><trkpt lat="45.95413915707584" lon="10.275125239115752"><ele>374.0</ele><time>2026-03-28T16:41:51Z</time></trkpt><trkpt lat="45.95413059694701" lon="10.275316248761907"><ele>371.0</ele><time>2026-03-28T16:41:52Z</time></trkpt><trkpt lat="45.954080647100504" lon="10.275514913698302"><ele>368.0</ele><time>2026-03-28T16:41:53Z</time></trkpt><trkpt lat="45.954092736880995" lon="10.275686846630872"><ele>365.0</ele><time>2026-03-28T16:41:54Z</time></trkpt><trkpt lat="45.95414924699442" lon="10.275829108714149"><ele>371.0</ele><time>2026-03-28T16:41:55Z</time></trkpt><trkpt lat="45.95421531139854" lon="10.275984810850382"><ele>377.0</ele><time>2026-03-28T16:41:57Z</time></trkpt><trkpt lat="45.954271443207524" lon="10.27608282307885"><ele>383.0</ele><time>2026-03-28T16:41:58Z</time></trkpt><trkpt lat="45.954324683455596" lon="10.276195364556397"><ele>389.0</ele><time>2026-03-28T16:41:59Z</time></trkpt><trkpt lat="45.95438914155276" lon="10.276304225166959"><ele>395.0</ele><time>2026-03-28T16:42:00Z</time></trkpt><trkpt lat="45.95447120824527" lon="10.276381972769457"><ele>394.99999999999994</ele><time>2026-03-28T16:42:01Z</time></trkpt><trkpt lat="45.95455463103649" lon="10.276443631880868"><ele>395.0</ele><time>2026-03-28T16:42:02Z</time></trkpt><trkpt lat="45.95463483210235" lon="10.276472275968793"><ele>395.0</ele><time>2026-03-28T16:42:03Z</time></trkpt><trkpt lat="45.95469593083651" lon="10.276449508113132"><ele>395.0</ele><time>2026-03-28T16:42:04Z</time></trkpt><trkpt lat="45.9547037712533" lon="10.276337862255561"><ele>394.99999999999994</ele><time>2026-03-28T16:42:05Z</time></trkpt><trkpt lat="45.954716617562035" lon="10.276249007061683"><ele>395.0</ele><time>2026-03-28T16:42:06Z</time></trkpt><trkpt lat="45.95466456325129" lon="10.276150097942747"><ele>395.0</ele><time>2026-03-28T16:42:07Z</time></trkpt><trkpt lat="45.95459167293952" lon="10.276061460092109"><ele>395.0</ele><time>2026-03-28T16:42:08Z</time></trkpt><trkpt lat="45.954569100909396" lon="10.275976923457682"><ele>395.0</ele><time>2026-03-28T16:42:09Z</time></trkpt><trkpt lat="45.95461173121777" lon="10.275830397053866"><ele>395.0</ele><time>2026-03-28T16:42:10Z</time></trkpt><trkpt lat="45.9545993104778" lon="10.2756484491507"><ele>395.0</ele><time>2026-03-28T16:42:11Z</time></trkpt><trkpt lat="45.95455298500246" lon="10.27546107500611"><ele>401.0</ele><time>2026-03-28T16:42:12Z</time></trkpt><trkpt lat="45.95451332573399" lon="10.275262004027237"><ele>407.0</ele><time>2026-03-28T16:42:13Z</time></trkpt><trkpt lat="45.9544873273647" lon="10.275054362517748"><ele>413.0</ele><time>2026-03-28T16:42:14Z</time></trkpt><trkpt lat="45.95446277808602" lon="10.274841137118862"><ele>419.0</ele><time>2026-03-28T16:42:15Z</time></trkpt><trkpt lat="45.95441225208369" lon="10.27464599007088"><ele>426.0</ele><time>2026-03-28T16:42:16Z</time></trkpt><trkpt lat="45.95437099868332" lon="10.274484579163035"><ele>433.0</ele><time>2026-03-28T16:42:17Z</time></trkpt><trkpt lat="45.95434969331079" lon="10.274321267542891"><ele>440.0</ele><time>2026-03-28T16:42:18Z</time></trkpt><trkpt lat="45.95433348179707" lon="10.274151676867062"><ele>447.0</ele><time>2026-03-28T16:42:19Z</time></trkpt><trkpt lat="45.954317328237885" lon="10.273982618410596"><ele>449.40000000000003</ele><time>2026-03-28T16:42:20Z</time></trkpt><trkpt lat="45.954290246759555" lon="10.273813201117946"><ele>451.80000000000007</ele><time>2026-03-28T16:42:21Z</time></trkpt><trkpt lat="45.95429706745654" lon="10.273634804439803"><ele>454.2</ele><time>2026-03-28T16:42:22Z</time></trkpt><trkpt lat="45.95432252396475" lon="10.273488061173156"><ele>456.6</ele><time>2026-03-28T16:42:23Z</time></trkpt><trkpt lat="45.95433921433868" lon="10.273384375538706"><ele>459.0</ele><time>2026-03-28T16:42:24Z</time></trkpt><trkpt lat="45.95436737286297" lon="10.273295120523995"><ele>459.0</ele><time>2026-03-28T16:42:25Z</time></trkpt><trkpt lat="45.95439836585262" lon="10.273197588078213"><ele>459.0</ele><time>2026-03-28T16:42:27Z</time></trkpt><trkpt lat="45.95438193366376" lon="10.273297531658198"><ele>459.0</ele><time>2026-03-28T16:42:29Z</time></trkpt><trkpt lat="45.954506641387496" lon="10.273498922158668"><ele>459.0</ele><time>2026-03-28T16:42:30Z</time></trkpt><trkpt lat="45.954588785600556" lon="10.273625482761778"><ele>459.0</ele><time>2026-03-28T16:42:31Z</time></trkpt><trkpt lat="45.95465969634029" lon="10.273748708301385"><ele>459.0</ele><time>2026-03-28T16:42:32Z</time></trkpt><trkpt lat="45.95470856428441" lon="10.273887505161717"><ele>459.0</ele><time>2026-03-28T16:42:33Z</time></trkpt><trkpt lat="45.954740928122696" lon="10.274007195716832"><ele>459.0</ele><time>2026-03-28T16:42:34Z</time></trkpt><trkpt lat="45.95477471453826" lon="10.274117748292719"><ele>459.0</ele><time>2026-03-28T16:42:35Z</time></trkpt><trkpt lat="45.95483946345101" lon="10.274196394604475"><ele>456.6</ele><time>2026-03-28T16:42:36Z</time></trkpt><trkpt lat="45.954903933433826" lon="10.274275718514657"><ele>454.2</ele><time>2026-03-28T16:42:37Z</time></trkpt><trkpt lat="45.95497535635478" lon="10.274348744847437"><ele>451.80000000000007</ele><time>2026-03-28T16:42:38Z</time></trkpt><trkpt lat="45.955048650869855" lon="10.274430154467177"><ele>449.40000000000003</ele><time>2026-03-28T16:42:39Z</time></trkpt><trkpt lat="45.95511071107304" lon="10.274513942632707"><ele>447.0</ele><time>2026-03-28T16:42:40Z</time></trkpt><trkpt lat="45.955170278817015" lon="10.27462987815774"><ele>453.6</ele><time>2026-03-28T16:42:41Z</time></trkpt><trkpt lat="45.95522395811031" lon="10.274754480607964"><ele>460.20000000000005</ele><time>2026-03-28T16:42:42Z</time></trkpt><trkpt lat="45.95528171480285" lon="10.274884904573945"><ele>466.8</ele><time>2026-03-28T16:42:43Z</time></trkpt><trkpt lat="45.95534593108843" lon="10.274997460294555"><ele>473.4</ele><time>2026-03-28T16:42:44Z</time></trkpt><trkpt lat="45.9554136462061" lon="10.275112548550869"><ele>480.0</ele><time>2026-03-28T16:42:45Z</time></trkpt><trkpt lat="45.95547917588737" lon="10.275237021385248"><ele>480.0</ele><time>2026-03-28T16:42:46Z</time></trkpt><trkpt lat="45.955528765610985" lon="10.275372633390639"><ele>480.0</ele><time>2026-03-28T16:42:47Z</time></trkpt><trkpt lat="45.955571824221515" lon="10.27550890613994"><ele>480.0</ele><time>2026-03-28T16:42:48Z</time></trkpt><trkpt lat="45.95562511313302" lon="10.275608522972858"><ele>480.0</ele><time>2026-03-28T16:42:49Z</time></trkpt><trkpt lat="45.955674864979656" lon="10.275686495209802"><ele>480.0</ele><time>2026-03-28T16:42:50Z</time></trkpt><trkpt lat="45.9557247018798" lon="10.27575926188052"><ele>480.0</ele><time>2026-03-28T16:42:51Z</time></trkpt><trkpt lat="45.955784469118136" lon="10.275825614289225"><ele>475.5</ele><time>2026-03-28T16:42:52Z</time></trkpt><trkpt lat="45.955835399022035" lon="10.27591042648118"><ele>471.0</ele><time>2026-03-28T16:42:53Z</time></trkpt><trkpt lat="45.95588494834909" lon="10.276012665193138"><ele>466.5</ele><time>2026-03-28T16:42:54Z</time></trkpt><trkpt lat="45.95593017871982" lon="10.27611774313164"><ele>462.0</ele><time>2026-03-28T16:42:55Z</time></trkpt><trkpt lat="45.95596285258507" lon="10.2762292681104"><ele>457.5</ele><time>2026-03-28T16:42:56Z</time></trkpt><trkpt lat="45.95600685893256" lon="10.276366595785234"><ele>453.0</ele><time>2026-03-28T16:42:58Z</time></trkpt><trkpt lat="45.95609978072427" lon="10.276391519341361"><ele>465.1666666666667</ele><time>2026-03-28T16:43:00Z</time></trkpt><trkpt lat="45.956128701239265" lon="10.276263980295798"><ele>477.33333333333337</ele><time>2026-03-28T16:43:03Z</time></trkpt><trkpt lat="45.9560943555096" lon="10.276166718243186"><ele>489.5</ele><time>2026-03-28T16:43:05Z</time></trkpt><trkpt lat="45.9560828832543" lon="10.27604143996229"><ele>501.6666666666667</ele><time>2026-03-28T16:43:08Z</time></trkpt><trkpt lat="45.95609407826643" lon="10.275932315316908"><ele>513.8333333333334</ele><time>2026-03-28T16:43:10Z</time></trkpt><trkpt lat="45.95611730490165" lon="10.275787815460964"><ele>526.0</ele><time>2026-03-28T16:43:12Z</time></trkpt><trkpt lat="45.95611525088267" lon="10.27566024296101"><ele>529.6</ele><time>2026-03-28T16:43:14Z</time></trkpt><trkpt lat="45.95607330542891" lon="10.275557091582645"><ele>533.2</ele><time>2026-03-28T16:43:16Z</time></trkpt><trkpt lat="45.956011312467034" lon="10.275470070447824"><ele>536.8</ele><time>2026-03-28T16:43:19Z</time></trkpt><trkpt lat="45.95595851877448" lon="10.275364528617025"><ele>540.4</ele><time>2026-03-28T16:43:21Z</time></trkpt><trkpt lat="45.95590515612704" lon="10.27524630954906"><ele>544.0</ele><time>2026-03-28T16:43:23Z</time></trkpt><trkpt lat="45.955853072414534" lon="10.275110106540637"><ele>538.1666666666667</ele><time>2026-03-28T16:43:25Z</time></trkpt><trkpt lat="45.955810517181156" lon="10.275014689703436"><ele>532.3333333333334</ele><time>2026-03-28T16:43:26Z</time></trkpt><trkpt lat="45.955776902563706" lon="10.274895498203701"><ele>526.5</ele><time>2026-03-28T16:43:27Z</time></trkpt><trkpt lat="45.955744373992" lon="10.27480015223042"><ele>520.6666666666666</ele><time>2026-03-28T16:43:28Z</time></trkpt><trkpt lat="45.955706002826645" lon="10.27470229118123"><ele>514.8333333333333</ele><time>2026-03-28T16:43:29Z</time></trkpt><trkpt lat="45.95567256026932" lon="10.27459739150968"><ele>509.0</ele><time>2026-03-28T16:43:30Z</time></trkpt><trkpt lat="45.955618265128386" lon="10.274488878409686"><ele>508.99999999999994</ele><time>2026-03-28T16:43:32Z</time></trkpt><trkpt lat="45.955550278304024" lon="10.274360171314315"><ele>509.0</ele><time>2026-03-28T16:43:34Z</time></trkpt><trkpt lat="45.955504871010184" lon="10.27428517825447"><ele>509.0</ele><time>2026-03-28T16:43:35Z</time></trkpt><trkpt lat="45.95546367469367" lon="10.274200334566299"><ele>509.0</ele><time>2026-03-28T16:43:36Z</time></trkpt><trkpt lat="45.95545630594125" lon="10.274104593396135"><ele>508.99999999999994</ele><time>2026-03-28T16:43:37Z</time></trkpt><trkpt lat="45.95547873986844" lon="10.274004667010255"><ele>509.0</ele><time>2026-03-28T16:43:38Z</time></trkpt><trkpt lat="45.95552628460093" lon="10.27384416932421"><ele>509.3333333333333</ele><time>2026-03-28T16:43:40Z</time></trkpt><trkpt lat="45.95556149738501" lon="10.273718553486876"><ele>509.66666666666663</ele><time>2026-03-28T16:43:42Z</time></trkpt><trkpt lat="45.95568241018232" lon="10.2737134348319"><ele>510.0</ele><time>2026-03-28T16:43:44Z</time></trkpt><trkpt lat="45.95575297198765" lon="10.273651175927863"><ele>510.33333333333337</ele><time>2026-03-28T16:43:46Z</time></trkpt><trkpt lat="45.95574425402872" lon="10.273548219349056"><ele>510.6666666666667</ele><time>2026-03-28T16:43:47Z</time></trkpt><trkpt lat="45.95571366349264" lon="10.273459887953784"><ele>511.0</ele><time>2026-03-28T16:43:48Z</time></trkpt><trkpt lat="45.95570957908217" lon="10.273348657137392"><ele>511.0</ele><time>2026-03-28T16:43:50Z</time></trkpt><trkpt lat="45.955725366230325" lon="10.27321380101023"><ele>511.0</ele><time>2026-03-28T16:43:52Z</time></trkpt><trkpt lat="45.95579223881201" lon="10.273096476247444"><ele>511.0</ele><time>2026-03-28T16:43:54Z</time></trkpt><trkpt lat="45.95586447310404" lon="10.273019818611045"><ele>511.0</ele><time>2026-03-28T16:43:56Z</time></trkpt><trkpt lat="45.95588553325941" lon="10.273147774317751"><ele>511.0</ele><time>2026-03-28T16:43:59Z</time></trkpt><trkpt lat="45.95587155768492" lon="10.273295687419559"><ele>519.8</ele><time>2026-03-28T16:44:00Z</time></trkpt><trkpt lat="45.9559056025404" lon="10.273418107665751"><ele>528.6</ele><time>2026-03-28T16:44:01Z</time></trkpt><trkpt lat="45.955974131546895" lon="10.273495009732123"><ele>537.4</ele><time>2026-03-28T16:44:02Z</time></trkpt><trkpt lat="45.95609375888443" lon="10.273403152168655"><ele>546.2</ele><time>2026-03-28T16:44:04Z</time></trkpt><trkpt lat="45.95611219690149" lon="10.273282854978914"><ele>555.0</ele><time>2026-03-28T16:44:05Z</time></trkpt><trkpt lat="45.95614522185525" lon="10.273172259386977"><ele>555.0</ele><time>2026-03-28T16:44:06Z</time></trkpt><trkpt lat="45.95621718220284" lon="10.273113133102523"><ele>555.0</ele><time>2026-03-28T16:44:07Z</time></trkpt><trkpt lat="45.95626443708408" lon="10.272970303338075"><ele>555.0</ele><time>2026-03-28T16:44:08Z</time></trkpt><trkpt lat="45.956302236865056" lon="10.272833989113337"><ele>555.0</ele><time>2026-03-28T16:44:09Z</time></trkpt><trkpt lat="45.95634074724122" lon="10.272737305899556"><ele>555.0</ele><time>2026-03-28T16:44:10Z</time></trkpt><trkpt lat="45.95637382609028" lon="10.272644383576303"><ele>555.0</ele><time>2026-03-28T16:44:11Z</time></trkpt><trkpt lat="45.9564381971397" lon="10.272722757964475"><ele>556.5</ele><time>2026-03-28T16:44:14Z</time></trkpt><trkpt lat="45.95651343248848" lon="10.272821530021226"><ele>558.0</ele><time>2026-03-28T16:44:16Z</time></trkpt><trkpt lat="45.95656625649901" lon="10.272887495099885"><ele>559.5</ele><time>2026-03-28T16:44:17Z</time></trkpt><trkpt lat="45.956621376931665" lon="10.273001736841637"><ele>561.0</ele><time>2026-03-28T16:44:19Z</time></trkpt><trkpt lat="45.95666838521358" lon="10.273073254751118"><ele>562.5</ele><time>2026-03-28T16:44:20Z</time></trkpt><trkpt lat="45.9567458657293" lon="10.2731590701645"><ele>564.0</ele><time>2026-03-28T16:44:22Z</time></trkpt><trkpt lat="45.95675349590544" lon="10.27332394540174"><ele>564.0</ele><time>2026-03-28T16:44:24Z</time></trkpt><trkpt lat="45.956783460579466" lon="10.273421297525976"><ele>564.0</ele><time>2026-03-28T16:44:25Z</time></trkpt><trkpt lat="45.956841519490155" lon="10.273511090287148"><ele>564.0</ele><time>2026-03-28T16:44:26Z</time></trkpt><trkpt lat="45.95690902381476" lon="10.27357615260203"><ele>564.0</ele><time>2026-03-28T16:44:27Z</time></trkpt><trkpt lat="45.95692496722762" lon="10.273690154082546"><ele>564.0</ele><time>2026-03-28T16:44:29Z</time></trkpt><trkpt lat="45.95697537970143" lon="10.273805098353293"><ele>564.0</ele><time>2026-03-28T16:44:31Z</time></trkpt><trkpt lat="45.95702025336335" lon="10.27387481489212"><ele>564.0</ele><time>2026-03-28T16:44:32Z</time></trkpt><trkpt lat="45.95709425555451" lon="10.273838698144397"><ele>564.0</ele><time>2026-03-28T16:45:03Z</time></trkpt><trkpt lat="45.95718553812394" lon="10.273757545728566"><ele>564.0</ele><time>2026-03-28T16:45:05Z</time></trkpt><trkpt lat="45.95723641672789" lon="10.273634848563521"><ele>564.0</ele><time>2026-03-28T16:45:07Z</time></trkpt><trkpt lat="45.95728320527276" lon="10.27357407865942"><ele>564.0</ele><time>2026-03-28T16:45:08Z</time></trkpt><trkpt lat="45.95735304302253" lon="10.273490040743598"><ele>564.0</ele><time>2026-03-28T16:45:10Z</time></trkpt><trkpt lat="45.95750207130404" lon="10.273528644524733"><ele>568.6</ele><time>2026-03-28T16:45:12Z</time></trkpt><trkpt lat="45.95760725356657" lon="10.273551518342686"><ele>573.2</ele><time>2026-03-28T16:45:13Z</time></trkpt><trkpt lat="45.95769884820226" lon="10.273586731355994"><ele>577.8000000000001</ele><time>2026-03-28T16:45:14Z</time></trkpt><trkpt lat="45.957775588183345" lon="10.273616817821347"><ele>582.4</ele><time>2026-03-28T16:45:15Z</time></trkpt><trkpt lat="45.95787513308148" lon="10.273712829452101"><ele>587.0</ele><time>2026-03-28T16:45:17Z</time></trkpt><trkpt lat="45.95793520338949" lon="10.27377391830453"><ele>587.0</ele><time>2026-03-28T16:45:18Z</time></trkpt><trkpt lat="45.95800620030947" lon="10.273793076688047"><ele>587.0</ele><time>2026-03-28T16:45:19Z</time></trkpt><trkpt lat="45.95807197556022" lon="10.273794952095296"><ele>587.0</ele><time>2026-03-28T16:45:20Z</time></trkpt><trkpt lat="45.95813685315465" lon="10.273783521980837"><ele>587.0</ele><time>2026-03-28T16:45:21Z</time></trkpt><trkpt lat="45.95823329101789" lon="10.273726317917518"><ele>587.0</ele><time>2026-03-28T16:45:23Z</time></trkpt><trkpt lat="45.95829406295424" lon="10.273694063846465"><ele>587.0</ele><time>2026-03-28T16:45:24Z</time></trkpt><trkpt lat="45.95835837939471" lon="10.273653122631172"><ele>587.0</ele><time>2026-03-28T16:45:26Z</time></trkpt><trkpt lat="45.95841692253887" lon="10.273509749343232"><ele>593.6666666666666</ele><time>2026-03-28T16:45:28Z</time></trkpt><trkpt lat="45.958466472327935" lon="10.27344298958826"><ele>600.3333333333333</ele><time>2026-03-28T16:45:29Z</time></trkpt><trkpt lat="45.95857672899565" lon="10.273396724493079"><ele>607.0</ele><time>2026-03-28T16:45:31Z</time></trkpt><trkpt lat="45.95865571992983" lon="10.273398568677713"><ele>613.6666666666666</ele><time>2026-03-28T16:45:32Z</time></trkpt><trkpt lat="45.9587323200099" lon="10.273352635330118"><ele>620.3333333333334</ele><time>2026-03-28T16:45:33Z</time></trkpt><trkpt lat="45.95882198830915" lon="10.273319260593183"><ele>627.0</ele><time>2026-03-28T16:45:34Z</time></trkpt><trkpt lat="45.9589166484335" lon="10.273302543007715"><ele>627.0</ele><time>2026-03-28T16:45:35Z</time></trkpt><trkpt lat="45.95901278998704" lon="10.273291365927031"><ele>627.0</ele><time>2026-03-28T16:45:36Z</time></trkpt><trkpt lat="45.959079296420484" lon="10.273207919880802"><ele>627.0</ele><time>2026-03-28T16:45:37Z</time></trkpt><trkpt lat="45.9591471406749" lon="10.273145827431332"><ele>627.0</ele><time>2026-03-28T16:45:38Z</time></trkpt><trkpt lat="45.95920995813834" lon="10.273124050515152"><ele>627.0</ele><time>2026-03-28T16:45:39Z</time></trkpt><trkpt lat="45.9592774711204" lon="10.273119249068213"><ele>627.0</ele><time>2026-03-28T16:45:40Z</time></trkpt><trkpt lat="45.959370956809536" lon="10.273100275876407"><ele>625.6</ele><time>2026-03-28T16:45:41Z</time></trkpt><trkpt lat="45.95945995772062" lon="10.273058403961306"><ele>624.2</ele><time>2026-03-28T16:45:42Z</time></trkpt><trkpt lat="45.959553024897836" lon="10.273031534273956"><ele>622.8</ele><time>2026-03-28T16:45:43Z</time></trkpt><trkpt lat="45.959657976592105" lon="10.272989212767714"><ele>621.4</ele><time>2026-03-28T16:45:44Z</time></trkpt><trkpt lat="45.959730935171216" lon="10.272906382742828"><ele>620.0</ele><time>2026-03-28T16:45:45Z</time></trkpt><trkpt lat="45.959791589791514" lon="10.272876250818818"><ele>620.0</ele><time>2026-03-28T16:45:46Z</time></trkpt><trkpt lat="45.95986570169408" lon="10.272861759698515"><ele>620.0</ele><time>2026-03-28T16:45:47Z</time></trkpt><trkpt lat="45.95996468914354" lon="10.272843404825158"><ele>620.0</ele><time>2026-03-28T16:45:48Z</time></trkpt><trkpt lat="45.96005824880542" lon="10.272878386848117"><ele>620.0</ele><time>2026-03-28T16:45:49Z</time></trkpt><trkpt lat="45.96012378121368" lon="10.272922394790156"><ele>620.0</ele><time>2026-03-28T16:45:50Z</time></trkpt><trkpt lat="45.96019013378783" lon="10.272923910803645"><ele>620.0</ele><time>2026-03-28T16:45:51Z</time></trkpt><trkpt lat="45.960270050531705" lon="10.272937209192143"><ele>623.5</ele><time>2026-03-28T16:45:53Z</time></trkpt><trkpt lat="45.96036366805324" lon="10.27293336204922"><ele>627.0</ele><time>2026-03-28T16:45:55Z</time></trkpt><trkpt lat="45.96041927913344" lon="10.272982991403497"><ele>630.5</ele><time>2026-03-28T16:45:58Z</time></trkpt><trkpt lat="45.96036864218506" lon="10.273053219825057"><ele>634.0</ele><time>2026-03-28T16:46:00Z</time></trkpt><trkpt lat="45.960302479134825" lon="10.273068948892993"><ele>637.5</ele><time>2026-03-28T16:46:05Z</time></trkpt><trkpt lat="45.96023719647284" lon="10.273164021758197"><ele>641.0</ele><time>2026-03-28T16:46:08Z</time></trkpt><trkpt lat="45.960197414867466" lon="10.273255353108548"><ele>647.6666666666666</ele><time>2026-03-28T16:46:10Z</time></trkpt><trkpt lat="45.960136265278386" lon="10.273350012254552"><ele>654.3333333333333</ele><time>2026-03-28T16:46:12Z</time></trkpt><trkpt lat="45.96008305147223" lon="10.27346070828082"><ele>661.0</ele><time>2026-03-28T16:46:15Z</time></trkpt><trkpt lat="45.96014729270573" lon="10.27344495593777"><ele>667.6666666666666</ele><time>2026-03-28T16:46:20Z</time></trkpt><trkpt lat="45.960174129127836" lon="10.273585645526875"><ele>674.3333333333334</ele><time>2026-03-28T16:46:29Z</time></trkpt><trkpt lat="45.960106214813486" lon="10.27361400684273"><ele>681.0</ele><time>2026-03-28T16:46:36Z</time></trkpt><trkpt lat="45.9600585377626" lon="10.273769475652527"><ele>683.4</ele><time>2026-03-28T16:46:39Z</time></trkpt><trkpt lat="45.96002772093637" lon="10.273910443860219"><ele>685.8</ele><time>2026-03-28T16:46:41Z</time></trkpt><trkpt lat="45.959956376083824" lon="10.273982856402696"><ele>688.1999999999999</ele><time>2026-03-28T16:46:43Z</time></trkpt><trkpt lat="45.9598744775222" lon="10.274097290528575"><ele>690.5999999999999</ele><time>2026-03-28T16:46:45Z</time></trkpt><trkpt lat="45.959824644877514" lon="10.274195477031467"><ele>693.0</ele><time>2026-03-28T16:46:47Z</time></trkpt><trkpt lat="45.95973457822798" lon="10.274263824282809"><ele>693.0</ele><time>2026-03-28T16:46:49Z</time></trkpt><trkpt lat="45.95967645152687" lon="10.274307845983754"><ele>693.0</ele><time>2026-03-28T16:46:50Z</time></trkpt><trkpt lat="45.95961035834986" lon="10.27436111201055"><ele>693.0</ele><time>2026-03-28T16:46:51Z</time></trkpt><trkpt lat="45.95957643101256" lon="10.274466532914417"><ele>693.0</ele><time>2026-03-28T16:46:52Z</time></trkpt><trkpt lat="45.95957451218194" lon="10.274569180360478"><ele>693.0</ele><time>2026-03-28T16:46:53Z</time></trkpt><trkpt lat="45.95957850840173" lon="10.274669048175802"><ele>693.0</ele><time>2026-03-28T16:46:54Z</time></trkpt><trkpt lat="45.959643626632015" lon="10.274812740342398"><ele>698.5714285714286</ele><time>2026-03-28T16:46:56Z</time></trkpt><trkpt lat="45.95969233997336" lon="10.27488505040017"><ele>704.1428571428571</ele><time>2026-03-28T16:46:57Z</time></trkpt><trkpt lat="45.95974885092598" lon="10.274815704667976"><ele>709.7142857142858</ele><time>2026-03-28T16:46:59Z</time></trkpt><trkpt lat="45.95967880576162" lon="10.274799421979344"><ele>715.2857142857142</ele><time>2026-03-28T16:47:01Z</time></trkpt><trkpt lat="45.95961336750947" lon="10.274812067520907"><ele>720.8571428571429</ele><time>2026-03-28T16:47:02Z</time></trkpt><trkpt lat="45.959550389471445" lon="10.274851328604788"><ele>726.4285714285714</ele><time>2026-03-28T16:47:03Z</time></trkpt><trkpt lat="45.959476301108054" lon="10.274899843609264"><ele>732.0</ele><time>2026-03-28T16:47:04Z</time></trkpt><trkpt lat="45.95941867790742" lon="10.2749519352901"><ele>732.0</ele><time>2026-03-28T16:47:05Z</time></trkpt><trkpt lat="45.95935021740142" lon="10.275147392882026"><ele>732.0</ele><time>2026-03-28T16:47:07Z</time></trkpt><trkpt lat="45.95931467897489" lon="10.275284245255307"><ele>732.0</ele><time>2026-03-28T16:47:08Z</time></trkpt><trkpt lat="45.95922330439178" lon="10.275423648116986"><ele>732.0</ele><time>2026-03-28T16:47:09Z</time></trkpt><trkpt lat="45.95917982060105" lon="10.275543674658504"><ele>726.75</ele><time>2026-03-28T16:47:10Z</time></trkpt><trkpt lat="45.95911005622969" lon="10.275681107168879"><ele>721.5</ele><time>2026-03-28T16:47:11Z</time></trkpt><trkpt lat="45.959063342216346" lon="10.275848735676199"><ele>716.25</ele><time>2026-03-28T16:47:12Z</time></trkpt><trkpt lat="45.95899808953669" lon="10.275962870936736"><ele>711.0</ele><time>2026-03-28T16:47:13Z</time></trkpt><trkpt lat="45.95896702201823" lon="10.276128737886927"><ele>711.0</ele><time>2026-03-28T16:47:14Z</time></trkpt><trkpt lat="45.95893203578897" lon="10.276233868162182"><ele>711.0</ele><time>2026-03-28T16:47:15Z</time></trkpt><trkpt lat="45.958898436330536" lon="10.276319918725418"><ele>711.0</ele><time>2026-03-28T16:47:16Z</time></trkpt><trkpt lat="45.95881985629844" lon="10.276387782915295"><ele>711.0</ele><time>2026-03-28T16:47:18Z</time></trkpt><trkpt lat="45.9587711593098" lon="10.276327730810562"><ele>711.0</ele><time>2026-03-28T16:47:19Z</time></trkpt><trkpt lat="45.95868991090912" lon="10.276198838095937"><ele>711.0</ele><time>2026-03-28T16:47:20Z</time></trkpt><trkpt lat="45.95862487739004" lon="10.276166052177693"><ele>711.0</ele><time>2026-03-28T16:47:21Z</time></trkpt><trkpt lat="45.9586123896412" lon="10.276048275574942"><ele>711.0</ele><time>2026-03-28T16:47:23Z</time></trkpt><trkpt lat="45.95849838694623" lon="10.276107172746793"><ele>711.0</ele><time>2026-03-28T16:47:26Z</time></trkpt><trkpt lat="45.958440631112666" lon="10.276152135656664"><ele>711.0</ele><time>2026-03-28T16:47:27Z</time></trkpt><trkpt lat="45.95842443787321" lon="10.276281153916223"><ele>711.0</ele><time>2026-03-28T16:47:28Z</time></trkpt><trkpt lat="45.9584218353033" lon="10.276415793800785"><ele>713.5999999999999</ele><time>2026-03-28T16:47:29Z</time></trkpt><trkpt lat="45.95843962082381" lon="10.276580813034936"><ele>716.2</ele><time>2026-03-28T16:47:30Z</time></trkpt><trkpt lat="45.95843148754162" lon="10.276674885323432"><ele>718.8</ele><time>2026-03-28T16:47:31Z</time></trkpt><trkpt lat="45.958410575277156" lon="10.276770187655645"><ele>721.4000000000001</ele><time>2026-03-28T16:47:32Z</time></trkpt><trkpt lat="45.95835192326758" lon="10.276617553353764"><ele>724.0</ele><time>2026-03-28T16:47:34Z</time></trkpt><trkpt lat="45.95829420030663" lon="10.276492146829053"><ele>711.6</ele><time>2026-03-28T16:47:36Z</time></trkpt><trkpt lat="45.95825623614063" lon="10.276375485999491"><ele>699.2</ele><time>2026-03-28T16:47:37Z</time></trkpt><trkpt lat="45.95824493256468" lon="10.276243528689276"><ele>686.8000000000001</ele><time>2026-03-28T16:47:38Z</time></trkpt><trkpt lat="45.958251507876355" lon="10.276150182431895"><ele>674.4000000000001</ele><time>2026-03-28T16:47:39Z</time></trkpt><trkpt lat="45.9581767678178" lon="10.276027884448292"><ele>662.0</ele><time>2026-03-28T16:47:40Z</time></trkpt><trkpt lat="45.95814208602019" lon="10.275901974068205"><ele>662.0</ele><time>2026-03-28T16:47:41Z</time></trkpt><trkpt lat="45.95807158864597" lon="10.275779321874845"><ele>662.0</ele><time>2026-03-28T16:47:42Z</time></trkpt><trkpt lat="45.958073416714406" lon="10.27560898341597"><ele>662.0</ele><time>2026-03-28T16:47:44Z</time></trkpt><trkpt lat="45.95809712627116" lon="10.27550057064271"><ele>662.0</ele><time>2026-03-28T16:47:45Z</time></trkpt><trkpt lat="45.95815402898628" lon="10.275296448646495"><ele>658.1666666666666</ele><time>2026-03-28T16:47:47Z</time></trkpt><trkpt lat="45.95817260241151" lon="10.275182071532155"><ele>654.3333333333333</ele><time>2026-03-28T16:47:48Z</time></trkpt><trkpt lat="45.958161635672106" lon="10.275067827282806"><ele>650.5</ele><time>2026-03-28T16:47:49Z</time></trkpt><trkpt lat="45.9581326775576" lon="10.274973580172732"><ele>646.6666666666666</ele><time>2026-03-28T16:47:50Z</time></trkpt><trkpt lat="45.9581103500169" lon="10.27484393542584"><ele>642.8333333333334</ele><time>2026-03-28T16:47:52Z</time></trkpt><trkpt lat="45.958161658123956" lon="10.274771458820117"><ele>639.0</ele><time>2026-03-28T16:47:53Z</time></trkpt><trkpt lat="45.95826678541784" lon="10.274741336225052"><ele>641.8333333333334</ele><time>2026-03-28T16:47:55Z</time></trkpt><trkpt lat="45.95833538403864" lon="10.274747365438007"><ele>644.6666666666666</ele><time>2026-03-28T16:47:56Z</time></trkpt><trkpt lat="45.95843342546219" lon="10.274698105059391"><ele>647.5</ele><time>2026-03-28T16:47:58Z</time></trkpt><trkpt lat="45.958473389564894" lon="10.27461953120241"><ele>650.3333333333333</ele><time>2026-03-28T16:47:59Z</time></trkpt><trkpt lat="45.95848910413048" lon="10.274505312883022"><ele>653.1666666666666</ele><time>2026-03-28T16:48:01Z</time></trkpt><trkpt lat="45.95842531471616" lon="10.274584135332708"><ele>656.0</ele><time>2026-03-28T16:48:42Z</time></trkpt><trkpt lat="45.95835941315091" lon="10.274734205446661"><ele>653.1666666666666</ele><time>2026-03-28T16:48:44Z</time></trkpt><trkpt lat="45.95830494358718" lon="10.274809328711358"><ele>650.3333333333333</ele><time>2026-03-28T16:48:45Z</time></trkpt><trkpt lat="45.95824314712523" lon="10.274897677736066"><ele>647.5</ele><time>2026-03-28T16:48:47Z</time></trkpt><trkpt lat="45.95827444582036" lon="10.275008823738526"><ele>644.6666666666666</ele><time>2026-03-28T16:48:50Z</time></trkpt><trkpt lat="45.95829702071653" lon="10.27510318038246"><ele>641.8333333333334</ele><time>2026-03-28T16:48:57Z</time></trkpt><trkpt lat="45.95835396637108" lon="10.27517772714899"><ele>639.0</ele><time>2026-03-28T16:49:00Z</time></trkpt><trkpt lat="45.95845252413838" lon="10.27518871475757"><ele>648.2</ele><time>2026-03-28T16:49:02Z</time></trkpt><trkpt lat="45.95852657499192" lon="10.275234018969837"><ele>657.4</ele><time>2026-03-28T16:49:04Z</time></trkpt><trkpt lat="45.958584292742856" lon="10.2753118286528"><ele>666.6</ele><time>2026-03-28T16:49:06Z</time></trkpt><trkpt lat="45.958565396510224" lon="10.275479863091514"><ele>675.8</ele><time>2026-03-28T16:49:08Z</time></trkpt><trkpt lat="45.95859085836269" lon="10.275631816329408"><ele>685.0</ele><time>2026-03-28T16:49:10Z</time></trkpt><trkpt lat="45.95860030185689" lon="10.275733335606224"><ele>689.3333333333334</ele><time>2026-03-28T16:49:11Z</time></trkpt><trkpt lat="45.958626682399974" lon="10.275836424134773"><ele>693.6666666666667</ele><time>2026-03-28T16:49:12Z</time></trkpt><trkpt lat="45.95863362498012" lon="10.275947734141523"><ele>698.0</ele><time>2026-03-28T16:49:14Z</time></trkpt><trkpt lat="45.9586378120211" lon="10.276049016191097"><ele>702.3333333333334</ele><time>2026-03-28T16:49:15Z</time></trkpt><trkpt lat="45.958611241379735" lon="10.276221848529504"><ele>706.6666666666666</ele><time>2026-03-28T16:49:17Z</time></trkpt><trkpt lat="45.958524011129796" lon="10.276264603943273"><ele>711.0</ele><time>2026-03-28T16:49:19Z</time></trkpt><trkpt lat="45.95858182273779" lon="10.276200273670208"><ele>711.0</ele><time>2026-03-28T16:49:27Z</time></trkpt><trkpt lat="45.958668345136836" lon="10.27619239653649"><ele>711.0</ele><time>2026-03-28T16:50:09Z</time></trkpt><trkpt lat="45.95855808993853" lon="10.276224456989258"><ele>711.0</ele><time>2026-03-28T16:50:15Z</time></trkpt><trkpt lat="45.958464559020946" lon="10.276345964331732"><ele>711.0</ele><time>2026-03-28T16:50:17Z</time></trkpt><trkpt lat="45.9584302795545" lon="10.276434662453145"><ele>711.0</ele><time>2026-03-28T16:50:18Z</time></trkpt><trkpt lat="45.95841845244078" lon="10.276536662063751"><ele>713.1666666666666</ele><time>2026-03-28T16:50:19Z</time></trkpt><trkpt lat="45.95840765277428" lon="10.276640912469762"><ele>715.3333333333334</ele><time>2026-03-28T16:50:20Z</time></trkpt><trkpt lat="45.95841885995817" lon="10.276786096516277"><ele>717.5</ele><time>2026-03-28T16:50:22Z</time></trkpt><trkpt lat="45.958336998570175" lon="10.276710525014103"><ele>719.6666666666667</ele><time>2026-03-28T16:50:25Z</time></trkpt><trkpt lat="45.9583078648636" lon="10.276627415386182"><ele>721.8333333333334</ele><time>2026-03-28T16:50:26Z</time></trkpt><trkpt lat="45.95827122300267" lon="10.276539250637644"><ele>724.0</ele><time>2026-03-28T16:50:27Z</time></trkpt><trkpt lat="45.95822215593189" lon="10.276449037903403"><ele>713.6666666666667</ele><time>2026-03-28T16:50:28Z</time></trkpt><trkpt lat="45.95817479719769" lon="10.276370235029324"><ele>703.3333333333334</ele><time>2026-03-28T16:50:29Z</time></trkpt><trkpt lat="45.958149926985584" lon="10.276261949292323"><ele>693.0</ele><time>2026-03-28T16:50:30Z</time></trkpt><trkpt lat="45.958108563255664" lon="10.27614478289327"><ele>682.6666666666666</ele><time>2026-03-28T16:50:31Z</time></trkpt><trkpt lat="45.95806368408522" lon="10.27603612140623"><ele>672.3333333333333</ele><time>2026-03-28T16:50:32Z</time></trkpt><trkpt lat="45.958008885098444" lon="10.275917235207965"><ele>662.0</ele><time>2026-03-28T16:50:33Z</time></trkpt><trkpt lat="45.95798254024326" lon="10.275826081213838"><ele>662.0</ele><time>2026-03-28T16:50:34Z</time></trkpt><trkpt lat="45.9579587961762" lon="10.275643890200364"><ele>662.0</ele><time>2026-03-28T16:50:36Z</time></trkpt><trkpt lat="45.95798397720664" lon="10.275525560210928"><ele>662.0</ele><time>2026-03-28T16:50:37Z</time></trkpt><trkpt lat="45.958015900658935" lon="10.27543956856366"><ele>662.0</ele><time>2026-03-28T16:50:38Z</time></trkpt><trkpt lat="45.958050334695685" lon="10.275349871093944"><ele>662.0</ele><time>2026-03-28T16:50:40Z</time></trkpt><trkpt lat="45.95810926285069" lon="10.275281057494514"><ele>662.0</ele><time>2026-03-28T16:50:43Z</time></trkpt><trkpt lat="45.958212156475746" lon="10.27525741368198"><ele>658.1666666666666</ele><time>2026-03-28T16:50:45Z</time></trkpt><trkpt lat="45.95822688539206" lon="10.275164330829009"><ele>654.3333333333333</ele><time>2026-03-28T16:50:49Z</time></trkpt><trkpt lat="45.95831003983526" lon="10.275112645365224"><ele>650.5</ele><time>2026-03-28T16:51:16Z</time></trkpt><trkpt lat="45.95837967232422" lon="10.275157407504835"><ele>646.6666666666666</ele><time>2026-03-28T16:51:18Z</time></trkpt><trkpt lat="45.958459411735284" lon="10.275162154676833"><ele>642.8333333333334</ele><time>2026-03-28T16:51:19Z</time></trkpt><trkpt lat="45.958528484761715" lon="10.275165167232952"><ele>639.0</ele><time>2026-03-28T16:51:20Z</time></trkpt><trkpt lat="45.95859535671314" lon="10.275193880040577"><ele>646.6666666666666</ele><time>2026-03-28T16:51:21Z</time></trkpt><trkpt lat="45.95860212167295" lon="10.275305723068817"><ele>654.3333333333334</ele><time>2026-03-28T16:51:23Z</time></trkpt><trkpt lat="45.958543050427856" lon="10.275345798472214"><ele>662.0</ele><time>2026-03-28T16:51:28Z</time></trkpt><trkpt lat="45.958600705272026" lon="10.27528472327229"><ele>669.6666666666667</ele><time>2026-03-28T16:51:39Z</time></trkpt><trkpt lat="45.95853542698653" lon="10.275217160450499"><ele>677.3333333333334</ele><time>2026-03-28T16:51:59Z</time></trkpt><trkpt lat="45.958448374312916" lon="10.275145807959326"><ele>685.0</ele><time>2026-03-28T16:52:02Z</time></trkpt><trkpt lat="45.95838246264144" lon="10.275144296207829"><ele>685.0</ele><time>2026-03-28T16:52:04Z</time></trkpt><trkpt lat="45.95831115426855" lon="10.275130274908973"><ele>685.0</ele><time>2026-03-28T16:52:07Z</time></trkpt><trkpt lat="45.958241542570654" lon="10.275119489438865"><ele>685.0</ele><time>2026-03-28T16:52:14Z</time></trkpt><trkpt lat="45.95831309671326" lon="10.275150034777074"><ele>685.0</ele><time>2026-03-28T16:52:41Z</time></trkpt><trkpt lat="45.95841389609119" lon="10.27517543918075"><ele>685.0</ele><time>2026-03-28T16:52:44Z</time></trkpt><trkpt lat="45.95850001776488" lon="10.275184774265561"><ele>685.0</ele><time>2026-03-28T16:52:46Z</time></trkpt><trkpt lat="45.95855685796844" lon="10.275252538901992"><ele>685.0</ele><time>2026-03-28T16:52:48Z</time></trkpt><trkpt lat="45.95864365580138" lon="10.27531044801466"><ele>685.0</ele><time>2026-03-28T16:52:50Z</time></trkpt><trkpt lat="45.958591984175555" lon="10.275528577075761"><ele>685.0</ele><time>2026-03-28T16:52:51Z</time></trkpt><trkpt lat="45.958588026647426" lon="10.275676682956279"><ele>685.0</ele><time>2026-03-28T16:52:53Z</time></trkpt><trkpt lat="45.95860575044407" lon="10.275809742132783"><ele>689.3333333333334</ele><time>2026-03-28T16:52:56Z</time></trkpt><trkpt lat="45.95856467217625" lon="10.275917945530876"><ele>693.6666666666667</ele><time>2026-03-28T16:52:59Z</time></trkpt><trkpt lat="45.958535722174695" lon="10.276013021140939"><ele>698.0</ele><time>2026-03-28T16:53:00Z</time></trkpt><trkpt lat="45.95845248211911" lon="10.276050652571042"><ele>702.3333333333334</ele><time>2026-03-28T16:53:02Z</time></trkpt><trkpt lat="45.95847937867952" lon="10.276136934855787"><ele>706.6666666666666</ele><time>2026-03-28T16:53:06Z</time></trkpt><trkpt lat="45.95855093461418" lon="10.27610319076996"><ele>711.0</ele><time>2026-03-28T16:53:10Z</time></trkpt><trkpt lat="45.95861703293998" lon="10.276131107676786"><ele>711.0</ele><time>2026-03-28T16:53:12Z</time></trkpt><trkpt lat="45.9586044512316" lon="10.276020892784965"><ele>711.0</ele><time>2026-03-28T16:55:07Z</time></trkpt><trkpt lat="45.9586131190748" lon="10.275914621553808"><ele>711.0</ele><time>2026-03-28T16:55:10Z</time></trkpt><trkpt lat="45.958601376734876" lon="10.275800019635788"><ele>711.0</ele><time>2026-03-28T16:55:12Z</time></trkpt><trkpt lat="45.95859315715222" lon="10.275663292394777"><ele>711.0</ele><time>2026-03-28T16:55:16Z</time></trkpt><trkpt lat="45.95858488704975" lon="10.275554035627694"><ele>711.0</ele><time>2026-03-28T16:55:18Z</time></trkpt><trkpt lat="45.95859877719939" lon="10.275453772094131"><ele>705.8</ele><time>2026-03-28T16:55:21Z</time></trkpt><trkpt lat="45.95860839893004" lon="10.275314551921534"><ele>700.5999999999999</ele><time>2026-03-28T16:55:24Z</time></trkpt><trkpt lat="45.9585873495923" lon="10.275221711134325"><ele>695.4</ele><time>2026-03-28T16:55:27Z</time></trkpt><trkpt lat="45.95846343126983" lon="10.27513408787952"><ele>690.2</ele><time>2026-03-28T16:55:52Z</time></trkpt><trkpt lat="45.95839125369762" lon="10.27513762990819"><ele>685.0</ele><time>2026-03-28T16:55:58Z</time></trkpt><trkpt lat="45.95831532119675" lon="10.275111502824243"><ele>680.8571428571428</ele><time>2026-03-28T16:56:01Z</time></trkpt><trkpt lat="45.95826536221422" lon="10.275042369065726"><ele>676.7142857142858</ele><time>2026-03-28T16:56:03Z</time></trkpt><trkpt lat="45.95824143378938" lon="10.274948875200037"><ele>672.5714285714286</ele><time>2026-03-28T16:56:05Z</time></trkpt><trkpt lat="45.958262918709046" lon="10.274856405152354"><ele>668.4285714285713</ele><time>2026-03-28T16:56:08Z</time></trkpt><trkpt lat="45.958310229743255" lon="10.274767039199928"><ele>664.2857142857142</ele><time>2026-03-28T16:56:11Z</time></trkpt><trkpt lat="45.95834543059604" lon="10.27468391669506"><ele>660.1428571428571</ele><time>2026-03-28T16:56:13Z</time></trkpt><trkpt lat="45.958390043213605" lon="10.274575190806733"><ele>656.0</ele><time>2026-03-28T16:56:15Z</time></trkpt><trkpt lat="45.9584221933638" lon="10.274462185932284"><ele>656.0</ele><time>2026-03-28T16:56:17Z</time></trkpt><trkpt lat="45.95845584243023" lon="10.27430262283237"><ele>656.0</ele><time>2026-03-28T16:56:19Z</time></trkpt><trkpt lat="45.95846848343618" lon="10.274202205140753"><ele>656.0</ele><time>2026-03-28T16:56:20Z</time></trkpt><trkpt lat="45.95847878787519" lon="10.274106266112382"><ele>656.0</ele><time>2026-03-28T16:56:21Z</time></trkpt><trkpt lat="45.958485164792656" lon="10.274011386250102"><ele>656.0</ele><time>2026-03-28T16:56:22Z</time></trkpt><trkpt lat="45.95849338789244" lon="10.273917780463412"><ele>656.0</ele><time>2026-03-28T16:56:23Z</time></trkpt><trkpt lat="45.95852208444499" lon="10.273794119153221"><ele>651.1666666666666</ele><time>2026-03-28T16:56:25Z</time></trkpt><trkpt lat="45.958523200553934" lon="10.27369907945381"><ele>646.3333333333333</ele><time>2026-03-28T16:56:26Z</time></trkpt><trkpt lat="45.958534987524374" lon="10.273555818483958"><ele>641.5</ele><time>2026-03-28T16:56:28Z</time></trkpt><trkpt lat="45.95852022263449" lon="10.273441321555502"><ele>636.6666666666666</ele><time>2026-03-28T16:56:30Z</time></trkpt><trkpt lat="45.958450960642814" lon="10.273400289773017"><ele>631.8333333333334</ele><time>2026-03-28T16:56:34Z</time></trkpt><trkpt lat="45.95837589332481" lon="10.273503324695854"><ele>627.0</ele><time>2026-03-28T16:56:36Z</time></trkpt><trkpt lat="45.95829701135688" lon="10.273596452910077"><ele>620.3333333333334</ele><time>2026-03-28T16:56:38Z</time></trkpt><trkpt lat="45.95824176768408" lon="10.273674473293253"><ele>613.6666666666666</ele><time>2026-03-28T16:56:40Z</time></trkpt><trkpt lat="45.958175717048704" lon="10.27374920567321"><ele>607.0</ele><time>2026-03-28T16:56:42Z</time></trkpt><trkpt lat="45.958074371353945" lon="10.273821358458136"><ele>600.3333333333333</ele><time>2026-03-28T16:56:44Z</time></trkpt><trkpt lat="45.9580068610098" lon="10.273817128698115"><ele>593.6666666666666</ele><time>2026-03-28T16:56:45Z</time></trkpt><trkpt lat="45.95794353818011" lon="10.273795051717277"><ele>587.0</ele><time>2026-03-28T16:56:46Z</time></trkpt><trkpt lat="45.957863122037516" lon="10.273775831068276"><ele>587.0</ele><time>2026-03-28T16:56:47Z</time></trkpt><trkpt lat="45.957757683651074" lon="10.273684561404144"><ele>587.0</ele><time>2026-03-28T16:56:49Z</time></trkpt><trkpt lat="45.957651169578824" lon="10.273654190110662"><ele>587.0</ele><time>2026-03-28T16:56:51Z</time></trkpt><trkpt lat="45.95756040242558" lon="10.273597763117207"><ele>587.0</ele><time>2026-03-28T16:56:53Z</time></trkpt><trkpt lat="45.95749689744436" lon="10.27352948839862"><ele>587.0</ele><time>2026-03-28T16:57:21Z</time></trkpt><trkpt lat="45.95740679392102" lon="10.273481939960808"><ele>581.25</ele><time>2026-03-28T16:57:23Z</time></trkpt><trkpt lat="45.95736167668245" lon="10.273391495105527"><ele>575.5</ele><time>2026-03-28T16:57:35Z</time></trkpt><trkpt lat="45.95731988522436" lon="10.273213330585369"><ele>569.75</ele><time>2026-03-28T16:57:37Z</time></trkpt><trkpt lat="45.95725888208468" lon="10.27307256986235"><ele>564.0</ele><time>2026-03-28T16:57:39Z</time></trkpt><trkpt lat="45.95714821097201" lon="10.272984802030031"><ele>564.0</ele><time>2026-03-28T16:57:41Z</time></trkpt><trkpt lat="45.957067927783335" lon="10.273005656716975"><ele>564.0</ele><time>2026-03-28T16:57:42Z</time></trkpt><trkpt lat="45.9569485392566" lon="10.273033665980057"><ele>564.0</ele><time>2026-03-28T16:57:43Z</time></trkpt><trkpt lat="45.956841288017706" lon="10.273041214423202"><ele>564.0</ele><time>2026-03-28T16:57:44Z</time></trkpt><trkpt lat="45.95677688062553" lon="10.273107208797649"><ele>564.0</ele><time>2026-03-28T16:57:45Z</time></trkpt><trkpt lat="45.956717928018946" lon="10.273143565781385"><ele>559.0</ele><time>2026-03-28T16:57:47Z</time></trkpt><trkpt lat="45.95665866025515" lon="10.27307334016537"><ele>554.0</ele><time>2026-03-28T16:57:48Z</time></trkpt><trkpt lat="45.956588622020305" lon="10.272989214563507"><ele>549.0</ele><time>2026-03-28T16:57:49Z</time></trkpt><trkpt lat="45.95653633836647" lon="10.272898507652284"><ele>544.0</ele><time>2026-03-28T16:57:50Z</time></trkpt><trkpt lat="45.95649378768268" lon="10.272816553245148"><ele>539.0</ele><time>2026-03-28T16:57:51Z</time></trkpt><trkpt lat="45.95642163345126" lon="10.27274725918056"><ele>534.0</ele><time>2026-03-28T16:57:52Z</time></trkpt><trkpt lat="45.95635641570259" lon="10.272698188780376"><ele>534.0</ele><time>2026-03-28T16:57:53Z</time></trkpt><trkpt lat="45.95627705270187" lon="10.272648944187905"><ele>534.0</ele><time>2026-03-28T16:57:55Z</time></trkpt><trkpt lat="45.95621261648845" lon="10.272776830256987"><ele>534.0</ele><time>2026-03-28T16:57:57Z</time></trkpt><trkpt lat="45.956206679420994" lon="10.272898495154953"><ele>534.0</ele><time>2026-03-28T16:57:58Z</time></trkpt><trkpt lat="45.9561714557058" lon="10.273087341320817"><ele>534.0</ele><time>2026-03-28T16:58:00Z</time></trkpt><trkpt lat="45.95611602165793" lon="10.273179746661377"><ele>538.2</ele><time>2026-03-28T16:58:01Z</time></trkpt><trkpt lat="45.95606391320543" lon="10.273305984917158"><ele>542.4</ele><time>2026-03-28T16:58:02Z</time></trkpt><trkpt lat="45.956038024103336" lon="10.273437045767412"><ele>546.6</ele><time>2026-03-28T16:58:03Z</time></trkpt><trkpt lat="45.95601257692468" lon="10.27352638708046"><ele>550.8</ele><time>2026-03-28T16:58:04Z</time></trkpt><trkpt lat="45.95592072523595" lon="10.27352829193918"><ele>555.0</ele><time>2026-03-28T16:58:06Z</time></trkpt><trkpt lat="45.9558711938783" lon="10.273402565196182"><ele>546.2</ele><time>2026-03-28T16:58:08Z</time></trkpt><trkpt lat="45.95585248051664" lon="10.27327335796091"><ele>537.4</ele><time>2026-03-28T16:58:09Z</time></trkpt><trkpt lat="45.95574131807158" lon="10.273237081110866"><ele>528.6</ele><time>2026-03-28T16:58:10.999Z</time></trkpt><trkpt lat="45.95576862302221" lon="10.273090425762799"><ele>519.8</ele><time>2026-03-28T16:58:11.999Z</time></trkpt><trkpt lat="45.955707003237464" lon="10.273148392966515"><ele>511.0</ele><time>2026-03-28T16:58:13.999Z</time></trkpt><trkpt lat="45.9556746277946" lon="10.273233219912953"><ele>511.0</ele><time>2026-03-28T16:58:14.999Z</time></trkpt><trkpt lat="45.95565617310787" lon="10.273387101513514"><ele>511.0</ele><time>2026-03-28T16:58:15.999Z</time></trkpt><trkpt lat="45.95566445098638" lon="10.273505186902232"><ele>511.0</ele><time>2026-03-28T16:58:16.999Z</time></trkpt><trkpt lat="45.955672308040164" lon="10.273612689619892"><ele>511.0</ele><time>2026-03-28T16:58:17.999Z</time></trkpt><trkpt lat="45.95567476353954" lon="10.273724086006878"><ele>511.0</ele><time>2026-03-28T16:58:18.999Z</time></trkpt><trkpt lat="45.95564824879719" lon="10.273883066052298"><ele>511.0</ele><time>2026-03-28T16:58:20.999Z</time></trkpt><trkpt lat="45.95555815506412" lon="10.273876526407632"><ele>511.0</ele><time>2026-03-28T16:58:22.999Z</time></trkpt><trkpt lat="45.95551250947251" lon="10.274016272405252"><ele>511.0</ele><time>2026-03-28T16:58:24.999Z</time></trkpt><trkpt lat="45.95548467382493" lon="10.274204719650353"><ele>511.0</ele><time>2026-03-28T16:58:26.999Z</time></trkpt><trkpt lat="45.95548255579009" lon="10.274324519946363"><ele>511.0</ele><time>2026-03-28T16:58:27.999Z</time></trkpt><trkpt lat="45.955527098823055" lon="10.274436885977003"><ele>510.6</ele><time>2026-03-28T16:58:28.999Z</time></trkpt><trkpt lat="45.955575434310234" lon="10.274540321017284"><ele>510.20000000000005</ele><time>2026-03-28T16:58:29.999Z</time></trkpt><trkpt lat="45.95562934915053" lon="10.274664929306113"><ele>509.79999999999995</ele><time>2026-03-28T16:58:30.999Z</time></trkpt><trkpt lat="45.95566999151345" lon="10.27479229038155"><ele>509.4</ele><time>2026-03-28T16:58:31.999Z</time></trkpt><trkpt lat="45.95570510921322" lon="10.27491016604953"><ele>509.0</ele><time>2026-03-28T16:58:32.999Z</time></trkpt><trkpt lat="45.955758731599346" lon="10.275022751592582"><ele>504.16666666666663</ele><time>2026-03-28T16:58:33.999Z</time></trkpt><trkpt lat="45.95579507072131" lon="10.275104402394126"><ele>499.3333333333333</ele><time>2026-03-28T16:58:34.999Z</time></trkpt><trkpt lat="45.955840515916385" lon="10.275200186806307"><ele>494.5</ele><time>2026-03-28T16:58:35.999Z</time></trkpt><trkpt lat="45.955890857561904" lon="10.275309412733986"><ele>489.66666666666663</ele><time>2026-03-28T16:58:36.999Z</time></trkpt><trkpt lat="45.955947201934585" lon="10.275413433728891"><ele>484.8333333333333</ele><time>2026-03-28T16:58:37.999Z</time></trkpt><trkpt lat="45.95600020526429" lon="10.275510505293001"><ele>480.0</ele><time>2026-03-28T16:58:38.999Z</time></trkpt><trkpt lat="45.9560454711381" lon="10.275601164107607"><ele>487.6666666666667</ele><time>2026-03-28T16:58:39.999Z</time></trkpt><trkpt lat="45.95607993760175" lon="10.275679603934131"><ele>495.33333333333337</ele><time>2026-03-28T16:58:41.999Z</time></trkpt><trkpt lat="45.95614407663706" lon="10.275691275547697"><ele>503.0</ele><time>2026-03-28T16:58:44.999Z</time></trkpt><trkpt lat="45.956124022280804" lon="10.275821062588042"><ele>510.6666666666667</ele><time>2026-03-28T16:58:48.999Z</time></trkpt><trkpt lat="45.95613646330971" lon="10.275943949428203"><ele>518.3333333333334</ele><time>2026-03-28T16:58:50.999Z</time></trkpt><trkpt lat="45.95616655319477" lon="10.27607838611541"><ele>526.0</ele><time>2026-03-28T16:58:52.999Z</time></trkpt><trkpt lat="45.95617917718796" lon="10.276220744911251"><ele>526.0</ele><time>2026-03-28T16:58:54.999Z</time></trkpt><trkpt lat="45.95616346302535" lon="10.27631830674642"><ele>526.0</ele><time>2026-03-28T16:58:57.999Z</time></trkpt><trkpt lat="45.95609287060158" lon="10.276340237459547"><ele>526.0</ele><time>2026-03-28T16:59:00.999Z</time></trkpt><trkpt lat="45.95602632459371" lon="10.276256955344572"><ele>526.0</ele><time>2026-03-28T16:59:02.999Z</time></trkpt><trkpt lat="45.95595254400345" lon="10.276137989748067"><ele>526.0</ele><time>2026-03-28T16:59:03.999Z</time></trkpt><trkpt lat="45.95591480205241" lon="10.27599345377632"><ele>526.0</ele><time>2026-03-28T16:59:04.999Z</time></trkpt><trkpt lat="45.95584100817576" lon="10.275879490720218"><ele>514.5</ele><time>2026-03-28T16:59:05.999Z</time></trkpt><trkpt lat="45.95576766510288" lon="10.275754278741928"><ele>503.0</ele><time>2026-03-28T16:59:06.999Z</time></trkpt><trkpt lat="45.955678201219406" lon="10.275650984488884"><ele>491.5</ele><time>2026-03-28T16:59:07.999Z</time></trkpt><trkpt lat="45.95559739123394" lon="10.275533057525854"><ele>480.0</ele><time>2026-03-28T16:59:08.999Z</time></trkpt><trkpt lat="45.95553089495716" lon="10.275404257450493"><ele>480.0</ele><time>2026-03-28T16:59:09.999Z</time></trkpt><trkpt lat="45.95546560396764" lon="10.275274961974429"><ele>480.0</ele><time>2026-03-28T16:59:10.999Z</time></trkpt><trkpt lat="45.95541722862204" lon="10.275154715438187"><ele>480.0</ele><time>2026-03-28T16:59:11.999Z</time></trkpt><trkpt lat="45.95535962615125" lon="10.275033029772466"><ele>480.0</ele><time>2026-03-28T16:59:12.999Z</time></trkpt><trkpt lat="45.9552809980429" lon="10.27490935448572"><ele>480.0</ele><time>2026-03-28T16:59:13.999Z</time></trkpt><trkpt lat="45.955204891466074" lon="10.2748016704467"><ele>485.8</ele><time>2026-03-28T16:59:14.999Z</time></trkpt><trkpt lat="45.955133345197964" lon="10.274669785216124"><ele>491.6</ele><time>2026-03-28T16:59:15.999Z</time></trkpt><trkpt lat="45.955072553171505" lon="10.274549992597013"><ele>497.4</ele><time>2026-03-28T16:59:16.999Z</time></trkpt><trkpt lat="45.955008244861645" lon="10.274449744703219"><ele>503.2</ele><time>2026-03-28T16:59:17.999Z</time></trkpt><trkpt lat="45.95492825640358" lon="10.274359055104043"><ele>509.0</ele><time>2026-03-28T16:59:18.999Z</time></trkpt><trkpt lat="45.954836264168165" lon="10.27426662251354"><ele>499.0</ele><time>2026-03-28T16:59:19.999Z</time></trkpt><trkpt lat="45.95476334806379" lon="10.274160588009009"><ele>489.0</ele><time>2026-03-28T16:59:20.999Z</time></trkpt><trkpt lat="45.954690014809245" lon="10.274045329365686"><ele>479.0</ele><time>2026-03-28T16:59:21.999Z</time></trkpt><trkpt lat="45.95462614084936" lon="10.273918961520328"><ele>469.0</ele><time>2026-03-28T16:59:22.999Z</time></trkpt><trkpt lat="45.954581109399946" lon="10.273787791911285"><ele>459.0</ele><time>2026-03-28T16:59:23.999Z</time></trkpt><trkpt lat="45.95454512939012" lon="10.27364201404935"><ele>459.0</ele><time>2026-03-28T16:59:24.999Z</time></trkpt><trkpt lat="45.95451622830488" lon="10.273539271674972"><ele>459.0</ele><time>2026-03-28T16:59:25.999Z</time></trkpt><trkpt lat="45.95445778281616" lon="10.273441258716312"><ele>459.0</ele><time>2026-03-28T16:59:26.999Z</time></trkpt><trkpt lat="45.954420924241134" lon="10.273351526112569"><ele>459.0</ele><time>2026-03-28T16:59:27.999Z</time></trkpt><trkpt lat="45.95436923713512" lon="10.273209594530364"><ele>459.0</ele><time>2026-03-28T16:59:29.999Z</time></trkpt><trkpt lat="45.95430371358951" lon="10.273269958087992"><ele>459.0</ele><time>2026-03-28T16:59:31.999Z</time></trkpt><trkpt lat="45.95424201612741" lon="10.273522514232049"><ele>459.0</ele><time>2026-03-28T16:59:33.999Z</time></trkpt><trkpt lat="45.95422221719224" lon="10.273673075549457"><ele>459.0</ele><time>2026-03-28T16:59:34.999Z</time></trkpt><trkpt lat="45.954249666628364" lon="10.273832859262543"><ele>459.0</ele><time>2026-03-28T16:59:35.999Z</time></trkpt><trkpt lat="45.95426333437698" lon="10.273985726092675"><ele>459.0</ele><time>2026-03-28T16:59:36.999Z</time></trkpt><trkpt lat="45.95427769634574" lon="10.274164820055844"><ele>456.0</ele><time>2026-03-28T16:59:37.999Z</time></trkpt><trkpt lat="45.954307709967445" lon="10.274333051295393"><ele>453.0</ele><time>2026-03-28T16:59:38.999Z</time></trkpt><trkpt lat="45.95435148232048" lon="10.274490698187515"><ele>450.0</ele><time>2026-03-28T16:59:39.999Z</time></trkpt><trkpt lat="45.954377434362314" lon="10.274662084384632"><ele>447.0</ele><time>2026-03-28T16:59:40.999Z</time></trkpt><trkpt lat="45.95439838817026" lon="10.27483184178116"><ele>440.0</ele><time>2026-03-28T16:59:41.999Z</time></trkpt><trkpt lat="45.954426444815454" lon="10.274996362332635"><ele>433.0</ele><time>2026-03-28T16:59:42.999Z</time></trkpt><trkpt lat="45.954455133847624" lon="10.275158493953388"><ele>426.0</ele><time>2026-03-28T16:59:43.999Z</time></trkpt><trkpt lat="45.954485884459594" lon="10.275332672679578"><ele>419.0</ele><time>2026-03-28T16:59:44.999Z</time></trkpt><trkpt lat="45.95451294772644" lon="10.275521698079132"><ele>413.0</ele><time>2026-03-28T16:59:45.999Z</time></trkpt><trkpt lat="45.95454036434203" lon="10.275710624803608"><ele>407.0</ele><time>2026-03-28T16:59:46.999Z</time></trkpt><trkpt lat="45.95456041472118" lon="10.275864386236298"><ele>401.0</ele><time>2026-03-28T16:59:47.999Z</time></trkpt><trkpt lat="45.95453648668082" lon="10.276013520952098"><ele>395.0</ele><time>2026-03-28T16:59:48.999Z</time></trkpt><trkpt lat="45.9546260030041" lon="10.276177099944382"><ele>394.99999999999994</ele><time>2026-03-28T16:59:50.999Z</time></trkpt><trkpt lat="45.954661286718924" lon="10.27626166818736"><ele>395.0</ele><time>2026-03-28T16:59:51.999Z</time></trkpt><trkpt lat="45.9546514568193" lon="10.276373376049529"><ele>395.0</ele><time>2026-03-28T16:59:53.999Z</time></trkpt><trkpt lat="45.954585745521214" lon="10.276364698820048"><ele>395.0</ele><time>2026-03-28T16:59:55.999Z</time></trkpt><trkpt lat="45.95452648501755" lon="10.276331021437683"><ele>394.99999999999994</ele><time>2026-03-28T16:59:56.999Z</time></trkpt><trkpt lat="45.95439403836546" lon="10.276248732085843"><ele>395.0</ele><time>2026-03-28T16:59:57.999Z</time></trkpt><trkpt lat="45.95431153811999" lon="10.276117642809957"><ele>395.0</ele><time>2026-03-28T16:59:58.999Z</time></trkpt><trkpt lat="45.95425508129195" lon="10.275992981473758"><ele>395.0</ele><time>2026-03-28T16:59:59.999Z</time></trkpt><trkpt lat="45.95421403216082" lon="10.275844502047208"><ele>395.0</ele><time>2026-03-28T17:00:00.999Z</time></trkpt><trkpt lat="45.95416864005507" lon="10.275719736256308"><ele>395.0</ele><time>2026-03-28T17:00:01.999Z</time></trkpt><trkpt lat="45.95414137845144" lon="10.275619214563358"><ele>395.0</ele><time>2026-03-28T17:00:02.999Z</time></trkpt><trkpt lat="45.954125127472764" lon="10.275440872880067"><ele>391.99999999999994</ele><time>2026-03-28T17:00:04.999Z</time></trkpt><trkpt lat="45.954157541335015" lon="10.275342531777666"><ele>389.0</ele><time>2026-03-28T17:00:06.999Z</time></trkpt><trkpt lat="45.95418328651721" lon="10.27517156417898"><ele>386.0</ele><time>2026-03-28T17:00:08.999Z</time></trkpt><trkpt lat="45.95417843518677" lon="10.27507194224064"><ele>383.0</ele><time>2026-03-28T17:00:09.999Z</time></trkpt><trkpt lat="45.95417779676999" lon="10.274948031580294"><ele>380.0</ele><time>2026-03-28T17:00:10.999Z</time></trkpt><trkpt lat="45.9541588286455" lon="10.274817135472778"><ele>377.0</ele><time>2026-03-28T17:00:11.999Z</time></trkpt><trkpt lat="45.95413234508101" lon="10.274677499110023"><ele>377.0</ele><time>2026-03-28T17:00:12.999Z</time></trkpt><trkpt lat="45.95409172157133" lon="10.27452756293677"><ele>377.0</ele><time>2026-03-28T17:00:13.999Z</time></trkpt><trkpt lat="45.95403578238147" lon="10.274363542574777"><ele>377.0</ele><time>2026-03-28T17:00:14.999Z</time></trkpt><trkpt lat="45.954004591129525" lon="10.274161211465405"><ele>377.0</ele><time>2026-03-28T17:00:15.999Z</time></trkpt><trkpt lat="45.953937116377084" lon="10.27397063181417"><ele>380.5</ele><time>2026-03-28T17:00:16.999Z</time></trkpt><trkpt lat="45.9538871592235" lon="10.273785154568243"><ele>384.0</ele><time>2026-03-28T17:00:17.999Z</time></trkpt><trkpt lat="45.953839022161084" lon="10.273606605488753"><ele>387.5</ele><time>2026-03-28T17:00:18.999Z</time></trkpt><trkpt lat="45.95379320022449" lon="10.27343555256873"><ele>391.0</ele><time>2026-03-28T17:00:19.999Z</time></trkpt><trkpt lat="45.95374732554857" lon="10.273267044270462"><ele>391.0</ele><time>2026-03-28T17:00:20.999Z</time></trkpt><trkpt lat="45.953694888744764" lon="10.273107139774849"><ele>391.0</ele><time>2026-03-28T17:00:21.999Z</time></trkpt><trkpt lat="45.95363027097088" lon="10.272959056359698"><ele>391.0</ele><time>2026-03-28T17:00:23Z</time></trkpt><trkpt lat="45.95358324782754" lon="10.272767584916403"><ele>391.0</ele><time>2026-03-28T17:00:24Z</time></trkpt><trkpt lat="45.95354439852236" lon="10.27259638929034"><ele>389.0</ele><time>2026-03-28T17:00:25Z</time></trkpt><trkpt lat="45.95349573306906" lon="10.272452388613974"><ele>387.0</ele><time>2026-03-28T17:00:26Z</time></trkpt><trkpt lat="45.953446227021864" lon="10.272311191387363"><ele>385.0</ele><time>2026-03-28T17:00:27Z</time></trkpt><trkpt lat="45.95339938200771" lon="10.272144269219934"><ele>383.0</ele><time>2026-03-28T17:00:28Z</time></trkpt><trkpt lat="45.9533846868352" lon="10.272012801698185"><ele>381.0</ele><time>2026-03-28T17:00:29Z</time></trkpt><trkpt lat="45.95337285227688" lon="10.27188546560635"><ele>380.6</ele><time>2026-03-28T17:00:30Z</time></trkpt><trkpt lat="45.95339161503001" lon="10.27172110745767"><ele>380.20000000000005</ele><time>2026-03-28T17:00:31Z</time></trkpt><trkpt lat="45.9534397506842" lon="10.271573970414947"><ele>379.79999999999995</ele><time>2026-03-28T17:00:32Z</time></trkpt><trkpt lat="45.95344739571879" lon="10.271424615718509"><ele>379.4</ele><time>2026-03-28T17:00:33Z</time></trkpt><trkpt lat="45.95346800943019" lon="10.271314244088531"><ele>379.0</ele><time>2026-03-28T17:00:34Z</time></trkpt><trkpt lat="45.95340064973345" lon="10.271178732425776"><ele>370.4</ele><time>2026-03-28T17:00:35Z</time></trkpt><trkpt lat="45.95331723858607" lon="10.271036838363266"><ele>361.79999999999995</ele><time>2026-03-28T17:00:36Z</time></trkpt><trkpt lat="45.9532401989194" lon="10.270906115423935"><ele>353.20000000000005</ele><time>2026-03-28T17:00:37Z</time></trkpt><trkpt lat="45.95318550428256" lon="10.27081297289844"><ele>344.6</ele><time>2026-03-28T17:00:38Z</time></trkpt><trkpt lat="45.95313552865355" lon="10.27075338456219"><ele>336.0</ele><time>2026-03-28T17:00:39Z</time></trkpt><trkpt lat="45.953069640952535" lon="10.270724254268432"><ele>336.0</ele><time>2026-03-28T17:00:40Z</time></trkpt><trkpt lat="45.95300299456725" lon="10.270759903094477"><ele>336.0</ele><time>2026-03-28T17:00:41Z</time></trkpt><trkpt lat="45.95293147946589" lon="10.270761665186301"><ele>336.0</ele><time>2026-03-28T17:00:42Z</time></trkpt><trkpt lat="45.95284619137525" lon="10.270694018973316"><ele>336.0</ele><time>2026-03-28T17:00:44Z</time></trkpt><trkpt lat="45.952782546637835" lon="10.2707659025996"><ele>336.0</ele><time>2026-03-28T17:00:46Z</time></trkpt><trkpt lat="45.95277962706193" lon="10.270873023524576"><ele>336.0</ele><time>2026-03-28T17:00:47Z</time></trkpt><trkpt lat="45.95278419728468" lon="10.271052637366129"><ele>336.0</ele><time>2026-03-28T17:00:48Z</time></trkpt><trkpt lat="45.952741141279425" lon="10.271228946637807"><ele>336.0</ele><time>2026-03-28T17:00:49Z</time></trkpt><trkpt lat="45.95268964750609" lon="10.271374461548943"><ele>336.0</ele><time>2026-03-28T17:00:50Z</time></trkpt><trkpt lat="45.952603860257334" lon="10.271508887339024"><ele>336.0</ele><time>2026-03-28T17:00:51Z</time></trkpt><trkpt lat="45.95249102750458" lon="10.27160605383382"><ele>331.40000000000003</ele><time>2026-03-28T17:00:52Z</time></trkpt><trkpt lat="45.952370268785295" lon="10.271677973567083"><ele>326.8</ele><time>2026-03-28T17:00:53Z</time></trkpt><trkpt lat="45.95228807906004" lon="10.271742810393878"><ele>322.20000000000005</ele><time>2026-03-28T17:00:54Z</time></trkpt><trkpt lat="45.952211849504046" lon="10.271819496281095"><ele>317.6</ele><time>2026-03-28T17:00:55Z</time></trkpt><trkpt lat="45.952186093361284" lon="10.271993746942695"><ele>313.0</ele><time>2026-03-28T17:00:56Z</time></trkpt><trkpt lat="45.952135120232334" lon="10.272147288478408"><ele>311.16666666666663</ele><time>2026-03-28T17:00:57Z</time></trkpt><trkpt lat="45.95208117718785" lon="10.27228019507034"><ele>309.3333333333333</ele><time>2026-03-28T17:00:58Z</time></trkpt><trkpt lat="45.95204765010942" lon="10.272402190242383"><ele>307.5</ele><time>2026-03-28T17:00:59Z</time></trkpt><trkpt lat="45.952031164576084" lon="10.272514810373796"><ele>305.6666666666667</ele><time>2026-03-28T17:01:00Z</time></trkpt><trkpt lat="45.95198575677748" lon="10.272586605884102"><ele>303.83333333333337</ele><time>2026-03-28T17:01:01Z</time></trkpt><trkpt lat="45.95192329545068" lon="10.272650252129358"><ele>302.0</ele><time>2026-03-28T17:01:02Z</time></trkpt><trkpt lat="45.95183493512111" lon="10.27264318224245"><ele>302.0</ele><time>2026-03-28T17:01:03Z</time></trkpt><trkpt lat="45.95173953572835" lon="10.27262981633044"><ele>302.0</ele><time>2026-03-28T17:01:04Z</time></trkpt><trkpt lat="45.95162640745945" lon="10.272558382147889"><ele>302.0</ele><time>2026-03-28T17:01:05Z</time></trkpt><trkpt lat="45.951533586497284" lon="10.27250804745657"><ele>302.0</ele><time>2026-03-28T17:01:06Z</time></trkpt><trkpt lat="45.951426419212765" lon="10.272447857534402"><ele>302.0</ele><time>2026-03-28T17:01:07Z</time></trkpt><trkpt lat="45.95135322231838" lon="10.272406746951743"><ele>305.5</ele><time>2026-03-28T17:01:08Z</time></trkpt><trkpt lat="45.95125746526368" lon="10.272352965031624"><ele>309.0</ele><time>2026-03-28T17:01:11Z</time></trkpt><trkpt lat="45.95121773112121" lon="10.27259048303028"><ele>312.5</ele><time>2026-03-28T17:01:12Z</time></trkpt><trkpt lat="45.951220435006775" lon="10.272725698014588"><ele>316.0</ele><time>2026-03-28T17:01:14Z</time></trkpt><trkpt lat="45.95117372320104" lon="10.272859017673708"><ele>316.0</ele><time>2026-03-28T17:01:15Z</time></trkpt><trkpt lat="45.95112142493383" lon="10.272993495833996"><ele>316.0</ele><time>2026-03-28T17:01:16Z</time></trkpt><trkpt lat="45.95107927911765" lon="10.273120614482833"><ele>316.0</ele><time>2026-03-28T17:01:17Z</time></trkpt><trkpt lat="45.951036948492415" lon="10.273231148053975"><ele>316.0</ele><time>2026-03-28T17:01:18Z</time></trkpt><trkpt lat="45.95098896923356" lon="10.273338490102386"><ele>316.0</ele><time>2026-03-28T17:01:19Z</time></trkpt><trkpt lat="45.95095531364155" lon="10.273433914310763"><ele>314.8333333333333</ele><time>2026-03-28T17:01:20Z</time></trkpt><trkpt lat="45.950909330869656" lon="10.273497783434959"><ele>313.66666666666663</ele><time>2026-03-28T17:01:21Z</time></trkpt><trkpt lat="45.95085196271757" lon="10.273535488904113"><ele>312.5</ele><time>2026-03-28T17:01:22Z</time></trkpt><trkpt lat="45.95078435032493" lon="10.273595737538745"><ele>311.3333333333333</ele><time>2026-03-28T17:01:23Z</time></trkpt><trkpt lat="45.950768865661836" lon="10.273807253259728"><ele>310.1666666666667</ele><time>2026-03-28T17:01:24Z</time></trkpt><trkpt lat="45.95071752930577" lon="10.27391936154607"><ele>309.0</ele><time>2026-03-28T17:01:25Z</time></trkpt><trkpt lat="45.95066596720153" lon="10.274028016442129"><ele>307.8333333333333</ele><time>2026-03-28T17:01:26Z</time></trkpt><trkpt lat="45.950614519585336" lon="10.27413643015008"><ele>306.6666666666667</ele><time>2026-03-28T17:01:27Z</time></trkpt><trkpt lat="45.950565346040285" lon="10.274240822765014"><ele>305.5</ele><time>2026-03-28T17:01:28Z</time></trkpt><trkpt lat="45.95052878508064" lon="10.27431843846557"><ele>304.33333333333337</ele><time>2026-03-28T17:01:29Z</time></trkpt><trkpt lat="45.95047321590778" lon="10.274435901923534"><ele>303.1666666666667</ele><time>2026-03-28T17:01:31Z</time></trkpt><trkpt lat="45.95045215244872" lon="10.274521253226638"><ele>302.0</ele><time>2026-03-28T17:01:35Z</time></trkpt><trkpt lat="45.950652980955084" lon="10.274531589173327"><ele>302.0</ele><time>2026-03-28T17:02:41Z</time></trkpt><trkpt lat="45.950711131955615" lon="10.274582343386745"><ele>302.0</ele><time>2026-03-28T17:02:50Z</time></trkpt><trkpt lat="45.95077160750501" lon="10.27463512642336"><ele>302.0</ele><time>2026-03-28T17:03:23Z</time></trkpt><trkpt lat="45.950861870435816" lon="10.274713907989955"><ele>302.0</ele><time>2026-03-28T17:03:48Z</time></trkpt><trkpt lat="45.95079904340247" lon="10.274659072291715"><ele>302.0</ele><time>2026-03-28T17:03:51Z</time></trkpt><trkpt lat="45.95071988898101" lon="10.274589986464887"><ele>302.0</ele><time>2026-03-28T17:04:15Z</time></trkpt><trkpt lat="45.950667959679016" lon="10.274727400052946"><ele>302.0</ele><time>2026-03-28T17:04:42Z</time></trkpt><trkpt lat="45.95059398802588" lon="10.27465658167601"><ele>302.0</ele><time>2026-03-28T17:05:12Z</time></trkpt></trkseg></trk></gpx>